<?xml version='1.0' encoding='UTF-8'?>
<gpx version="1.1" creator="https://www.komoot.de" xmlns="http://www.topografix.com/GPX/1/1" xmlns:xsi="http://www.w3.org/2001/XMLSchema-instance" xsi:schemaLocation="http://www.topografix.com/GPX/1/1 http://www.topografix.com/GPX/1/1/gpx.xsd">
  <metadata>
    <name>240908 RSC Gnannenweiler Challenge</name>
    <author>
      <link href="https://www.komoot.de">
        <text>komoot</text>
        <type>text/html</type>
      </link>
    </author>
  </metadata>
  <trk>
    <name>240908 RSC Gnannenweiler Challenge</name>
    <trkseg>
      <trkpt lat="48.581080" lon="10.023671">
        <ele>598.158081</ele>
        <time>2024-09-08T07:27:32.118Z</time>
      </trkpt>
      <trkpt lat="48.581036" lon="10.023209">
        <ele>598.158081</ele>
        <time>2024-09-08T07:27:33.908Z</time>
      </trkpt>
      <trkpt lat="48.581022" lon="10.023350">
        <ele>598.158081</ele>
        <time>2024-09-08T07:27:38.998Z</time>
      </trkpt>
      <trkpt lat="48.580967" lon="10.023840">
        <ele>598.158081</ele>
        <time>2024-09-08T07:33:40.999Z</time>
      </trkpt>
      <trkpt lat="48.580958" lon="10.024023">
        <ele>598.158081</ele>
        <time>2024-09-08T07:33:42.999Z</time>
      </trkpt>
      <trkpt lat="48.580946" lon="10.024228">
        <ele>598.200777</ele>
        <time>2024-09-08T07:33:44.999Z</time>
      </trkpt>
      <trkpt lat="48.580953" lon="10.024458">
        <ele>598.272924</ele>
        <time>2024-09-08T07:33:46.999Z</time>
      </trkpt>
      <trkpt lat="48.580949" lon="10.024665">
        <ele>598.337815</ele>
        <time>2024-09-08T07:33:48.999Z</time>
      </trkpt>
      <trkpt lat="48.580919" lon="10.024812">
        <ele>598.386020</ele>
        <time>2024-09-08T07:33:51.999Z</time>
      </trkpt>
      <trkpt lat="48.581033" lon="10.024931">
        <ele>598.451640</ele>
        <time>2024-09-08T07:33:55.999Z</time>
      </trkpt>
      <trkpt lat="48.581128" lon="10.024945">
        <ele>598.496850</ele>
        <time>2024-09-08T07:33:57.999Z</time>
      </trkpt>
      <trkpt lat="48.581238" lon="10.024976">
        <ele>598.549850</ele>
        <time>2024-09-08T07:34:00.999Z</time>
      </trkpt>
      <trkpt lat="48.581334" lon="10.024992">
        <ele>598.595596</ele>
        <time>2024-09-08T07:34:04.000Z</time>
      </trkpt>
      <trkpt lat="48.581432" lon="10.024981">
        <ele>598.642142</ele>
        <time>2024-09-08T07:34:07.000Z</time>
      </trkpt>
      <trkpt lat="48.581532" lon="10.024987">
        <ele>598.689544</ele>
        <time>2024-09-08T07:34:09.000Z</time>
      </trkpt>
      <trkpt lat="48.581628" lon="10.024999">
        <ele>598.735170</ele>
        <time>2024-09-08T07:34:11.000Z</time>
      </trkpt>
      <trkpt lat="48.581714" lon="10.025093">
        <ele>598.785438</ele>
        <time>2024-09-08T07:34:13.000Z</time>
      </trkpt>
      <trkpt lat="48.581772" lon="10.025248">
        <ele>598.841237</ele>
        <time>2024-09-08T07:34:15.000Z</time>
      </trkpt>
      <trkpt lat="48.581803" lon="10.025409">
        <ele>598.893779</ele>
        <time>2024-09-08T07:34:17.000Z</time>
      </trkpt>
      <trkpt lat="48.581827" lon="10.025579">
        <ele>598.948247</ele>
        <time>2024-09-08T07:34:19.000Z</time>
      </trkpt>
      <trkpt lat="48.581852" lon="10.025759">
        <ele>599.005879</ele>
        <time>2024-09-08T07:34:21.000Z</time>
      </trkpt>
      <trkpt lat="48.581869" lon="10.025937">
        <ele>599.397335</ele>
        <time>2024-09-08T07:34:23.000Z</time>
      </trkpt>
      <trkpt lat="48.581875" lon="10.026121">
        <ele>599.825496</ele>
        <time>2024-09-08T07:34:25.000Z</time>
      </trkpt>
      <trkpt lat="48.581874" lon="10.026300">
        <ele>600.241531</ele>
        <time>2024-09-08T07:34:27.000Z</time>
      </trkpt>
      <trkpt lat="48.581871" lon="10.026480">
        <ele>600.660008</ele>
        <time>2024-09-08T07:34:29.000Z</time>
      </trkpt>
      <trkpt lat="48.581858" lon="10.026656">
        <ele>601.071598</ele>
        <time>2024-09-08T07:34:31.000Z</time>
      </trkpt>
      <trkpt lat="48.581862" lon="10.026846">
        <ele>601.513408</ele>
        <time>2024-09-08T07:34:33.000Z</time>
      </trkpt>
      <trkpt lat="48.581864" lon="10.027020">
        <ele>601.917869</ele>
        <time>2024-09-08T07:34:35.000Z</time>
      </trkpt>
      <trkpt lat="48.581866" lon="10.027204">
        <ele>602.345568</ele>
        <time>2024-09-08T07:34:37.000Z</time>
      </trkpt>
      <trkpt lat="48.581868" lon="10.027386">
        <ele>602.768619</ele>
        <time>2024-09-08T07:34:39.000Z</time>
      </trkpt>
      <trkpt lat="48.581869" lon="10.027561">
        <ele>603.175358</ele>
        <time>2024-09-08T07:34:40.999Z</time>
      </trkpt>
      <trkpt lat="48.581864" lon="10.027745">
        <ele>603.603360</ele>
        <time>2024-09-08T07:34:42.999Z</time>
      </trkpt>
      <trkpt lat="48.581870" lon="10.027935">
        <ele>604.045449</ele>
        <time>2024-09-08T07:34:44.999Z</time>
      </trkpt>
      <trkpt lat="48.581886" lon="10.028124">
        <ele>604.488293</ele>
        <time>2024-09-08T07:34:46.999Z</time>
      </trkpt>
      <trkpt lat="48.581903" lon="10.028293">
        <ele>604.885586</ele>
        <time>2024-09-08T07:34:48.999Z</time>
      </trkpt>
      <trkpt lat="48.581924" lon="10.028478">
        <ele>605.321835</ele>
        <time>2024-09-08T07:34:50.999Z</time>
      </trkpt>
      <trkpt lat="48.581944" lon="10.028650">
        <ele>605.217158</ele>
        <time>2024-09-08T07:34:52.999Z</time>
      </trkpt>
      <trkpt lat="48.581971" lon="10.028823">
        <ele>605.101334</ele>
        <time>2024-09-08T07:34:54.999Z</time>
      </trkpt>
      <trkpt lat="48.581991" lon="10.028994">
        <ele>604.988179</ele>
        <time>2024-09-08T07:34:56.999Z</time>
      </trkpt>
      <trkpt lat="48.582004" lon="10.029170">
        <ele>604.872781</ele>
        <time>2024-09-08T07:34:58.999Z</time>
      </trkpt>
      <trkpt lat="48.582020" lon="10.029355">
        <ele>604.751205</ele>
        <time>2024-09-08T07:35:00.999Z</time>
      </trkpt>
      <trkpt lat="48.582032" lon="10.029547">
        <ele>604.625537</ele>
        <time>2024-09-08T07:35:02.999Z</time>
      </trkpt>
      <trkpt lat="48.582036" lon="10.029764">
        <ele>604.484081</ele>
        <time>2024-09-08T07:35:04.999Z</time>
      </trkpt>
      <trkpt lat="48.582045" lon="10.029986">
        <ele>604.339150</ele>
        <time>2024-09-08T07:35:06.999Z</time>
      </trkpt>
      <trkpt lat="48.582049" lon="10.030221">
        <ele>604.185969</ele>
        <time>2024-09-08T07:35:08.999Z</time>
      </trkpt>
      <trkpt lat="48.582050" lon="10.030463">
        <ele>604.028274</ele>
        <time>2024-09-08T07:35:10.999Z</time>
      </trkpt>
      <trkpt lat="48.582054" lon="10.030704">
        <ele>603.871185</ele>
        <time>2024-09-08T07:35:12.999Z</time>
      </trkpt>
      <trkpt lat="48.582052" lon="10.030966">
        <ele>603.700449</ele>
        <time>2024-09-08T07:35:14.999Z</time>
      </trkpt>
      <trkpt lat="48.582068" lon="10.031216">
        <ele>603.507831</ele>
        <time>2024-09-08T07:35:16.999Z</time>
      </trkpt>
      <trkpt lat="48.582113" lon="10.031461">
        <ele>603.108402</ele>
        <time>2024-09-08T07:35:18.999Z</time>
      </trkpt>
      <trkpt lat="48.582141" lon="10.031715">
        <ele>602.703893</ele>
        <time>2024-09-08T07:35:20.999Z</time>
      </trkpt>
      <trkpt lat="48.582186" lon="10.031967">
        <ele>602.293859</ele>
        <time>2024-09-08T07:35:22.999Z</time>
      </trkpt>
      <trkpt lat="48.582203" lon="10.032226">
        <ele>601.885000</ele>
        <time>2024-09-08T07:35:24.999Z</time>
      </trkpt>
      <trkpt lat="48.582241" lon="10.032468">
        <ele>601.494282</ele>
        <time>2024-09-08T07:35:26.999Z</time>
      </trkpt>
      <trkpt lat="48.582256" lon="10.032604">
        <ele>601.277692</ele>
        <time>2024-09-08T07:35:27.999Z</time>
      </trkpt>
      <trkpt lat="48.582294" lon="10.032861">
        <ele>600.864012</ele>
        <time>2024-09-08T07:35:29.999Z</time>
      </trkpt>
      <trkpt lat="48.582337" lon="10.033123">
        <ele>600.439962</ele>
        <time>2024-09-08T07:35:31.999Z</time>
      </trkpt>
      <trkpt lat="48.582352" lon="10.033258">
        <ele>600.224921</ele>
        <time>2024-09-08T07:35:32.999Z</time>
      </trkpt>
      <trkpt lat="48.582391" lon="10.033525">
        <ele>599.795392</ele>
        <time>2024-09-08T07:35:34.999Z</time>
      </trkpt>
      <trkpt lat="48.582409" lon="10.033660">
        <ele>599.579058</ele>
        <time>2024-09-08T07:35:35.999Z</time>
      </trkpt>
      <trkpt lat="48.582429" lon="10.033793">
        <ele>599.364800</ele>
        <time>2024-09-08T07:35:36.999Z</time>
      </trkpt>
      <trkpt lat="48.582450" lon="10.033928">
        <ele>599.160701</ele>
        <time>2024-09-08T07:35:37.999Z</time>
      </trkpt>
      <trkpt lat="48.582490" lon="10.034190">
        <ele>598.780010</ele>
        <time>2024-09-08T07:35:39.999Z</time>
      </trkpt>
      <trkpt lat="48.582509" lon="10.034323">
        <ele>598.587367</ele>
        <time>2024-09-08T07:35:40.999Z</time>
      </trkpt>
      <trkpt lat="48.582551" lon="10.034587">
        <ele>598.202938</ele>
        <time>2024-09-08T07:35:42.999Z</time>
      </trkpt>
      <trkpt lat="48.582596" lon="10.034848">
        <ele>597.821070</ele>
        <time>2024-09-08T07:35:44.999Z</time>
      </trkpt>
      <trkpt lat="48.582640" lon="10.035110">
        <ele>597.438363</ele>
        <time>2024-09-08T07:35:46.999Z</time>
      </trkpt>
      <trkpt lat="48.582688" lon="10.035373">
        <ele>597.052097</ele>
        <time>2024-09-08T07:35:48.999Z</time>
      </trkpt>
      <trkpt lat="48.582715" lon="10.035506">
        <ele>596.855129</ele>
        <time>2024-09-08T07:35:49.999Z</time>
      </trkpt>
      <trkpt lat="48.582740" lon="10.035640">
        <ele>596.658011</ele>
        <time>2024-09-08T07:35:50.999Z</time>
      </trkpt>
      <trkpt lat="48.582764" lon="10.035772">
        <ele>596.464196</ele>
        <time>2024-09-08T07:35:51.999Z</time>
      </trkpt>
      <trkpt lat="48.582821" lon="10.036027">
        <ele>596.083114</ele>
        <time>2024-09-08T07:35:53.999Z</time>
      </trkpt>
      <trkpt lat="48.582877" lon="10.036286">
        <ele>595.697334</ele>
        <time>2024-09-08T07:35:55.999Z</time>
      </trkpt>
      <trkpt lat="48.582906" lon="10.036415">
        <ele>595.504439</ele>
        <time>2024-09-08T07:35:56.999Z</time>
      </trkpt>
      <trkpt lat="48.582942" lon="10.036546">
        <ele>595.428598</ele>
        <time>2024-09-08T07:35:57.999Z</time>
      </trkpt>
      <trkpt lat="48.583009" lon="10.036798">
        <ele>595.404684</ele>
        <time>2024-09-08T07:35:59.999Z</time>
      </trkpt>
      <trkpt lat="48.583042" lon="10.036930">
        <ele>595.392258</ele>
        <time>2024-09-08T07:36:01.000Z</time>
      </trkpt>
      <trkpt lat="48.583073" lon="10.037058">
        <ele>595.380255</ele>
        <time>2024-09-08T07:36:02.000Z</time>
      </trkpt>
      <trkpt lat="48.583141" lon="10.037313">
        <ele>595.356046</ele>
        <time>2024-09-08T07:36:04.000Z</time>
      </trkpt>
      <trkpt lat="48.583201" lon="10.037570">
        <ele>595.332048</ele>
        <time>2024-09-08T07:36:05.999Z</time>
      </trkpt>
      <trkpt lat="48.583229" lon="10.037700">
        <ele>595.320009</ele>
        <time>2024-09-08T07:36:06.999Z</time>
      </trkpt>
      <trkpt lat="48.583261" lon="10.037831">
        <ele>595.307713</ele>
        <time>2024-09-08T07:36:07.999Z</time>
      </trkpt>
      <trkpt lat="48.583292" lon="10.037959">
        <ele>595.295710</ele>
        <time>2024-09-08T07:36:08.999Z</time>
      </trkpt>
      <trkpt lat="48.583320" lon="10.038088">
        <ele>595.283755</ele>
        <time>2024-09-08T07:36:09.999Z</time>
      </trkpt>
      <trkpt lat="48.583374" lon="10.038347">
        <ele>595.259844</ele>
        <time>2024-09-08T07:36:11.999Z</time>
      </trkpt>
      <trkpt lat="48.583426" lon="10.038605">
        <ele>595.236095</ele>
        <time>2024-09-08T07:36:13.999Z</time>
      </trkpt>
      <trkpt lat="48.583475" lon="10.038859">
        <ele>595.212797</ele>
        <time>2024-09-08T07:36:15.999Z</time>
      </trkpt>
      <trkpt lat="48.583525" lon="10.039103">
        <ele>595.341286</ele>
        <time>2024-09-08T07:36:18.000Z</time>
      </trkpt>
      <trkpt lat="48.583575" lon="10.039337">
        <ele>595.775516</ele>
        <time>2024-09-08T07:36:20.000Z</time>
      </trkpt>
      <trkpt lat="48.583627" lon="10.039568">
        <ele>596.206399</ele>
        <time>2024-09-08T07:36:22.000Z</time>
      </trkpt>
      <trkpt lat="48.583685" lon="10.039789">
        <ele>596.626241</ele>
        <time>2024-09-08T07:36:24.000Z</time>
      </trkpt>
      <trkpt lat="48.583747" lon="10.040003">
        <ele>597.038785</ele>
        <time>2024-09-08T07:36:26.000Z</time>
      </trkpt>
      <trkpt lat="48.583817" lon="10.040205">
        <ele>597.441464</ele>
        <time>2024-09-08T07:36:28.000Z</time>
      </trkpt>
      <trkpt lat="48.583893" lon="10.040398">
        <ele>597.838083</ele>
        <time>2024-09-08T07:36:30.000Z</time>
      </trkpt>
      <trkpt lat="48.583978" lon="10.040581">
        <ele>598.232933</ele>
        <time>2024-09-08T07:36:32.000Z</time>
      </trkpt>
      <trkpt lat="48.584062" lon="10.040749">
        <ele>598.604800</ele>
        <time>2024-09-08T07:36:34.000Z</time>
      </trkpt>
      <trkpt lat="48.584148" lon="10.040907">
        <ele>598.966107</ele>
        <time>2024-09-08T07:36:36.000Z</time>
      </trkpt>
      <trkpt lat="48.584241" lon="10.041057">
        <ele>599.329131</ele>
        <time>2024-09-08T07:36:38.000Z</time>
      </trkpt>
      <trkpt lat="48.584337" lon="10.041202">
        <ele>599.691385</ele>
        <time>2024-09-08T07:36:40.000Z</time>
      </trkpt>
      <trkpt lat="48.584441" lon="10.041338">
        <ele>600.030234</ele>
        <time>2024-09-08T07:36:42.000Z</time>
      </trkpt>
      <trkpt lat="48.584547" lon="10.041464">
        <ele>600.220172</ele>
        <time>2024-09-08T07:36:44.000Z</time>
      </trkpt>
      <trkpt lat="48.584663" lon="10.041573">
        <ele>600.412557</ele>
        <time>2024-09-08T07:36:46.000Z</time>
      </trkpt>
      <trkpt lat="48.584781" lon="10.041667">
        <ele>600.600433</ele>
        <time>2024-09-08T07:36:48.000Z</time>
      </trkpt>
      <trkpt lat="48.584902" lon="10.041750">
        <ele>600.787594</ele>
        <time>2024-09-08T07:36:50.000Z</time>
      </trkpt>
      <trkpt lat="48.585027" lon="10.041808">
        <ele>600.971770</ele>
        <time>2024-09-08T07:36:52.000Z</time>
      </trkpt>
      <trkpt lat="48.585157" lon="10.041849">
        <ele>601.158825</ele>
        <time>2024-09-08T07:36:54.000Z</time>
      </trkpt>
      <trkpt lat="48.585282" lon="10.041868">
        <ele>601.335783</ele>
        <time>2024-09-08T07:36:56.000Z</time>
      </trkpt>
      <trkpt lat="48.585407" lon="10.041869">
        <ele>601.511855</ele>
        <time>2024-09-08T07:36:58.000Z</time>
      </trkpt>
      <trkpt lat="48.585529" lon="10.041843">
        <ele>601.685398</ele>
        <time>2024-09-08T07:37:00.000Z</time>
      </trkpt>
      <trkpt lat="48.585658" lon="10.041797">
        <ele>601.872088</ele>
        <time>2024-09-08T07:37:02.000Z</time>
      </trkpt>
      <trkpt lat="48.585786" lon="10.041729">
        <ele>602.063192</ele>
        <time>2024-09-08T07:37:04.000Z</time>
      </trkpt>
      <trkpt lat="48.585912" lon="10.041635">
        <ele>602.261105</ele>
        <time>2024-09-08T07:37:06.000Z</time>
      </trkpt>
      <trkpt lat="48.586032" lon="10.041521">
        <ele>602.460737</ele>
        <time>2024-09-08T07:37:08.000Z</time>
      </trkpt>
      <trkpt lat="48.586144" lon="10.041379">
        <ele>602.293664</ele>
        <time>2024-09-08T07:37:10.000Z</time>
      </trkpt>
      <trkpt lat="48.586248" lon="10.041214">
        <ele>601.916897</ele>
        <time>2024-09-08T07:37:12.000Z</time>
      </trkpt>
      <trkpt lat="48.586339" lon="10.041022">
        <ele>601.526433</ele>
        <time>2024-09-08T07:37:14.000Z</time>
      </trkpt>
      <trkpt lat="48.586416" lon="10.040811">
        <ele>601.128064</ele>
        <time>2024-09-08T07:37:16.000Z</time>
      </trkpt>
      <trkpt lat="48.586485" lon="10.040586">
        <ele>600.718083</ele>
        <time>2024-09-08T07:37:18.000Z</time>
      </trkpt>
      <trkpt lat="48.586546" lon="10.040352">
        <ele>600.302298</ele>
        <time>2024-09-08T07:37:20.000Z</time>
      </trkpt>
      <trkpt lat="48.586607" lon="10.040113">
        <ele>599.878812</ele>
        <time>2024-09-08T07:37:22.000Z</time>
      </trkpt>
      <trkpt lat="48.586673" lon="10.039873">
        <ele>599.449144</ele>
        <time>2024-09-08T07:37:24.000Z</time>
      </trkpt>
      <trkpt lat="48.586732" lon="10.039629">
        <ele>599.019678</ele>
        <time>2024-09-08T07:37:25.999Z</time>
      </trkpt>
      <trkpt lat="48.586773" lon="10.039371">
        <ele>598.581039</ele>
        <time>2024-09-08T07:37:27.999Z</time>
      </trkpt>
      <trkpt lat="48.586806" lon="10.039111">
        <ele>598.143389</ele>
        <time>2024-09-08T07:37:29.999Z</time>
      </trkpt>
      <trkpt lat="48.586825" lon="10.038841">
        <ele>597.694109</ele>
        <time>2024-09-08T07:37:31.999Z</time>
      </trkpt>
      <trkpt lat="48.586859" lon="10.038576">
        <ele>597.247322</ele>
        <time>2024-09-08T07:37:33.999Z</time>
      </trkpt>
      <trkpt lat="48.586864" lon="10.038436">
        <ele>597.015265</ele>
        <time>2024-09-08T07:37:34.999Z</time>
      </trkpt>
      <trkpt lat="48.586872" lon="10.038296">
        <ele>596.782683</ele>
        <time>2024-09-08T07:37:35.999Z</time>
      </trkpt>
      <trkpt lat="48.586883" lon="10.038158">
        <ele>596.552621</ele>
        <time>2024-09-08T07:37:36.999Z</time>
      </trkpt>
      <trkpt lat="48.586896" lon="10.038020">
        <ele>596.321907</ele>
        <time>2024-09-08T07:37:37.999Z</time>
      </trkpt>
      <trkpt lat="48.586915" lon="10.037879">
        <ele>596.083739</ele>
        <time>2024-09-08T07:37:38.999Z</time>
      </trkpt>
      <trkpt lat="48.586943" lon="10.037745">
        <ele>595.851148</ele>
        <time>2024-09-08T07:37:39.999Z</time>
      </trkpt>
      <trkpt lat="48.586980" lon="10.037610">
        <ele>595.609284</ele>
        <time>2024-09-08T07:37:40.999Z</time>
      </trkpt>
      <trkpt lat="48.587032" lon="10.037481">
        <ele>595.359251</ele>
        <time>2024-09-08T07:37:41.999Z</time>
      </trkpt>
      <trkpt lat="48.587095" lon="10.037367">
        <ele>595.113382</ele>
        <time>2024-09-08T07:37:42.999Z</time>
      </trkpt>
      <trkpt lat="48.587168" lon="10.037272">
        <ele>594.872368</ele>
        <time>2024-09-08T07:37:43.999Z</time>
      </trkpt>
      <trkpt lat="48.587252" lon="10.037193">
        <ele>594.624834</ele>
        <time>2024-09-08T07:37:44.999Z</time>
      </trkpt>
      <trkpt lat="48.587342" lon="10.037125">
        <ele>594.373081</ele>
        <time>2024-09-08T07:37:45.999Z</time>
      </trkpt>
      <trkpt lat="48.587445" lon="10.037082">
        <ele>594.105711</ele>
        <time>2024-09-08T07:37:46.999Z</time>
      </trkpt>
      <trkpt lat="48.587545" lon="10.037051">
        <ele>593.850289</ele>
        <time>2024-09-08T07:37:47.999Z</time>
      </trkpt>
      <trkpt lat="48.587651" lon="10.037049">
        <ele>593.585039</ele>
        <time>2024-09-08T07:37:48.999Z</time>
      </trkpt>
      <trkpt lat="48.587751" lon="10.037009">
        <ele>593.221371</ele>
        <time>2024-09-08T07:37:49.999Z</time>
      </trkpt>
      <trkpt lat="48.587854" lon="10.036980">
        <ele>592.828648</ele>
        <time>2024-09-08T07:37:50.999Z</time>
      </trkpt>
      <trkpt lat="48.587943" lon="10.036911">
        <ele>592.453730</ele>
        <time>2024-09-08T07:37:51.999Z</time>
      </trkpt>
      <trkpt lat="48.588024" lon="10.036821">
        <ele>592.076926</ele>
        <time>2024-09-08T07:37:52.999Z</time>
      </trkpt>
      <trkpt lat="48.588098" lon="10.036707">
        <ele>591.680902</ele>
        <time>2024-09-08T07:37:53.999Z</time>
      </trkpt>
      <trkpt lat="48.588167" lon="10.036592">
        <ele>591.295938</ele>
        <time>2024-09-08T07:37:54.999Z</time>
      </trkpt>
      <trkpt lat="48.588230" lon="10.036470">
        <ele>590.912184</ele>
        <time>2024-09-08T07:37:55.999Z</time>
      </trkpt>
      <trkpt lat="48.588292" lon="10.036350">
        <ele>590.534645</ele>
        <time>2024-09-08T07:37:56.999Z</time>
      </trkpt>
      <trkpt lat="48.588352" lon="10.036224">
        <ele>590.149702</ele>
        <time>2024-09-08T07:37:57.999Z</time>
      </trkpt>
      <trkpt lat="48.588417" lon="10.036105">
        <ele>589.767055</ele>
        <time>2024-09-08T07:37:58.999Z</time>
      </trkpt>
      <trkpt lat="48.588479" lon="10.035979">
        <ele>589.377685</ele>
        <time>2024-09-08T07:37:59.999Z</time>
      </trkpt>
      <trkpt lat="48.588542" lon="10.035860">
        <ele>588.999767</ele>
        <time>2024-09-08T07:38:00.999Z</time>
      </trkpt>
      <trkpt lat="48.588607" lon="10.035743">
        <ele>588.620931</ele>
        <time>2024-09-08T07:38:01.999Z</time>
      </trkpt>
      <trkpt lat="48.588671" lon="10.035629">
        <ele>588.250197</ele>
        <time>2024-09-08T07:38:02.999Z</time>
      </trkpt>
      <trkpt lat="48.588743" lon="10.035525">
        <ele>587.876929</ele>
        <time>2024-09-08T07:38:03.999Z</time>
      </trkpt>
      <trkpt lat="48.588821" lon="10.035425">
        <ele>587.493578</ele>
        <time>2024-09-08T07:38:04.999Z</time>
      </trkpt>
      <trkpt lat="48.588903" lon="10.035335">
        <ele>587.113749</ele>
        <time>2024-09-08T07:38:05.999Z</time>
      </trkpt>
      <trkpt lat="48.588985" lon="10.035248">
        <ele>586.746319</ele>
        <time>2024-09-08T07:38:07.000Z</time>
      </trkpt>
      <trkpt lat="48.589071" lon="10.035166">
        <ele>586.419743</ele>
        <time>2024-09-08T07:38:08.000Z</time>
      </trkpt>
      <trkpt lat="48.589161" lon="10.035088">
        <ele>586.086536</ele>
        <time>2024-09-08T07:38:09.000Z</time>
      </trkpt>
      <trkpt lat="48.589261" lon="10.035041">
        <ele>585.750178</ele>
        <time>2024-09-08T07:38:10.000Z</time>
      </trkpt>
      <trkpt lat="48.589358" lon="10.034976">
        <ele>585.409385</ele>
        <time>2024-09-08T07:38:11.000Z</time>
      </trkpt>
      <trkpt lat="48.589461" lon="10.034905">
        <ele>585.045788</ele>
        <time>2024-09-08T07:38:12.000Z</time>
      </trkpt>
      <trkpt lat="48.589564" lon="10.034847">
        <ele>584.692754</ele>
        <time>2024-09-08T07:38:13.000Z</time>
      </trkpt>
      <trkpt lat="48.589675" lon="10.034809">
        <ele>584.327201</ele>
        <time>2024-09-08T07:38:14.000Z</time>
      </trkpt>
      <trkpt lat="48.589782" lon="10.034765">
        <ele>583.971036</ele>
        <time>2024-09-08T07:38:15.000Z</time>
      </trkpt>
      <trkpt lat="48.589889" lon="10.034727">
        <ele>583.618002</ele>
        <time>2024-09-08T07:38:16.000Z</time>
      </trkpt>
      <trkpt lat="48.590000" lon="10.034693">
        <ele>583.254232</ele>
        <time>2024-09-08T07:38:17.000Z</time>
      </trkpt>
      <trkpt lat="48.590115" lon="10.034672">
        <ele>582.882173</ele>
        <time>2024-09-08T07:38:18.000Z</time>
      </trkpt>
      <trkpt lat="48.590233" lon="10.034655">
        <ele>582.501445</ele>
        <time>2024-09-08T07:38:19.000Z</time>
      </trkpt>
      <trkpt lat="48.590350" lon="10.034633">
        <ele>582.122752</ele>
        <time>2024-09-08T07:38:20.000Z</time>
      </trkpt>
      <trkpt lat="48.590469" lon="10.034620">
        <ele>581.739533</ele>
        <time>2024-09-08T07:38:21.000Z</time>
      </trkpt>
      <trkpt lat="48.590588" lon="10.034604">
        <ele>581.355802</ele>
        <time>2024-09-08T07:38:22.000Z</time>
      </trkpt>
      <trkpt lat="48.590702" lon="10.034583">
        <ele>580.940914</ele>
        <time>2024-09-08T07:38:23.000Z</time>
      </trkpt>
      <trkpt lat="48.590822" lon="10.034571">
        <ele>579.973591</ele>
        <time>2024-09-08T07:38:24.000Z</time>
      </trkpt>
      <trkpt lat="48.590947" lon="10.034552">
        <ele>578.963091</ele>
        <time>2024-09-08T07:38:25.000Z</time>
      </trkpt>
      <trkpt lat="48.591073" lon="10.034531">
        <ele>577.943476</ele>
        <time>2024-09-08T07:38:26.000Z</time>
      </trkpt>
      <trkpt lat="48.591203" lon="10.034511">
        <ele>576.892428</ele>
        <time>2024-09-08T07:38:27.000Z</time>
      </trkpt>
      <trkpt lat="48.591330" lon="10.034490">
        <ele>575.864818</ele>
        <time>2024-09-08T07:38:28.000Z</time>
      </trkpt>
      <trkpt lat="48.591455" lon="10.034468">
        <ele>574.852597</ele>
        <time>2024-09-08T07:38:29.000Z</time>
      </trkpt>
      <trkpt lat="48.591584" lon="10.034447">
        <ele>573.808995</ele>
        <time>2024-09-08T07:38:30.000Z</time>
      </trkpt>
      <trkpt lat="48.591706" lon="10.034420">
        <ele>572.817236</ele>
        <time>2024-09-08T07:38:31.000Z</time>
      </trkpt>
      <trkpt lat="48.591828" lon="10.034386">
        <ele>571.819403</ele>
        <time>2024-09-08T07:38:32.000Z</time>
      </trkpt>
      <trkpt lat="48.591949" lon="10.034348">
        <ele>570.825371</ele>
        <time>2024-09-08T07:38:33.000Z</time>
      </trkpt>
      <trkpt lat="48.592072" lon="10.034321">
        <ele>569.825653</ele>
        <time>2024-09-08T07:38:34.000Z</time>
      </trkpt>
      <trkpt lat="48.592188" lon="10.034256">
        <ele>568.830593</ele>
        <time>2024-09-08T07:38:35.000Z</time>
      </trkpt>
      <trkpt lat="48.592300" lon="10.034181">
        <ele>567.845320</ele>
        <time>2024-09-08T07:38:36.000Z</time>
      </trkpt>
      <trkpt lat="48.592413" lon="10.034094">
        <ele>566.825349</ele>
        <time>2024-09-08T07:38:37.000Z</time>
      </trkpt>
      <trkpt lat="48.592523" lon="10.034005">
        <ele>565.938387</ele>
        <time>2024-09-08T07:38:38.000Z</time>
      </trkpt>
      <trkpt lat="48.592633" lon="10.033914">
        <ele>565.091193</ele>
        <time>2024-09-08T07:38:39.000Z</time>
      </trkpt>
      <trkpt lat="48.592745" lon="10.033819">
        <ele>564.223515</ele>
        <time>2024-09-08T07:38:40.000Z</time>
      </trkpt>
      <trkpt lat="48.592855" lon="10.033724">
        <ele>563.367597</ele>
        <time>2024-09-08T07:38:41.000Z</time>
      </trkpt>
      <trkpt lat="48.592968" lon="10.033625">
        <ele>562.485197</ele>
        <time>2024-09-08T07:38:42.000Z</time>
      </trkpt>
      <trkpt lat="48.593081" lon="10.033526">
        <ele>561.602797</ele>
        <time>2024-09-08T07:38:43.000Z</time>
      </trkpt>
      <trkpt lat="48.593184" lon="10.033410">
        <ele>560.735033</ele>
        <time>2024-09-08T07:38:44.000Z</time>
      </trkpt>
      <trkpt lat="48.593301" lon="10.033321">
        <ele>559.850113</ele>
        <time>2024-09-08T07:38:45.000Z</time>
      </trkpt>
      <trkpt lat="48.593412" lon="10.033222">
        <ele>558.979380</ele>
        <time>2024-09-08T07:38:46.000Z</time>
      </trkpt>
      <trkpt lat="48.593528" lon="10.033128">
        <ele>558.090157</ele>
        <time>2024-09-08T07:38:47.000Z</time>
      </trkpt>
      <trkpt lat="48.593638" lon="10.033019">
        <ele>557.201550</ele>
        <time>2024-09-08T07:38:48.000Z</time>
      </trkpt>
      <trkpt lat="48.593748" lon="10.032911">
        <ele>556.315386</ele>
        <time>2024-09-08T07:38:49.000Z</time>
      </trkpt>
      <trkpt lat="48.593852" lon="10.032787">
        <ele>555.420513</ele>
        <time>2024-09-08T07:38:50.000Z</time>
      </trkpt>
      <trkpt lat="48.593950" lon="10.032652">
        <ele>554.524767</ele>
        <time>2024-09-08T07:38:51.000Z</time>
      </trkpt>
      <trkpt lat="48.594041" lon="10.032502">
        <ele>553.784262</ele>
        <time>2024-09-08T07:38:52.000Z</time>
      </trkpt>
      <trkpt lat="48.594133" lon="10.032350">
        <ele>553.062462</ele>
        <time>2024-09-08T07:38:53.000Z</time>
      </trkpt>
      <trkpt lat="48.594219" lon="10.032193">
        <ele>552.348325</ele>
        <time>2024-09-08T07:38:54.000Z</time>
      </trkpt>
      <trkpt lat="48.594300" lon="10.032030">
        <ele>551.634092</ele>
        <time>2024-09-08T07:38:55.000Z</time>
      </trkpt>
      <trkpt lat="48.594374" lon="10.031855">
        <ele>550.906450</ele>
        <time>2024-09-08T07:38:56.000Z</time>
      </trkpt>
      <trkpt lat="48.594448" lon="10.031680">
        <ele>550.178809</ele>
        <time>2024-09-08T07:38:57.000Z</time>
      </trkpt>
      <trkpt lat="48.594521" lon="10.031501">
        <ele>549.442118</ele>
        <time>2024-09-08T07:38:58.000Z</time>
      </trkpt>
      <trkpt lat="48.594591" lon="10.031322">
        <ele>548.713642</ele>
        <time>2024-09-08T07:38:59.000Z</time>
      </trkpt>
      <trkpt lat="48.594666" lon="10.031148">
        <ele>547.986074</ele>
        <time>2024-09-08T07:39:00.000Z</time>
      </trkpt>
      <trkpt lat="48.594750" lon="10.030983">
        <ele>547.256650</ele>
        <time>2024-09-08T07:39:01.000Z</time>
      </trkpt>
      <trkpt lat="48.594840" lon="10.030826">
        <ele>546.528821</ele>
        <time>2024-09-08T07:39:02.000Z</time>
      </trkpt>
      <trkpt lat="48.594941" lon="10.030686">
        <ele>545.803068</ele>
        <time>2024-09-08T07:39:03.000Z</time>
      </trkpt>
      <trkpt lat="48.595048" lon="10.030557">
        <ele>545.078212</ele>
        <time>2024-09-08T07:39:04.000Z</time>
      </trkpt>
      <trkpt lat="48.595154" lon="10.030439">
        <ele>544.709574</ele>
        <time>2024-09-08T07:39:05.000Z</time>
      </trkpt>
      <trkpt lat="48.595269" lon="10.030338">
        <ele>544.477640</ele>
        <time>2024-09-08T07:39:06.000Z</time>
      </trkpt>
      <trkpt lat="48.595385" lon="10.030252">
        <ele>544.252331</ele>
        <time>2024-09-08T07:39:07.000Z</time>
      </trkpt>
      <trkpt lat="48.595501" lon="10.030173">
        <ele>544.030458</ele>
        <time>2024-09-08T07:39:08.000Z</time>
      </trkpt>
      <trkpt lat="48.595609" lon="10.030091">
        <ele>543.819697</ele>
        <time>2024-09-08T07:39:09.000Z</time>
      </trkpt>
      <trkpt lat="48.595717" lon="10.030006">
        <ele>543.607361</ele>
        <time>2024-09-08T07:39:10.000Z</time>
      </trkpt>
      <trkpt lat="48.595828" lon="10.029937">
        <ele>543.398061</ele>
        <time>2024-09-08T07:39:11.000Z</time>
      </trkpt>
      <trkpt lat="48.595926" lon="10.029841">
        <ele>543.194420</ele>
        <time>2024-09-08T07:39:12.000Z</time>
      </trkpt>
      <trkpt lat="48.596018" lon="10.029733">
        <ele>542.991296</ele>
        <time>2024-09-08T07:39:13.000Z</time>
      </trkpt>
      <trkpt lat="48.596102" lon="10.029611">
        <ele>542.788170</ele>
        <time>2024-09-08T07:39:14.000Z</time>
      </trkpt>
      <trkpt lat="48.596175" lon="10.029482">
        <ele>542.592350</ele>
        <time>2024-09-08T07:39:15.000Z</time>
      </trkpt>
      <trkpt lat="48.596240" lon="10.029347">
        <ele>542.399751</ele>
        <time>2024-09-08T07:39:16.000Z</time>
      </trkpt>
      <trkpt lat="48.596297" lon="10.029210">
        <ele>542.213069</ele>
        <time>2024-09-08T07:39:17.000Z</time>
      </trkpt>
      <trkpt lat="48.596336" lon="10.029061">
        <ele>542.028246</ele>
        <time>2024-09-08T07:39:18.000Z</time>
      </trkpt>
      <trkpt lat="48.596385" lon="10.028926">
        <ele>541.850631</ele>
        <time>2024-09-08T07:39:19.000Z</time>
      </trkpt>
      <trkpt lat="48.596429" lon="10.028787">
        <ele>541.780418</ele>
        <time>2024-09-08T07:39:20.000Z</time>
      </trkpt>
      <trkpt lat="48.596488" lon="10.028657">
        <ele>541.918025</ele>
        <time>2024-09-08T07:39:21.000Z</time>
      </trkpt>
      <trkpt lat="48.596530" lon="10.028520">
        <ele>542.049817</ele>
        <time>2024-09-08T07:39:22.000Z</time>
      </trkpt>
      <trkpt lat="48.596571" lon="10.028381">
        <ele>542.182651</ele>
        <time>2024-09-08T07:39:23.000Z</time>
      </trkpt>
      <trkpt lat="48.596595" lon="10.028236">
        <ele>542.313107</ele>
        <time>2024-09-08T07:39:24.000Z</time>
      </trkpt>
      <trkpt lat="48.596633" lon="10.028107">
        <ele>542.436358</ele>
        <time>2024-09-08T07:39:25.000Z</time>
      </trkpt>
      <trkpt lat="48.596669" lon="10.027969">
        <ele>542.565832</ele>
        <time>2024-09-08T07:39:26.000Z</time>
      </trkpt>
      <trkpt lat="48.596716" lon="10.027842">
        <ele>542.692848</ele>
        <time>2024-09-08T07:39:27.000Z</time>
      </trkpt>
      <trkpt lat="48.596752" lon="10.027708">
        <ele>542.819080</ele>
        <time>2024-09-08T07:39:28.000Z</time>
      </trkpt>
      <trkpt lat="48.596786" lon="10.027580">
        <ele>542.939469</ele>
        <time>2024-09-08T07:39:29.000Z</time>
      </trkpt>
      <trkpt lat="48.596819" lon="10.027444">
        <ele>543.065903</ele>
        <time>2024-09-08T07:39:30.000Z</time>
      </trkpt>
      <trkpt lat="48.596852" lon="10.027315">
        <ele>543.186619</ele>
        <time>2024-09-08T07:39:31.000Z</time>
      </trkpt>
      <trkpt lat="48.596931" lon="10.027077">
        <ele>543.419033</ele>
        <time>2024-09-08T07:39:33.000Z</time>
      </trkpt>
      <trkpt lat="48.596995" lon="10.026834">
        <ele>543.647314</ele>
        <time>2024-09-08T07:39:35.000Z</time>
      </trkpt>
      <trkpt lat="48.597074" lon="10.026610">
        <ele>543.868875</ele>
        <time>2024-09-08T07:39:36.999Z</time>
      </trkpt>
      <trkpt lat="48.597172" lon="10.026401">
        <ele>544.092478</ele>
        <time>2024-09-08T07:39:38.999Z</time>
      </trkpt>
      <trkpt lat="48.597289" lon="10.026205">
        <ele>544.535378</ele>
        <time>2024-09-08T07:39:40.999Z</time>
      </trkpt>
      <trkpt lat="48.597401" lon="10.026008">
        <ele>544.985960</ele>
        <time>2024-09-08T07:39:42.999Z</time>
      </trkpt>
      <trkpt lat="48.597516" lon="10.025816">
        <ele>545.435246</ele>
        <time>2024-09-08T07:39:44.999Z</time>
      </trkpt>
      <trkpt lat="48.597630" lon="10.025632">
        <ele>545.872548</ele>
        <time>2024-09-08T07:39:46.999Z</time>
      </trkpt>
      <trkpt lat="48.597743" lon="10.025454">
        <ele>546.300493</ele>
        <time>2024-09-08T07:39:48.999Z</time>
      </trkpt>
      <trkpt lat="48.597860" lon="10.025284">
        <ele>546.726040</ele>
        <time>2024-09-08T07:39:50.999Z</time>
      </trkpt>
      <trkpt lat="48.597966" lon="10.025113">
        <ele>547.132541</ele>
        <time>2024-09-08T07:39:52.999Z</time>
      </trkpt>
      <trkpt lat="48.598066" lon="10.024941">
        <ele>547.529749</ele>
        <time>2024-09-08T07:39:54.999Z</time>
      </trkpt>
      <trkpt lat="48.598179" lon="10.024788">
        <ele>547.927546</ele>
        <time>2024-09-08T07:39:56.999Z</time>
      </trkpt>
      <trkpt lat="48.598275" lon="10.024625">
        <ele>548.306111</ele>
        <time>2024-09-08T07:39:58.999Z</time>
      </trkpt>
      <trkpt lat="48.598379" lon="10.024477">
        <ele>548.680654</ele>
        <time>2024-09-08T07:40:00.999Z</time>
      </trkpt>
      <trkpt lat="48.598476" lon="10.024332">
        <ele>549.256024</ele>
        <time>2024-09-08T07:40:02.999Z</time>
      </trkpt>
      <trkpt lat="48.598577" lon="10.024188">
        <ele>549.991129</ele>
        <time>2024-09-08T07:40:04.999Z</time>
      </trkpt>
      <trkpt lat="48.598677" lon="10.024041">
        <ele>550.729675</ele>
        <time>2024-09-08T07:40:06.999Z</time>
      </trkpt>
      <trkpt lat="48.598787" lon="10.023913">
        <ele>551.464695</ele>
        <time>2024-09-08T07:40:08.999Z</time>
      </trkpt>
      <trkpt lat="48.598902" lon="10.023793">
        <ele>552.204607</ele>
        <time>2024-09-08T07:40:10.999Z</time>
      </trkpt>
      <trkpt lat="48.599007" lon="10.023673">
        <ele>552.901583</ele>
        <time>2024-09-08T07:40:13.000Z</time>
      </trkpt>
      <trkpt lat="48.599113" lon="10.023558">
        <ele>553.592438</ele>
        <time>2024-09-08T07:40:15.000Z</time>
      </trkpt>
      <trkpt lat="48.599231" lon="10.023478">
        <ele>554.277241</ele>
        <time>2024-09-08T07:40:17.000Z</time>
      </trkpt>
      <trkpt lat="48.599348" lon="10.023389">
        <ele>554.970796</ele>
        <time>2024-09-08T07:40:19.000Z</time>
      </trkpt>
      <trkpt lat="48.599463" lon="10.023307">
        <ele>555.644090</ele>
        <time>2024-09-08T07:40:21.000Z</time>
      </trkpt>
      <trkpt lat="48.599581" lon="10.023230">
        <ele>556.324662</ele>
        <time>2024-09-08T07:40:23.000Z</time>
      </trkpt>
      <trkpt lat="48.599698" lon="10.023164">
        <ele>556.985945</ele>
        <time>2024-09-08T07:40:25.000Z</time>
      </trkpt>
      <trkpt lat="48.599823" lon="10.023105">
        <ele>557.679381</ele>
        <time>2024-09-08T07:40:27.000Z</time>
      </trkpt>
      <trkpt lat="48.599946" lon="10.023057">
        <ele>558.350389</ele>
        <time>2024-09-08T07:40:29.000Z</time>
      </trkpt>
      <trkpt lat="48.600082" lon="10.023016">
        <ele>558.594448</ele>
        <time>2024-09-08T07:40:31.000Z</time>
      </trkpt>
      <trkpt lat="48.600198" lon="10.022986">
        <ele>558.801563</ele>
        <time>2024-09-08T07:40:33.000Z</time>
      </trkpt>
      <trkpt lat="48.600320" lon="10.022958">
        <ele>559.018732</ele>
        <time>2024-09-08T07:40:35.000Z</time>
      </trkpt>
      <trkpt lat="48.600431" lon="10.022939">
        <ele>559.215330</ele>
        <time>2024-09-08T07:40:37.000Z</time>
      </trkpt>
      <trkpt lat="48.600547" lon="10.022925">
        <ele>559.420130</ele>
        <time>2024-09-08T07:40:39.000Z</time>
      </trkpt>
      <trkpt lat="48.600663" lon="10.022918">
        <ele>559.624443</ele>
        <time>2024-09-08T07:40:41.000Z</time>
      </trkpt>
      <trkpt lat="48.600777" lon="10.022919">
        <ele>559.825077</ele>
        <time>2024-09-08T07:40:43.000Z</time>
      </trkpt>
      <trkpt lat="48.600891" lon="10.022925">
        <ele>560.025829</ele>
        <time>2024-09-08T07:40:45.000Z</time>
      </trkpt>
      <trkpt lat="48.601009" lon="10.022936">
        <ele>560.233893</ele>
        <time>2024-09-08T07:40:47.000Z</time>
      </trkpt>
      <trkpt lat="48.601125" lon="10.022952">
        <ele>560.438891</ele>
        <time>2024-09-08T07:40:49.000Z</time>
      </trkpt>
      <trkpt lat="48.601239" lon="10.022974">
        <ele>560.641149</ele>
        <time>2024-09-08T07:40:51.000Z</time>
      </trkpt>
      <trkpt lat="48.601353" lon="10.023006">
        <ele>560.845207</ele>
        <time>2024-09-08T07:40:53.000Z</time>
      </trkpt>
      <trkpt lat="48.601470" lon="10.023045">
        <ele>561.056060</ele>
        <time>2024-09-08T07:40:55.000Z</time>
      </trkpt>
      <trkpt lat="48.601581" lon="10.023085">
        <ele>561.256881</ele>
        <time>2024-09-08T07:40:57.000Z</time>
      </trkpt>
      <trkpt lat="48.601701" lon="10.023129">
        <ele>561.474191</ele>
        <time>2024-09-08T07:40:59.000Z</time>
      </trkpt>
      <trkpt lat="48.601810" lon="10.023180">
        <ele>561.784071</ele>
        <time>2024-09-08T07:41:01.000Z</time>
      </trkpt>
      <trkpt lat="48.601920" lon="10.023236">
        <ele>562.127611</ele>
        <time>2024-09-08T07:41:03.000Z</time>
      </trkpt>
      <trkpt lat="48.602028" lon="10.023295">
        <ele>562.467496</ele>
        <time>2024-09-08T07:41:05.000Z</time>
      </trkpt>
      <trkpt lat="48.602132" lon="10.023352">
        <ele>562.794916</ele>
        <time>2024-09-08T07:41:07.000Z</time>
      </trkpt>
      <trkpt lat="48.602239" lon="10.023415">
        <ele>563.134780</ele>
        <time>2024-09-08T07:41:09.000Z</time>
      </trkpt>
      <trkpt lat="48.602343" lon="10.023493">
        <ele>563.478386</ele>
        <time>2024-09-08T07:41:11.000Z</time>
      </trkpt>
      <trkpt lat="48.602453" lon="10.023558">
        <ele>563.827945</ele>
        <time>2024-09-08T07:41:13.000Z</time>
      </trkpt>
      <trkpt lat="48.602552" lon="10.023626">
        <ele>564.149782</ele>
        <time>2024-09-08T07:41:15.000Z</time>
      </trkpt>
      <trkpt lat="48.602650" lon="10.023706">
        <ele>564.479413</ele>
        <time>2024-09-08T07:41:17.000Z</time>
      </trkpt>
      <trkpt lat="48.602740" lon="10.023809">
        <ele>564.813487</ele>
        <time>2024-09-08T07:41:19.000Z</time>
      </trkpt>
      <trkpt lat="48.602831" lon="10.023884">
        <ele>565.120239</ele>
        <time>2024-09-08T07:41:21.000Z</time>
      </trkpt>
      <trkpt lat="48.602920" lon="10.023982">
        <ele>565.446102</ele>
        <time>2024-09-08T07:41:23.000Z</time>
      </trkpt>
      <trkpt lat="48.603022" lon="10.024059">
        <ele>565.783535</ele>
        <time>2024-09-08T07:41:25.000Z</time>
      </trkpt>
      <trkpt lat="48.603136" lon="10.024130">
        <ele>566.148455</ele>
        <time>2024-09-08T07:41:27.000Z</time>
      </trkpt>
      <trkpt lat="48.603252" lon="10.024175">
        <ele>566.502916</ele>
        <time>2024-09-08T07:41:29.000Z</time>
      </trkpt>
      <trkpt lat="48.603377" lon="10.024210">
        <ele>566.881033</ele>
        <time>2024-09-08T07:41:31.000Z</time>
      </trkpt>
      <trkpt lat="48.603507" lon="10.024202">
        <ele>567.283707</ele>
        <time>2024-09-08T07:41:33.000Z</time>
      </trkpt>
      <trkpt lat="48.603639" lon="10.024145">
        <ele>567.708567</ele>
        <time>2024-09-08T07:41:35.000Z</time>
      </trkpt>
      <trkpt lat="48.603752" lon="10.024060">
        <ele>568.099171</ele>
        <time>2024-09-08T07:41:37.000Z</time>
      </trkpt>
      <trkpt lat="48.603849" lon="10.023952">
        <ele>568.471970</ele>
        <time>2024-09-08T07:41:39.000Z</time>
      </trkpt>
      <trkpt lat="48.603942" lon="10.023843">
        <ele>568.836123</ele>
        <time>2024-09-08T07:41:41.000Z</time>
      </trkpt>
      <trkpt lat="48.604036" lon="10.023734">
        <ele>569.202728</ele>
        <time>2024-09-08T07:41:42.999Z</time>
      </trkpt>
      <trkpt lat="48.604132" lon="10.023621">
        <ele>569.579236</ele>
        <time>2024-09-08T07:41:44.999Z</time>
      </trkpt>
      <trkpt lat="48.604225" lon="10.023511">
        <ele>569.944646</ele>
        <time>2024-09-08T07:41:46.999Z</time>
      </trkpt>
      <trkpt lat="48.604316" lon="10.023403">
        <ele>570.302659</ele>
        <time>2024-09-08T07:41:48.999Z</time>
      </trkpt>
      <trkpt lat="48.604405" lon="10.023297">
        <ele>570.653276</ele>
        <time>2024-09-08T07:41:50.999Z</time>
      </trkpt>
      <trkpt lat="48.604497" lon="10.023186">
        <ele>571.017526</ele>
        <time>2024-09-08T07:41:52.999Z</time>
      </trkpt>
      <trkpt lat="48.604585" lon="10.023079">
        <ele>571.366995</ele>
        <time>2024-09-08T07:41:54.999Z</time>
      </trkpt>
      <trkpt lat="48.604674" lon="10.022972">
        <ele>571.718881</ele>
        <time>2024-09-08T07:41:56.999Z</time>
      </trkpt>
      <trkpt lat="48.604761" lon="10.022867">
        <ele>572.063375</ele>
        <time>2024-09-08T07:41:58.999Z</time>
      </trkpt>
      <trkpt lat="48.604852" lon="10.022757">
        <ele>572.437974</ele>
        <time>2024-09-08T07:42:00.999Z</time>
      </trkpt>
      <trkpt lat="48.604942" lon="10.022646">
        <ele>573.070406</ele>
        <time>2024-09-08T07:42:02.999Z</time>
      </trkpt>
      <trkpt lat="48.605024" lon="10.022538">
        <ele>573.662558</ele>
        <time>2024-09-08T07:42:04.999Z</time>
      </trkpt>
      <trkpt lat="48.605112" lon="10.022421">
        <ele>574.300641</ele>
        <time>2024-09-08T07:42:06.999Z</time>
      </trkpt>
      <trkpt lat="48.605198" lon="10.022306">
        <ele>574.925791</ele>
        <time>2024-09-08T07:42:08.999Z</time>
      </trkpt>
      <trkpt lat="48.605283" lon="10.022205">
        <ele>575.514459</ele>
        <time>2024-09-08T07:42:10.999Z</time>
      </trkpt>
      <trkpt lat="48.605378" lon="10.022119">
        <ele>576.117401</ele>
        <time>2024-09-08T07:42:12.999Z</time>
      </trkpt>
      <trkpt lat="48.605476" lon="10.022058">
        <ele>576.694511</ele>
        <time>2024-09-08T07:42:14.999Z</time>
      </trkpt>
      <trkpt lat="48.605571" lon="10.022036">
        <ele>577.217879</ele>
        <time>2024-09-08T07:42:16.999Z</time>
      </trkpt>
      <trkpt lat="48.605669" lon="10.022033">
        <ele>577.751663</ele>
        <time>2024-09-08T07:42:19.000Z</time>
      </trkpt>
      <trkpt lat="48.605770" lon="10.022048">
        <ele>578.304320</ele>
        <time>2024-09-08T07:42:21.000Z</time>
      </trkpt>
      <trkpt lat="48.605871" lon="10.022072">
        <ele>578.861080</ele>
        <time>2024-09-08T07:42:23.000Z</time>
      </trkpt>
      <trkpt lat="48.605968" lon="10.022100">
        <ele>579.398845</ele>
        <time>2024-09-08T07:42:25.000Z</time>
      </trkpt>
      <trkpt lat="48.606067" lon="10.022133">
        <ele>579.950905</ele>
        <time>2024-09-08T07:42:27.000Z</time>
      </trkpt>
      <trkpt lat="48.606166" lon="10.022170">
        <ele>580.506244</ele>
        <time>2024-09-08T07:42:29.000Z</time>
      </trkpt>
      <trkpt lat="48.606269" lon="10.022212">
        <ele>581.087178</ele>
        <time>2024-09-08T07:42:31.000Z</time>
      </trkpt>
      <trkpt lat="48.606374" lon="10.022257">
        <ele>581.681488</ele>
        <time>2024-09-08T07:42:33.000Z</time>
      </trkpt>
      <trkpt lat="48.606471" lon="10.022305">
        <ele>582.239229</ele>
        <time>2024-09-08T07:42:35.000Z</time>
      </trkpt>
      <trkpt lat="48.606568" lon="10.022359">
        <ele>582.831796</ele>
        <time>2024-09-08T07:42:37.000Z</time>
      </trkpt>
      <trkpt lat="48.606681" lon="10.022404">
        <ele>583.501693</ele>
        <time>2024-09-08T07:42:39.000Z</time>
      </trkpt>
      <trkpt lat="48.606784" lon="10.022483">
        <ele>584.163775</ele>
        <time>2024-09-08T07:42:41.000Z</time>
      </trkpt>
      <trkpt lat="48.606876" lon="10.022562">
        <ele>584.770286</ele>
        <time>2024-09-08T07:42:43.000Z</time>
      </trkpt>
      <trkpt lat="48.606964" lon="10.022647">
        <ele>585.368894</ele>
        <time>2024-09-08T07:42:45.000Z</time>
      </trkpt>
      <trkpt lat="48.607050" lon="10.022733">
        <ele>585.959954</ele>
        <time>2024-09-08T07:42:47.000Z</time>
      </trkpt>
      <trkpt lat="48.607136" lon="10.022835">
        <ele>586.586510</ele>
        <time>2024-09-08T07:42:49.000Z</time>
      </trkpt>
      <trkpt lat="48.607225" lon="10.022954">
        <ele>587.267548</ele>
        <time>2024-09-08T07:42:51.000Z</time>
      </trkpt>
      <trkpt lat="48.607296" lon="10.023077">
        <ele>587.886473</ele>
        <time>2024-09-08T07:42:53.000Z</time>
      </trkpt>
      <trkpt lat="48.607359" lon="10.023214">
        <ele>588.519038</ele>
        <time>2024-09-08T07:42:55.000Z</time>
      </trkpt>
      <trkpt lat="48.607421" lon="10.023356">
        <ele>589.164077</ele>
        <time>2024-09-08T07:42:57.000Z</time>
      </trkpt>
      <trkpt lat="48.607471" lon="10.023503">
        <ele>589.790707</ele>
        <time>2024-09-08T07:42:59.000Z</time>
      </trkpt>
      <trkpt lat="48.607507" lon="10.023662">
        <ele>590.427777</ele>
        <time>2024-09-08T07:43:01.000Z</time>
      </trkpt>
      <trkpt lat="48.607549" lon="10.023806">
        <ele>591.024377</ele>
        <time>2024-09-08T07:43:03.000Z</time>
      </trkpt>
      <trkpt lat="48.607589" lon="10.023959">
        <ele>591.648035</ele>
        <time>2024-09-08T07:43:05.000Z</time>
      </trkpt>
      <trkpt lat="48.607627" lon="10.024120">
        <ele>592.296045</ele>
        <time>2024-09-08T07:43:07.000Z</time>
      </trkpt>
      <trkpt lat="48.607661" lon="10.024272">
        <ele>592.871069</ele>
        <time>2024-09-08T07:43:09.000Z</time>
      </trkpt>
      <trkpt lat="48.607695" lon="10.024424">
        <ele>593.427849</ele>
        <time>2024-09-08T07:43:11.000Z</time>
      </trkpt>
      <trkpt lat="48.607727" lon="10.024570">
        <ele>593.961554</ele>
        <time>2024-09-08T07:43:13.000Z</time>
      </trkpt>
      <trkpt lat="48.607763" lon="10.024728">
        <ele>594.541427</ele>
        <time>2024-09-08T07:43:15.000Z</time>
      </trkpt>
      <trkpt lat="48.607801" lon="10.024884">
        <ele>595.118287</ele>
        <time>2024-09-08T07:43:17.000Z</time>
      </trkpt>
      <trkpt lat="48.607841" lon="10.025044">
        <ele>595.711820</ele>
        <time>2024-09-08T07:43:19.000Z</time>
      </trkpt>
      <trkpt lat="48.607902" lon="10.025183">
        <ele>596.290691</ele>
        <time>2024-09-08T07:43:21.000Z</time>
      </trkpt>
      <trkpt lat="48.607953" lon="10.025327">
        <ele>596.857511</ele>
        <time>2024-09-08T07:43:23.000Z</time>
      </trkpt>
      <trkpt lat="48.608019" lon="10.025462">
        <ele>597.440076</ele>
        <time>2024-09-08T07:43:25.000Z</time>
      </trkpt>
      <trkpt lat="48.608095" lon="10.025580">
        <ele>598.011656</ele>
        <time>2024-09-08T07:43:27.000Z</time>
      </trkpt>
      <trkpt lat="48.608175" lon="10.025709">
        <ele>598.625333</ele>
        <time>2024-09-08T07:43:29.000Z</time>
      </trkpt>
      <trkpt lat="48.608233" lon="10.025864">
        <ele>599.243307</ele>
        <time>2024-09-08T07:43:31.000Z</time>
      </trkpt>
      <trkpt lat="48.608291" lon="10.026007">
        <ele>599.825405</ele>
        <time>2024-09-08T07:43:33.000Z</time>
      </trkpt>
      <trkpt lat="48.608336" lon="10.026154">
        <ele>600.387481</ele>
        <time>2024-09-08T07:43:35.000Z</time>
      </trkpt>
      <trkpt lat="48.608377" lon="10.026303">
        <ele>600.947465</ele>
        <time>2024-09-08T07:43:37.000Z</time>
      </trkpt>
      <trkpt lat="48.608417" lon="10.026457">
        <ele>601.521566</ele>
        <time>2024-09-08T07:43:39.000Z</time>
      </trkpt>
      <trkpt lat="48.608455" lon="10.026606">
        <ele>602.079189</ele>
        <time>2024-09-08T07:43:41.000Z</time>
      </trkpt>
      <trkpt lat="48.608493" lon="10.026753">
        <ele>602.642135</ele>
        <time>2024-09-08T07:43:43.000Z</time>
      </trkpt>
      <trkpt lat="48.608529" lon="10.026898">
        <ele>603.194559</ele>
        <time>2024-09-08T07:43:45.000Z</time>
      </trkpt>
      <trkpt lat="48.608563" lon="10.027049">
        <ele>603.763497</ele>
        <time>2024-09-08T07:43:47.000Z</time>
      </trkpt>
      <trkpt lat="48.608593" lon="10.027197">
        <ele>604.315611</ele>
        <time>2024-09-08T07:43:48.999Z</time>
      </trkpt>
      <trkpt lat="48.608623" lon="10.027355">
        <ele>604.901919</ele>
        <time>2024-09-08T07:43:50.999Z</time>
      </trkpt>
      <trkpt lat="48.608647" lon="10.027500">
        <ele>605.435042</ele>
        <time>2024-09-08T07:43:52.999Z</time>
      </trkpt>
      <trkpt lat="48.608669" lon="10.027650">
        <ele>605.983045</ele>
        <time>2024-09-08T07:43:54.999Z</time>
      </trkpt>
      <trkpt lat="48.608690" lon="10.027797">
        <ele>606.519441</ele>
        <time>2024-09-08T07:43:56.999Z</time>
      </trkpt>
      <trkpt lat="48.608708" lon="10.027943">
        <ele>607.049147</ele>
        <time>2024-09-08T07:43:58.999Z</time>
      </trkpt>
      <trkpt lat="48.608728" lon="10.028090">
        <ele>607.584430</ele>
        <time>2024-09-08T07:44:00.999Z</time>
      </trkpt>
      <trkpt lat="48.608747" lon="10.028232">
        <ele>608.101160</ele>
        <time>2024-09-08T07:44:02.999Z</time>
      </trkpt>
      <trkpt lat="48.608766" lon="10.028375">
        <ele>608.621387</ele>
        <time>2024-09-08T07:44:04.999Z</time>
      </trkpt>
      <trkpt lat="48.608786" lon="10.028516">
        <ele>609.135726</ele>
        <time>2024-09-08T07:44:06.999Z</time>
      </trkpt>
      <trkpt lat="48.608807" lon="10.028657">
        <ele>609.651223</ele>
        <time>2024-09-08T07:44:08.999Z</time>
      </trkpt>
      <trkpt lat="48.608829" lon="10.028800">
        <ele>610.174878</ele>
        <time>2024-09-08T07:44:10.999Z</time>
      </trkpt>
      <trkpt lat="48.608854" lon="10.028944">
        <ele>610.705884</ele>
        <time>2024-09-08T07:44:12.999Z</time>
      </trkpt>
      <trkpt lat="48.608877" lon="10.029081">
        <ele>611.210019</ele>
        <time>2024-09-08T07:44:14.999Z</time>
      </trkpt>
      <trkpt lat="48.608908" lon="10.029220">
        <ele>611.689130</ele>
        <time>2024-09-08T07:44:16.999Z</time>
      </trkpt>
      <trkpt lat="48.608961" lon="10.029343">
        <ele>611.926043</ele>
        <time>2024-09-08T07:44:18.999Z</time>
      </trkpt>
      <trkpt lat="48.609006" lon="10.029468">
        <ele>612.155716</ele>
        <time>2024-09-08T07:44:20.999Z</time>
      </trkpt>
      <trkpt lat="48.609064" lon="10.029573">
        <ele>612.376502</ele>
        <time>2024-09-08T07:44:22.999Z</time>
      </trkpt>
      <trkpt lat="48.609162" lon="10.029700">
        <ele>612.691470</ele>
        <time>2024-09-08T07:44:26.000Z</time>
      </trkpt>
      <trkpt lat="48.609278" lon="10.029763">
        <ele>612.992277</ele>
        <time>2024-09-08T07:44:29.000Z</time>
      </trkpt>
      <trkpt lat="48.609408" lon="10.029768">
        <ele>613.309655</ele>
        <time>2024-09-08T07:44:32.000Z</time>
      </trkpt>
      <trkpt lat="48.609526" lon="10.029731">
        <ele>613.603767</ele>
        <time>2024-09-08T07:44:35.000Z</time>
      </trkpt>
      <trkpt lat="48.609637" lon="10.029630">
        <ele>613.919918</ele>
        <time>2024-09-08T07:44:38.000Z</time>
      </trkpt>
      <trkpt lat="48.609731" lon="10.029493">
        <ele>614.238515</ele>
        <time>2024-09-08T07:44:41.000Z</time>
      </trkpt>
      <trkpt lat="48.609782" lon="10.029378">
        <ele>614.461965</ele>
        <time>2024-09-08T07:44:43.000Z</time>
      </trkpt>
      <trkpt lat="48.609822" lon="10.029252">
        <ele>614.687509</ele>
        <time>2024-09-08T07:44:45.000Z</time>
      </trkpt>
      <trkpt lat="48.609857" lon="10.029123">
        <ele>614.912517</ele>
        <time>2024-09-08T07:44:47.000Z</time>
      </trkpt>
      <trkpt lat="48.609889" lon="10.028931">
        <ele>615.232032</ele>
        <time>2024-09-08T07:44:50.000Z</time>
      </trkpt>
      <trkpt lat="48.609924" lon="10.028733">
        <ele>615.562759</ele>
        <time>2024-09-08T07:44:53.000Z</time>
      </trkpt>
      <trkpt lat="48.609946" lon="10.028596">
        <ele>615.790258</ele>
        <time>2024-09-08T07:44:55.000Z</time>
      </trkpt>
      <trkpt lat="48.609965" lon="10.028460">
        <ele>616.014562</ele>
        <time>2024-09-08T07:44:57.000Z</time>
      </trkpt>
      <trkpt lat="48.609981" lon="10.028323">
        <ele>616.528122</ele>
        <time>2024-09-08T07:44:59.000Z</time>
      </trkpt>
      <trkpt lat="48.610008" lon="10.028183">
        <ele>617.109394</ele>
        <time>2024-09-08T07:45:01.000Z</time>
      </trkpt>
      <trkpt lat="48.610040" lon="10.027983">
        <ele>617.929572</ele>
        <time>2024-09-08T07:45:04.000Z</time>
      </trkpt>
      <trkpt lat="48.610071" lon="10.027844">
        <ele>618.514273</ele>
        <time>2024-09-08T07:45:06.000Z</time>
      </trkpt>
      <trkpt lat="48.610103" lon="10.027711">
        <ele>619.078398</ele>
        <time>2024-09-08T07:45:08.000Z</time>
      </trkpt>
      <trkpt lat="48.610144" lon="10.027579">
        <ele>619.659693</ele>
        <time>2024-09-08T07:45:10.000Z</time>
      </trkpt>
      <trkpt lat="48.610181" lon="10.027454">
        <ele>620.205571</ele>
        <time>2024-09-08T07:45:12.000Z</time>
      </trkpt>
      <trkpt lat="48.610223" lon="10.027333">
        <ele>620.750278</ele>
        <time>2024-09-08T07:45:14.000Z</time>
      </trkpt>
      <trkpt lat="48.610276" lon="10.027219">
        <ele>621.305749</ele>
        <time>2024-09-08T07:45:16.000Z</time>
      </trkpt>
      <trkpt lat="48.610352" lon="10.027055">
        <ele>622.103996</ele>
        <time>2024-09-08T07:45:19.000Z</time>
      </trkpt>
      <trkpt lat="48.610405" lon="10.026943">
        <ele>622.652964</ele>
        <time>2024-09-08T07:45:21.000Z</time>
      </trkpt>
      <trkpt lat="48.610461" lon="10.026834">
        <ele>623.203160</ele>
        <time>2024-09-08T07:45:23.000Z</time>
      </trkpt>
      <trkpt lat="48.610548" lon="10.026678">
        <ele>624.016600</ele>
        <time>2024-09-08T07:45:26.000Z</time>
      </trkpt>
      <trkpt lat="48.610610" lon="10.026576">
        <ele>624.568850</ele>
        <time>2024-09-08T07:45:28.000Z</time>
      </trkpt>
      <trkpt lat="48.610667" lon="10.026467">
        <ele>625.122765</ele>
        <time>2024-09-08T07:45:30.000Z</time>
      </trkpt>
      <trkpt lat="48.610731" lon="10.026371">
        <ele>625.666147</ele>
        <time>2024-09-08T07:45:32.000Z</time>
      </trkpt>
      <trkpt lat="48.610827" lon="10.026236">
        <ele>626.456370</ele>
        <time>2024-09-08T07:45:35.000Z</time>
      </trkpt>
      <trkpt lat="48.610933" lon="10.026107">
        <ele>627.093034</ele>
        <time>2024-09-08T07:45:38.000Z</time>
      </trkpt>
      <trkpt lat="48.611012" lon="10.026038">
        <ele>627.385018</ele>
        <time>2024-09-08T07:45:40.000Z</time>
      </trkpt>
      <trkpt lat="48.611122" lon="10.025929">
        <ele>627.805921</ele>
        <time>2024-09-08T07:45:43.000Z</time>
      </trkpt>
      <trkpt lat="48.611234" lon="10.025848">
        <ele>628.203266</ele>
        <time>2024-09-08T07:45:46.000Z</time>
      </trkpt>
      <trkpt lat="48.611364" lon="10.025782">
        <ele>628.642166</ele>
        <time>2024-09-08T07:45:49.000Z</time>
      </trkpt>
      <trkpt lat="48.611461" lon="10.025754">
        <ele>628.958233</ele>
        <time>2024-09-08T07:45:51.000Z</time>
      </trkpt>
      <trkpt lat="48.611562" lon="10.025735">
        <ele>629.283989</ele>
        <time>2024-09-08T07:45:53.000Z</time>
      </trkpt>
      <trkpt lat="48.611658" lon="10.025703">
        <ele>629.598625</ele>
        <time>2024-09-08T07:45:55.000Z</time>
      </trkpt>
      <trkpt lat="48.611760" lon="10.025668">
        <ele>629.933387</ele>
        <time>2024-09-08T07:45:57.000Z</time>
      </trkpt>
      <trkpt lat="48.611856" lon="10.025641">
        <ele>630.245916</ele>
        <time>2024-09-08T07:45:59.000Z</time>
      </trkpt>
      <trkpt lat="48.611945" lon="10.025615">
        <ele>630.536039</ele>
        <time>2024-09-08T07:46:01.000Z</time>
      </trkpt>
      <trkpt lat="48.612042" lon="10.025579">
        <ele>630.855712</ele>
        <time>2024-09-08T07:46:03.000Z</time>
      </trkpt>
      <trkpt lat="48.612141" lon="10.025544">
        <ele>631.181117</ele>
        <time>2024-09-08T07:46:05.000Z</time>
      </trkpt>
      <trkpt lat="48.612246" lon="10.025505">
        <ele>631.527170</ele>
        <time>2024-09-08T07:46:07.000Z</time>
      </trkpt>
      <trkpt lat="48.612338" lon="10.025464">
        <ele>631.834145</ele>
        <time>2024-09-08T07:46:09.000Z</time>
      </trkpt>
      <trkpt lat="48.612439" lon="10.025436">
        <ele>632.162796</ele>
        <time>2024-09-08T07:46:10.999Z</time>
      </trkpt>
      <trkpt lat="48.612540" lon="10.025410">
        <ele>632.490710</ele>
        <time>2024-09-08T07:46:12.999Z</time>
      </trkpt>
      <trkpt lat="48.612634" lon="10.025379">
        <ele>632.710439</ele>
        <time>2024-09-08T07:46:14.999Z</time>
      </trkpt>
      <trkpt lat="48.612731" lon="10.025351">
        <ele>632.848375</ele>
        <time>2024-09-08T07:46:16.999Z</time>
      </trkpt>
      <trkpt lat="48.612828" lon="10.025319">
        <ele>632.987051</ele>
        <time>2024-09-08T07:46:18.999Z</time>
      </trkpt>
      <trkpt lat="48.612930" lon="10.025290">
        <ele>633.132020</ele>
        <time>2024-09-08T07:46:20.999Z</time>
      </trkpt>
      <trkpt lat="48.613032" lon="10.025262">
        <ele>633.276822</ele>
        <time>2024-09-08T07:46:22.999Z</time>
      </trkpt>
      <trkpt lat="48.613137" lon="10.025234">
        <ele>633.425748</ele>
        <time>2024-09-08T07:46:24.999Z</time>
      </trkpt>
      <trkpt lat="48.613243" lon="10.025208">
        <ele>633.575744</ele>
        <time>2024-09-08T07:46:26.999Z</time>
      </trkpt>
      <trkpt lat="48.613354" lon="10.025184">
        <ele>633.732366</ele>
        <time>2024-09-08T07:46:28.999Z</time>
      </trkpt>
      <trkpt lat="48.613466" lon="10.025168">
        <ele>633.889504</ele>
        <time>2024-09-08T07:46:31.000Z</time>
      </trkpt>
      <trkpt lat="48.613579" lon="10.025154">
        <ele>634.047872</ele>
        <time>2024-09-08T07:46:33.000Z</time>
      </trkpt>
      <trkpt lat="48.613697" lon="10.025142">
        <ele>634.213067</ele>
        <time>2024-09-08T07:46:35.000Z</time>
      </trkpt>
      <trkpt lat="48.613814" lon="10.025126">
        <ele>634.377160</ele>
        <time>2024-09-08T07:46:37.000Z</time>
      </trkpt>
      <trkpt lat="48.613932" lon="10.025112">
        <ele>634.542490</ele>
        <time>2024-09-08T07:46:39.000Z</time>
      </trkpt>
      <trkpt lat="48.614053" lon="10.025103">
        <ele>634.711707</ele>
        <time>2024-09-08T07:46:41.000Z</time>
      </trkpt>
      <trkpt lat="48.614170" lon="10.025095">
        <ele>634.875301</ele>
        <time>2024-09-08T07:46:43.000Z</time>
      </trkpt>
      <trkpt lat="48.614281" lon="10.025080">
        <ele>635.030964</ele>
        <time>2024-09-08T07:46:45.000Z</time>
      </trkpt>
      <trkpt lat="48.614394" lon="10.025067">
        <ele>635.213628</ele>
        <time>2024-09-08T07:46:47.000Z</time>
      </trkpt>
      <trkpt lat="48.614506" lon="10.025056">
        <ele>635.480304</ele>
        <time>2024-09-08T07:46:49.000Z</time>
      </trkpt>
      <trkpt lat="48.614619" lon="10.025039">
        <ele>635.750121</ele>
        <time>2024-09-08T07:46:51.000Z</time>
      </trkpt>
      <trkpt lat="48.614730" lon="10.025028">
        <ele>636.014426</ele>
        <time>2024-09-08T07:46:53.000Z</time>
      </trkpt>
      <trkpt lat="48.614843" lon="10.025018">
        <ele>636.283377</ele>
        <time>2024-09-08T07:46:55.000Z</time>
      </trkpt>
      <trkpt lat="48.614957" lon="10.025008">
        <ele>636.554701</ele>
        <time>2024-09-08T07:46:57.000Z</time>
      </trkpt>
      <trkpt lat="48.615073" lon="10.024992">
        <ele>636.831464</ele>
        <time>2024-09-08T07:46:59.000Z</time>
      </trkpt>
      <trkpt lat="48.615188" lon="10.024971">
        <ele>637.106692</ele>
        <time>2024-09-08T07:47:01.000Z</time>
      </trkpt>
      <trkpt lat="48.615306" lon="10.024959">
        <ele>637.387698</ele>
        <time>2024-09-08T07:47:03.000Z</time>
      </trkpt>
      <trkpt lat="48.615423" lon="10.024946">
        <ele>637.666443</ele>
        <time>2024-09-08T07:47:05.000Z</time>
      </trkpt>
      <trkpt lat="48.615538" lon="10.024937">
        <ele>637.940052</ele>
        <time>2024-09-08T07:47:07.000Z</time>
      </trkpt>
      <trkpt lat="48.615654" lon="10.024924">
        <ele>638.216428</ele>
        <time>2024-09-08T07:47:09.000Z</time>
      </trkpt>
      <trkpt lat="48.615770" lon="10.024915">
        <ele>638.492410</ele>
        <time>2024-09-08T07:47:11.000Z</time>
      </trkpt>
      <trkpt lat="48.615888" lon="10.024905">
        <ele>638.773222</ele>
        <time>2024-09-08T07:47:13.000Z</time>
      </trkpt>
      <trkpt lat="48.616009" lon="10.024895">
        <ele>639.061151</ele>
        <time>2024-09-08T07:47:15.000Z</time>
      </trkpt>
      <trkpt lat="48.616122" lon="10.024881">
        <ele>639.330543</ele>
        <time>2024-09-08T07:47:17.000Z</time>
      </trkpt>
      <trkpt lat="48.616240" lon="10.024865">
        <ele>639.546992</ele>
        <time>2024-09-08T07:47:19.000Z</time>
      </trkpt>
      <trkpt lat="48.616355" lon="10.024841">
        <ele>639.725261</ele>
        <time>2024-09-08T07:47:21.000Z</time>
      </trkpt>
      <trkpt lat="48.616476" lon="10.024817">
        <ele>639.912661</ele>
        <time>2024-09-08T07:47:23.000Z</time>
      </trkpt>
      <trkpt lat="48.616595" lon="10.024784">
        <ele>640.098445</ele>
        <time>2024-09-08T07:47:25.000Z</time>
      </trkpt>
      <trkpt lat="48.616709" lon="10.024745">
        <ele>640.277927</ele>
        <time>2024-09-08T07:47:27.000Z</time>
      </trkpt>
      <trkpt lat="48.616828" lon="10.024699">
        <ele>640.466538</ele>
        <time>2024-09-08T07:47:29.000Z</time>
      </trkpt>
      <trkpt lat="48.616948" lon="10.024661">
        <ele>640.654806</ele>
        <time>2024-09-08T07:47:31.000Z</time>
      </trkpt>
      <trkpt lat="48.617064" lon="10.024608">
        <ele>640.840886</ele>
        <time>2024-09-08T07:47:33.000Z</time>
      </trkpt>
      <trkpt lat="48.617186" lon="10.024567">
        <ele>641.032799</ele>
        <time>2024-09-08T07:47:35.000Z</time>
      </trkpt>
      <trkpt lat="48.617311" lon="10.024523">
        <ele>641.229880</ele>
        <time>2024-09-08T07:47:37.000Z</time>
      </trkpt>
      <trkpt lat="48.617434" lon="10.024480">
        <ele>641.423740</ele>
        <time>2024-09-08T07:47:39.000Z</time>
      </trkpt>
      <trkpt lat="48.617562" lon="10.024441">
        <ele>641.624246</ele>
        <time>2024-09-08T07:47:41.000Z</time>
      </trkpt>
      <trkpt lat="48.617688" lon="10.024390">
        <ele>641.824541</ele>
        <time>2024-09-08T07:47:43.000Z</time>
      </trkpt>
      <trkpt lat="48.617823" lon="10.024353">
        <ele>642.035225</ele>
        <time>2024-09-08T07:47:45.000Z</time>
      </trkpt>
      <trkpt lat="48.617957" lon="10.024312">
        <ele>642.249980</ele>
        <time>2024-09-08T07:47:47.000Z</time>
      </trkpt>
      <trkpt lat="48.618086" lon="10.024262">
        <ele>642.472379</ele>
        <time>2024-09-08T07:47:49.000Z</time>
      </trkpt>
      <trkpt lat="48.618218" lon="10.024213">
        <ele>642.699369</ele>
        <time>2024-09-08T07:47:50.999Z</time>
      </trkpt>
      <trkpt lat="48.618344" lon="10.024163">
        <ele>642.916918</ele>
        <time>2024-09-08T07:47:52.999Z</time>
      </trkpt>
      <trkpt lat="48.618478" lon="10.024107">
        <ele>643.149090</ele>
        <time>2024-09-08T07:47:54.999Z</time>
      </trkpt>
      <trkpt lat="48.618605" lon="10.024059">
        <ele>643.367709</ele>
        <time>2024-09-08T07:47:56.999Z</time>
      </trkpt>
      <trkpt lat="48.618722" lon="10.023986">
        <ele>643.579076</ele>
        <time>2024-09-08T07:47:58.999Z</time>
      </trkpt>
      <trkpt lat="48.618827" lon="10.023914">
        <ele>643.771608</ele>
        <time>2024-09-08T07:48:00.999Z</time>
      </trkpt>
      <trkpt lat="48.618934" lon="10.023855">
        <ele>643.961807</ele>
        <time>2024-09-08T07:48:02.999Z</time>
      </trkpt>
      <trkpt lat="48.619053" lon="10.023766">
        <ele>644.183509</ele>
        <time>2024-09-08T07:48:04.999Z</time>
      </trkpt>
      <trkpt lat="48.619173" lon="10.023676">
        <ele>644.407197</ele>
        <time>2024-09-08T07:48:06.999Z</time>
      </trkpt>
      <trkpt lat="48.619294" lon="10.023591">
        <ele>644.630001</ele>
        <time>2024-09-08T07:48:08.999Z</time>
      </trkpt>
      <trkpt lat="48.619415" lon="10.023501">
        <ele>644.855186</ele>
        <time>2024-09-08T07:48:10.999Z</time>
      </trkpt>
      <trkpt lat="48.619529" lon="10.023414">
        <ele>645.068430</ele>
        <time>2024-09-08T07:48:12.999Z</time>
      </trkpt>
      <trkpt lat="48.619642" lon="10.023332">
        <ele>645.103365</ele>
        <time>2024-09-08T07:48:14.999Z</time>
      </trkpt>
      <trkpt lat="48.619755" lon="10.023248">
        <ele>644.875648</ele>
        <time>2024-09-08T07:48:16.999Z</time>
      </trkpt>
      <trkpt lat="48.619866" lon="10.023164">
        <ele>644.651172</ele>
        <time>2024-09-08T07:48:18.999Z</time>
      </trkpt>
      <trkpt lat="48.619976" lon="10.023079">
        <ele>644.427771</ele>
        <time>2024-09-08T07:48:20.999Z</time>
      </trkpt>
      <trkpt lat="48.620087" lon="10.022984">
        <ele>644.197111</ele>
        <time>2024-09-08T07:48:22.999Z</time>
      </trkpt>
      <trkpt lat="48.620198" lon="10.022887">
        <ele>643.965264</ele>
        <time>2024-09-08T07:48:24.999Z</time>
      </trkpt>
      <trkpt lat="48.620312" lon="10.022783">
        <ele>643.724490</ele>
        <time>2024-09-08T07:48:26.999Z</time>
      </trkpt>
      <trkpt lat="48.620431" lon="10.022672">
        <ele>643.471639</ele>
        <time>2024-09-08T07:48:28.999Z</time>
      </trkpt>
      <trkpt lat="48.620565" lon="10.022543">
        <ele>643.184371</ele>
        <time>2024-09-08T07:48:30.999Z</time>
      </trkpt>
      <trkpt lat="48.620702" lon="10.022409">
        <ele>642.889309</ele>
        <time>2024-09-08T07:48:32.999Z</time>
      </trkpt>
      <trkpt lat="48.620845" lon="10.022245">
        <ele>642.564754</ele>
        <time>2024-09-08T07:48:34.999Z</time>
      </trkpt>
      <trkpt lat="48.620905" lon="10.022139">
        <ele>642.397911</ele>
        <time>2024-09-08T07:48:36.000Z</time>
      </trkpt>
      <trkpt lat="48.620945" lon="10.022004">
        <ele>642.221037</ele>
        <time>2024-09-08T07:48:37.000Z</time>
      </trkpt>
      <trkpt lat="48.621021" lon="10.021918">
        <ele>642.049382</ele>
        <time>2024-09-08T07:48:38.000Z</time>
      </trkpt>
      <trkpt lat="48.621117" lon="10.021960">
        <ele>641.883730</ele>
        <time>2024-09-08T07:48:39.000Z</time>
      </trkpt>
      <trkpt lat="48.621208" lon="10.021916">
        <ele>641.746997</ele>
        <time>2024-09-08T07:48:40.000Z</time>
      </trkpt>
      <trkpt lat="48.621295" lon="10.021879">
        <ele>641.617654</ele>
        <time>2024-09-08T07:48:41.000Z</time>
      </trkpt>
      <trkpt lat="48.621460" lon="10.021810">
        <ele>641.372645</ele>
        <time>2024-09-08T07:48:43.000Z</time>
      </trkpt>
      <trkpt lat="48.621623" lon="10.021703">
        <ele>641.118338</ele>
        <time>2024-09-08T07:48:45.000Z</time>
      </trkpt>
      <trkpt lat="48.621701" lon="10.021634">
        <ele>640.989017</ele>
        <time>2024-09-08T07:48:46.000Z</time>
      </trkpt>
      <trkpt lat="48.621850" lon="10.021502">
        <ele>640.741889</ele>
        <time>2024-09-08T07:48:48.000Z</time>
      </trkpt>
      <trkpt lat="48.622000" lon="10.021372">
        <ele>640.494471</ele>
        <time>2024-09-08T07:48:50.000Z</time>
      </trkpt>
      <trkpt lat="48.622151" lon="10.021243">
        <ele>640.246277</ele>
        <time>2024-09-08T07:48:52.000Z</time>
      </trkpt>
      <trkpt lat="48.622304" lon="10.021109">
        <ele>639.993250</ele>
        <time>2024-09-08T07:48:54.000Z</time>
      </trkpt>
      <trkpt lat="48.622455" lon="10.020955">
        <ele>639.732611</ele>
        <time>2024-09-08T07:48:56.000Z</time>
      </trkpt>
      <trkpt lat="48.622588" lon="10.020809">
        <ele>639.497424</ele>
        <time>2024-09-08T07:48:58.000Z</time>
      </trkpt>
      <trkpt lat="48.622733" lon="10.020679">
        <ele>639.205139</ele>
        <time>2024-09-08T07:49:00.000Z</time>
      </trkpt>
      <trkpt lat="48.622885" lon="10.020554">
        <ele>638.843136</ele>
        <time>2024-09-08T07:49:02.000Z</time>
      </trkpt>
      <trkpt lat="48.623033" lon="10.020435">
        <ele>638.492435</ele>
        <time>2024-09-08T07:49:04.000Z</time>
      </trkpt>
      <trkpt lat="48.623179" lon="10.020324">
        <ele>638.150534</ele>
        <time>2024-09-08T07:49:06.000Z</time>
      </trkpt>
      <trkpt lat="48.623303" lon="10.020173">
        <ele>637.817460</ele>
        <time>2024-09-08T07:49:08.000Z</time>
      </trkpt>
      <trkpt lat="48.623447" lon="10.020092">
        <ele>637.495997</ele>
        <time>2024-09-08T07:49:10.000Z</time>
      </trkpt>
      <trkpt lat="48.623548" lon="10.020037">
        <ele>637.271388</ele>
        <time>2024-09-08T07:49:12.000Z</time>
      </trkpt>
      <trkpt lat="48.623667" lon="10.020026">
        <ele>637.021926</ele>
        <time>2024-09-08T07:49:16.000Z</time>
      </trkpt>
      <trkpt lat="48.623769" lon="10.019989">
        <ele>636.802449</ele>
        <time>2024-09-08T07:49:18.000Z</time>
      </trkpt>
      <trkpt lat="48.623887" lon="10.019934">
        <ele>636.544090</ele>
        <time>2024-09-08T07:49:20.000Z</time>
      </trkpt>
      <trkpt lat="48.624022" lon="10.019871">
        <ele>636.248479</ele>
        <time>2024-09-08T07:49:22.000Z</time>
      </trkpt>
      <trkpt lat="48.624160" lon="10.019808">
        <ele>635.946864</ele>
        <time>2024-09-08T07:49:24.000Z</time>
      </trkpt>
      <trkpt lat="48.624301" lon="10.019745">
        <ele>635.639233</ele>
        <time>2024-09-08T07:49:26.000Z</time>
      </trkpt>
      <trkpt lat="48.624439" lon="10.019680">
        <ele>635.706531</ele>
        <time>2024-09-08T07:49:28.000Z</time>
      </trkpt>
      <trkpt lat="48.624570" lon="10.019573">
        <ele>635.827413</ele>
        <time>2024-09-08T07:49:30.000Z</time>
      </trkpt>
      <trkpt lat="48.624677" lon="10.019559">
        <ele>635.914619</ele>
        <time>2024-09-08T07:49:32.000Z</time>
      </trkpt>
      <trkpt lat="48.624806" lon="10.019624">
        <ele>636.025021</ele>
        <time>2024-09-08T07:49:34.000Z</time>
      </trkpt>
      <trkpt lat="48.624939" lon="10.019719">
        <ele>636.144446</ele>
        <time>2024-09-08T07:49:36.000Z</time>
      </trkpt>
      <trkpt lat="48.625066" lon="10.019818">
        <ele>636.260451</ele>
        <time>2024-09-08T07:49:38.000Z</time>
      </trkpt>
      <trkpt lat="48.625191" lon="10.019901">
        <ele>636.371294</ele>
        <time>2024-09-08T07:49:40.000Z</time>
      </trkpt>
      <trkpt lat="48.625313" lon="10.019983">
        <ele>636.479692</ele>
        <time>2024-09-08T07:49:42.000Z</time>
      </trkpt>
      <trkpt lat="48.625436" lon="10.020056">
        <ele>636.586975</ele>
        <time>2024-09-08T07:49:44.000Z</time>
      </trkpt>
      <trkpt lat="48.625555" lon="10.020129">
        <ele>636.691242</ele>
        <time>2024-09-08T07:49:45.999Z</time>
      </trkpt>
      <trkpt lat="48.625674" lon="10.020205">
        <ele>636.796124</ele>
        <time>2024-09-08T07:49:47.999Z</time>
      </trkpt>
      <trkpt lat="48.625788" lon="10.020279">
        <ele>636.896850</ele>
        <time>2024-09-08T07:49:49.999Z</time>
      </trkpt>
      <trkpt lat="48.625913" lon="10.020370">
        <ele>637.009486</ele>
        <time>2024-09-08T07:49:51.999Z</time>
      </trkpt>
      <trkpt lat="48.626027" lon="10.020441">
        <ele>637.102255</ele>
        <time>2024-09-08T07:49:53.999Z</time>
      </trkpt>
      <trkpt lat="48.626138" lon="10.020205">
        <ele>637.232903</ele>
        <time>2024-09-08T07:49:54.999Z</time>
      </trkpt>
      <trkpt lat="48.626222" lon="10.019994">
        <ele>637.344005</ele>
        <time>2024-09-08T07:49:56.999Z</time>
      </trkpt>
      <trkpt lat="48.626292" lon="10.019790">
        <ele>637.447680</ele>
        <time>2024-09-08T07:49:58.999Z</time>
      </trkpt>
      <trkpt lat="48.626365" lon="10.019584">
        <ele>637.553108</ele>
        <time>2024-09-08T07:50:00.999Z</time>
      </trkpt>
      <trkpt lat="48.626433" lon="10.019382">
        <ele>637.655356</ele>
        <time>2024-09-08T07:50:02.999Z</time>
      </trkpt>
      <trkpt lat="48.626509" lon="10.019178">
        <ele>637.760980</ele>
        <time>2024-09-08T07:50:04.999Z</time>
      </trkpt>
      <trkpt lat="48.626579" lon="10.018974">
        <ele>637.864655</ele>
        <time>2024-09-08T07:50:06.999Z</time>
      </trkpt>
      <trkpt lat="48.626657" lon="10.018779">
        <ele>637.967461</ele>
        <time>2024-09-08T07:50:08.999Z</time>
      </trkpt>
      <trkpt lat="48.626737" lon="10.018591">
        <ele>638.068312</ele>
        <time>2024-09-08T07:50:10.999Z</time>
      </trkpt>
      <trkpt lat="48.626810" lon="10.018397">
        <ele>638.169002</ele>
        <time>2024-09-08T07:50:12.999Z</time>
      </trkpt>
      <trkpt lat="48.626880" lon="10.018212">
        <ele>638.265151</ele>
        <time>2024-09-08T07:50:14.999Z</time>
      </trkpt>
      <trkpt lat="48.626954" lon="10.018031">
        <ele>638.022361</ele>
        <time>2024-09-08T07:50:16.999Z</time>
      </trkpt>
      <trkpt lat="48.627026" lon="10.017853">
        <ele>637.661604</ele>
        <time>2024-09-08T07:50:18.999Z</time>
      </trkpt>
      <trkpt lat="48.627113" lon="10.017677">
        <ele>637.281678</ele>
        <time>2024-09-08T07:50:20.999Z</time>
      </trkpt>
      <trkpt lat="48.627213" lon="10.017506">
        <ele>636.886978</ele>
        <time>2024-09-08T07:50:22.999Z</time>
      </trkpt>
      <trkpt lat="48.627331" lon="10.017344">
        <ele>636.470236</ele>
        <time>2024-09-08T07:50:24.999Z</time>
      </trkpt>
      <trkpt lat="48.627464" lon="10.017191">
        <ele>636.033251</ele>
        <time>2024-09-08T07:50:26.999Z</time>
      </trkpt>
      <trkpt lat="48.627605" lon="10.017036">
        <ele>635.577410</ele>
        <time>2024-09-08T07:50:28.999Z</time>
      </trkpt>
      <trkpt lat="48.627762" lon="10.016916">
        <ele>635.117363</ele>
        <time>2024-09-08T07:50:30.999Z</time>
      </trkpt>
      <trkpt lat="48.627837" lon="10.016830">
        <ele>634.871234</ele>
        <time>2024-09-08T07:50:31.999Z</time>
      </trkpt>
      <trkpt lat="48.627996" lon="10.016751">
        <ele>634.433530</ele>
        <time>2024-09-08T07:50:33.999Z</time>
      </trkpt>
      <trkpt lat="48.628089" lon="10.016706">
        <ele>634.178158</ele>
        <time>2024-09-08T07:50:34.999Z</time>
      </trkpt>
      <trkpt lat="48.628178" lon="10.016668">
        <ele>633.936293</ele>
        <time>2024-09-08T07:50:35.999Z</time>
      </trkpt>
      <trkpt lat="48.628269" lon="10.016632">
        <ele>633.690287</ele>
        <time>2024-09-08T07:50:36.999Z</time>
      </trkpt>
      <trkpt lat="48.628357" lon="10.016600">
        <ele>633.540280</ele>
        <time>2024-09-08T07:50:37.999Z</time>
      </trkpt>
      <trkpt lat="48.628452" lon="10.016568">
        <ele>633.451392</ele>
        <time>2024-09-08T07:50:38.999Z</time>
      </trkpt>
      <trkpt lat="48.628545" lon="10.016517">
        <ele>633.361048</ele>
        <time>2024-09-08T07:50:39.999Z</time>
      </trkpt>
      <trkpt lat="48.628637" lon="10.016501">
        <ele>633.276471</ele>
        <time>2024-09-08T07:50:40.999Z</time>
      </trkpt>
      <trkpt lat="48.628731" lon="10.016483">
        <ele>633.189936</ele>
        <time>2024-09-08T07:50:42.000Z</time>
      </trkpt>
      <trkpt lat="48.628823" lon="10.016475">
        <ele>633.105774</ele>
        <time>2024-09-08T07:50:43.000Z</time>
      </trkpt>
      <trkpt lat="48.628993" lon="10.016429">
        <ele>632.948049</ele>
        <time>2024-09-08T07:50:45.000Z</time>
      </trkpt>
      <trkpt lat="48.629079" lon="10.016206">
        <ele>632.792200</ele>
        <time>2024-09-08T07:50:47.000Z</time>
      </trkpt>
      <trkpt lat="48.629083" lon="10.015988">
        <ele>632.660558</ele>
        <time>2024-09-08T07:50:49.000Z</time>
      </trkpt>
      <trkpt lat="48.629178" lon="10.015962">
        <ele>632.572386</ele>
        <time>2024-09-08T07:50:51.000Z</time>
      </trkpt>
      <trkpt lat="48.629260" lon="10.016067">
        <ele>632.474276</ele>
        <time>2024-09-08T07:50:53.000Z</time>
      </trkpt>
      <trkpt lat="48.629374" lon="10.016149">
        <ele>632.358992</ele>
        <time>2024-09-08T07:50:55.000Z</time>
      </trkpt>
      <trkpt lat="48.629510" lon="10.016174">
        <ele>632.233870</ele>
        <time>2024-09-08T07:50:57.000Z</time>
      </trkpt>
      <trkpt lat="48.629634" lon="10.016155">
        <ele>632.120041</ele>
        <time>2024-09-08T07:50:59.000Z</time>
      </trkpt>
      <trkpt lat="48.629757" lon="10.016107">
        <ele>632.004029</ele>
        <time>2024-09-08T07:51:01.000Z</time>
      </trkpt>
      <trkpt lat="48.629869" lon="10.016058">
        <ele>632.103516</ele>
        <time>2024-09-08T07:51:03.000Z</time>
      </trkpt>
      <trkpt lat="48.629989" lon="10.016019">
        <ele>632.487399</ele>
        <time>2024-09-08T07:51:05.000Z</time>
      </trkpt>
      <trkpt lat="48.630109" lon="10.015964">
        <ele>632.879562</ele>
        <time>2024-09-08T07:51:07.000Z</time>
      </trkpt>
      <trkpt lat="48.630220" lon="10.015930">
        <ele>633.233777</ele>
        <time>2024-09-08T07:51:09.000Z</time>
      </trkpt>
      <trkpt lat="48.630339" lon="10.015899">
        <ele>633.611447</ele>
        <time>2024-09-08T07:51:11.000Z</time>
      </trkpt>
      <trkpt lat="48.630460" lon="10.015867">
        <ele>633.995634</ele>
        <time>2024-09-08T07:51:13.000Z</time>
      </trkpt>
      <trkpt lat="48.630587" lon="10.015836">
        <ele>634.397985</ele>
        <time>2024-09-08T07:51:15.000Z</time>
      </trkpt>
      <trkpt lat="48.630717" lon="10.015793">
        <ele>634.814185</ele>
        <time>2024-09-08T07:51:17.000Z</time>
      </trkpt>
      <trkpt lat="48.630843" lon="10.015754">
        <ele>635.216434</ele>
        <time>2024-09-08T07:51:19.000Z</time>
      </trkpt>
      <trkpt lat="48.630972" lon="10.015705">
        <ele>635.632424</ele>
        <time>2024-09-08T07:51:21.000Z</time>
      </trkpt>
      <trkpt lat="48.631106" lon="10.015665">
        <ele>636.059612</ele>
        <time>2024-09-08T07:51:23.000Z</time>
      </trkpt>
      <trkpt lat="48.631235" lon="10.015627">
        <ele>636.470657</ele>
        <time>2024-09-08T07:51:25.000Z</time>
      </trkpt>
      <trkpt lat="48.631367" lon="10.015584">
        <ele>636.892971</ele>
        <time>2024-09-08T07:51:27.000Z</time>
      </trkpt>
      <trkpt lat="48.631494" lon="10.015549">
        <ele>637.296721</ele>
        <time>2024-09-08T07:51:29.000Z</time>
      </trkpt>
      <trkpt lat="48.631623" lon="10.015510">
        <ele>637.610784</ele>
        <time>2024-09-08T07:51:31.000Z</time>
      </trkpt>
      <trkpt lat="48.631751" lon="10.015469">
        <ele>637.732245</ele>
        <time>2024-09-08T07:51:33.000Z</time>
      </trkpt>
      <trkpt lat="48.631876" lon="10.015444">
        <ele>637.849297</ele>
        <time>2024-09-08T07:51:35.000Z</time>
      </trkpt>
      <trkpt lat="48.632007" lon="10.015401">
        <ele>637.973739</ele>
        <time>2024-09-08T07:51:37.000Z</time>
      </trkpt>
      <trkpt lat="48.632143" lon="10.015359">
        <ele>638.102597</ele>
        <time>2024-09-08T07:51:39.000Z</time>
      </trkpt>
      <trkpt lat="48.632284" lon="10.015325">
        <ele>638.235145</ele>
        <time>2024-09-08T07:51:41.000Z</time>
      </trkpt>
      <trkpt lat="48.632428" lon="10.015286">
        <ele>638.370951</ele>
        <time>2024-09-08T07:51:43.000Z</time>
      </trkpt>
      <trkpt lat="48.632570" lon="10.015243">
        <ele>638.505390</ele>
        <time>2024-09-08T07:51:45.000Z</time>
      </trkpt>
      <trkpt lat="48.632719" lon="10.015202">
        <ele>638.645982</ele>
        <time>2024-09-08T07:51:47.000Z</time>
      </trkpt>
      <trkpt lat="48.632856" lon="10.015168">
        <ele>638.774864</ele>
        <time>2024-09-08T07:51:49.000Z</time>
      </trkpt>
      <trkpt lat="48.632998" lon="10.015137">
        <ele>638.908054</ele>
        <time>2024-09-08T07:51:51.000Z</time>
      </trkpt>
      <trkpt lat="48.633139" lon="10.015106">
        <ele>639.040325</ele>
        <time>2024-09-08T07:51:52.999Z</time>
      </trkpt>
      <trkpt lat="48.633279" lon="10.015075">
        <ele>639.171677</ele>
        <time>2024-09-08T07:51:54.999Z</time>
      </trkpt>
      <trkpt lat="48.633426" lon="10.015053">
        <ele>638.955434</ele>
        <time>2024-09-08T07:51:56.999Z</time>
      </trkpt>
      <trkpt lat="48.633574" lon="10.015029">
        <ele>638.389731</ele>
        <time>2024-09-08T07:51:58.999Z</time>
      </trkpt>
      <trkpt lat="48.633722" lon="10.015015">
        <ele>637.826151</ele>
        <time>2024-09-08T07:52:00.999Z</time>
      </trkpt>
      <trkpt lat="48.633873" lon="10.015013">
        <ele>637.252245</ele>
        <time>2024-09-08T07:52:02.999Z</time>
      </trkpt>
      <trkpt lat="48.634026" lon="10.015007">
        <ele>636.670564</ele>
        <time>2024-09-08T07:52:04.999Z</time>
      </trkpt>
      <trkpt lat="48.634183" lon="10.015011">
        <ele>636.073792</ele>
        <time>2024-09-08T07:52:06.999Z</time>
      </trkpt>
      <trkpt lat="48.634347" lon="10.014976">
        <ele>635.444333</ele>
        <time>2024-09-08T07:52:08.999Z</time>
      </trkpt>
      <trkpt lat="48.634527" lon="10.014920">
        <ele>634.745923</ele>
        <time>2024-09-08T07:52:10.999Z</time>
      </trkpt>
      <trkpt lat="48.634619" lon="10.014875">
        <ele>634.378458</ele>
        <time>2024-09-08T07:52:11.999Z</time>
      </trkpt>
      <trkpt lat="48.634714" lon="10.014823">
        <ele>633.994510</ele>
        <time>2024-09-08T07:52:12.999Z</time>
      </trkpt>
      <trkpt lat="48.634809" lon="10.014766">
        <ele>633.606109</ele>
        <time>2024-09-08T07:52:13.999Z</time>
      </trkpt>
      <trkpt lat="48.634907" lon="10.014706">
        <ele>633.204323</ele>
        <time>2024-09-08T07:52:14.999Z</time>
      </trkpt>
      <trkpt lat="48.635007" lon="10.014634">
        <ele>632.783439</ele>
        <time>2024-09-08T07:52:15.999Z</time>
      </trkpt>
      <trkpt lat="48.635108" lon="10.014545">
        <ele>632.334789</ele>
        <time>2024-09-08T07:52:16.999Z</time>
      </trkpt>
      <trkpt lat="48.635207" lon="10.014445">
        <ele>631.851118</ele>
        <time>2024-09-08T07:52:17.999Z</time>
      </trkpt>
      <trkpt lat="48.635303" lon="10.014335">
        <ele>631.361812</ele>
        <time>2024-09-08T07:52:18.999Z</time>
      </trkpt>
      <trkpt lat="48.635395" lon="10.014217">
        <ele>630.871754</ele>
        <time>2024-09-08T07:52:19.999Z</time>
      </trkpt>
      <trkpt lat="48.635465" lon="10.014089">
        <ele>630.425606</ele>
        <time>2024-09-08T07:52:20.999Z</time>
      </trkpt>
      <trkpt lat="48.635542" lon="10.013965">
        <ele>629.968693</ele>
        <time>2024-09-08T07:52:21.999Z</time>
      </trkpt>
      <trkpt lat="48.635610" lon="10.013836">
        <ele>629.525586</ele>
        <time>2024-09-08T07:52:22.999Z</time>
      </trkpt>
      <trkpt lat="48.635676" lon="10.013697">
        <ele>629.065974</ele>
        <time>2024-09-08T07:52:23.999Z</time>
      </trkpt>
      <trkpt lat="48.635738" lon="10.013559">
        <ele>628.617876</ele>
        <time>2024-09-08T07:52:24.999Z</time>
      </trkpt>
      <trkpt lat="48.635796" lon="10.013421">
        <ele>628.178711</ele>
        <time>2024-09-08T07:52:25.999Z</time>
      </trkpt>
      <trkpt lat="48.635854" lon="10.013283">
        <ele>627.739546</ele>
        <time>2024-09-08T07:52:26.999Z</time>
      </trkpt>
      <trkpt lat="48.635911" lon="10.013147">
        <ele>627.307094</ele>
        <time>2024-09-08T07:52:27.999Z</time>
      </trkpt>
      <trkpt lat="48.635971" lon="10.013007">
        <ele>626.859020</ele>
        <time>2024-09-08T07:52:28.999Z</time>
      </trkpt>
      <trkpt lat="48.636035" lon="10.012873">
        <ele>626.415054</ele>
        <time>2024-09-08T07:52:29.999Z</time>
      </trkpt>
      <trkpt lat="48.636108" lon="10.012748">
        <ele>625.967107</ele>
        <time>2024-09-08T07:52:30.999Z</time>
      </trkpt>
      <trkpt lat="48.636178" lon="10.012627">
        <ele>625.535278</ele>
        <time>2024-09-08T07:52:31.999Z</time>
      </trkpt>
      <trkpt lat="48.636252" lon="10.012508">
        <ele>625.096500</ele>
        <time>2024-09-08T07:52:32.999Z</time>
      </trkpt>
      <trkpt lat="48.636325" lon="10.012390">
        <ele>624.377174</ele>
        <time>2024-09-08T07:52:33.999Z</time>
      </trkpt>
      <trkpt lat="48.636400" lon="10.012271">
        <ele>623.644323</ele>
        <time>2024-09-08T07:52:34.999Z</time>
      </trkpt>
      <trkpt lat="48.636480" lon="10.012158">
        <ele>622.906306</ele>
        <time>2024-09-08T07:52:35.999Z</time>
      </trkpt>
      <trkpt lat="48.636559" lon="10.012049">
        <ele>622.185333</ele>
        <time>2024-09-08T07:52:36.999Z</time>
      </trkpt>
      <trkpt lat="48.636644" lon="10.011940">
        <ele>621.433967</ele>
        <time>2024-09-08T07:52:37.999Z</time>
      </trkpt>
      <trkpt lat="48.636730" lon="10.011834">
        <ele>620.685957</ele>
        <time>2024-09-08T07:52:38.999Z</time>
      </trkpt>
      <trkpt lat="48.636822" lon="10.011731">
        <ele>619.914183</ele>
        <time>2024-09-08T07:52:39.999Z</time>
      </trkpt>
      <trkpt lat="48.636917" lon="10.011631">
        <ele>619.133763</ele>
        <time>2024-09-08T07:52:40.999Z</time>
      </trkpt>
      <trkpt lat="48.637019" lon="10.011524">
        <ele>618.296777</ele>
        <time>2024-09-08T07:52:41.999Z</time>
      </trkpt>
      <trkpt lat="48.637114" lon="10.011413">
        <ele>617.487364</ele>
        <time>2024-09-08T07:52:42.999Z</time>
      </trkpt>
      <trkpt lat="48.637215" lon="10.011291">
        <ele>616.615853</ele>
        <time>2024-09-08T07:52:43.999Z</time>
      </trkpt>
      <trkpt lat="48.637317" lon="10.011170">
        <ele>615.741817</ele>
        <time>2024-09-08T07:52:44.999Z</time>
      </trkpt>
      <trkpt lat="48.637420" lon="10.011044">
        <ele>614.848628</ele>
        <time>2024-09-08T07:52:45.999Z</time>
      </trkpt>
      <trkpt lat="48.637525" lon="10.010919">
        <ele>613.947673</ele>
        <time>2024-09-08T07:52:46.999Z</time>
      </trkpt>
      <trkpt lat="48.637628" lon="10.010795">
        <ele>613.060061</ele>
        <time>2024-09-08T07:52:48.000Z</time>
      </trkpt>
      <trkpt lat="48.637731" lon="10.010672">
        <ele>612.327946</ele>
        <time>2024-09-08T07:52:49.000Z</time>
      </trkpt>
      <trkpt lat="48.637833" lon="10.010549">
        <ele>611.618429</ele>
        <time>2024-09-08T07:52:50.000Z</time>
      </trkpt>
      <trkpt lat="48.637932" lon="10.010429">
        <ele>610.928394</ele>
        <time>2024-09-08T07:52:51.000Z</time>
      </trkpt>
      <trkpt lat="48.638032" lon="10.010306">
        <ele>610.227355</ele>
        <time>2024-09-08T07:52:52.000Z</time>
      </trkpt>
      <trkpt lat="48.638132" lon="10.010184">
        <ele>609.528577</ele>
        <time>2024-09-08T07:52:53.000Z</time>
      </trkpt>
      <trkpt lat="48.638229" lon="10.010068">
        <ele>608.856011</ele>
        <time>2024-09-08T07:52:54.000Z</time>
      </trkpt>
      <trkpt lat="48.638324" lon="10.009947">
        <ele>608.180516</ele>
        <time>2024-09-08T07:52:55.000Z</time>
      </trkpt>
      <trkpt lat="48.638414" lon="10.009821">
        <ele>607.513524</ele>
        <time>2024-09-08T07:52:56.000Z</time>
      </trkpt>
      <trkpt lat="48.638499" lon="10.009689">
        <ele>606.850963</ele>
        <time>2024-09-08T07:52:57.000Z</time>
      </trkpt>
      <trkpt lat="48.638580" lon="10.009549">
        <ele>606.182042</ele>
        <time>2024-09-08T07:52:58.000Z</time>
      </trkpt>
      <trkpt lat="48.638655" lon="10.009403">
        <ele>605.517263</ele>
        <time>2024-09-08T07:52:59.000Z</time>
      </trkpt>
      <trkpt lat="48.638721" lon="10.009249">
        <ele>604.857423</ele>
        <time>2024-09-08T07:53:00.000Z</time>
      </trkpt>
      <trkpt lat="48.638768" lon="10.009074">
        <ele>604.178356</ele>
        <time>2024-09-08T07:53:01.000Z</time>
      </trkpt>
      <trkpt lat="48.638805" lon="10.008890">
        <ele>603.486962</ele>
        <time>2024-09-08T07:53:02.000Z</time>
      </trkpt>
      <trkpt lat="48.638844" lon="10.008704">
        <ele>602.973005</ele>
        <time>2024-09-08T07:53:03.000Z</time>
      </trkpt>
      <trkpt lat="48.638876" lon="10.008513">
        <ele>602.600951</ele>
        <time>2024-09-08T07:53:04.000Z</time>
      </trkpt>
      <trkpt lat="48.638908" lon="10.008322">
        <ele>602.228897</ele>
        <time>2024-09-08T07:53:05.000Z</time>
      </trkpt>
      <trkpt lat="48.638942" lon="10.008129">
        <ele>601.851750</ele>
        <time>2024-09-08T07:53:06.000Z</time>
      </trkpt>
      <trkpt lat="48.638976" lon="10.007945">
        <ele>601.490997</ele>
        <time>2024-09-08T07:53:07.000Z</time>
      </trkpt>
      <trkpt lat="48.639008" lon="10.007768">
        <ele>601.144507</ele>
        <time>2024-09-08T07:53:08.000Z</time>
      </trkpt>
      <trkpt lat="48.639036" lon="10.007592">
        <ele>600.802692</ele>
        <time>2024-09-08T07:53:09.000Z</time>
      </trkpt>
      <trkpt lat="48.639063" lon="10.007416">
        <ele>600.461535</ele>
        <time>2024-09-08T07:53:10.000Z</time>
      </trkpt>
      <trkpt lat="48.639085" lon="10.007242">
        <ele>600.127033</ele>
        <time>2024-09-08T07:53:11.000Z</time>
      </trkpt>
      <trkpt lat="48.639110" lon="10.007070">
        <ele>599.794503</ele>
        <time>2024-09-08T07:53:12.000Z</time>
      </trkpt>
      <trkpt lat="48.639131" lon="10.006899">
        <ele>599.466097</ele>
        <time>2024-09-08T07:53:13.000Z</time>
      </trkpt>
      <trkpt lat="48.639149" lon="10.006735">
        <ele>599.152194</ele>
        <time>2024-09-08T07:53:14.000Z</time>
      </trkpt>
      <trkpt lat="48.639164" lon="10.006575">
        <ele>598.847061</ele>
        <time>2024-09-08T07:53:15.000Z</time>
      </trkpt>
      <trkpt lat="48.639182" lon="10.006415">
        <ele>598.540607</ele>
        <time>2024-09-08T07:53:16.000Z</time>
      </trkpt>
      <trkpt lat="48.639200" lon="10.006263">
        <ele>598.249032</ele>
        <time>2024-09-08T07:53:17.000Z</time>
      </trkpt>
      <trkpt lat="48.639212" lon="10.006107">
        <ele>598.022199</ele>
        <time>2024-09-08T07:53:18.000Z</time>
      </trkpt>
      <trkpt lat="48.639225" lon="10.005952">
        <ele>597.959458</ele>
        <time>2024-09-08T07:53:19.000Z</time>
      </trkpt>
      <trkpt lat="48.639237" lon="10.005802">
        <ele>597.898785</ele>
        <time>2024-09-08T07:53:20.000Z</time>
      </trkpt>
      <trkpt lat="48.639246" lon="10.005634">
        <ele>597.831103</ele>
        <time>2024-09-08T07:53:21.000Z</time>
      </trkpt>
      <trkpt lat="48.639254" lon="10.005483">
        <ele>597.770273</ele>
        <time>2024-09-08T07:53:22.000Z</time>
      </trkpt>
      <trkpt lat="48.639267" lon="10.005338">
        <ele>597.711514</ele>
        <time>2024-09-08T07:53:23.000Z</time>
      </trkpt>
      <trkpt lat="48.639279" lon="10.005194">
        <ele>597.653232</ele>
        <time>2024-09-08T07:53:24.000Z</time>
      </trkpt>
      <trkpt lat="48.639287" lon="10.005054">
        <ele>597.596805</ele>
        <time>2024-09-08T07:53:25.000Z</time>
      </trkpt>
      <trkpt lat="48.639301" lon="10.004906">
        <ele>597.536769</ele>
        <time>2024-09-08T07:53:26.000Z</time>
      </trkpt>
      <trkpt lat="48.639329" lon="10.004768">
        <ele>597.478801</ele>
        <time>2024-09-08T07:53:27.000Z</time>
      </trkpt>
      <trkpt lat="48.639388" lon="10.004653">
        <ele>597.420337</ele>
        <time>2024-09-08T07:53:28.000Z</time>
      </trkpt>
      <trkpt lat="48.639465" lon="10.004577">
        <ele>597.364473</ele>
        <time>2024-09-08T07:53:29.000Z</time>
      </trkpt>
      <trkpt lat="48.639632" lon="10.004542">
        <ele>597.262022</ele>
        <time>2024-09-08T07:53:31.000Z</time>
      </trkpt>
      <trkpt lat="48.639722" lon="10.004536">
        <ele>597.207277</ele>
        <time>2024-09-08T07:53:32.000Z</time>
      </trkpt>
      <trkpt lat="48.639816" lon="10.004485">
        <ele>597.146595</ele>
        <time>2024-09-08T07:53:33.000Z</time>
      </trkpt>
      <trkpt lat="48.639906" lon="10.004484">
        <ele>597.091902</ele>
        <time>2024-09-08T07:53:34.000Z</time>
      </trkpt>
      <trkpt lat="48.640068" lon="10.004377">
        <ele>596.984490</ele>
        <time>2024-09-08T07:53:36.000Z</time>
      </trkpt>
      <trkpt lat="48.640171" lon="10.004163">
        <ele>596.631732</ele>
        <time>2024-09-08T07:53:38.000Z</time>
      </trkpt>
      <trkpt lat="48.640227" lon="10.003916">
        <ele>596.156882</ele>
        <time>2024-09-08T07:53:40.000Z</time>
      </trkpt>
      <trkpt lat="48.640267" lon="10.003669">
        <ele>595.694442</ele>
        <time>2024-09-08T07:53:42.000Z</time>
      </trkpt>
      <trkpt lat="48.640356" lon="10.003501">
        <ele>595.302893</ele>
        <time>2024-09-08T07:53:44.000Z</time>
      </trkpt>
      <trkpt lat="48.640537" lon="10.003513">
        <ele>594.804322</ele>
        <time>2024-09-08T07:53:46.000Z</time>
      </trkpt>
      <trkpt lat="48.640628" lon="10.003549">
        <ele>594.545485</ele>
        <time>2024-09-08T07:53:47.000Z</time>
      </trkpt>
      <trkpt lat="48.640713" lon="10.003630">
        <ele>594.269063</ele>
        <time>2024-09-08T07:53:48.000Z</time>
      </trkpt>
      <trkpt lat="48.640810" lon="10.003681">
        <ele>593.986479</ele>
        <time>2024-09-08T07:53:48.999Z</time>
      </trkpt>
      <trkpt lat="48.640909" lon="10.003720">
        <ele>593.704962</ele>
        <time>2024-09-08T07:53:49.999Z</time>
      </trkpt>
      <trkpt lat="48.641013" lon="10.003747">
        <ele>593.414584</ele>
        <time>2024-09-08T07:53:50.999Z</time>
      </trkpt>
      <trkpt lat="48.641110" lon="10.003770">
        <ele>593.144394</ele>
        <time>2024-09-08T07:53:51.999Z</time>
      </trkpt>
      <trkpt lat="48.641213" lon="10.003795">
        <ele>592.857326</ele>
        <time>2024-09-08T07:53:52.999Z</time>
      </trkpt>
      <trkpt lat="48.641313" lon="10.003821">
        <ele>592.578105</ele>
        <time>2024-09-08T07:53:53.999Z</time>
      </trkpt>
      <trkpt lat="48.641411" lon="10.003845">
        <ele>592.304911</ele>
        <time>2024-09-08T07:53:54.999Z</time>
      </trkpt>
      <trkpt lat="48.641509" lon="10.003860">
        <ele>592.033849</ele>
        <time>2024-09-08T07:53:55.999Z</time>
      </trkpt>
      <trkpt lat="48.641604" lon="10.003880">
        <ele>591.888327</ele>
        <time>2024-09-08T07:53:56.999Z</time>
      </trkpt>
      <trkpt lat="48.641705" lon="10.003901">
        <ele>591.753213</ele>
        <time>2024-09-08T07:53:57.999Z</time>
      </trkpt>
      <trkpt lat="48.641806" lon="10.003916">
        <ele>591.618713</ele>
        <time>2024-09-08T07:53:58.999Z</time>
      </trkpt>
      <trkpt lat="48.641909" lon="10.003931">
        <ele>591.481575</ele>
        <time>2024-09-08T07:53:59.999Z</time>
      </trkpt>
      <trkpt lat="48.642017" lon="10.003929">
        <ele>591.338431</ele>
        <time>2024-09-08T07:54:00.999Z</time>
      </trkpt>
      <trkpt lat="48.642118" lon="10.003914">
        <ele>591.203931</ele>
        <time>2024-09-08T07:54:01.999Z</time>
      </trkpt>
      <trkpt lat="48.642219" lon="10.003888">
        <ele>591.068152</ele>
        <time>2024-09-08T07:54:02.999Z</time>
      </trkpt>
      <trkpt lat="48.642313" lon="10.003856">
        <ele>590.940460</ele>
        <time>2024-09-08T07:54:03.999Z</time>
      </trkpt>
      <trkpt lat="48.642405" lon="10.003826">
        <ele>590.815733</ele>
        <time>2024-09-08T07:54:04.999Z</time>
      </trkpt>
      <trkpt lat="48.642579" lon="10.003772">
        <ele>590.580330</ele>
        <time>2024-09-08T07:54:06.999Z</time>
      </trkpt>
      <trkpt lat="48.642745" lon="10.003696">
        <ele>590.350482</ele>
        <time>2024-09-08T07:54:08.999Z</time>
      </trkpt>
      <trkpt lat="48.642919" lon="10.003677">
        <ele>590.119278</ele>
        <time>2024-09-08T07:54:10.999Z</time>
      </trkpt>
      <trkpt lat="48.643071" lon="10.003591">
        <ele>589.904213</ele>
        <time>2024-09-08T07:54:12.999Z</time>
      </trkpt>
      <trkpt lat="48.643221" lon="10.003494">
        <ele>589.688029</ele>
        <time>2024-09-08T07:54:14.999Z</time>
      </trkpt>
      <trkpt lat="48.643380" lon="10.003402">
        <ele>590.167414</ele>
        <time>2024-09-08T07:54:16.999Z</time>
      </trkpt>
      <trkpt lat="48.643509" lon="10.003266">
        <ele>590.924471</ele>
        <time>2024-09-08T07:54:18.999Z</time>
      </trkpt>
      <trkpt lat="48.643629" lon="10.003119">
        <ele>591.667897</ele>
        <time>2024-09-08T07:54:20.999Z</time>
      </trkpt>
      <trkpt lat="48.643757" lon="10.003010">
        <ele>592.375149</ele>
        <time>2024-09-08T07:54:22.999Z</time>
      </trkpt>
      <trkpt lat="48.643874" lon="10.002904">
        <ele>593.031793</ele>
        <time>2024-09-08T07:54:24.999Z</time>
      </trkpt>
      <trkpt lat="48.643979" lon="10.002798">
        <ele>593.639581</ele>
        <time>2024-09-08T07:54:26.999Z</time>
      </trkpt>
      <trkpt lat="48.644087" lon="10.002699">
        <ele>594.247607</ele>
        <time>2024-09-08T07:54:28.999Z</time>
      </trkpt>
      <trkpt lat="48.644190" lon="10.002601">
        <ele>594.833471</ele>
        <time>2024-09-08T07:54:30.999Z</time>
      </trkpt>
      <trkpt lat="48.644289" lon="10.002504">
        <ele>595.401384</ele>
        <time>2024-09-08T07:54:32.999Z</time>
      </trkpt>
      <trkpt lat="48.644381" lon="10.002415">
        <ele>595.927177</ele>
        <time>2024-09-08T07:54:34.999Z</time>
      </trkpt>
      <trkpt lat="48.644465" lon="10.002340">
        <ele>596.396820</ele>
        <time>2024-09-08T07:54:36.999Z</time>
      </trkpt>
      <trkpt lat="48.644547" lon="10.002276">
        <ele>596.841102</ele>
        <time>2024-09-08T07:54:38.999Z</time>
      </trkpt>
      <trkpt lat="48.644637" lon="10.002218">
        <ele>597.312148</ele>
        <time>2024-09-08T07:54:40.999Z</time>
      </trkpt>
      <trkpt lat="48.644755" lon="10.002125">
        <ele>597.952802</ele>
        <time>2024-09-08T07:54:43.999Z</time>
      </trkpt>
      <trkpt lat="48.644877" lon="10.002043">
        <ele>598.874377</ele>
        <time>2024-09-08T07:54:46.999Z</time>
      </trkpt>
      <trkpt lat="48.645003" lon="10.001986">
        <ele>600.059809</ele>
        <time>2024-09-08T07:54:49.999Z</time>
      </trkpt>
      <trkpt lat="48.645127" lon="10.001921">
        <ele>601.242705</ele>
        <time>2024-09-08T07:54:53.000Z</time>
      </trkpt>
      <trkpt lat="48.645246" lon="10.001850">
        <ele>602.395728</ele>
        <time>2024-09-08T07:54:56.000Z</time>
      </trkpt>
      <trkpt lat="48.645361" lon="10.001772">
        <ele>603.531687</ele>
        <time>2024-09-08T07:54:59.000Z</time>
      </trkpt>
      <trkpt lat="48.645469" lon="10.001684">
        <ele>604.637330</ele>
        <time>2024-09-08T07:55:02.000Z</time>
      </trkpt>
      <trkpt lat="48.645561" lon="10.001587">
        <ele>605.648018</ele>
        <time>2024-09-08T07:55:05.000Z</time>
      </trkpt>
      <trkpt lat="48.645641" lon="10.001485">
        <ele>606.590924</ele>
        <time>2024-09-08T07:55:08.000Z</time>
      </trkpt>
      <trkpt lat="48.645712" lon="10.001367">
        <ele>607.541453</ele>
        <time>2024-09-08T07:55:11.000Z</time>
      </trkpt>
      <trkpt lat="48.645765" lon="10.001250">
        <ele>608.386325</ele>
        <time>2024-09-08T07:55:14.000Z</time>
      </trkpt>
      <trkpt lat="48.645806" lon="10.001112">
        <ele>609.287490</ele>
        <time>2024-09-08T07:55:17.000Z</time>
      </trkpt>
      <trkpt lat="48.645850" lon="10.000988">
        <ele>610.125768</ele>
        <time>2024-09-08T07:55:20.000Z</time>
      </trkpt>
      <trkpt lat="48.645901" lon="10.000834">
        <ele>611.151717</ele>
        <time>2024-09-08T07:55:24.000Z</time>
      </trkpt>
      <trkpt lat="48.645950" lon="10.000713">
        <ele>611.996951</ele>
        <time>2024-09-08T07:55:27.000Z</time>
      </trkpt>
      <trkpt lat="48.646010" lon="10.000561">
        <ele>613.051480</ele>
        <time>2024-09-08T07:55:31.000Z</time>
      </trkpt>
      <trkpt lat="48.646071" lon="10.000428">
        <ele>614.015736</ele>
        <time>2024-09-08T07:55:36.000Z</time>
      </trkpt>
      <trkpt lat="48.646119" lon="10.000313">
        <ele>614.886542</ele>
        <time>2024-09-08T07:55:40.000Z</time>
      </trkpt>
      <trkpt lat="48.646182" lon="10.000175">
        <ele>616.065553</ele>
        <time>2024-09-08T07:55:45.000Z</time>
      </trkpt>
      <trkpt lat="48.646252" lon="10.000040">
        <ele>617.271773</ele>
        <time>2024-09-08T07:55:50.000Z</time>
      </trkpt>
      <trkpt lat="48.646310" lon="9.999926">
        <ele>618.283104</ele>
        <time>2024-09-08T07:55:54.000Z</time>
      </trkpt>
      <trkpt lat="48.646372" lon="9.999818">
        <ele>619.288740</ele>
        <time>2024-09-08T07:55:57.999Z</time>
      </trkpt>
      <trkpt lat="48.646427" lon="9.999695">
        <ele>620.332675</ele>
        <time>2024-09-08T07:56:01.999Z</time>
      </trkpt>
      <trkpt lat="48.646489" lon="9.999569">
        <ele>621.436937</ele>
        <time>2024-09-08T07:56:05.999Z</time>
      </trkpt>
      <trkpt lat="48.646553" lon="9.999440">
        <ele>622.570827</ele>
        <time>2024-09-08T07:56:09.999Z</time>
      </trkpt>
      <trkpt lat="48.646612" lon="9.999320">
        <ele>623.622201</ele>
        <time>2024-09-08T07:56:13.999Z</time>
      </trkpt>
      <trkpt lat="48.646685" lon="9.999206">
        <ele>624.738073</ele>
        <time>2024-09-08T07:56:17.999Z</time>
      </trkpt>
      <trkpt lat="48.646750" lon="9.999078">
        <ele>625.872800</ele>
        <time>2024-09-08T07:56:21.999Z</time>
      </trkpt>
      <trkpt lat="48.646827" lon="9.998956">
        <ele>627.058695</ele>
        <time>2024-09-08T07:56:25.999Z</time>
      </trkpt>
      <trkpt lat="48.646890" lon="9.998814">
        <ele>628.260931</ele>
        <time>2024-09-08T07:56:29.999Z</time>
      </trkpt>
      <trkpt lat="48.646973" lon="9.998668">
        <ele>629.614724</ele>
        <time>2024-09-08T07:56:33.999Z</time>
      </trkpt>
      <trkpt lat="48.647034" lon="9.998562">
        <ele>630.602765</ele>
        <time>2024-09-08T07:56:35.999Z</time>
      </trkpt>
      <trkpt lat="48.647099" lon="9.998408">
        <ele>631.887217</ele>
        <time>2024-09-08T07:56:38.999Z</time>
      </trkpt>
      <trkpt lat="48.647174" lon="9.998271">
        <ele>633.137762</ele>
        <time>2024-09-08T07:56:41.999Z</time>
      </trkpt>
      <trkpt lat="48.647251" lon="9.998122">
        <ele>633.904207</ele>
        <time>2024-09-08T07:56:44.999Z</time>
      </trkpt>
      <trkpt lat="48.647321" lon="9.997982">
        <ele>634.314378</ele>
        <time>2024-09-08T07:56:47.999Z</time>
      </trkpt>
      <trkpt lat="48.647390" lon="9.997840">
        <ele>634.726180</ele>
        <time>2024-09-08T07:56:50.999Z</time>
      </trkpt>
      <trkpt lat="48.647450" lon="9.997694">
        <ele>635.127866</ele>
        <time>2024-09-08T07:56:53.999Z</time>
      </trkpt>
      <trkpt lat="48.647512" lon="9.997540">
        <ele>635.549174</ele>
        <time>2024-09-08T07:56:56.999Z</time>
      </trkpt>
      <trkpt lat="48.647581" lon="9.997394">
        <ele>635.968540</ele>
        <time>2024-09-08T07:57:00.000Z</time>
      </trkpt>
      <trkpt lat="48.647648" lon="9.997245">
        <ele>636.389605</ele>
        <time>2024-09-08T07:57:03.000Z</time>
      </trkpt>
      <trkpt lat="48.647726" lon="9.997094">
        <ele>636.837393</ele>
        <time>2024-09-08T07:57:06.000Z</time>
      </trkpt>
      <trkpt lat="48.647807" lon="9.996945">
        <ele>637.288172</ele>
        <time>2024-09-08T07:57:09.000Z</time>
      </trkpt>
      <trkpt lat="48.647892" lon="9.996806">
        <ele>637.730649</ele>
        <time>2024-09-08T07:57:12.000Z</time>
      </trkpt>
      <trkpt lat="48.647988" lon="9.996696">
        <ele>638.156407</ele>
        <time>2024-09-08T07:57:15.000Z</time>
      </trkpt>
      <trkpt lat="48.648084" lon="9.996602">
        <ele>638.560702</ele>
        <time>2024-09-08T07:57:18.000Z</time>
      </trkpt>
      <trkpt lat="48.648192" lon="9.996519">
        <ele>638.988997</ele>
        <time>2024-09-08T07:57:21.000Z</time>
      </trkpt>
      <trkpt lat="48.648302" lon="9.996455">
        <ele>639.405705</ele>
        <time>2024-09-08T07:57:24.000Z</time>
      </trkpt>
      <trkpt lat="48.648388" lon="9.996414">
        <ele>639.724529</ele>
        <time>2024-09-08T07:57:26.000Z</time>
      </trkpt>
      <trkpt lat="48.648516" lon="9.996361">
        <ele>639.924397</ele>
        <time>2024-09-08T07:57:29.000Z</time>
      </trkpt>
      <trkpt lat="48.648644" lon="9.996296">
        <ele>639.789198</ele>
        <time>2024-09-08T07:57:32.000Z</time>
      </trkpt>
      <trkpt lat="48.648735" lon="9.996231">
        <ele>639.688435</ele>
        <time>2024-09-08T07:57:35.000Z</time>
      </trkpt>
      <trkpt lat="48.648917" lon="9.996221">
        <ele>639.506063</ele>
        <time>2024-09-08T07:58:10.999Z</time>
      </trkpt>
      <trkpt lat="48.649020" lon="9.996204">
        <ele>639.402309</ele>
        <time>2024-09-08T07:58:12.999Z</time>
      </trkpt>
      <trkpt lat="48.649138" lon="9.996172">
        <ele>639.282264</ele>
        <time>2024-09-08T07:58:14.999Z</time>
      </trkpt>
      <trkpt lat="48.649263" lon="9.996138">
        <ele>639.155086</ele>
        <time>2024-09-08T07:58:16.999Z</time>
      </trkpt>
      <trkpt lat="48.649385" lon="9.996105">
        <ele>639.030982</ele>
        <time>2024-09-08T07:58:18.999Z</time>
      </trkpt>
      <trkpt lat="48.649516" lon="9.996080">
        <ele>638.898762</ele>
        <time>2024-09-08T07:58:20.999Z</time>
      </trkpt>
      <trkpt lat="48.649644" lon="9.996051">
        <ele>638.769157</ele>
        <time>2024-09-08T07:58:22.999Z</time>
      </trkpt>
      <trkpt lat="48.649773" lon="9.996022">
        <ele>638.638562</ele>
        <time>2024-09-08T07:58:24.999Z</time>
      </trkpt>
      <trkpt lat="48.649907" lon="9.995992">
        <ele>638.502917</ele>
        <time>2024-09-08T07:58:26.999Z</time>
      </trkpt>
      <trkpt lat="48.650052" lon="9.995948">
        <ele>638.354827</ele>
        <time>2024-09-08T07:58:28.999Z</time>
      </trkpt>
      <trkpt lat="48.650195" lon="9.995922">
        <ele>638.210600</ele>
        <time>2024-09-08T07:58:30.999Z</time>
      </trkpt>
      <trkpt lat="48.650331" lon="9.995897">
        <ele>637.880393</ele>
        <time>2024-09-08T07:58:32.999Z</time>
      </trkpt>
      <trkpt lat="48.650462" lon="9.995839">
        <ele>637.502356</ele>
        <time>2024-09-08T07:58:34.999Z</time>
      </trkpt>
      <trkpt lat="48.650600" lon="9.995781">
        <ele>637.105673</ele>
        <time>2024-09-08T07:58:36.999Z</time>
      </trkpt>
      <trkpt lat="48.650743" lon="9.995728">
        <ele>636.697902</ele>
        <time>2024-09-08T07:58:38.999Z</time>
      </trkpt>
      <trkpt lat="48.650886" lon="9.995692">
        <ele>636.296391</ele>
        <time>2024-09-08T07:58:40.999Z</time>
      </trkpt>
      <trkpt lat="48.651032" lon="9.995665">
        <ele>635.889004</ele>
        <time>2024-09-08T07:58:42.999Z</time>
      </trkpt>
      <trkpt lat="48.651189" lon="9.995642">
        <ele>635.452125</ele>
        <time>2024-09-08T07:58:44.999Z</time>
      </trkpt>
      <trkpt lat="48.651353" lon="9.995613">
        <ele>634.994801</ele>
        <time>2024-09-08T07:58:46.999Z</time>
      </trkpt>
      <trkpt lat="48.651523" lon="9.995589">
        <ele>634.521904</ele>
        <time>2024-09-08T07:58:48.999Z</time>
      </trkpt>
      <trkpt lat="48.651704" lon="9.995567">
        <ele>634.018970</ele>
        <time>2024-09-08T07:58:50.999Z</time>
      </trkpt>
      <trkpt lat="48.651797" lon="9.995560">
        <ele>633.761068</ele>
        <time>2024-09-08T07:58:51.999Z</time>
      </trkpt>
      <trkpt lat="48.651888" lon="9.995545">
        <ele>633.507533</ele>
        <time>2024-09-08T07:58:52.999Z</time>
      </trkpt>
      <trkpt lat="48.651984" lon="9.995550">
        <ele>633.241482</ele>
        <time>2024-09-08T07:58:53.999Z</time>
      </trkpt>
      <trkpt lat="48.652083" lon="9.995563">
        <ele>633.261103</ele>
        <time>2024-09-08T07:58:54.999Z</time>
      </trkpt>
      <trkpt lat="48.652182" lon="9.995577">
        <ele>633.331663</ele>
        <time>2024-09-08T07:58:55.999Z</time>
      </trkpt>
      <trkpt lat="48.652283" lon="9.995591">
        <ele>633.403637</ele>
        <time>2024-09-08T07:58:56.999Z</time>
      </trkpt>
      <trkpt lat="48.652386" lon="9.995607">
        <ele>633.477114</ele>
        <time>2024-09-08T07:58:57.999Z</time>
      </trkpt>
      <trkpt lat="48.652489" lon="9.995628">
        <ele>633.550867</ele>
        <time>2024-09-08T07:58:58.999Z</time>
      </trkpt>
      <trkpt lat="48.652588" lon="9.995631">
        <ele>633.621135</ele>
        <time>2024-09-08T07:58:59.999Z</time>
      </trkpt>
      <trkpt lat="48.652681" lon="9.995641">
        <ele>633.687298</ele>
        <time>2024-09-08T07:59:00.999Z</time>
      </trkpt>
      <trkpt lat="48.652773" lon="9.995655">
        <ele>633.752914</ele>
        <time>2024-09-08T07:59:01.999Z</time>
      </trkpt>
      <trkpt lat="48.652864" lon="9.995663">
        <ele>633.817600</ele>
        <time>2024-09-08T07:59:02.999Z</time>
      </trkpt>
      <trkpt lat="48.653036" lon="9.995652">
        <ele>633.939767</ele>
        <time>2024-09-08T07:59:04.999Z</time>
      </trkpt>
      <trkpt lat="48.653192" lon="9.995636">
        <ele>634.050725</ele>
        <time>2024-09-08T07:59:06.999Z</time>
      </trkpt>
      <trkpt lat="48.653333" lon="9.995607">
        <ele>634.151703</ele>
        <time>2024-09-08T07:59:08.999Z</time>
      </trkpt>
      <trkpt lat="48.653470" lon="9.995565">
        <ele>634.250898</ele>
        <time>2024-09-08T07:59:10.999Z</time>
      </trkpt>
      <trkpt lat="48.653608" lon="9.995533">
        <ele>634.349970</ele>
        <time>2024-09-08T07:59:12.999Z</time>
      </trkpt>
      <trkpt lat="48.653742" lon="9.995511">
        <ele>634.445620</ele>
        <time>2024-09-08T07:59:14.999Z</time>
      </trkpt>
      <trkpt lat="48.653881" lon="9.995479">
        <ele>634.489793</ele>
        <time>2024-09-08T07:59:16.999Z</time>
      </trkpt>
      <trkpt lat="48.654023" lon="9.995443">
        <ele>634.508471</ele>
        <time>2024-09-08T07:59:18.999Z</time>
      </trkpt>
      <trkpt lat="48.654165" lon="9.995402">
        <ele>634.527225</ele>
        <time>2024-09-08T07:59:20.999Z</time>
      </trkpt>
      <trkpt lat="48.654309" lon="9.995357">
        <ele>634.546300</ele>
        <time>2024-09-08T07:59:22.999Z</time>
      </trkpt>
      <trkpt lat="48.654462" lon="9.995311">
        <ele>634.566536</ele>
        <time>2024-09-08T07:59:24.999Z</time>
      </trkpt>
      <trkpt lat="48.654618" lon="9.995272">
        <ele>634.587048</ele>
        <time>2024-09-08T07:59:26.999Z</time>
      </trkpt>
      <trkpt lat="48.654778" lon="9.995253">
        <ele>634.607868</ele>
        <time>2024-09-08T07:59:28.999Z</time>
      </trkpt>
      <trkpt lat="48.654931" lon="9.995270">
        <ele>634.627770</ele>
        <time>2024-09-08T07:59:30.999Z</time>
      </trkpt>
      <trkpt lat="48.655078" lon="9.995308">
        <ele>634.647116</ele>
        <time>2024-09-08T07:59:32.999Z</time>
      </trkpt>
      <trkpt lat="48.655224" lon="9.995346">
        <ele>634.666335</ele>
        <time>2024-09-08T07:59:34.999Z</time>
      </trkpt>
      <trkpt lat="48.655364" lon="9.995384">
        <ele>634.684786</ele>
        <time>2024-09-08T07:59:36.999Z</time>
      </trkpt>
      <trkpt lat="48.655505" lon="9.995417">
        <ele>634.703296</ele>
        <time>2024-09-08T07:59:38.999Z</time>
      </trkpt>
      <trkpt lat="48.655648" lon="9.995438">
        <ele>634.754931</ele>
        <time>2024-09-08T07:59:40.999Z</time>
      </trkpt>
      <trkpt lat="48.655800" lon="9.995422">
        <ele>634.832713</ele>
        <time>2024-09-08T07:59:42.999Z</time>
      </trkpt>
      <trkpt lat="48.655947" lon="9.995380">
        <ele>634.909079</ele>
        <time>2024-09-08T07:59:44.999Z</time>
      </trkpt>
      <trkpt lat="48.656091" lon="9.995326">
        <ele>634.984810</ele>
        <time>2024-09-08T07:59:46.999Z</time>
      </trkpt>
      <trkpt lat="48.656236" lon="9.995265">
        <ele>635.061636</ele>
        <time>2024-09-08T07:59:48.999Z</time>
      </trkpt>
      <trkpt lat="48.656385" lon="9.995206">
        <ele>635.140257</ele>
        <time>2024-09-08T07:59:50.999Z</time>
      </trkpt>
      <trkpt lat="48.656534" lon="9.995139">
        <ele>635.219604</ele>
        <time>2024-09-08T07:59:52.999Z</time>
      </trkpt>
      <trkpt lat="48.656692" lon="9.995078">
        <ele>635.302842</ele>
        <time>2024-09-08T07:59:54.999Z</time>
      </trkpt>
      <trkpt lat="48.656858" lon="9.995018">
        <ele>635.389965</ele>
        <time>2024-09-08T07:59:56.999Z</time>
      </trkpt>
      <trkpt lat="48.657032" lon="9.994975">
        <ele>635.479965</ele>
        <time>2024-09-08T07:59:58.999Z</time>
      </trkpt>
      <trkpt lat="48.657198" lon="9.994930">
        <ele>635.566054</ele>
        <time>2024-09-08T08:00:00.999Z</time>
      </trkpt>
      <trkpt lat="48.657365" lon="9.994876">
        <ele>635.755955</ele>
        <time>2024-09-08T08:00:02.999Z</time>
      </trkpt>
      <trkpt lat="48.657527" lon="9.994822">
        <ele>636.197800</ele>
        <time>2024-09-08T08:00:04.999Z</time>
      </trkpt>
      <trkpt lat="48.657676" lon="9.994786">
        <ele>636.599703</ele>
        <time>2024-09-08T08:00:06.999Z</time>
      </trkpt>
      <trkpt lat="48.657823" lon="9.994749">
        <ele>636.996632</ele>
        <time>2024-09-08T08:00:08.999Z</time>
      </trkpt>
      <trkpt lat="48.657963" lon="9.994721">
        <ele>637.372781</ele>
        <time>2024-09-08T08:00:10.999Z</time>
      </trkpt>
      <trkpt lat="48.658093" lon="9.994677">
        <ele>637.727602</ele>
        <time>2024-09-08T08:00:12.999Z</time>
      </trkpt>
      <trkpt lat="48.658223" lon="9.994622">
        <ele>638.087141</ele>
        <time>2024-09-08T08:00:14.999Z</time>
      </trkpt>
      <trkpt lat="48.658349" lon="9.994570">
        <ele>638.435006</ele>
        <time>2024-09-08T08:00:16.999Z</time>
      </trkpt>
      <trkpt lat="48.658478" lon="9.994525">
        <ele>638.787619</ele>
        <time>2024-09-08T08:00:18.999Z</time>
      </trkpt>
      <trkpt lat="48.658604" lon="9.994474">
        <ele>639.135025</ele>
        <time>2024-09-08T08:00:20.999Z</time>
      </trkpt>
      <trkpt lat="48.658730" lon="9.994429">
        <ele>639.479855</ele>
        <time>2024-09-08T08:00:22.999Z</time>
      </trkpt>
      <trkpt lat="48.658854" lon="9.994377">
        <ele>639.822583</ele>
        <time>2024-09-08T08:00:24.999Z</time>
      </trkpt>
      <trkpt lat="48.658977" lon="9.994342">
        <ele>640.155946</ele>
        <time>2024-09-08T08:00:26.999Z</time>
      </trkpt>
      <trkpt lat="48.659099" lon="9.994302">
        <ele>640.422367</ele>
        <time>2024-09-08T08:00:28.999Z</time>
      </trkpt>
      <trkpt lat="48.659219" lon="9.994265">
        <ele>640.434588</ele>
        <time>2024-09-08T08:00:30.999Z</time>
      </trkpt>
      <trkpt lat="48.659343" lon="9.994233">
        <ele>640.447141</ele>
        <time>2024-09-08T08:00:32.999Z</time>
      </trkpt>
      <trkpt lat="48.659469" lon="9.994210">
        <ele>640.459805</ele>
        <time>2024-09-08T08:00:34.999Z</time>
      </trkpt>
      <trkpt lat="48.659590" lon="9.994185">
        <ele>640.471992</ele>
        <time>2024-09-08T08:00:36.999Z</time>
      </trkpt>
      <trkpt lat="48.659713" lon="9.994176">
        <ele>640.484281</ele>
        <time>2024-09-08T08:00:38.999Z</time>
      </trkpt>
      <trkpt lat="48.659844" lon="9.994170">
        <ele>640.497360</ele>
        <time>2024-09-08T08:00:40.999Z</time>
      </trkpt>
      <trkpt lat="48.659972" lon="9.994172">
        <ele>640.510134</ele>
        <time>2024-09-08T08:00:42.999Z</time>
      </trkpt>
      <trkpt lat="48.660107" lon="9.994184">
        <ele>640.523629</ele>
        <time>2024-09-08T08:00:44.999Z</time>
      </trkpt>
      <trkpt lat="48.660249" lon="9.994211">
        <ele>640.537911</ele>
        <time>2024-09-08T08:00:46.999Z</time>
      </trkpt>
      <trkpt lat="48.660396" lon="9.994235">
        <ele>640.552665</ele>
        <time>2024-09-08T08:00:48.999Z</time>
      </trkpt>
      <trkpt lat="48.660544" lon="9.994266">
        <ele>640.567575</ele>
        <time>2024-09-08T08:00:50.999Z</time>
      </trkpt>
      <trkpt lat="48.660699" lon="9.994297">
        <ele>640.583177</ele>
        <time>2024-09-08T08:00:52.999Z</time>
      </trkpt>
      <trkpt lat="48.660866" lon="9.994315">
        <ele>640.582060</ele>
        <time>2024-09-08T08:00:54.999Z</time>
      </trkpt>
      <trkpt lat="48.661045" lon="9.994322">
        <ele>640.068429</ele>
        <time>2024-09-08T08:00:56.999Z</time>
      </trkpt>
      <trkpt lat="48.661138" lon="9.994326">
        <ele>639.801552</ele>
        <time>2024-09-08T08:00:57.999Z</time>
      </trkpt>
      <trkpt lat="48.661231" lon="9.994319">
        <ele>639.534453</ele>
        <time>2024-09-08T08:00:58.999Z</time>
      </trkpt>
      <trkpt lat="48.661325" lon="9.994309">
        <ele>639.264150</ele>
        <time>2024-09-08T08:00:59.999Z</time>
      </trkpt>
      <trkpt lat="48.661421" lon="9.994298">
        <ele>638.987988</ele>
        <time>2024-09-08T08:01:00.999Z</time>
      </trkpt>
      <trkpt lat="48.661517" lon="9.994280">
        <ele>638.710509</ele>
        <time>2024-09-08T08:01:01.999Z</time>
      </trkpt>
      <trkpt lat="48.661612" lon="9.994260">
        <ele>638.435381</ele>
        <time>2024-09-08T08:01:02.999Z</time>
      </trkpt>
      <trkpt lat="48.661707" lon="9.994232">
        <ele>638.157759</ele>
        <time>2024-09-08T08:01:03.999Z</time>
      </trkpt>
      <trkpt lat="48.661802" lon="9.994196">
        <ele>637.876846</ele>
        <time>2024-09-08T08:01:04.999Z</time>
      </trkpt>
      <trkpt lat="48.661896" lon="9.994140">
        <ele>637.587084</ele>
        <time>2024-09-08T08:01:05.999Z</time>
      </trkpt>
      <trkpt lat="48.661985" lon="9.994077">
        <ele>637.305263</ele>
        <time>2024-09-08T08:01:06.999Z</time>
      </trkpt>
      <trkpt lat="48.662072" lon="9.994002">
        <ele>637.018085</ele>
        <time>2024-09-08T08:01:07.999Z</time>
      </trkpt>
      <trkpt lat="48.662160" lon="9.993933">
        <ele>636.733815</ele>
        <time>2024-09-08T08:01:08.999Z</time>
      </trkpt>
      <trkpt lat="48.662252" lon="9.993865">
        <ele>636.440145</ele>
        <time>2024-09-08T08:01:09.999Z</time>
      </trkpt>
      <trkpt lat="48.662343" lon="9.993801">
        <ele>636.152324</ele>
        <time>2024-09-08T08:01:10.999Z</time>
      </trkpt>
      <trkpt lat="48.662433" lon="9.993738">
        <ele>635.867902</ele>
        <time>2024-09-08T08:01:11.999Z</time>
      </trkpt>
      <trkpt lat="48.662524" lon="9.993682">
        <ele>635.586131</ele>
        <time>2024-09-08T08:01:12.999Z</time>
      </trkpt>
      <trkpt lat="48.662615" lon="9.993630">
        <ele>635.395262</ele>
        <time>2024-09-08T08:01:13.999Z</time>
      </trkpt>
      <trkpt lat="48.662704" lon="9.993581">
        <ele>635.303937</ele>
        <time>2024-09-08T08:01:14.999Z</time>
      </trkpt>
      <trkpt lat="48.662794" lon="9.993539">
        <ele>635.213118</ele>
        <time>2024-09-08T08:01:15.999Z</time>
      </trkpt>
      <trkpt lat="48.662885" lon="9.993507">
        <ele>635.123027</ele>
        <time>2024-09-08T08:01:16.999Z</time>
      </trkpt>
      <trkpt lat="48.662974" lon="9.993479">
        <ele>635.035368</ele>
        <time>2024-09-08T08:01:18.000Z</time>
      </trkpt>
      <trkpt lat="48.663063" lon="9.993454">
        <ele>634.948077</ele>
        <time>2024-09-08T08:01:19.000Z</time>
      </trkpt>
      <trkpt lat="48.663234" lon="9.993407">
        <ele>634.780480</ele>
        <time>2024-09-08T08:01:21.000Z</time>
      </trkpt>
      <trkpt lat="48.663395" lon="9.993363">
        <ele>634.622713</ele>
        <time>2024-09-08T08:01:23.000Z</time>
      </trkpt>
      <trkpt lat="48.663551" lon="9.993324">
        <ele>634.470240</ele>
        <time>2024-09-08T08:01:25.000Z</time>
      </trkpt>
      <trkpt lat="48.663703" lon="9.993291">
        <ele>634.322161</ele>
        <time>2024-09-08T08:01:27.000Z</time>
      </trkpt>
      <trkpt lat="48.663859" lon="9.993251">
        <ele>634.169582</ele>
        <time>2024-09-08T08:01:29.000Z</time>
      </trkpt>
      <trkpt lat="48.664016" lon="9.993197">
        <ele>634.014324</ele>
        <time>2024-09-08T08:01:31.000Z</time>
      </trkpt>
      <trkpt lat="48.664181" lon="9.993135">
        <ele>633.850381</ele>
        <time>2024-09-08T08:01:33.000Z</time>
      </trkpt>
      <trkpt lat="48.664354" lon="9.993051">
        <ele>633.418739</ele>
        <time>2024-09-08T08:01:35.000Z</time>
      </trkpt>
      <trkpt lat="48.664442" lon="9.992994">
        <ele>632.543098</ele>
        <time>2024-09-08T08:01:36.000Z</time>
      </trkpt>
      <trkpt lat="48.664531" lon="9.992930">
        <ele>631.641718</ele>
        <time>2024-09-08T08:01:37.000Z</time>
      </trkpt>
      <trkpt lat="48.664624" lon="9.992857">
        <ele>630.683371</ele>
        <time>2024-09-08T08:01:38.000Z</time>
      </trkpt>
      <trkpt lat="48.664719" lon="9.992775">
        <ele>629.682958</ele>
        <time>2024-09-08T08:01:39.000Z</time>
      </trkpt>
      <trkpt lat="48.664814" lon="9.992694">
        <ele>628.685523</ele>
        <time>2024-09-08T08:01:40.000Z</time>
      </trkpt>
      <trkpt lat="48.664914" lon="9.992612">
        <ele>627.645125</ele>
        <time>2024-09-08T08:01:41.000Z</time>
      </trkpt>
      <trkpt lat="48.665016" lon="9.992534">
        <ele>626.599719</ele>
        <time>2024-09-08T08:01:42.000Z</time>
      </trkpt>
      <trkpt lat="48.665124" lon="9.992451">
        <ele>625.491695</ele>
        <time>2024-09-08T08:01:43.000Z</time>
      </trkpt>
      <trkpt lat="48.665232" lon="9.992362">
        <ele>624.366799</ele>
        <time>2024-09-08T08:01:44.000Z</time>
      </trkpt>
      <trkpt lat="48.665345" lon="9.992276">
        <ele>623.209774</ele>
        <time>2024-09-08T08:01:45.000Z</time>
      </trkpt>
      <trkpt lat="48.665458" lon="9.992188">
        <ele>622.047272</ele>
        <time>2024-09-08T08:01:46.000Z</time>
      </trkpt>
      <trkpt lat="48.665578" lon="9.992100">
        <ele>620.827471</ele>
        <time>2024-09-08T08:01:47.000Z</time>
      </trkpt>
      <trkpt lat="48.665699" lon="9.992012">
        <ele>619.599430</ele>
        <time>2024-09-08T08:01:48.000Z</time>
      </trkpt>
      <trkpt lat="48.665822" lon="9.991921">
        <ele>618.347021</ele>
        <time>2024-09-08T08:01:49.000Z</time>
      </trkpt>
      <trkpt lat="48.665949" lon="9.991833">
        <ele>616.994622</ele>
        <time>2024-09-08T08:01:50.000Z</time>
      </trkpt>
      <trkpt lat="48.666079" lon="9.991750">
        <ele>615.172353</ele>
        <time>2024-09-08T08:01:51.000Z</time>
      </trkpt>
      <trkpt lat="48.666209" lon="9.991663">
        <ele>613.336557</ele>
        <time>2024-09-08T08:01:52.000Z</time>
      </trkpt>
      <trkpt lat="48.666339" lon="9.991582">
        <ele>611.520850</ele>
        <time>2024-09-08T08:01:53.000Z</time>
      </trkpt>
      <trkpt lat="48.666468" lon="9.991495">
        <ele>609.696862</ele>
        <time>2024-09-08T08:01:54.000Z</time>
      </trkpt>
      <trkpt lat="48.666598" lon="9.991411">
        <ele>607.871265</ele>
        <time>2024-09-08T08:01:55.000Z</time>
      </trkpt>
      <trkpt lat="48.666734" lon="9.991333">
        <ele>605.992879</ele>
        <time>2024-09-08T08:01:56.000Z</time>
      </trkpt>
      <trkpt lat="48.666869" lon="9.991256">
        <ele>604.129592</ele>
        <time>2024-09-08T08:01:57.000Z</time>
      </trkpt>
      <trkpt lat="48.667004" lon="9.991161">
        <ele>602.206803</ele>
        <time>2024-09-08T08:01:58.000Z</time>
      </trkpt>
      <trkpt lat="48.667144" lon="9.991070">
        <ele>600.238970</ele>
        <time>2024-09-08T08:01:59.000Z</time>
      </trkpt>
      <trkpt lat="48.667293" lon="9.990989">
        <ele>598.194191</ele>
        <time>2024-09-08T08:02:00.000Z</time>
      </trkpt>
      <trkpt lat="48.667435" lon="9.990887">
        <ele>596.164185</ele>
        <time>2024-09-08T08:02:01.000Z</time>
      </trkpt>
      <trkpt lat="48.667580" lon="9.990775">
        <ele>594.061740</ele>
        <time>2024-09-08T08:02:02.000Z</time>
      </trkpt>
      <trkpt lat="48.667721" lon="9.990650">
        <ele>592.380072</ele>
        <time>2024-09-08T08:02:03.000Z</time>
      </trkpt>
      <trkpt lat="48.667862" lon="9.990522">
        <ele>590.696915</ele>
        <time>2024-09-08T08:02:04.000Z</time>
      </trkpt>
      <trkpt lat="48.668005" lon="9.990387">
        <ele>588.971598</ele>
        <time>2024-09-08T08:02:05.000Z</time>
      </trkpt>
      <trkpt lat="48.668149" lon="9.990241">
        <ele>587.197306</ele>
        <time>2024-09-08T08:02:06.000Z</time>
      </trkpt>
      <trkpt lat="48.668293" lon="9.990096">
        <ele>585.426768</ele>
        <time>2024-09-08T08:02:07.000Z</time>
      </trkpt>
      <trkpt lat="48.668441" lon="9.989969">
        <ele>583.685103</ele>
        <time>2024-09-08T08:02:08.000Z</time>
      </trkpt>
      <trkpt lat="48.668579" lon="9.989809">
        <ele>581.905610</ele>
        <time>2024-09-08T08:02:09.000Z</time>
      </trkpt>
      <trkpt lat="48.668709" lon="9.989638">
        <ele>580.142571</ele>
        <time>2024-09-08T08:02:10.000Z</time>
      </trkpt>
      <trkpt lat="48.668821" lon="9.989445">
        <ele>578.405389</ele>
        <time>2024-09-08T08:02:11.000Z</time>
      </trkpt>
      <trkpt lat="48.668942" lon="9.989275">
        <ele>576.715444</ele>
        <time>2024-09-08T08:02:12.000Z</time>
      </trkpt>
      <trkpt lat="48.669057" lon="9.989124">
        <ele>575.639923</ele>
        <time>2024-09-08T08:02:13.000Z</time>
      </trkpt>
      <trkpt lat="48.669172" lon="9.988990">
        <ele>575.758915</ele>
        <time>2024-09-08T08:02:14.000Z</time>
      </trkpt>
      <trkpt lat="48.669297" lon="9.988874">
        <ele>575.879136</ele>
        <time>2024-09-08T08:02:15.000Z</time>
      </trkpt>
      <trkpt lat="48.669429" lon="9.988796">
        <ele>575.995329</ele>
        <time>2024-09-08T08:02:16.000Z</time>
      </trkpt>
      <trkpt lat="48.669557" lon="9.988728">
        <ele>576.106564</ele>
        <time>2024-09-08T08:02:17.000Z</time>
      </trkpt>
      <trkpt lat="48.669671" lon="9.988624">
        <ele>576.215702</ele>
        <time>2024-09-08T08:02:18.000Z</time>
      </trkpt>
      <trkpt lat="48.669763" lon="9.988488">
        <ele>576.321134</ele>
        <time>2024-09-08T08:02:19.000Z</time>
      </trkpt>
      <trkpt lat="48.669820" lon="9.988319">
        <ele>576.423899</ele>
        <time>2024-09-08T08:02:20.000Z</time>
      </trkpt>
      <trkpt lat="48.669852" lon="9.988147">
        <ele>576.520670</ele>
        <time>2024-09-08T08:02:21.000Z</time>
      </trkpt>
      <trkpt lat="48.669881" lon="9.987981">
        <ele>576.613658</ele>
        <time>2024-09-08T08:02:22.000Z</time>
      </trkpt>
      <trkpt lat="48.669909" lon="9.987813">
        <ele>576.707490</ele>
        <time>2024-09-08T08:02:23.000Z</time>
      </trkpt>
      <trkpt lat="48.669951" lon="9.987659">
        <ele>576.797719</ele>
        <time>2024-09-08T08:02:24.000Z</time>
      </trkpt>
      <trkpt lat="48.669998" lon="9.987521">
        <ele>576.881804</ele>
        <time>2024-09-08T08:02:25.000Z</time>
      </trkpt>
      <trkpt lat="48.670049" lon="9.987387">
        <ele>576.965559</ele>
        <time>2024-09-08T08:02:26.000Z</time>
      </trkpt>
      <trkpt lat="48.670106" lon="9.987264">
        <ele>577.046932</ele>
        <time>2024-09-08T08:02:27.000Z</time>
      </trkpt>
      <trkpt lat="48.670163" lon="9.987147">
        <ele>577.414274</ele>
        <time>2024-09-08T08:02:28.000Z</time>
      </trkpt>
      <trkpt lat="48.670217" lon="9.987036">
        <ele>577.951098</ele>
        <time>2024-09-08T08:02:28.998Z</time>
      </trkpt>
      <trkpt lat="48.670297" lon="9.986812">
        <ele>578.942681</ele>
        <time>2024-09-08T08:02:30.999Z</time>
      </trkpt>
      <trkpt lat="48.670387" lon="9.986651">
        <ele>579.764019</ele>
        <time>2024-09-08T08:02:32.999Z</time>
      </trkpt>
      <trkpt lat="48.670473" lon="9.986536">
        <ele>580.440502</ele>
        <time>2024-09-08T08:02:34.999Z</time>
      </trkpt>
      <trkpt lat="48.670552" lon="9.986458">
        <ele>580.996568</ele>
        <time>2024-09-08T08:02:36.999Z</time>
      </trkpt>
      <trkpt lat="48.670637" lon="9.986382">
        <ele>581.578588</ele>
        <time>2024-09-08T08:02:39.999Z</time>
      </trkpt>
      <trkpt lat="48.670722" lon="9.986326">
        <ele>582.125142</ele>
        <time>2024-09-08T08:02:42.999Z</time>
      </trkpt>
      <trkpt lat="48.670839" lon="9.986270">
        <ele>582.848634</ele>
        <time>2024-09-08T08:02:45.999Z</time>
      </trkpt>
      <trkpt lat="48.670944" lon="9.986202">
        <ele>583.521974</ele>
        <time>2024-09-08T08:02:48.999Z</time>
      </trkpt>
      <trkpt lat="48.671057" lon="9.986140">
        <ele>584.230628</ele>
        <time>2024-09-08T08:02:51.999Z</time>
      </trkpt>
      <trkpt lat="48.671163" lon="9.986094">
        <ele>584.880780</ele>
        <time>2024-09-08T08:02:54.999Z</time>
      </trkpt>
      <trkpt lat="48.671272" lon="9.986029">
        <ele>585.571501</ele>
        <time>2024-09-08T08:02:57.999Z</time>
      </trkpt>
      <trkpt lat="48.671393" lon="9.985979">
        <ele>586.311023</ele>
        <time>2024-09-08T08:03:00.999Z</time>
      </trkpt>
      <trkpt lat="48.671488" lon="9.985940">
        <ele>586.891378</ele>
        <time>2024-09-08T08:03:03.999Z</time>
      </trkpt>
      <trkpt lat="48.671594" lon="9.985932">
        <ele>587.517148</ele>
        <time>2024-09-08T08:03:05.999Z</time>
      </trkpt>
      <trkpt lat="48.671694" lon="9.985942">
        <ele>588.158429</ele>
        <time>2024-09-08T08:03:07.999Z</time>
      </trkpt>
      <trkpt lat="48.671794" lon="9.985950">
        <ele>588.819041</ele>
        <time>2024-09-08T08:03:09.999Z</time>
      </trkpt>
      <trkpt lat="48.671893" lon="9.985952">
        <ele>589.472195</ele>
        <time>2024-09-08T08:03:11.999Z</time>
      </trkpt>
      <trkpt lat="48.671987" lon="9.985965">
        <ele>590.094886</ele>
        <time>2024-09-08T08:03:13.999Z</time>
      </trkpt>
      <trkpt lat="48.672082" lon="9.985990">
        <ele>590.730986</ele>
        <time>2024-09-08T08:03:16.000Z</time>
      </trkpt>
      <trkpt lat="48.672172" lon="9.985992">
        <ele>591.324773</ele>
        <time>2024-09-08T08:03:18.000Z</time>
      </trkpt>
      <trkpt lat="48.672267" lon="9.985997">
        <ele>591.951859</ele>
        <time>2024-09-08T08:03:20.000Z</time>
      </trkpt>
      <trkpt lat="48.672398" lon="9.986013">
        <ele>592.818862</ele>
        <time>2024-09-08T08:03:23.000Z</time>
      </trkpt>
      <trkpt lat="48.672514" lon="9.986041">
        <ele>593.593765</ele>
        <time>2024-09-08T08:03:26.000Z</time>
      </trkpt>
      <trkpt lat="48.672623" lon="9.986066">
        <ele>594.321031</ele>
        <time>2024-09-08T08:03:29.000Z</time>
      </trkpt>
      <trkpt lat="48.672721" lon="9.986115">
        <ele>595.001858</ele>
        <time>2024-09-08T08:03:32.000Z</time>
      </trkpt>
      <trkpt lat="48.672812" lon="9.986187">
        <ele>595.679179</ele>
        <time>2024-09-08T08:03:35.000Z</time>
      </trkpt>
      <trkpt lat="48.672903" lon="9.986268">
        <ele>596.375524</ele>
        <time>2024-09-08T08:03:38.000Z</time>
      </trkpt>
      <trkpt lat="48.672987" lon="9.986372">
        <ele>597.091298</ele>
        <time>2024-09-08T08:03:41.000Z</time>
      </trkpt>
      <trkpt lat="48.673070" lon="9.986483">
        <ele>597.821796</ele>
        <time>2024-09-08T08:03:44.000Z</time>
      </trkpt>
      <trkpt lat="48.673149" lon="9.986576">
        <ele>598.481901</ele>
        <time>2024-09-08T08:03:47.000Z</time>
      </trkpt>
      <trkpt lat="48.673248" lon="9.986687">
        <ele>599.294522</ele>
        <time>2024-09-08T08:03:50.000Z</time>
      </trkpt>
      <trkpt lat="48.673348" lon="9.986773">
        <ele>599.927835</ele>
        <time>2024-09-08T08:03:54.000Z</time>
      </trkpt>
      <trkpt lat="48.673423" lon="9.986879">
        <ele>600.436146</ele>
        <time>2024-09-08T08:03:57.000Z</time>
      </trkpt>
      <trkpt lat="48.673513" lon="9.986987">
        <ele>601.005112</ele>
        <time>2024-09-08T08:04:00.000Z</time>
      </trkpt>
      <trkpt lat="48.673592" lon="9.987130">
        <ele>601.615137</ele>
        <time>2024-09-08T08:04:03.000Z</time>
      </trkpt>
      <trkpt lat="48.673671" lon="9.987198">
        <ele>602.065379</ele>
        <time>2024-09-08T08:04:05.000Z</time>
      </trkpt>
      <trkpt lat="48.673744" lon="9.987298">
        <ele>602.553109</ele>
        <time>2024-09-08T08:04:08.000Z</time>
      </trkpt>
      <trkpt lat="48.673825" lon="9.987420">
        <ele>603.119156</ele>
        <time>2024-09-08T08:04:11.000Z</time>
      </trkpt>
      <trkpt lat="48.673906" lon="9.987559">
        <ele>603.725710</ele>
        <time>2024-09-08T08:04:14.000Z</time>
      </trkpt>
      <trkpt lat="48.673938" lon="9.987732">
        <ele>604.313531</ele>
        <time>2024-09-08T08:04:17.000Z</time>
      </trkpt>
      <trkpt lat="48.673998" lon="9.987880">
        <ele>604.881744</ele>
        <time>2024-09-08T08:04:20.000Z</time>
      </trkpt>
      <trkpt lat="48.674058" lon="9.988040">
        <ele>605.483766</ele>
        <time>2024-09-08T08:04:23.000Z</time>
      </trkpt>
      <trkpt lat="48.674118" lon="9.988193">
        <ele>606.065982</ele>
        <time>2024-09-08T08:04:26.000Z</time>
      </trkpt>
      <trkpt lat="48.674185" lon="9.988340">
        <ele>606.650389</ele>
        <time>2024-09-08T08:04:30.000Z</time>
      </trkpt>
      <trkpt lat="48.674260" lon="9.988431">
        <ele>607.126563</ele>
        <time>2024-09-08T08:04:34.000Z</time>
      </trkpt>
      <trkpt lat="48.674340" lon="9.988499">
        <ele>607.581119</ele>
        <time>2024-09-08T08:04:37.000Z</time>
      </trkpt>
      <trkpt lat="48.674470" lon="9.988578">
        <ele>608.275169</ele>
        <time>2024-09-08T08:04:39.000Z</time>
      </trkpt>
      <trkpt lat="48.674592" lon="9.988624">
        <ele>607.896408</ele>
        <time>2024-09-08T08:04:41.000Z</time>
      </trkpt>
      <trkpt lat="48.674649" lon="9.988744">
        <ele>607.270243</ele>
        <time>2024-09-08T08:04:42.000Z</time>
      </trkpt>
      <trkpt lat="48.674817" lon="9.988733">
        <ele>606.191537</ele>
        <time>2024-09-08T08:04:44.000Z</time>
      </trkpt>
      <trkpt lat="48.674993" lon="9.988684">
        <ele>605.043598</ele>
        <time>2024-09-08T08:04:46.000Z</time>
      </trkpt>
      <trkpt lat="48.675169" lon="9.988609">
        <ele>603.870734</ele>
        <time>2024-09-08T08:04:48.000Z</time>
      </trkpt>
      <trkpt lat="48.675276" lon="9.988555">
        <ele>603.147232</ele>
        <time>2024-09-08T08:04:49.000Z</time>
      </trkpt>
      <trkpt lat="48.675370" lon="9.988505">
        <ele>602.508120</ele>
        <time>2024-09-08T08:04:50.000Z</time>
      </trkpt>
      <trkpt lat="48.675472" lon="9.988456">
        <ele>601.821671</ele>
        <time>2024-09-08T08:04:51.000Z</time>
      </trkpt>
      <trkpt lat="48.675576" lon="9.988411">
        <ele>601.127827</ele>
        <time>2024-09-08T08:04:52.000Z</time>
      </trkpt>
      <trkpt lat="48.675689" lon="9.988396">
        <ele>600.400167</ele>
        <time>2024-09-08T08:04:53.000Z</time>
      </trkpt>
      <trkpt lat="48.675793" lon="9.988449">
        <ele>599.696260</ele>
        <time>2024-09-08T08:04:54.000Z</time>
      </trkpt>
      <trkpt lat="48.675910" lon="9.988555">
        <ele>598.821667</ele>
        <time>2024-09-08T08:04:55.000Z</time>
      </trkpt>
      <trkpt lat="48.676027" lon="9.988661">
        <ele>597.947074</ele>
        <time>2024-09-08T08:04:56.000Z</time>
      </trkpt>
      <trkpt lat="48.676144" lon="9.988750">
        <ele>597.107174</ele>
        <time>2024-09-08T08:04:57.000Z</time>
      </trkpt>
      <trkpt lat="48.676245" lon="9.988856">
        <ele>597.492520</ele>
        <time>2024-09-08T08:04:58.000Z</time>
      </trkpt>
      <trkpt lat="48.676349" lon="9.988961">
        <ele>598.247128</ele>
        <time>2024-09-08T08:04:59.000Z</time>
      </trkpt>
      <trkpt lat="48.676451" lon="9.989051">
        <ele>598.959822</ele>
        <time>2024-09-08T08:05:00.000Z</time>
      </trkpt>
      <trkpt lat="48.676552" lon="9.989128">
        <ele>599.642487</ele>
        <time>2024-09-08T08:05:01.000Z</time>
      </trkpt>
      <trkpt lat="48.676645" lon="9.989195">
        <ele>600.264242</ele>
        <time>2024-09-08T08:05:02.000Z</time>
      </trkpt>
      <trkpt lat="48.676753" lon="9.989205">
        <ele>600.917481</ele>
        <time>2024-09-08T08:05:03.000Z</time>
      </trkpt>
      <trkpt lat="48.676840" lon="9.989158">
        <ele>601.475139</ele>
        <time>2024-09-08T08:05:04.000Z</time>
      </trkpt>
      <trkpt lat="48.676999" lon="9.989121">
        <ele>602.446326</ele>
        <time>2024-09-08T08:05:06.000Z</time>
      </trkpt>
      <trkpt lat="48.677138" lon="9.989052">
        <ele>603.329432</ele>
        <time>2024-09-08T08:05:08.000Z</time>
      </trkpt>
      <trkpt lat="48.677264" lon="9.988967">
        <ele>604.162180</ele>
        <time>2024-09-08T08:05:10.000Z</time>
      </trkpt>
      <trkpt lat="48.677363" lon="9.988883">
        <ele>604.847277</ele>
        <time>2024-09-08T08:05:12.000Z</time>
      </trkpt>
      <trkpt lat="48.677451" lon="9.988799">
        <ele>605.475277</ele>
        <time>2024-09-08T08:05:14.000Z</time>
      </trkpt>
      <trkpt lat="48.677532" lon="9.988709">
        <ele>606.081789</ele>
        <time>2024-09-08T08:05:16.000Z</time>
      </trkpt>
      <trkpt lat="48.677604" lon="9.988618">
        <ele>606.647953</ele>
        <time>2024-09-08T08:05:18.000Z</time>
      </trkpt>
      <trkpt lat="48.677700" lon="9.988487">
        <ele>607.428090</ele>
        <time>2024-09-08T08:05:21.000Z</time>
      </trkpt>
      <trkpt lat="48.677787" lon="9.988355">
        <ele>608.344608</ele>
        <time>2024-09-08T08:05:24.000Z</time>
      </trkpt>
      <trkpt lat="48.677861" lon="9.988207">
        <ele>609.413661</ele>
        <time>2024-09-08T08:05:27.000Z</time>
      </trkpt>
      <trkpt lat="48.677946" lon="9.988075">
        <ele>610.475423</ele>
        <time>2024-09-08T08:05:30.000Z</time>
      </trkpt>
      <trkpt lat="48.678027" lon="9.987941">
        <ele>611.521594</ele>
        <time>2024-09-08T08:05:33.000Z</time>
      </trkpt>
      <trkpt lat="48.678110" lon="9.987816">
        <ele>612.542438</ele>
        <time>2024-09-08T08:05:36.000Z</time>
      </trkpt>
      <trkpt lat="48.678195" lon="9.987686">
        <ele>613.595983</ele>
        <time>2024-09-08T08:05:39.000Z</time>
      </trkpt>
      <trkpt lat="48.678266" lon="9.987562">
        <ele>614.541130</ele>
        <time>2024-09-08T08:05:43.000Z</time>
      </trkpt>
      <trkpt lat="48.678342" lon="9.987441">
        <ele>615.502812</ele>
        <time>2024-09-08T08:05:47.000Z</time>
      </trkpt>
      <trkpt lat="48.678434" lon="9.987312">
        <ele>616.596247</ele>
        <time>2024-09-08T08:05:50.000Z</time>
      </trkpt>
      <trkpt lat="48.678513" lon="9.987246">
        <ele>617.383103</ele>
        <time>2024-09-08T08:05:52.000Z</time>
      </trkpt>
      <trkpt lat="48.678618" lon="9.987126">
        <ele>618.530307</ele>
        <time>2024-09-08T08:05:55.000Z</time>
      </trkpt>
      <trkpt lat="48.678713" lon="9.987006">
        <ele>619.609174</ele>
        <time>2024-09-08T08:05:58.000Z</time>
      </trkpt>
      <trkpt lat="48.678799" lon="9.986952">
        <ele>620.421109</ele>
        <time>2024-09-08T08:06:01.000Z</time>
      </trkpt>
      <trkpt lat="48.678892" lon="9.986887">
        <ele>621.314389</ele>
        <time>2024-09-08T08:06:04.000Z</time>
      </trkpt>
      <trkpt lat="48.678975" lon="9.986793">
        <ele>622.218259</ele>
        <time>2024-09-08T08:06:07.000Z</time>
      </trkpt>
      <trkpt lat="48.679066" lon="9.986682">
        <ele>623.237288</ele>
        <time>2024-09-08T08:06:11.000Z</time>
      </trkpt>
      <trkpt lat="48.679197" lon="9.986607">
        <ele>623.910979</ele>
        <time>2024-09-08T08:06:14.000Z</time>
      </trkpt>
      <trkpt lat="48.679290" lon="9.986586">
        <ele>624.277289</ele>
        <time>2024-09-08T08:06:16.000Z</time>
      </trkpt>
      <trkpt lat="48.679377" lon="9.986544">
        <ele>624.633021</ele>
        <time>2024-09-08T08:06:18.000Z</time>
      </trkpt>
      <trkpt lat="48.679496" lon="9.986488">
        <ele>625.118479</ele>
        <time>2024-09-08T08:06:21.000Z</time>
      </trkpt>
      <trkpt lat="48.679599" lon="9.986438">
        <ele>625.539850</ele>
        <time>2024-09-08T08:06:23.000Z</time>
      </trkpt>
      <trkpt lat="48.679692" lon="9.986402">
        <ele>625.913802</ele>
        <time>2024-09-08T08:06:25.000Z</time>
      </trkpt>
      <trkpt lat="48.679779" lon="9.986353">
        <ele>626.275409</ele>
        <time>2024-09-08T08:06:27.000Z</time>
      </trkpt>
      <trkpt lat="48.679899" lon="9.986268">
        <ele>626.791501</ele>
        <time>2024-09-08T08:06:30.000Z</time>
      </trkpt>
      <trkpt lat="48.680009" lon="9.986158">
        <ele>627.305017</ele>
        <time>2024-09-08T08:06:33.000Z</time>
      </trkpt>
      <trkpt lat="48.680118" lon="9.986048">
        <ele>627.815286</ele>
        <time>2024-09-08T08:06:36.000Z</time>
      </trkpt>
      <trkpt lat="48.680227" lon="9.985919">
        <ele>628.354191</ele>
        <time>2024-09-08T08:06:39.000Z</time>
      </trkpt>
      <trkpt lat="48.680312" lon="9.985839">
        <ele>628.744060</ele>
        <time>2024-09-08T08:06:41.000Z</time>
      </trkpt>
      <trkpt lat="48.680391" lon="9.985749">
        <ele>629.129171</ele>
        <time>2024-09-08T08:06:43.000Z</time>
      </trkpt>
      <trkpt lat="48.680479" lon="9.985671">
        <ele>629.526390</ele>
        <time>2024-09-08T08:06:45.000Z</time>
      </trkpt>
      <trkpt lat="48.680568" lon="9.985586">
        <ele>629.936291</ele>
        <time>2024-09-08T08:06:47.000Z</time>
      </trkpt>
      <trkpt lat="48.680671" lon="9.985541">
        <ele>630.353914</ele>
        <time>2024-09-08T08:06:49.000Z</time>
      </trkpt>
      <trkpt lat="48.680790" lon="9.985562">
        <ele>631.049530</ele>
        <time>2024-09-08T08:06:51.000Z</time>
      </trkpt>
      <trkpt lat="48.680905" lon="9.985625">
        <ele>631.842235</ele>
        <time>2024-09-08T08:06:53.000Z</time>
      </trkpt>
      <trkpt lat="48.681012" lon="9.985702">
        <ele>632.610127</ele>
        <time>2024-09-08T08:06:55.000Z</time>
      </trkpt>
      <trkpt lat="48.681121" lon="9.985779">
        <ele>633.389749</ele>
        <time>2024-09-08T08:06:57.000Z</time>
      </trkpt>
      <trkpt lat="48.681226" lon="9.985853">
        <ele>634.140445</ele>
        <time>2024-09-08T08:06:59.000Z</time>
      </trkpt>
      <trkpt lat="48.681338" lon="9.985930">
        <ele>634.937732</ele>
        <time>2024-09-08T08:07:01.000Z</time>
      </trkpt>
      <trkpt lat="48.681457" lon="9.985988">
        <ele>635.748056</ele>
        <time>2024-09-08T08:07:03.000Z</time>
      </trkpt>
      <trkpt lat="48.681571" lon="9.986035">
        <ele>636.513903</ele>
        <time>2024-09-08T08:07:05.000Z</time>
      </trkpt>
      <trkpt lat="48.681691" lon="9.986096">
        <ele>637.334394</ele>
        <time>2024-09-08T08:07:07.000Z</time>
      </trkpt>
      <trkpt lat="48.681784" lon="9.986198">
        <ele>638.078687</ele>
        <time>2024-09-08T08:07:09.000Z</time>
      </trkpt>
      <trkpt lat="48.681863" lon="9.986279">
        <ele>638.697075</ele>
        <time>2024-09-08T08:07:11.000Z</time>
      </trkpt>
      <trkpt lat="48.681969" lon="9.986354">
        <ele>639.455452</ele>
        <time>2024-09-08T08:07:14.000Z</time>
      </trkpt>
      <trkpt lat="48.682065" lon="9.986419">
        <ele>640.137081</ele>
        <time>2024-09-08T08:07:17.000Z</time>
      </trkpt>
      <trkpt lat="48.682159" lon="9.986503">
        <ele>640.844544</ele>
        <time>2024-09-08T08:07:20.000Z</time>
      </trkpt>
      <trkpt lat="48.682252" lon="9.986601">
        <ele>641.578925</ele>
        <time>2024-09-08T08:07:23.000Z</time>
      </trkpt>
      <trkpt lat="48.682338" lon="9.986716">
        <ele>642.267271</ele>
        <time>2024-09-08T08:07:26.000Z</time>
      </trkpt>
      <trkpt lat="48.682423" lon="9.986820">
        <ele>642.766951</ele>
        <time>2024-09-08T08:07:29.000Z</time>
      </trkpt>
      <trkpt lat="48.682504" lon="9.986940">
        <ele>643.285086</ele>
        <time>2024-09-08T08:07:32.000Z</time>
      </trkpt>
      <trkpt lat="48.682584" lon="9.987063">
        <ele>643.806376</ele>
        <time>2024-09-08T08:07:35.000Z</time>
      </trkpt>
      <trkpt lat="48.682640" lon="9.987217">
        <ele>644.337187</ele>
        <time>2024-09-08T08:07:38.000Z</time>
      </trkpt>
      <trkpt lat="48.682678" lon="9.987378">
        <ele>644.853401</ele>
        <time>2024-09-08T08:07:41.000Z</time>
      </trkpt>
      <trkpt lat="48.682710" lon="9.987554">
        <ele>645.404557</ele>
        <time>2024-09-08T08:07:44.000Z</time>
      </trkpt>
      <trkpt lat="48.682746" lon="9.987739">
        <ele>645.986859</ele>
        <time>2024-09-08T08:07:47.000Z</time>
      </trkpt>
      <trkpt lat="48.682787" lon="9.987927">
        <ele>646.584628</ele>
        <time>2024-09-08T08:07:50.000Z</time>
      </trkpt>
      <trkpt lat="48.682813" lon="9.988063">
        <ele>647.012102</ele>
        <time>2024-09-08T08:07:52.000Z</time>
      </trkpt>
      <trkpt lat="48.682854" lon="9.988256">
        <ele>647.624222</ele>
        <time>2024-09-08T08:07:55.000Z</time>
      </trkpt>
      <trkpt lat="48.682877" lon="9.988397">
        <ele>648.062724</ele>
        <time>2024-09-08T08:07:57.000Z</time>
      </trkpt>
      <trkpt lat="48.682905" lon="9.988538">
        <ele>648.507265</ele>
        <time>2024-09-08T08:07:59.000Z</time>
      </trkpt>
      <trkpt lat="48.682928" lon="9.988683">
        <ele>648.957501</ele>
        <time>2024-09-08T08:08:01.000Z</time>
      </trkpt>
      <trkpt lat="48.682940" lon="9.988833">
        <ele>649.413687</ele>
        <time>2024-09-08T08:08:03.000Z</time>
      </trkpt>
      <trkpt lat="48.682933" lon="9.988992">
        <ele>649.894800</ele>
        <time>2024-09-08T08:08:05.000Z</time>
      </trkpt>
      <trkpt lat="48.682883" lon="9.989142">
        <ele>650.346928</ele>
        <time>2024-09-08T08:08:07.000Z</time>
      </trkpt>
      <trkpt lat="48.682838" lon="9.989292">
        <ele>650.194004</ele>
        <time>2024-09-08T08:08:09.000Z</time>
      </trkpt>
      <trkpt lat="48.682786" lon="9.989446">
        <ele>650.033456</ele>
        <time>2024-09-08T08:08:11.000Z</time>
      </trkpt>
      <trkpt lat="48.682736" lon="9.989598">
        <ele>649.875833</ele>
        <time>2024-09-08T08:08:13.000Z</time>
      </trkpt>
      <trkpt lat="48.682695" lon="9.989781">
        <ele>649.696464</ele>
        <time>2024-09-08T08:08:15.000Z</time>
      </trkpt>
      <trkpt lat="48.682622" lon="9.989942">
        <ele>649.515182</ele>
        <time>2024-09-08T08:08:17.000Z</time>
      </trkpt>
      <trkpt lat="48.682562" lon="9.990121">
        <ele>649.328853</ele>
        <time>2024-09-08T08:08:19.000Z</time>
      </trkpt>
      <trkpt lat="48.682517" lon="9.990317">
        <ele>649.136244</ele>
        <time>2024-09-08T08:08:21.000Z</time>
      </trkpt>
      <trkpt lat="48.682454" lon="9.990503">
        <ele>648.942211</ele>
        <time>2024-09-08T08:08:23.000Z</time>
      </trkpt>
      <trkpt lat="48.682391" lon="9.990695">
        <ele>648.743205</ele>
        <time>2024-09-08T08:08:25.000Z</time>
      </trkpt>
      <trkpt lat="48.682309" lon="9.990874">
        <ele>648.540985</ele>
        <time>2024-09-08T08:08:27.000Z</time>
      </trkpt>
      <trkpt lat="48.682250" lon="9.991072">
        <ele>648.339355</ele>
        <time>2024-09-08T08:08:29.000Z</time>
      </trkpt>
      <trkpt lat="48.682160" lon="9.991242">
        <ele>648.137101</ele>
        <time>2024-09-08T08:08:31.000Z</time>
      </trkpt>
      <trkpt lat="48.682079" lon="9.991431">
        <ele>647.927956</ele>
        <time>2024-09-08T08:08:33.000Z</time>
      </trkpt>
      <trkpt lat="48.682007" lon="9.991643">
        <ele>647.868025</ele>
        <time>2024-09-08T08:08:35.000Z</time>
      </trkpt>
      <trkpt lat="48.681917" lon="9.991850">
        <ele>647.935796</ele>
        <time>2024-09-08T08:08:37.000Z</time>
      </trkpt>
      <trkpt lat="48.681868" lon="9.992061">
        <ele>647.996955</ele>
        <time>2024-09-08T08:08:39.000Z</time>
      </trkpt>
      <trkpt lat="48.681932" lon="9.992165">
        <ele>648.035829</ele>
        <time>2024-09-08T08:08:40.000Z</time>
      </trkpt>
      <trkpt lat="48.682059" lon="9.992266">
        <ele>648.095235</ele>
        <time>2024-09-08T08:08:42.000Z</time>
      </trkpt>
      <trkpt lat="48.682186" lon="9.992314">
        <ele>648.149444</ele>
        <time>2024-09-08T08:08:44.000Z</time>
      </trkpt>
      <trkpt lat="48.682305" lon="9.992397">
        <ele>648.203701</ele>
        <time>2024-09-08T08:08:46.000Z</time>
      </trkpt>
      <trkpt lat="48.682433" lon="9.992473">
        <ele>648.260639</ele>
        <time>2024-09-08T08:08:48.000Z</time>
      </trkpt>
      <trkpt lat="48.682557" lon="9.992587">
        <ele>648.320713</ele>
        <time>2024-09-08T08:08:50.000Z</time>
      </trkpt>
      <trkpt lat="48.682683" lon="9.992676">
        <ele>648.378290</ele>
        <time>2024-09-08T08:08:52.000Z</time>
      </trkpt>
      <trkpt lat="48.682808" lon="9.992742">
        <ele>648.433114</ele>
        <time>2024-09-08T08:08:54.000Z</time>
      </trkpt>
      <trkpt lat="48.682916" lon="9.992833">
        <ele>648.484296</ele>
        <time>2024-09-08T08:08:56.000Z</time>
      </trkpt>
      <trkpt lat="48.683030" lon="9.992895">
        <ele>648.534460</ele>
        <time>2024-09-08T08:08:58.000Z</time>
      </trkpt>
      <trkpt lat="48.683132" lon="9.992967">
        <ele>648.606415</ele>
        <time>2024-09-08T08:09:00.000Z</time>
      </trkpt>
      <trkpt lat="48.683232" lon="9.993041">
        <ele>648.892925</ele>
        <time>2024-09-08T08:09:02.000Z</time>
      </trkpt>
      <trkpt lat="48.683332" lon="9.993108">
        <ele>649.174415</ele>
        <time>2024-09-08T08:09:04.000Z</time>
      </trkpt>
      <trkpt lat="48.683430" lon="9.993175">
        <ele>649.451205</ele>
        <time>2024-09-08T08:09:06.000Z</time>
      </trkpt>
      <trkpt lat="48.683525" lon="9.993239">
        <ele>649.718862</ele>
        <time>2024-09-08T08:09:08.000Z</time>
      </trkpt>
      <trkpt lat="48.683622" lon="9.993308">
        <ele>649.994735</ele>
        <time>2024-09-08T08:09:10.000Z</time>
      </trkpt>
      <trkpt lat="48.683715" lon="9.993392">
        <ele>650.273480</ele>
        <time>2024-09-08T08:09:12.000Z</time>
      </trkpt>
      <trkpt lat="48.683821" lon="9.993444">
        <ele>650.560310</ele>
        <time>2024-09-08T08:09:14.000Z</time>
      </trkpt>
      <trkpt lat="48.683919" lon="9.993517">
        <ele>650.841448</ele>
        <time>2024-09-08T08:09:16.000Z</time>
      </trkpt>
      <trkpt lat="48.684021" lon="9.993583">
        <ele>651.126982</ele>
        <time>2024-09-08T08:09:18.000Z</time>
      </trkpt>
      <trkpt lat="48.684121" lon="9.993648">
        <ele>651.407114</ele>
        <time>2024-09-08T08:09:20.000Z</time>
      </trkpt>
      <trkpt lat="48.684224" lon="9.993710">
        <ele>651.692437</ele>
        <time>2024-09-08T08:09:21.999Z</time>
      </trkpt>
      <trkpt lat="48.684337" lon="9.993764">
        <ele>651.997466</ele>
        <time>2024-09-08T08:09:23.999Z</time>
      </trkpt>
      <trkpt lat="48.684452" lon="9.993783">
        <ele>652.295266</ele>
        <time>2024-09-08T08:09:25.999Z</time>
      </trkpt>
      <trkpt lat="48.684568" lon="9.993802">
        <ele>652.595625</ele>
        <time>2024-09-08T08:09:27.999Z</time>
      </trkpt>
      <trkpt lat="48.684688" lon="9.993826">
        <ele>652.907221</ele>
        <time>2024-09-08T08:09:29.999Z</time>
      </trkpt>
      <trkpt lat="48.684809" lon="9.993843">
        <ele>653.236403</ele>
        <time>2024-09-08T08:09:31.999Z</time>
      </trkpt>
      <trkpt lat="48.684929" lon="9.993869">
        <ele>653.923459</ele>
        <time>2024-09-08T08:09:34.000Z</time>
      </trkpt>
      <trkpt lat="48.685047" lon="9.993892">
        <ele>654.597771</ele>
        <time>2024-09-08T08:09:36.000Z</time>
      </trkpt>
      <trkpt lat="48.685163" lon="9.993923">
        <ele>655.265388</ele>
        <time>2024-09-08T08:09:38.000Z</time>
      </trkpt>
      <trkpt lat="48.685281" lon="9.993959">
        <ele>655.947617</ele>
        <time>2024-09-08T08:09:40.000Z</time>
      </trkpt>
      <trkpt lat="48.685397" lon="9.993999">
        <ele>656.621900</ele>
        <time>2024-09-08T08:09:42.000Z</time>
      </trkpt>
      <trkpt lat="48.685508" lon="9.994039">
        <ele>657.268583</ele>
        <time>2024-09-08T08:09:44.000Z</time>
      </trkpt>
      <trkpt lat="48.685613" lon="9.994081">
        <ele>657.884100</ele>
        <time>2024-09-08T08:09:46.000Z</time>
      </trkpt>
      <trkpt lat="48.685718" lon="9.994124">
        <ele>658.500584</ele>
        <time>2024-09-08T08:09:48.000Z</time>
      </trkpt>
      <trkpt lat="48.685817" lon="9.994161">
        <ele>659.078521</ele>
        <time>2024-09-08T08:09:50.000Z</time>
      </trkpt>
      <trkpt lat="48.685909" lon="9.994198">
        <ele>659.618023</ele>
        <time>2024-09-08T08:09:52.000Z</time>
      </trkpt>
      <trkpt lat="48.686042" lon="9.994243">
        <ele>660.390414</ele>
        <time>2024-09-08T08:09:55.000Z</time>
      </trkpt>
      <trkpt lat="48.686162" lon="9.994295">
        <ele>661.097832</ele>
        <time>2024-09-08T08:09:58.000Z</time>
      </trkpt>
      <trkpt lat="48.686284" lon="9.994335">
        <ele>661.805314</ele>
        <time>2024-09-08T08:10:01.000Z</time>
      </trkpt>
      <trkpt lat="48.686406" lon="9.994383">
        <ele>662.519727</ele>
        <time>2024-09-08T08:10:04.000Z</time>
      </trkpt>
      <trkpt lat="48.686525" lon="9.994432">
        <ele>663.218669</ele>
        <time>2024-09-08T08:10:07.000Z</time>
      </trkpt>
      <trkpt lat="48.686631" lon="9.994474">
        <ele>663.820193</ele>
        <time>2024-09-08T08:10:10.000Z</time>
      </trkpt>
      <trkpt lat="48.686751" lon="9.994519">
        <ele>664.489771</ele>
        <time>2024-09-08T08:10:14.000Z</time>
      </trkpt>
      <trkpt lat="48.686854" lon="9.994576">
        <ele>665.083715</ele>
        <time>2024-09-08T08:10:18.000Z</time>
      </trkpt>
      <trkpt lat="48.686977" lon="9.994610">
        <ele>665.760923</ele>
        <time>2024-09-08T08:10:21.000Z</time>
      </trkpt>
      <trkpt lat="48.687096" lon="9.994645">
        <ele>666.417501</ele>
        <time>2024-09-08T08:10:23.000Z</time>
      </trkpt>
      <trkpt lat="48.687187" lon="9.994672">
        <ele>666.919751</ele>
        <time>2024-09-08T08:10:25.000Z</time>
      </trkpt>
      <trkpt lat="48.687279" lon="9.994700">
        <ele>667.428009</ele>
        <time>2024-09-08T08:10:27.000Z</time>
      </trkpt>
      <trkpt lat="48.687371" lon="9.994719">
        <ele>667.930919</ele>
        <time>2024-09-08T08:10:29.000Z</time>
      </trkpt>
      <trkpt lat="48.687474" lon="9.994744">
        <ele>668.495915</ele>
        <time>2024-09-08T08:10:31.000Z</time>
      </trkpt>
      <trkpt lat="48.687576" lon="9.994767">
        <ele>669.054466</ele>
        <time>2024-09-08T08:10:33.000Z</time>
      </trkpt>
      <trkpt lat="48.687670" lon="9.994785">
        <ele>669.567650</ele>
        <time>2024-09-08T08:10:35.000Z</time>
      </trkpt>
      <trkpt lat="48.687764" lon="9.994798">
        <ele>670.078901</ele>
        <time>2024-09-08T08:10:37.000Z</time>
      </trkpt>
      <trkpt lat="48.687859" lon="9.994817">
        <ele>670.597915</ele>
        <time>2024-09-08T08:10:39.000Z</time>
      </trkpt>
      <trkpt lat="48.687955" lon="9.994835">
        <ele>671.121849</ele>
        <time>2024-09-08T08:10:41.000Z</time>
      </trkpt>
      <trkpt lat="48.688048" lon="9.994843">
        <ele>671.626376</ele>
        <time>2024-09-08T08:10:43.000Z</time>
      </trkpt>
      <trkpt lat="48.688143" lon="9.994859">
        <ele>672.144096</ele>
        <time>2024-09-08T08:10:45.000Z</time>
      </trkpt>
      <trkpt lat="48.688233" lon="9.994874">
        <ele>672.634505</ele>
        <time>2024-09-08T08:10:47.000Z</time>
      </trkpt>
      <trkpt lat="48.688327" lon="9.994889">
        <ele>673.143754</ele>
        <time>2024-09-08T08:10:49.000Z</time>
      </trkpt>
      <trkpt lat="48.688422" lon="9.994901">
        <ele>673.284032</ele>
        <time>2024-09-08T08:10:51.000Z</time>
      </trkpt>
      <trkpt lat="48.688515" lon="9.994922">
        <ele>673.422394</ele>
        <time>2024-09-08T08:10:53.000Z</time>
      </trkpt>
      <trkpt lat="48.688615" lon="9.994933">
        <ele>673.569932</ele>
        <time>2024-09-08T08:10:55.000Z</time>
      </trkpt>
      <trkpt lat="48.688717" lon="9.994950">
        <ele>673.720931</ele>
        <time>2024-09-08T08:10:57.000Z</time>
      </trkpt>
      <trkpt lat="48.688823" lon="9.994965">
        <ele>673.877590</ele>
        <time>2024-09-08T08:10:59.000Z</time>
      </trkpt>
      <trkpt lat="48.688927" lon="9.994978">
        <ele>674.031146</ele>
        <time>2024-09-08T08:11:01.000Z</time>
      </trkpt>
      <trkpt lat="48.689031" lon="9.994992">
        <ele>674.184786</ele>
        <time>2024-09-08T08:11:03.000Z</time>
      </trkpt>
      <trkpt lat="48.689139" lon="9.995006">
        <ele>674.344289</ele>
        <time>2024-09-08T08:11:05.000Z</time>
      </trkpt>
      <trkpt lat="48.689246" lon="9.995027">
        <ele>674.503056</ele>
        <time>2024-09-08T08:11:07.000Z</time>
      </trkpt>
      <trkpt lat="48.689358" lon="9.995044">
        <ele>674.668690</ele>
        <time>2024-09-08T08:11:09.000Z</time>
      </trkpt>
      <trkpt lat="48.689470" lon="9.995053">
        <ele>674.833730</ele>
        <time>2024-09-08T08:11:11.000Z</time>
      </trkpt>
      <trkpt lat="48.689584" lon="9.995059">
        <ele>675.001583</ele>
        <time>2024-09-08T08:11:13.000Z</time>
      </trkpt>
      <trkpt lat="48.689689" lon="9.995076">
        <ele>675.156971</ele>
        <time>2024-09-08T08:11:15.000Z</time>
      </trkpt>
      <trkpt lat="48.689787" lon="9.995093">
        <ele>675.302121</ele>
        <time>2024-09-08T08:11:17.000Z</time>
      </trkpt>
      <trkpt lat="48.689881" lon="9.995114">
        <ele>675.441939</ele>
        <time>2024-09-08T08:11:20.000Z</time>
      </trkpt>
      <trkpt lat="48.689979" lon="9.995373">
        <ele>675.731927</ele>
        <time>2024-09-08T08:13:13.000Z</time>
      </trkpt>
      <trkpt lat="48.689978" lon="9.995555">
        <ele>675.693805</ele>
        <time>2024-09-08T08:13:16.000Z</time>
      </trkpt>
      <trkpt lat="48.689953" lon="9.995700">
        <ele>675.577053</ele>
        <time>2024-09-08T08:13:18.000Z</time>
      </trkpt>
      <trkpt lat="48.689937" lon="9.995839">
        <ele>675.467131</ele>
        <time>2024-09-08T08:13:19.999Z</time>
      </trkpt>
      <trkpt lat="48.689928" lon="9.995999">
        <ele>675.342031</ele>
        <time>2024-09-08T08:13:21.999Z</time>
      </trkpt>
      <trkpt lat="48.689911" lon="9.996172">
        <ele>675.205769</ele>
        <time>2024-09-08T08:13:23.999Z</time>
      </trkpt>
      <trkpt lat="48.689908" lon="9.996346">
        <ele>675.070167</ele>
        <time>2024-09-08T08:13:25.999Z</time>
      </trkpt>
      <trkpt lat="48.689905" lon="9.996526">
        <ele>674.929893</ele>
        <time>2024-09-08T08:13:27.999Z</time>
      </trkpt>
      <trkpt lat="48.689917" lon="9.996711">
        <ele>674.785074</ele>
        <time>2024-09-08T08:13:29.999Z</time>
      </trkpt>
      <trkpt lat="48.689913" lon="9.996902">
        <ele>674.636199</ele>
        <time>2024-09-08T08:13:31.999Z</time>
      </trkpt>
      <trkpt lat="48.689901" lon="9.997094">
        <ele>674.485952</ele>
        <time>2024-09-08T08:13:33.999Z</time>
      </trkpt>
      <trkpt lat="48.689888" lon="9.997292">
        <ele>674.330938</ele>
        <time>2024-09-08T08:13:35.999Z</time>
      </trkpt>
      <trkpt lat="48.689869" lon="9.997503">
        <ele>674.165035</ele>
        <time>2024-09-08T08:13:37.999Z</time>
      </trkpt>
      <trkpt lat="48.689851" lon="9.997725">
        <ele>673.990785</ele>
        <time>2024-09-08T08:13:39.999Z</time>
      </trkpt>
      <trkpt lat="48.689829" lon="9.997954">
        <ele>673.810502</ele>
        <time>2024-09-08T08:13:41.999Z</time>
      </trkpt>
      <trkpt lat="48.689820" lon="9.998193">
        <ele>673.660379</ele>
        <time>2024-09-08T08:13:43.999Z</time>
      </trkpt>
      <trkpt lat="48.689815" lon="9.998463">
        <ele>673.628822</ele>
        <time>2024-09-08T08:13:46.000Z</time>
      </trkpt>
      <trkpt lat="48.689816" lon="9.998606">
        <ele>673.612114</ele>
        <time>2024-09-08T08:13:47.000Z</time>
      </trkpt>
      <trkpt lat="48.689819" lon="9.998755">
        <ele>673.594698</ele>
        <time>2024-09-08T08:13:48.000Z</time>
      </trkpt>
      <trkpt lat="48.689825" lon="9.999011">
        <ele>673.564770</ele>
        <time>2024-09-08T08:13:50.000Z</time>
      </trkpt>
      <trkpt lat="48.689827" lon="9.999205">
        <ele>673.542101</ele>
        <time>2024-09-08T08:13:52.000Z</time>
      </trkpt>
      <trkpt lat="48.689895" lon="9.999332">
        <ele>673.522996</ele>
        <time>2024-09-08T08:13:55.000Z</time>
      </trkpt>
      <trkpt lat="48.689994" lon="9.999335">
        <ele>673.505471</ele>
        <time>2024-09-08T08:13:57.000Z</time>
      </trkpt>
      <trkpt lat="48.690106" lon="9.999301">
        <ele>673.485255</ele>
        <time>2024-09-08T08:13:59.000Z</time>
      </trkpt>
      <trkpt lat="48.690218" lon="9.999285">
        <ele>673.465345</ele>
        <time>2024-09-08T08:14:01.000Z</time>
      </trkpt>
      <trkpt lat="48.690328" lon="9.999261">
        <ele>673.445676</ele>
        <time>2024-09-08T08:14:03.000Z</time>
      </trkpt>
      <trkpt lat="48.690427" lon="9.999236">
        <ele>673.427913</ele>
        <time>2024-09-08T08:14:05.000Z</time>
      </trkpt>
      <trkpt lat="48.690557" lon="9.999194">
        <ele>673.404388</ele>
        <time>2024-09-08T08:14:08.000Z</time>
      </trkpt>
      <trkpt lat="48.690656" lon="9.999161">
        <ele>673.386447</ele>
        <time>2024-09-08T08:14:10.000Z</time>
      </trkpt>
      <trkpt lat="48.690757" lon="9.999137">
        <ele>673.368353</ele>
        <time>2024-09-08T08:14:12.000Z</time>
      </trkpt>
      <trkpt lat="48.690881" lon="9.999108">
        <ele>673.396544</ele>
        <time>2024-09-08T08:14:14.000Z</time>
      </trkpt>
      <trkpt lat="48.691001" lon="9.999084">
        <ele>673.840629</ele>
        <time>2024-09-08T08:14:16.000Z</time>
      </trkpt>
      <trkpt lat="48.691112" lon="9.999061">
        <ele>674.251666</ele>
        <time>2024-09-08T08:14:18.000Z</time>
      </trkpt>
      <trkpt lat="48.691226" lon="9.999044">
        <ele>674.671938</ele>
        <time>2024-09-08T08:14:20.000Z</time>
      </trkpt>
      <trkpt lat="48.691331" lon="9.999018">
        <ele>675.062282</ele>
        <time>2024-09-08T08:14:22.000Z</time>
      </trkpt>
      <trkpt lat="48.691439" lon="9.998998">
        <ele>675.461469</ele>
        <time>2024-09-08T08:14:24.000Z</time>
      </trkpt>
      <trkpt lat="48.691546" lon="9.998976">
        <ele>675.857638</ele>
        <time>2024-09-08T08:14:26.000Z</time>
      </trkpt>
      <trkpt lat="48.691649" lon="9.998945">
        <ele>676.242917</ele>
        <time>2024-09-08T08:14:28.000Z</time>
      </trkpt>
      <trkpt lat="48.691755" lon="9.998919">
        <ele>676.636882</ele>
        <time>2024-09-08T08:14:30.000Z</time>
      </trkpt>
      <trkpt lat="48.691868" lon="9.998890">
        <ele>677.057371</ele>
        <time>2024-09-08T08:14:32.000Z</time>
      </trkpt>
      <trkpt lat="48.691975" lon="9.998862">
        <ele>677.455754</ele>
        <time>2024-09-08T08:14:34.000Z</time>
      </trkpt>
      <trkpt lat="48.692076" lon="9.998847">
        <ele>677.828086</ele>
        <time>2024-09-08T08:14:36.000Z</time>
      </trkpt>
      <trkpt lat="48.692184" lon="9.998840">
        <ele>678.224686</ele>
        <time>2024-09-08T08:14:38.000Z</time>
      </trkpt>
      <trkpt lat="48.692283" lon="9.998813">
        <ele>678.593744</ele>
        <time>2024-09-08T08:14:40.000Z</time>
      </trkpt>
      <trkpt lat="48.692386" lon="9.998784">
        <ele>678.978108</ele>
        <time>2024-09-08T08:14:42.000Z</time>
      </trkpt>
      <trkpt lat="48.692493" lon="9.998768">
        <ele>679.372585</ele>
        <time>2024-09-08T08:14:44.000Z</time>
      </trkpt>
      <trkpt lat="48.692594" lon="9.998739">
        <ele>679.749738</ele>
        <time>2024-09-08T08:14:46.000Z</time>
      </trkpt>
      <trkpt lat="48.692696" lon="9.998717">
        <ele>680.119411</ele>
        <time>2024-09-08T08:14:48.000Z</time>
      </trkpt>
      <trkpt lat="48.692798" lon="9.998698">
        <ele>680.479041</ele>
        <time>2024-09-08T08:14:50.000Z</time>
      </trkpt>
      <trkpt lat="48.692901" lon="9.998673">
        <ele>680.844080</ele>
        <time>2024-09-08T08:14:52.000Z</time>
      </trkpt>
      <trkpt lat="48.693001" lon="9.998653">
        <ele>681.197060</ele>
        <time>2024-09-08T08:14:54.000Z</time>
      </trkpt>
      <trkpt lat="48.693104" lon="9.998634">
        <ele>681.560164</ele>
        <time>2024-09-08T08:14:56.000Z</time>
      </trkpt>
      <trkpt lat="48.693200" lon="9.998608">
        <ele>681.901437</ele>
        <time>2024-09-08T08:14:58.000Z</time>
      </trkpt>
      <trkpt lat="48.693302" lon="9.998591">
        <ele>682.260533</ele>
        <time>2024-09-08T08:15:00.000Z</time>
      </trkpt>
      <trkpt lat="48.693405" lon="9.998570">
        <ele>682.624224</ele>
        <time>2024-09-08T08:15:02.000Z</time>
      </trkpt>
      <trkpt lat="48.693502" lon="9.998547">
        <ele>682.967802</ele>
        <time>2024-09-08T08:15:04.000Z</time>
      </trkpt>
      <trkpt lat="48.693605" lon="9.998523">
        <ele>683.332483</ele>
        <time>2024-09-08T08:15:06.000Z</time>
      </trkpt>
      <trkpt lat="48.693709" lon="9.998501">
        <ele>683.699955</ele>
        <time>2024-09-08T08:15:07.999Z</time>
      </trkpt>
      <trkpt lat="48.693812" lon="9.998482">
        <ele>684.063059</ele>
        <time>2024-09-08T08:15:09.999Z</time>
      </trkpt>
      <trkpt lat="48.693914" lon="9.998464">
        <ele>684.422415</ele>
        <time>2024-09-08T08:15:11.999Z</time>
      </trkpt>
      <trkpt lat="48.694017" lon="9.998441">
        <ele>684.786751</ele>
        <time>2024-09-08T08:15:13.999Z</time>
      </trkpt>
      <trkpt lat="48.694120" lon="9.998421">
        <ele>685.150142</ele>
        <time>2024-09-08T08:15:15.999Z</time>
      </trkpt>
      <trkpt lat="48.694222" lon="9.998398">
        <ele>685.511017</ele>
        <time>2024-09-08T08:15:17.999Z</time>
      </trkpt>
      <trkpt lat="48.694324" lon="9.998376">
        <ele>685.871558</ele>
        <time>2024-09-08T08:15:19.999Z</time>
      </trkpt>
      <trkpt lat="48.694425" lon="9.998354">
        <ele>686.228636</ele>
        <time>2024-09-08T08:15:21.999Z</time>
      </trkpt>
      <trkpt lat="48.694527" lon="9.998331">
        <ele>686.495713</ele>
        <time>2024-09-08T08:15:23.999Z</time>
      </trkpt>
      <trkpt lat="48.694634" lon="9.998313">
        <ele>686.770857</ele>
        <time>2024-09-08T08:15:25.999Z</time>
      </trkpt>
      <trkpt lat="48.694743" lon="9.998303">
        <ele>687.049941</ele>
        <time>2024-09-08T08:15:27.999Z</time>
      </trkpt>
      <trkpt lat="48.694851" lon="9.998300">
        <ele>687.326007</ele>
        <time>2024-09-08T08:15:29.999Z</time>
      </trkpt>
      <trkpt lat="48.694953" lon="9.998302">
        <ele>687.586713</ele>
        <time>2024-09-08T08:15:31.999Z</time>
      </trkpt>
      <trkpt lat="48.695063" lon="9.998315">
        <ele>687.868697</ele>
        <time>2024-09-08T08:15:33.999Z</time>
      </trkpt>
      <trkpt lat="48.695173" lon="9.998330">
        <ele>688.150964</ele>
        <time>2024-09-08T08:15:35.999Z</time>
      </trkpt>
      <trkpt lat="48.695280" lon="9.998350">
        <ele>688.426500</ele>
        <time>2024-09-08T08:15:37.999Z</time>
      </trkpt>
      <trkpt lat="48.695387" lon="9.998383">
        <ele>688.705572</ele>
        <time>2024-09-08T08:15:39.999Z</time>
      </trkpt>
      <trkpt lat="48.695496" lon="9.998425">
        <ele>688.993016</ele>
        <time>2024-09-08T08:15:41.999Z</time>
      </trkpt>
      <trkpt lat="48.695604" lon="9.998470">
        <ele>689.279283</ele>
        <time>2024-09-08T08:15:43.999Z</time>
      </trkpt>
      <trkpt lat="48.695709" lon="9.998523">
        <ele>689.562137</ele>
        <time>2024-09-08T08:15:45.999Z</time>
      </trkpt>
      <trkpt lat="48.695815" lon="9.998581">
        <ele>689.850171</ele>
        <time>2024-09-08T08:15:47.999Z</time>
      </trkpt>
      <trkpt lat="48.695923" lon="9.998643">
        <ele>690.145341</ele>
        <time>2024-09-08T08:15:49.999Z</time>
      </trkpt>
      <trkpt lat="48.696028" lon="9.998711">
        <ele>690.437182</ele>
        <time>2024-09-08T08:15:52.000Z</time>
      </trkpt>
      <trkpt lat="48.696131" lon="9.998773">
        <ele>690.720438</ele>
        <time>2024-09-08T08:15:54.000Z</time>
      </trkpt>
      <trkpt lat="48.696238" lon="9.998832">
        <ele>690.950122</ele>
        <time>2024-09-08T08:15:56.000Z</time>
      </trkpt>
      <trkpt lat="48.696344" lon="9.998893">
        <ele>691.137131</ele>
        <time>2024-09-08T08:15:58.000Z</time>
      </trkpt>
      <trkpt lat="48.696449" lon="9.998959">
        <ele>691.324617</ele>
        <time>2024-09-08T08:16:00.000Z</time>
      </trkpt>
      <trkpt lat="48.696556" lon="9.999019">
        <ele>691.512789</ele>
        <time>2024-09-08T08:16:02.000Z</time>
      </trkpt>
      <trkpt lat="48.696662" lon="9.999082">
        <ele>691.700582</ele>
        <time>2024-09-08T08:16:04.000Z</time>
      </trkpt>
      <trkpt lat="48.696770" lon="9.999143">
        <ele>691.890679</ele>
        <time>2024-09-08T08:16:06.000Z</time>
      </trkpt>
      <trkpt lat="48.696878" lon="9.999211">
        <ele>692.083569</ele>
        <time>2024-09-08T08:16:08.000Z</time>
      </trkpt>
      <trkpt lat="48.696988" lon="9.999274">
        <ele>692.277519</ele>
        <time>2024-09-08T08:16:10.000Z</time>
      </trkpt>
      <trkpt lat="48.697099" lon="9.999337">
        <ele>692.473012</ele>
        <time>2024-09-08T08:16:12.000Z</time>
      </trkpt>
      <trkpt lat="48.697207" lon="9.999401">
        <ele>692.664274</ele>
        <time>2024-09-08T08:16:14.000Z</time>
      </trkpt>
      <trkpt lat="48.697318" lon="9.999468">
        <ele>692.861336</ele>
        <time>2024-09-08T08:16:16.000Z</time>
      </trkpt>
      <trkpt lat="48.697429" lon="9.999534">
        <ele>693.057999</ele>
        <time>2024-09-08T08:16:18.000Z</time>
      </trkpt>
      <trkpt lat="48.697539" lon="9.999594">
        <ele>693.250818</ele>
        <time>2024-09-08T08:16:20.000Z</time>
      </trkpt>
      <trkpt lat="48.697645" lon="9.999657">
        <ele>693.438611</ele>
        <time>2024-09-08T08:16:22.000Z</time>
      </trkpt>
      <trkpt lat="48.697756" lon="9.999723">
        <ele>693.635273</ele>
        <time>2024-09-08T08:16:24.000Z</time>
      </trkpt>
      <trkpt lat="48.697871" lon="9.999777">
        <ele>693.815324</ele>
        <time>2024-09-08T08:16:26.000Z</time>
      </trkpt>
      <trkpt lat="48.697988" lon="9.999833">
        <ele>693.887835</ele>
        <time>2024-09-08T08:16:28.000Z</time>
      </trkpt>
      <trkpt lat="48.698107" lon="9.999876">
        <ele>693.960132</ele>
        <time>2024-09-08T08:16:30.000Z</time>
      </trkpt>
      <trkpt lat="48.698231" lon="9.999926">
        <ele>694.035962</ele>
        <time>2024-09-08T08:16:32.000Z</time>
      </trkpt>
      <trkpt lat="48.698352" lon="9.999968">
        <ele>694.109321</ele>
        <time>2024-09-08T08:16:34.000Z</time>
      </trkpt>
      <trkpt lat="48.698481" lon="9.999998">
        <ele>694.186447</ele>
        <time>2024-09-08T08:16:36.000Z</time>
      </trkpt>
      <trkpt lat="48.698615" lon="10.000022">
        <ele>694.266187</ele>
        <time>2024-09-08T08:16:38.000Z</time>
      </trkpt>
      <trkpt lat="48.698753" lon="10.000039">
        <ele>694.348009</ele>
        <time>2024-09-08T08:16:40.000Z</time>
      </trkpt>
      <trkpt lat="48.698893" lon="10.000051">
        <ele>694.430876</ele>
        <time>2024-09-08T08:16:42.000Z</time>
      </trkpt>
      <trkpt lat="48.699034" lon="10.000064">
        <ele>694.514356</ele>
        <time>2024-09-08T08:16:44.000Z</time>
      </trkpt>
      <trkpt lat="48.699176" lon="10.000070">
        <ele>694.598305</ele>
        <time>2024-09-08T08:16:46.000Z</time>
      </trkpt>
      <trkpt lat="48.699316" lon="10.000074">
        <ele>694.681054</ele>
        <time>2024-09-08T08:16:48.000Z</time>
      </trkpt>
      <trkpt lat="48.699457" lon="10.000073">
        <ele>694.764380</ele>
        <time>2024-09-08T08:16:50.000Z</time>
      </trkpt>
      <trkpt lat="48.699596" lon="10.000061">
        <ele>694.846657</ele>
        <time>2024-09-08T08:16:52.000Z</time>
      </trkpt>
      <trkpt lat="48.699740" lon="10.000057">
        <ele>694.759070</ele>
        <time>2024-09-08T08:16:54.000Z</time>
      </trkpt>
      <trkpt lat="48.699885" lon="10.000059">
        <ele>694.613006</ele>
        <time>2024-09-08T08:16:56.000Z</time>
      </trkpt>
      <trkpt lat="48.700032" lon="10.000054">
        <ele>694.464897</ele>
        <time>2024-09-08T08:16:58.000Z</time>
      </trkpt>
      <trkpt lat="48.700177" lon="10.000060">
        <ele>694.318785</ele>
        <time>2024-09-08T08:17:00.000Z</time>
      </trkpt>
      <trkpt lat="48.700320" lon="10.000058">
        <ele>694.174735</ele>
        <time>2024-09-08T08:17:01.999Z</time>
      </trkpt>
      <trkpt lat="48.700462" lon="10.000060">
        <ele>694.031693</ele>
        <time>2024-09-08T08:17:03.999Z</time>
      </trkpt>
      <trkpt lat="48.700604" lon="10.000056">
        <ele>693.888633</ele>
        <time>2024-09-08T08:17:05.999Z</time>
      </trkpt>
      <trkpt lat="48.700740" lon="10.000009">
        <ele>693.748123</ele>
        <time>2024-09-08T08:17:07.999Z</time>
      </trkpt>
      <trkpt lat="48.700874" lon="9.999945">
        <ele>693.606598</ele>
        <time>2024-09-08T08:17:09.999Z</time>
      </trkpt>
      <trkpt lat="48.701003" lon="9.999878">
        <ele>693.469235</ele>
        <time>2024-09-08T08:17:11.999Z</time>
      </trkpt>
      <trkpt lat="48.701085" lon="9.999936">
        <ele>693.378080</ele>
        <time>2024-09-08T08:17:13.999Z</time>
      </trkpt>
      <trkpt lat="48.701083" lon="10.000096">
        <ele>693.271693</ele>
        <time>2024-09-08T08:17:14.999Z</time>
      </trkpt>
      <trkpt lat="48.701105" lon="10.000315">
        <ele>693.124424</ele>
        <time>2024-09-08T08:17:16.999Z</time>
      </trkpt>
      <trkpt lat="48.701081" lon="10.000550">
        <ele>692.787689</ele>
        <time>2024-09-08T08:17:18.999Z</time>
      </trkpt>
      <trkpt lat="48.701032" lon="10.000770">
        <ele>692.326293</ele>
        <time>2024-09-08T08:17:20.999Z</time>
      </trkpt>
      <trkpt lat="48.701030" lon="10.001028">
        <ele>691.813572</ele>
        <time>2024-09-08T08:17:22.999Z</time>
      </trkpt>
      <trkpt lat="48.701035" lon="10.001166">
        <ele>691.538932</ele>
        <time>2024-09-08T08:17:23.999Z</time>
      </trkpt>
      <trkpt lat="48.701047" lon="10.001436">
        <ele>691.001186</ele>
        <time>2024-09-08T08:17:25.999Z</time>
      </trkpt>
      <trkpt lat="48.701057" lon="10.001578">
        <ele>690.717409</ele>
        <time>2024-09-08T08:17:26.999Z</time>
      </trkpt>
      <trkpt lat="48.701070" lon="10.001721">
        <ele>690.430563</ele>
        <time>2024-09-08T08:17:27.999Z</time>
      </trkpt>
      <trkpt lat="48.701082" lon="10.001872">
        <ele>690.128336</ele>
        <time>2024-09-08T08:17:28.999Z</time>
      </trkpt>
      <trkpt lat="48.701093" lon="10.002023">
        <ele>689.826454</ele>
        <time>2024-09-08T08:17:29.999Z</time>
      </trkpt>
      <trkpt lat="48.701107" lon="10.002175">
        <ele>689.521480</ele>
        <time>2024-09-08T08:17:30.999Z</time>
      </trkpt>
      <trkpt lat="48.701122" lon="10.002328">
        <ele>689.214110</ele>
        <time>2024-09-08T08:17:31.999Z</time>
      </trkpt>
      <trkpt lat="48.701140" lon="10.002476">
        <ele>688.915060</ele>
        <time>2024-09-08T08:17:32.999Z</time>
      </trkpt>
      <trkpt lat="48.701150" lon="10.002631">
        <ele>688.605584</ele>
        <time>2024-09-08T08:17:33.999Z</time>
      </trkpt>
      <trkpt lat="48.701160" lon="10.002783">
        <ele>688.302041</ele>
        <time>2024-09-08T08:17:34.999Z</time>
      </trkpt>
      <trkpt lat="48.701169" lon="10.002930">
        <ele>688.008676</ele>
        <time>2024-09-08T08:17:35.999Z</time>
      </trkpt>
      <trkpt lat="48.701173" lon="10.003079">
        <ele>687.712347</ele>
        <time>2024-09-08T08:17:36.999Z</time>
      </trkpt>
      <trkpt lat="48.701186" lon="10.003228">
        <ele>687.306162</ele>
        <time>2024-09-08T08:17:37.999Z</time>
      </trkpt>
      <trkpt lat="48.701195" lon="10.003380">
        <ele>686.859223</ele>
        <time>2024-09-08T08:17:38.999Z</time>
      </trkpt>
      <trkpt lat="48.701193" lon="10.003533">
        <ele>686.411056</ele>
        <time>2024-09-08T08:17:39.999Z</time>
      </trkpt>
      <trkpt lat="48.701198" lon="10.003699">
        <ele>685.924398</ele>
        <time>2024-09-08T08:17:40.999Z</time>
      </trkpt>
      <trkpt lat="48.701209" lon="10.003862">
        <ele>685.444543</ele>
        <time>2024-09-08T08:17:41.999Z</time>
      </trkpt>
      <trkpt lat="48.701217" lon="10.004031">
        <ele>684.948334</ele>
        <time>2024-09-08T08:17:42.999Z</time>
      </trkpt>
      <trkpt lat="48.701225" lon="10.004200">
        <ele>684.452125</ele>
        <time>2024-09-08T08:17:43.999Z</time>
      </trkpt>
      <trkpt lat="48.701233" lon="10.004369">
        <ele>683.955916</ele>
        <time>2024-09-08T08:17:44.999Z</time>
      </trkpt>
      <trkpt lat="48.701238" lon="10.004546">
        <ele>683.437075</ele>
        <time>2024-09-08T08:17:45.999Z</time>
      </trkpt>
      <trkpt lat="48.701230" lon="10.004720">
        <ele>682.926260</ele>
        <time>2024-09-08T08:17:46.999Z</time>
      </trkpt>
      <trkpt lat="48.701211" lon="10.004894">
        <ele>682.409752</ele>
        <time>2024-09-08T08:17:47.999Z</time>
      </trkpt>
      <trkpt lat="48.701181" lon="10.005053">
        <ele>681.925445</ele>
        <time>2024-09-08T08:17:48.999Z</time>
      </trkpt>
      <trkpt lat="48.701132" lon="10.005211">
        <ele>681.414182</ele>
        <time>2024-09-08T08:17:49.999Z</time>
      </trkpt>
      <trkpt lat="48.701075" lon="10.005356">
        <ele>680.919912</ele>
        <time>2024-09-08T08:17:50.999Z</time>
      </trkpt>
      <trkpt lat="48.701004" lon="10.005496">
        <ele>680.402836</ele>
        <time>2024-09-08T08:17:51.999Z</time>
      </trkpt>
      <trkpt lat="48.700934" lon="10.005636">
        <ele>679.888451</ele>
        <time>2024-09-08T08:17:52.999Z</time>
      </trkpt>
      <trkpt lat="48.700857" lon="10.005774">
        <ele>679.057499</ele>
        <time>2024-09-08T08:17:53.999Z</time>
      </trkpt>
      <trkpt lat="48.700781" lon="10.005916">
        <ele>677.983763</ele>
        <time>2024-09-08T08:17:54.999Z</time>
      </trkpt>
      <trkpt lat="48.700703" lon="10.006059">
        <ele>676.894207</ele>
        <time>2024-09-08T08:17:55.999Z</time>
      </trkpt>
      <trkpt lat="48.700625" lon="10.006203">
        <ele>675.800117</ele>
        <time>2024-09-08T08:17:56.999Z</time>
      </trkpt>
      <trkpt lat="48.700544" lon="10.006350">
        <ele>674.675429</ele>
        <time>2024-09-08T08:17:58.000Z</time>
      </trkpt>
      <trkpt lat="48.700463" lon="10.006505">
        <ele>673.514283</ele>
        <time>2024-09-08T08:17:59.000Z</time>
      </trkpt>
      <trkpt lat="48.700366" lon="10.006657">
        <ele>672.272501</ele>
        <time>2024-09-08T08:18:00.000Z</time>
      </trkpt>
      <trkpt lat="48.700278" lon="10.006819">
        <ele>671.040232</ele>
        <time>2024-09-08T08:18:01.000Z</time>
      </trkpt>
      <trkpt lat="48.700189" lon="10.006988">
        <ele>669.770417</ele>
        <time>2024-09-08T08:18:02.000Z</time>
      </trkpt>
      <trkpt lat="48.700100" lon="10.007160">
        <ele>668.486781</ele>
        <time>2024-09-08T08:18:03.000Z</time>
      </trkpt>
      <trkpt lat="48.699999" lon="10.007330">
        <ele>667.143397</ele>
        <time>2024-09-08T08:18:04.000Z</time>
      </trkpt>
      <trkpt lat="48.699906" lon="10.007510">
        <ele>665.800820</ele>
        <time>2024-09-08T08:18:05.000Z</time>
      </trkpt>
      <trkpt lat="48.699810" lon="10.007692">
        <ele>664.432467</ele>
        <time>2024-09-08T08:18:06.000Z</time>
      </trkpt>
      <trkpt lat="48.699712" lon="10.007879">
        <ele>663.270850</ele>
        <time>2024-09-08T08:18:07.000Z</time>
      </trkpt>
      <trkpt lat="48.699614" lon="10.008064">
        <ele>662.415601</ele>
        <time>2024-09-08T08:18:08.000Z</time>
      </trkpt>
      <trkpt lat="48.699522" lon="10.008255">
        <ele>661.563099</ele>
        <time>2024-09-08T08:18:09.000Z</time>
      </trkpt>
      <trkpt lat="48.699444" lon="10.008458">
        <ele>660.716222</ele>
        <time>2024-09-08T08:18:10.000Z</time>
      </trkpt>
      <trkpt lat="48.699387" lon="10.008677">
        <ele>659.867475</ele>
        <time>2024-09-08T08:18:11.000Z</time>
      </trkpt>
      <trkpt lat="48.699334" lon="10.008897">
        <ele>659.023111</ele>
        <time>2024-09-08T08:18:12.000Z</time>
      </trkpt>
      <trkpt lat="48.699286" lon="10.009116">
        <ele>658.191140</ele>
        <time>2024-09-08T08:18:13.000Z</time>
      </trkpt>
      <trkpt lat="48.699238" lon="10.009334">
        <ele>657.362589</ele>
        <time>2024-09-08T08:18:14.000Z</time>
      </trkpt>
      <trkpt lat="48.699190" lon="10.009548">
        <ele>656.547705</ele>
        <time>2024-09-08T08:18:15.000Z</time>
      </trkpt>
      <trkpt lat="48.699145" lon="10.009759">
        <ele>655.748243</ele>
        <time>2024-09-08T08:18:16.000Z</time>
      </trkpt>
      <trkpt lat="48.699096" lon="10.009968">
        <ele>654.948593</ele>
        <time>2024-09-08T08:18:17.000Z</time>
      </trkpt>
      <trkpt lat="48.699049" lon="10.010175">
        <ele>654.159354</ele>
        <time>2024-09-08T08:18:18.000Z</time>
      </trkpt>
      <trkpt lat="48.699004" lon="10.010382">
        <ele>653.412312</ele>
        <time>2024-09-08T08:18:19.000Z</time>
      </trkpt>
      <trkpt lat="48.698959" lon="10.010582">
        <ele>652.715326</ele>
        <time>2024-09-08T08:18:20.000Z</time>
      </trkpt>
      <trkpt lat="48.698905" lon="10.010779">
        <ele>652.011703</ele>
        <time>2024-09-08T08:18:21.000Z</time>
      </trkpt>
      <trkpt lat="48.698843" lon="10.010965">
        <ele>651.324371</ele>
        <time>2024-09-08T08:18:22.000Z</time>
      </trkpt>
      <trkpt lat="48.698778" lon="10.011145">
        <ele>650.647577</ele>
        <time>2024-09-08T08:18:23.000Z</time>
      </trkpt>
      <trkpt lat="48.698710" lon="10.011323">
        <ele>649.969178</ele>
        <time>2024-09-08T08:18:24.000Z</time>
      </trkpt>
      <trkpt lat="48.698641" lon="10.011496">
        <ele>649.302430</ele>
        <time>2024-09-08T08:18:25.000Z</time>
      </trkpt>
      <trkpt lat="48.698577" lon="10.011674">
        <ele>648.633819</ele>
        <time>2024-09-08T08:18:26.000Z</time>
      </trkpt>
      <trkpt lat="48.698511" lon="10.011849">
        <ele>647.968979</ele>
        <time>2024-09-08T08:18:27.000Z</time>
      </trkpt>
      <trkpt lat="48.698433" lon="10.012014">
        <ele>647.299518</ele>
        <time>2024-09-08T08:18:28.000Z</time>
      </trkpt>
      <trkpt lat="48.698368" lon="10.012190">
        <ele>646.634265</ele>
        <time>2024-09-08T08:18:29.000Z</time>
      </trkpt>
      <trkpt lat="48.698305" lon="10.012366">
        <ele>645.973835</ele>
        <time>2024-09-08T08:18:30.000Z</time>
      </trkpt>
      <trkpt lat="48.698244" lon="10.012546">
        <ele>645.306400</ele>
        <time>2024-09-08T08:18:31.000Z</time>
      </trkpt>
      <trkpt lat="48.698186" lon="10.012732">
        <ele>644.636545</ele>
        <time>2024-09-08T08:18:32.000Z</time>
      </trkpt>
      <trkpt lat="48.698132" lon="10.012924">
        <ele>643.976442</ele>
        <time>2024-09-08T08:18:33.000Z</time>
      </trkpt>
      <trkpt lat="48.698074" lon="10.013118">
        <ele>643.302834</ele>
        <time>2024-09-08T08:18:34.000Z</time>
      </trkpt>
      <trkpt lat="48.698023" lon="10.013321">
        <ele>642.615833</ele>
        <time>2024-09-08T08:18:35.000Z</time>
      </trkpt>
      <trkpt lat="48.697975" lon="10.013528">
        <ele>641.921891</ele>
        <time>2024-09-08T08:18:36.000Z</time>
      </trkpt>
      <trkpt lat="48.697927" lon="10.013741">
        <ele>641.210015</ele>
        <time>2024-09-08T08:18:37.000Z</time>
      </trkpt>
      <trkpt lat="48.697877" lon="10.013950">
        <ele>640.506892</ele>
        <time>2024-09-08T08:18:38.000Z</time>
      </trkpt>
      <trkpt lat="48.697826" lon="10.014157">
        <ele>639.808050</ele>
        <time>2024-09-08T08:18:39.000Z</time>
      </trkpt>
      <trkpt lat="48.697779" lon="10.014362">
        <ele>639.121657</ele>
        <time>2024-09-08T08:18:40.000Z</time>
      </trkpt>
      <trkpt lat="48.697736" lon="10.014568">
        <ele>638.438297</ele>
        <time>2024-09-08T08:18:41.000Z</time>
      </trkpt>
      <trkpt lat="48.697695" lon="10.014772">
        <ele>637.763819</ele>
        <time>2024-09-08T08:18:42.000Z</time>
      </trkpt>
      <trkpt lat="48.697659" lon="10.014969">
        <ele>637.117290</ele>
        <time>2024-09-08T08:18:43.000Z</time>
      </trkpt>
      <trkpt lat="48.697627" lon="10.015165">
        <ele>636.478680</ele>
        <time>2024-09-08T08:18:44.000Z</time>
      </trkpt>
      <trkpt lat="48.697596" lon="10.015353">
        <ele>636.101030</ele>
        <time>2024-09-08T08:18:45.000Z</time>
      </trkpt>
      <trkpt lat="48.697570" lon="10.015540">
        <ele>635.897671</ele>
        <time>2024-09-08T08:18:46.000Z</time>
      </trkpt>
      <trkpt lat="48.697541" lon="10.015718">
        <ele>635.702570</ele>
        <time>2024-09-08T08:18:47.000Z</time>
      </trkpt>
      <trkpt lat="48.697518" lon="10.015896">
        <ele>635.509559</ele>
        <time>2024-09-08T08:18:48.000Z</time>
      </trkpt>
      <trkpt lat="48.697494" lon="10.016070">
        <ele>635.320401</ele>
        <time>2024-09-08T08:18:49.000Z</time>
      </trkpt>
      <trkpt lat="48.697465" lon="10.016233">
        <ele>635.140756</ele>
        <time>2024-09-08T08:18:50.000Z</time>
      </trkpt>
      <trkpt lat="48.697444" lon="10.016396">
        <ele>634.964029</ele>
        <time>2024-09-08T08:18:51.000Z</time>
      </trkpt>
      <trkpt lat="48.697411" lon="10.016558">
        <ele>634.783616</ele>
        <time>2024-09-08T08:18:52.000Z</time>
      </trkpt>
      <trkpt lat="48.697387" lon="10.016709">
        <ele>634.618339</ele>
        <time>2024-09-08T08:18:53.000Z</time>
      </trkpt>
      <trkpt lat="48.697359" lon="10.016855">
        <ele>634.456550</ele>
        <time>2024-09-08T08:18:54.000Z</time>
      </trkpt>
      <trkpt lat="48.697328" lon="10.016992">
        <ele>634.302434</ele>
        <time>2024-09-08T08:18:55.000Z</time>
      </trkpt>
      <trkpt lat="48.697294" lon="10.017126">
        <ele>634.149666</ele>
        <time>2024-09-08T08:18:56.000Z</time>
      </trkpt>
      <trkpt lat="48.697259" lon="10.017253">
        <ele>634.003214</ele>
        <time>2024-09-08T08:18:57.000Z</time>
      </trkpt>
      <trkpt lat="48.697222" lon="10.017383">
        <ele>633.852562</ele>
        <time>2024-09-08T08:18:58.000Z</time>
      </trkpt>
      <trkpt lat="48.697182" lon="10.017515">
        <ele>633.698000</ele>
        <time>2024-09-08T08:18:59.000Z</time>
      </trkpt>
      <trkpt lat="48.697142" lon="10.017640">
        <ele>633.550174</ele>
        <time>2024-09-08T08:19:00.000Z</time>
      </trkpt>
      <trkpt lat="48.697062" lon="10.017887">
        <ele>633.143390</ele>
        <time>2024-09-08T08:19:02.000Z</time>
      </trkpt>
      <trkpt lat="48.697035" lon="10.018024">
        <ele>632.716267</ele>
        <time>2024-09-08T08:19:03.000Z</time>
      </trkpt>
      <trkpt lat="48.696982" lon="10.018136">
        <ele>632.304576</ele>
        <time>2024-09-08T08:19:04.000Z</time>
      </trkpt>
      <trkpt lat="48.696939" lon="10.018271">
        <ele>631.856778</ele>
        <time>2024-09-08T08:19:05.000Z</time>
      </trkpt>
      <trkpt lat="48.696897" lon="10.018405">
        <ele>631.413629</ele>
        <time>2024-09-08T08:19:06.000Z</time>
      </trkpt>
      <trkpt lat="48.696853" lon="10.018541">
        <ele>630.961165</ele>
        <time>2024-09-08T08:19:07.000Z</time>
      </trkpt>
      <trkpt lat="48.696810" lon="10.018677">
        <ele>630.510673</ele>
        <time>2024-09-08T08:19:08.000Z</time>
      </trkpt>
      <trkpt lat="48.696766" lon="10.018815">
        <ele>630.052836</ele>
        <time>2024-09-08T08:19:09.000Z</time>
      </trkpt>
      <trkpt lat="48.696732" lon="10.018949">
        <ele>629.623968</ele>
        <time>2024-09-08T08:19:10.000Z</time>
      </trkpt>
      <trkpt lat="48.696692" lon="10.019085">
        <ele>629.179173</ele>
        <time>2024-09-08T08:19:10.999Z</time>
      </trkpt>
      <trkpt lat="48.696645" lon="10.019223">
        <ele>628.715268</ele>
        <time>2024-09-08T08:19:11.999Z</time>
      </trkpt>
      <trkpt lat="48.696601" lon="10.019359">
        <ele>628.262801</ele>
        <time>2024-09-08T08:19:12.999Z</time>
      </trkpt>
      <trkpt lat="48.696555" lon="10.019498">
        <ele>627.798284</ele>
        <time>2024-09-08T08:19:13.999Z</time>
      </trkpt>
      <trkpt lat="48.696509" lon="10.019645">
        <ele>627.312285</ele>
        <time>2024-09-08T08:19:14.999Z</time>
      </trkpt>
      <trkpt lat="48.696461" lon="10.019798">
        <ele>626.806210</ele>
        <time>2024-09-08T08:19:15.999Z</time>
      </trkpt>
      <trkpt lat="48.696412" lon="10.019961">
        <ele>626.271140</ele>
        <time>2024-09-08T08:19:16.999Z</time>
      </trkpt>
      <trkpt lat="48.696346" lon="10.020124">
        <ele>625.699870</ele>
        <time>2024-09-08T08:19:17.999Z</time>
      </trkpt>
      <trkpt lat="48.696292" lon="10.020302">
        <ele>625.151139</ele>
        <time>2024-09-08T08:19:18.999Z</time>
      </trkpt>
      <trkpt lat="48.696237" lon="10.020489">
        <ele>624.882347</ele>
        <time>2024-09-08T08:19:19.999Z</time>
      </trkpt>
      <trkpt lat="48.696184" lon="10.020674">
        <ele>624.617560</ele>
        <time>2024-09-08T08:19:20.999Z</time>
      </trkpt>
      <trkpt lat="48.696132" lon="10.020859">
        <ele>624.353559</ele>
        <time>2024-09-08T08:19:21.999Z</time>
      </trkpt>
      <trkpt lat="48.696084" lon="10.021040">
        <ele>624.097452</ele>
        <time>2024-09-08T08:19:22.999Z</time>
      </trkpt>
      <trkpt lat="48.696050" lon="10.021227">
        <ele>623.842787</ele>
        <time>2024-09-08T08:19:23.999Z</time>
      </trkpt>
      <trkpt lat="48.696020" lon="10.021413">
        <ele>623.591393</ele>
        <time>2024-09-08T08:19:24.999Z</time>
      </trkpt>
      <trkpt lat="48.695989" lon="10.021593">
        <ele>623.347150</ele>
        <time>2024-09-08T08:19:25.999Z</time>
      </trkpt>
      <trkpt lat="48.695960" lon="10.021774">
        <ele>623.102605</ele>
        <time>2024-09-08T08:19:26.999Z</time>
      </trkpt>
      <trkpt lat="48.695930" lon="10.021950">
        <ele>622.863945</ele>
        <time>2024-09-08T08:19:27.999Z</time>
      </trkpt>
      <trkpt lat="48.695898" lon="10.022122">
        <ele>622.629318</ele>
        <time>2024-09-08T08:19:28.999Z</time>
      </trkpt>
      <trkpt lat="48.695867" lon="10.022291">
        <ele>622.399020</ele>
        <time>2024-09-08T08:19:29.999Z</time>
      </trkpt>
      <trkpt lat="48.695837" lon="10.022462">
        <ele>622.166710</ele>
        <time>2024-09-08T08:19:30.999Z</time>
      </trkpt>
      <trkpt lat="48.695817" lon="10.022629">
        <ele>621.943867</ele>
        <time>2024-09-08T08:19:31.999Z</time>
      </trkpt>
      <trkpt lat="48.695791" lon="10.022796">
        <ele>621.718587</ele>
        <time>2024-09-08T08:19:32.999Z</time>
      </trkpt>
      <trkpt lat="48.695763" lon="10.022963">
        <ele>621.493523</ele>
        <time>2024-09-08T08:19:33.999Z</time>
      </trkpt>
      <trkpt lat="48.695737" lon="10.023131">
        <ele>621.269366</ele>
        <time>2024-09-08T08:19:34.999Z</time>
      </trkpt>
      <trkpt lat="48.695702" lon="10.023298">
        <ele>621.041753</ele>
        <time>2024-09-08T08:19:35.999Z</time>
      </trkpt>
      <trkpt lat="48.695670" lon="10.023463">
        <ele>620.818351</ele>
        <time>2024-09-08T08:19:36.999Z</time>
      </trkpt>
      <trkpt lat="48.695637" lon="10.023623">
        <ele>620.600593</ele>
        <time>2024-09-08T08:19:37.999Z</time>
      </trkpt>
      <trkpt lat="48.695597" lon="10.023782">
        <ele>620.379552</ele>
        <time>2024-09-08T08:19:38.999Z</time>
      </trkpt>
      <trkpt lat="48.695550" lon="10.023937">
        <ele>620.157970</ele>
        <time>2024-09-08T08:19:39.999Z</time>
      </trkpt>
      <trkpt lat="48.695499" lon="10.024087">
        <ele>619.938782</ele>
        <time>2024-09-08T08:19:40.999Z</time>
      </trkpt>
      <trkpt lat="48.695440" lon="10.024234">
        <ele>619.715290</ele>
        <time>2024-09-08T08:19:41.999Z</time>
      </trkpt>
      <trkpt lat="48.695373" lon="10.024381">
        <ele>619.483228</ele>
        <time>2024-09-08T08:19:42.999Z</time>
      </trkpt>
      <trkpt lat="48.695294" lon="10.024498">
        <ele>619.265802</ele>
        <time>2024-09-08T08:19:43.999Z</time>
      </trkpt>
      <trkpt lat="48.695222" lon="10.024635">
        <ele>619.038311</ele>
        <time>2024-09-08T08:19:44.999Z</time>
      </trkpt>
      <trkpt lat="48.695148" lon="10.024769">
        <ele>618.811349</ele>
        <time>2024-09-08T08:19:45.999Z</time>
      </trkpt>
      <trkpt lat="48.695074" lon="10.024899">
        <ele>618.588347</ele>
        <time>2024-09-08T08:19:46.999Z</time>
      </trkpt>
      <trkpt lat="48.694997" lon="10.025027">
        <ele>618.363373</ele>
        <time>2024-09-08T08:19:47.999Z</time>
      </trkpt>
      <trkpt lat="48.694921" lon="10.025163">
        <ele>618.131888</ele>
        <time>2024-09-08T08:19:48.999Z</time>
      </trkpt>
      <trkpt lat="48.694851" lon="10.025307">
        <ele>617.462176</ele>
        <time>2024-09-08T08:19:49.999Z</time>
      </trkpt>
      <trkpt lat="48.694784" lon="10.025461">
        <ele>616.577902</ele>
        <time>2024-09-08T08:19:50.999Z</time>
      </trkpt>
      <trkpt lat="48.694723" lon="10.025627">
        <ele>615.667029</ele>
        <time>2024-09-08T08:19:51.999Z</time>
      </trkpt>
      <trkpt lat="48.694673" lon="10.025782">
        <ele>614.839916</ele>
        <time>2024-09-08T08:19:52.999Z</time>
      </trkpt>
      <trkpt lat="48.694645" lon="10.025933">
        <ele>614.087951</ele>
        <time>2024-09-08T08:19:53.999Z</time>
      </trkpt>
      <trkpt lat="48.694600" lon="10.026067">
        <ele>613.367147</ele>
        <time>2024-09-08T08:19:54.999Z</time>
      </trkpt>
      <trkpt lat="48.694553" lon="10.026210">
        <ele>612.601269</ele>
        <time>2024-09-08T08:19:55.999Z</time>
      </trkpt>
      <trkpt lat="48.694505" lon="10.026359">
        <ele>611.806377</ele>
        <time>2024-09-08T08:19:56.999Z</time>
      </trkpt>
      <trkpt lat="48.694458" lon="10.026513">
        <ele>610.992949</ele>
        <time>2024-09-08T08:19:57.999Z</time>
      </trkpt>
      <trkpt lat="48.694411" lon="10.026670">
        <ele>610.166444</ele>
        <time>2024-09-08T08:19:58.999Z</time>
      </trkpt>
      <trkpt lat="48.694362" lon="10.026836">
        <ele>609.294629</ele>
        <time>2024-09-08T08:19:59.999Z</time>
      </trkpt>
      <trkpt lat="48.694315" lon="10.027008">
        <ele>608.402133</ele>
        <time>2024-09-08T08:20:00.999Z</time>
      </trkpt>
      <trkpt lat="48.694265" lon="10.027186">
        <ele>607.474678</ele>
        <time>2024-09-08T08:20:01.999Z</time>
      </trkpt>
      <trkpt lat="48.694212" lon="10.027368">
        <ele>606.520962</ele>
        <time>2024-09-08T08:20:02.999Z</time>
      </trkpt>
      <trkpt lat="48.694154" lon="10.027551">
        <ele>605.547697</ele>
        <time>2024-09-08T08:20:04.000Z</time>
      </trkpt>
      <trkpt lat="48.694095" lon="10.027739">
        <ele>604.377999</ele>
        <time>2024-09-08T08:20:05.000Z</time>
      </trkpt>
      <trkpt lat="48.694026" lon="10.027930">
        <ele>602.934383</ele>
        <time>2024-09-08T08:20:06.000Z</time>
      </trkpt>
      <trkpt lat="48.693965" lon="10.028130">
        <ele>601.473630</ele>
        <time>2024-09-08T08:20:07.000Z</time>
      </trkpt>
      <trkpt lat="48.693892" lon="10.028330">
        <ele>599.958362</ele>
        <time>2024-09-08T08:20:08.000Z</time>
      </trkpt>
      <trkpt lat="48.693828" lon="10.028540">
        <ele>598.424779</ele>
        <time>2024-09-08T08:20:09.000Z</time>
      </trkpt>
      <trkpt lat="48.693761" lon="10.028753">
        <ele>596.860389</ele>
        <time>2024-09-08T08:20:10.000Z</time>
      </trkpt>
      <trkpt lat="48.693696" lon="10.028952">
        <ele>595.388273</ele>
        <time>2024-09-08T08:20:11.000Z</time>
      </trkpt>
      <trkpt lat="48.693628" lon="10.029154">
        <ele>593.884853</ele>
        <time>2024-09-08T08:20:12.000Z</time>
      </trkpt>
      <trkpt lat="48.693560" lon="10.029357">
        <ele>592.375522</ele>
        <time>2024-09-08T08:20:13.000Z</time>
      </trkpt>
      <trkpt lat="48.693484" lon="10.029560">
        <ele>590.828166</ele>
        <time>2024-09-08T08:20:14.000Z</time>
      </trkpt>
      <trkpt lat="48.693403" lon="10.029763">
        <ele>589.255423</ele>
        <time>2024-09-08T08:20:15.000Z</time>
      </trkpt>
      <trkpt lat="48.693327" lon="10.029972">
        <ele>587.673338</ele>
        <time>2024-09-08T08:20:16.000Z</time>
      </trkpt>
      <trkpt lat="48.693258" lon="10.030182">
        <ele>586.139560</ele>
        <time>2024-09-08T08:20:17.000Z</time>
      </trkpt>
      <trkpt lat="48.693195" lon="10.030380">
        <ele>584.720796</ele>
        <time>2024-09-08T08:20:18.000Z</time>
      </trkpt>
      <trkpt lat="48.693141" lon="10.030586">
        <ele>583.290109</ele>
        <time>2024-09-08T08:20:19.000Z</time>
      </trkpt>
      <trkpt lat="48.693100" lon="10.030784">
        <ele>581.950661</ele>
        <time>2024-09-08T08:20:20.000Z</time>
      </trkpt>
      <trkpt lat="48.693071" lon="10.030988">
        <ele>580.603703</ele>
        <time>2024-09-08T08:20:21.000Z</time>
      </trkpt>
      <trkpt lat="48.693063" lon="10.031203">
        <ele>579.213729</ele>
        <time>2024-09-08T08:20:22.000Z</time>
      </trkpt>
      <trkpt lat="48.693077" lon="10.031419">
        <ele>577.812798</ele>
        <time>2024-09-08T08:20:23.000Z</time>
      </trkpt>
      <trkpt lat="48.693107" lon="10.031642">
        <ele>576.343801</ele>
        <time>2024-09-08T08:20:24.000Z</time>
      </trkpt>
      <trkpt lat="48.693142" lon="10.031870">
        <ele>574.832847</ele>
        <time>2024-09-08T08:20:25.000Z</time>
      </trkpt>
      <trkpt lat="48.693175" lon="10.032100">
        <ele>573.313592</ele>
        <time>2024-09-08T08:20:26.000Z</time>
      </trkpt>
      <trkpt lat="48.693208" lon="10.032333">
        <ele>571.775410</ele>
        <time>2024-09-08T08:20:27.000Z</time>
      </trkpt>
      <trkpt lat="48.693240" lon="10.032568">
        <ele>570.226610</ele>
        <time>2024-09-08T08:20:28.000Z</time>
      </trkpt>
      <trkpt lat="48.693265" lon="10.032785">
        <ele>568.930518</ele>
        <time>2024-09-08T08:20:29.000Z</time>
      </trkpt>
      <trkpt lat="48.693285" lon="10.032985">
        <ele>567.929700</ele>
        <time>2024-09-08T08:20:30.000Z</time>
      </trkpt>
      <trkpt lat="48.693301" lon="10.033169">
        <ele>567.011469</ele>
        <time>2024-09-08T08:20:31.000Z</time>
      </trkpt>
      <trkpt lat="48.693314" lon="10.033339">
        <ele>566.164746</ele>
        <time>2024-09-08T08:20:32.000Z</time>
      </trkpt>
      <trkpt lat="48.693329" lon="10.033513">
        <ele>565.296546</ele>
        <time>2024-09-08T08:20:33.000Z</time>
      </trkpt>
      <trkpt lat="48.693356" lon="10.033676">
        <ele>564.465078</ele>
        <time>2024-09-08T08:20:34.000Z</time>
      </trkpt>
      <trkpt lat="48.693359" lon="10.033854">
        <ele>563.584112</ele>
        <time>2024-09-08T08:20:35.000Z</time>
      </trkpt>
      <trkpt lat="48.693377" lon="10.034032">
        <ele>562.693160</ele>
        <time>2024-09-08T08:20:36.000Z</time>
      </trkpt>
      <trkpt lat="48.693395" lon="10.034215">
        <ele>561.777747</ele>
        <time>2024-09-08T08:20:37.000Z</time>
      </trkpt>
      <trkpt lat="48.693425" lon="10.034407">
        <ele>560.801552</ele>
        <time>2024-09-08T08:20:38.000Z</time>
      </trkpt>
      <trkpt lat="48.693418" lon="10.034603">
        <ele>559.830399</ele>
        <time>2024-09-08T08:20:39.000Z</time>
      </trkpt>
      <trkpt lat="48.693421" lon="10.034784">
        <ele>558.934596</ele>
        <time>2024-09-08T08:20:40.000Z</time>
      </trkpt>
      <trkpt lat="48.693458" lon="10.034949">
        <ele>558.072418</ele>
        <time>2024-09-08T08:20:41.000Z</time>
      </trkpt>
      <trkpt lat="48.693460" lon="10.035114">
        <ele>557.255923</ele>
        <time>2024-09-08T08:20:42.000Z</time>
      </trkpt>
      <trkpt lat="48.693473" lon="10.035269">
        <ele>556.482876</ele>
        <time>2024-09-08T08:20:43.000Z</time>
      </trkpt>
      <trkpt lat="48.693481" lon="10.035419">
        <ele>555.858154</ele>
        <time>2024-09-08T08:20:44.000Z</time>
      </trkpt>
      <trkpt lat="48.693456" lon="10.035573">
        <ele>555.834906</ele>
        <time>2024-09-08T08:20:45.000Z</time>
      </trkpt>
      <trkpt lat="48.693476" lon="10.035709">
        <ele>555.814481</ele>
        <time>2024-09-08T08:20:46.000Z</time>
      </trkpt>
      <trkpt lat="48.693503" lon="10.035911">
        <ele>555.784268</ele>
        <time>2024-09-08T08:20:48.000Z</time>
      </trkpt>
      <trkpt lat="48.693500" lon="10.036048">
        <ele>555.764173</ele>
        <time>2024-09-08T08:20:50.000Z</time>
      </trkpt>
      <trkpt lat="48.693425" lon="10.035951">
        <ele>555.742273</ele>
        <time>2024-09-08T08:20:53.000Z</time>
      </trkpt>
      <trkpt lat="48.693400" lon="10.035789">
        <ele>555.717884</ele>
        <time>2024-09-08T08:20:55.000Z</time>
      </trkpt>
      <trkpt lat="48.693361" lon="10.035622">
        <ele>555.691916</ele>
        <time>2024-09-08T08:20:57.000Z</time>
      </trkpt>
      <trkpt lat="48.693328" lon="10.035425">
        <ele>555.662121</ele>
        <time>2024-09-08T08:20:59.000Z</time>
      </trkpt>
      <trkpt lat="48.693289" lon="10.035229">
        <ele>555.632111</ele>
        <time>2024-09-08T08:21:01.000Z</time>
      </trkpt>
      <trkpt lat="48.693258" lon="10.035048">
        <ele>555.604699</ele>
        <time>2024-09-08T08:21:03.000Z</time>
      </trkpt>
      <trkpt lat="48.693229" lon="10.034896">
        <ele>555.581505</ele>
        <time>2024-09-08T08:21:05.000Z</time>
      </trkpt>
      <trkpt lat="48.693217" lon="10.034745">
        <ele>555.559209</ele>
        <time>2024-09-08T08:21:07.000Z</time>
      </trkpt>
      <trkpt lat="48.693189" lon="10.034596">
        <ele>555.536498</ele>
        <time>2024-09-08T08:21:09.000Z</time>
      </trkpt>
      <trkpt lat="48.693161" lon="10.034446">
        <ele>555.513647</ele>
        <time>2024-09-08T08:21:10.999Z</time>
      </trkpt>
      <trkpt lat="48.693120" lon="10.034304">
        <ele>555.490926</ele>
        <time>2024-09-08T08:21:12.999Z</time>
      </trkpt>
      <trkpt lat="48.693105" lon="10.034146">
        <ele>555.467526</ele>
        <time>2024-09-08T08:21:14.999Z</time>
      </trkpt>
      <trkpt lat="48.693075" lon="10.033994">
        <ele>555.804039</ele>
        <time>2024-09-08T08:21:16.999Z</time>
      </trkpt>
      <trkpt lat="48.693044" lon="10.033844">
        <ele>556.239079</ele>
        <time>2024-09-08T08:21:18.999Z</time>
      </trkpt>
      <trkpt lat="48.692996" lon="10.033700">
        <ele>556.685575</ele>
        <time>2024-09-08T08:21:20.999Z</time>
      </trkpt>
      <trkpt lat="48.692961" lon="10.033554">
        <ele>557.115495</ele>
        <time>2024-09-08T08:21:22.999Z</time>
      </trkpt>
      <trkpt lat="48.692932" lon="10.033402">
        <ele>557.553420</ele>
        <time>2024-09-08T08:21:24.999Z</time>
      </trkpt>
      <trkpt lat="48.692897" lon="10.033257">
        <ele>557.980740</ele>
        <time>2024-09-08T08:21:26.999Z</time>
      </trkpt>
      <trkpt lat="48.692858" lon="10.033111">
        <ele>558.416672</ele>
        <time>2024-09-08T08:21:28.999Z</time>
      </trkpt>
      <trkpt lat="48.692813" lon="10.032961">
        <ele>558.872707</ele>
        <time>2024-09-08T08:21:30.999Z</time>
      </trkpt>
      <trkpt lat="48.692768" lon="10.032817">
        <ele>559.313677</ele>
        <time>2024-09-08T08:21:32.999Z</time>
      </trkpt>
      <trkpt lat="48.692723" lon="10.032667">
        <ele>559.769713</ele>
        <time>2024-09-08T08:21:34.999Z</time>
      </trkpt>
      <trkpt lat="48.692675" lon="10.032514">
        <ele>560.238581</ele>
        <time>2024-09-08T08:21:36.999Z</time>
      </trkpt>
      <trkpt lat="48.692628" lon="10.032361">
        <ele>560.705666</ele>
        <time>2024-09-08T08:21:38.999Z</time>
      </trkpt>
      <trkpt lat="48.692583" lon="10.032214">
        <ele>561.154156</ele>
        <time>2024-09-08T08:21:40.999Z</time>
      </trkpt>
      <trkpt lat="48.692536" lon="10.032068">
        <ele>561.603750</ele>
        <time>2024-09-08T08:21:42.999Z</time>
      </trkpt>
      <trkpt lat="48.692486" lon="10.031917">
        <ele>562.071326</ele>
        <time>2024-09-08T08:21:44.999Z</time>
      </trkpt>
      <trkpt lat="48.692431" lon="10.031763">
        <ele>562.555957</ele>
        <time>2024-09-08T08:21:46.999Z</time>
      </trkpt>
      <trkpt lat="48.692372" lon="10.031622">
        <ele>563.016018</ele>
        <time>2024-09-08T08:21:48.999Z</time>
      </trkpt>
      <trkpt lat="48.692315" lon="10.031480">
        <ele>563.409656</ele>
        <time>2024-09-08T08:21:50.999Z</time>
      </trkpt>
      <trkpt lat="48.692250" lon="10.031343">
        <ele>563.809270</ele>
        <time>2024-09-08T08:21:52.999Z</time>
      </trkpt>
      <trkpt lat="48.692178" lon="10.031213">
        <ele>564.211208</ele>
        <time>2024-09-08T08:21:54.999Z</time>
      </trkpt>
      <trkpt lat="48.692103" lon="10.031088">
        <ele>564.611306</ele>
        <time>2024-09-08T08:21:56.999Z</time>
      </trkpt>
      <trkpt lat="48.692025" lon="10.030969">
        <ele>565.008516</ele>
        <time>2024-09-08T08:21:58.999Z</time>
      </trkpt>
      <trkpt lat="48.691944" lon="10.030853">
        <ele>565.408468</ele>
        <time>2024-09-08T08:22:00.999Z</time>
      </trkpt>
      <trkpt lat="48.691859" lon="10.030743">
        <ele>565.809596</ele>
        <time>2024-09-08T08:22:02.999Z</time>
      </trkpt>
      <trkpt lat="48.691771" lon="10.030640">
        <ele>566.208622</ele>
        <time>2024-09-08T08:22:04.999Z</time>
      </trkpt>
      <trkpt lat="48.691682" lon="10.030544">
        <ele>566.600649</ele>
        <time>2024-09-08T08:22:06.999Z</time>
      </trkpt>
      <trkpt lat="48.691592" lon="10.030445">
        <ele>566.999738</ele>
        <time>2024-09-08T08:22:08.999Z</time>
      </trkpt>
      <trkpt lat="48.691502" lon="10.030351">
        <ele>567.391986</ele>
        <time>2024-09-08T08:22:11.000Z</time>
      </trkpt>
      <trkpt lat="48.691408" lon="10.030260">
        <ele>567.792262</ele>
        <time>2024-09-08T08:22:13.000Z</time>
      </trkpt>
      <trkpt lat="48.691317" lon="10.030170">
        <ele>568.182211</ele>
        <time>2024-09-08T08:22:15.000Z</time>
      </trkpt>
      <trkpt lat="48.691227" lon="10.030081">
        <ele>568.567861</ele>
        <time>2024-09-08T08:22:17.000Z</time>
      </trkpt>
      <trkpt lat="48.691132" lon="10.029991">
        <ele>568.969905</ele>
        <time>2024-09-08T08:22:19.000Z</time>
      </trkpt>
      <trkpt lat="48.691039" lon="10.029899">
        <ele>569.368453</ele>
        <time>2024-09-08T08:22:21.000Z</time>
      </trkpt>
      <trkpt lat="48.690944" lon="10.029805">
        <ele>569.880488</ele>
        <time>2024-09-08T08:22:23.000Z</time>
      </trkpt>
      <trkpt lat="48.690847" lon="10.029718">
        <ele>570.418521</ele>
        <time>2024-09-08T08:22:25.000Z</time>
      </trkpt>
      <trkpt lat="48.690750" lon="10.029631">
        <ele>570.956555</ele>
        <time>2024-09-08T08:22:27.000Z</time>
      </trkpt>
      <trkpt lat="48.690659" lon="10.029532">
        <ele>571.491290</ele>
        <time>2024-09-08T08:22:29.000Z</time>
      </trkpt>
      <trkpt lat="48.690560" lon="10.029449">
        <ele>572.031346</ele>
        <time>2024-09-08T08:22:31.000Z</time>
      </trkpt>
      <trkpt lat="48.690462" lon="10.029374">
        <ele>572.555393</ele>
        <time>2024-09-08T08:22:33.000Z</time>
      </trkpt>
      <trkpt lat="48.690365" lon="10.029282">
        <ele>573.101622</ele>
        <time>2024-09-08T08:22:35.000Z</time>
      </trkpt>
      <trkpt lat="48.690271" lon="10.029201">
        <ele>573.617783</ele>
        <time>2024-09-08T08:22:37.000Z</time>
      </trkpt>
      <trkpt lat="48.690167" lon="10.029133">
        <ele>574.158430</ele>
        <time>2024-09-08T08:22:39.000Z</time>
      </trkpt>
      <trkpt lat="48.690064" lon="10.029073">
        <ele>574.685135</ele>
        <time>2024-09-08T08:22:41.000Z</time>
      </trkpt>
      <trkpt lat="48.689962" lon="10.028989">
        <ele>575.239262</ele>
        <time>2024-09-08T08:22:43.000Z</time>
      </trkpt>
      <trkpt lat="48.689854" lon="10.028922">
        <ele>575.796287</ele>
        <time>2024-09-08T08:22:45.000Z</time>
      </trkpt>
      <trkpt lat="48.689748" lon="10.028854">
        <ele>576.345712</ele>
        <time>2024-09-08T08:22:47.000Z</time>
      </trkpt>
      <trkpt lat="48.689654" lon="10.028764">
        <ele>576.876468</ele>
        <time>2024-09-08T08:22:49.000Z</time>
      </trkpt>
      <trkpt lat="48.689534" lon="10.028724">
        <ele>577.462919</ele>
        <time>2024-09-08T08:22:51.000Z</time>
      </trkpt>
      <trkpt lat="48.689423" lon="10.028653">
        <ele>578.038006</ele>
        <time>2024-09-08T08:22:53.000Z</time>
      </trkpt>
      <trkpt lat="48.689315" lon="10.028596">
        <ele>578.441195</ele>
        <time>2024-09-08T08:22:55.000Z</time>
      </trkpt>
      <trkpt lat="48.689209" lon="10.028527">
        <ele>578.846679</ele>
        <time>2024-09-08T08:22:57.000Z</time>
      </trkpt>
      <trkpt lat="48.689102" lon="10.028458">
        <ele>579.255395</ele>
        <time>2024-09-08T08:22:59.000Z</time>
      </trkpt>
      <trkpt lat="48.688993" lon="10.028394">
        <ele>579.666254</ele>
        <time>2024-09-08T08:23:01.000Z</time>
      </trkpt>
      <trkpt lat="48.688881" lon="10.028329">
        <ele>580.087786</ele>
        <time>2024-09-08T08:23:03.000Z</time>
      </trkpt>
      <trkpt lat="48.688769" lon="10.028279">
        <ele>580.498156</ele>
        <time>2024-09-08T08:23:05.000Z</time>
      </trkpt>
      <trkpt lat="48.688660" lon="10.028229">
        <ele>580.898423</ele>
        <time>2024-09-08T08:23:07.000Z</time>
      </trkpt>
      <trkpt lat="48.688551" lon="10.028180">
        <ele>581.298025</ele>
        <time>2024-09-08T08:23:09.000Z</time>
      </trkpt>
      <trkpt lat="48.688443" lon="10.028124">
        <ele>581.699220</ele>
        <time>2024-09-08T08:23:11.000Z</time>
      </trkpt>
      <trkpt lat="48.688337" lon="10.028066">
        <ele>582.095323</ele>
        <time>2024-09-08T08:23:13.000Z</time>
      </trkpt>
      <trkpt lat="48.688238" lon="10.028017">
        <ele>582.461368</ele>
        <time>2024-09-08T08:23:15.000Z</time>
      </trkpt>
      <trkpt lat="48.688129" lon="10.027940">
        <ele>582.884065</ele>
        <time>2024-09-08T08:23:17.000Z</time>
      </trkpt>
      <trkpt lat="48.688030" lon="10.027877">
        <ele>583.261464</ele>
        <time>2024-09-08T08:23:18.999Z</time>
      </trkpt>
      <trkpt lat="48.687904" lon="10.027870">
        <ele>583.704598</ele>
        <time>2024-09-08T08:23:20.999Z</time>
      </trkpt>
      <trkpt lat="48.687843" lon="10.027715">
        <ele>584.123280</ele>
        <time>2024-09-08T08:23:22.999Z</time>
      </trkpt>
      <trkpt lat="48.687767" lon="10.027603">
        <ele>584.516504</ele>
        <time>2024-09-08T08:23:24.999Z</time>
      </trkpt>
      <trkpt lat="48.687653" lon="10.027543">
        <ele>585.006858</ele>
        <time>2024-09-08T08:23:26.999Z</time>
      </trkpt>
      <trkpt lat="48.687586" lon="10.027405">
        <ele>585.466339</ele>
        <time>2024-09-08T08:23:28.999Z</time>
      </trkpt>
      <trkpt lat="48.687524" lon="10.027298">
        <ele>585.848218</ele>
        <time>2024-09-08T08:23:30.999Z</time>
      </trkpt>
      <trkpt lat="48.687435" lon="10.027186">
        <ele>586.318341</ele>
        <time>2024-09-08T08:23:32.999Z</time>
      </trkpt>
      <trkpt lat="48.687349" lon="10.027094">
        <ele>586.746119</ele>
        <time>2024-09-08T08:23:34.999Z</time>
      </trkpt>
      <trkpt lat="48.687274" lon="10.026992">
        <ele>587.155650</ele>
        <time>2024-09-08T08:23:36.999Z</time>
      </trkpt>
      <trkpt lat="48.687200" lon="10.026880">
        <ele>587.580683</ele>
        <time>2024-09-08T08:23:38.999Z</time>
      </trkpt>
      <trkpt lat="48.687091" lon="10.026819">
        <ele>588.052817</ele>
        <time>2024-09-08T08:23:40.999Z</time>
      </trkpt>
      <trkpt lat="48.687028" lon="10.026684">
        <ele>588.496268</ele>
        <time>2024-09-08T08:23:42.999Z</time>
      </trkpt>
      <trkpt lat="48.686958" lon="10.026568">
        <ele>588.917820</ele>
        <time>2024-09-08T08:23:44.999Z</time>
      </trkpt>
      <trkpt lat="48.686886" lon="10.026454">
        <ele>589.341006</ele>
        <time>2024-09-08T08:23:46.999Z</time>
      </trkpt>
      <trkpt lat="48.686814" lon="10.026334">
        <ele>589.775962</ele>
        <time>2024-09-08T08:23:48.999Z</time>
      </trkpt>
      <trkpt lat="48.686759" lon="10.026211">
        <ele>590.174448</ele>
        <time>2024-09-08T08:23:50.999Z</time>
      </trkpt>
      <trkpt lat="48.686688" lon="10.026088">
        <ele>590.612709</ele>
        <time>2024-09-08T08:23:52.999Z</time>
      </trkpt>
      <trkpt lat="48.686628" lon="10.025953">
        <ele>591.049240</ele>
        <time>2024-09-08T08:23:54.999Z</time>
      </trkpt>
      <trkpt lat="48.686558" lon="10.025824">
        <ele>591.497151</ele>
        <time>2024-09-08T08:23:56.999Z</time>
      </trkpt>
      <trkpt lat="48.686494" lon="10.025699">
        <ele>591.964199</ele>
        <time>2024-09-08T08:23:58.999Z</time>
      </trkpt>
      <trkpt lat="48.686424" lon="10.025582">
        <ele>592.460346</ele>
        <time>2024-09-08T08:24:00.999Z</time>
      </trkpt>
      <trkpt lat="48.686349" lon="10.025470">
        <ele>592.961625</ele>
        <time>2024-09-08T08:24:02.999Z</time>
      </trkpt>
      <trkpt lat="48.686275" lon="10.025360">
        <ele>593.455104</ele>
        <time>2024-09-08T08:24:04.999Z</time>
      </trkpt>
      <trkpt lat="48.686196" lon="10.025262">
        <ele>593.941116</ele>
        <time>2024-09-08T08:24:06.999Z</time>
      </trkpt>
      <trkpt lat="48.686114" lon="10.025149">
        <ele>594.468752</ele>
        <time>2024-09-08T08:24:08.999Z</time>
      </trkpt>
      <trkpt lat="48.686031" lon="10.025058">
        <ele>594.956426</ele>
        <time>2024-09-08T08:24:10.999Z</time>
      </trkpt>
      <trkpt lat="48.685944" lon="10.024971">
        <ele>595.452612</ele>
        <time>2024-09-08T08:24:12.999Z</time>
      </trkpt>
      <trkpt lat="48.685858" lon="10.024881">
        <ele>595.950130</ele>
        <time>2024-09-08T08:24:14.999Z</time>
      </trkpt>
      <trkpt lat="48.685766" lon="10.024800">
        <ele>596.456612</ele>
        <time>2024-09-08T08:24:17.000Z</time>
      </trkpt>
      <trkpt lat="48.685673" lon="10.024727">
        <ele>596.955160</ele>
        <time>2024-09-08T08:24:19.000Z</time>
      </trkpt>
      <trkpt lat="48.685584" lon="10.024644">
        <ele>597.452616</ele>
        <time>2024-09-08T08:24:21.000Z</time>
      </trkpt>
      <trkpt lat="48.685495" lon="10.024560">
        <ele>597.951726</ele>
        <time>2024-09-08T08:24:23.000Z</time>
      </trkpt>
      <trkpt lat="48.685403" lon="10.024483">
        <ele>598.452010</ele>
        <time>2024-09-08T08:24:25.000Z</time>
      </trkpt>
      <trkpt lat="48.685314" lon="10.024408">
        <ele>598.936759</ele>
        <time>2024-09-08T08:24:27.000Z</time>
      </trkpt>
      <trkpt lat="48.685227" lon="10.024333">
        <ele>599.413213</ele>
        <time>2024-09-08T08:24:29.000Z</time>
      </trkpt>
      <trkpt lat="48.685138" lon="10.024247">
        <ele>599.915676</ele>
        <time>2024-09-08T08:24:31.000Z</time>
      </trkpt>
      <trkpt lat="48.685049" lon="10.024169">
        <ele>600.491381</ele>
        <time>2024-09-08T08:24:33.000Z</time>
      </trkpt>
      <trkpt lat="48.684963" lon="10.024088">
        <ele>601.215162</ele>
        <time>2024-09-08T08:24:35.000Z</time>
      </trkpt>
      <trkpt lat="48.684881" lon="10.024003">
        <ele>601.925315</ele>
        <time>2024-09-08T08:24:37.000Z</time>
      </trkpt>
      <trkpt lat="48.684802" lon="10.023909">
        <ele>602.643307</ele>
        <time>2024-09-08T08:24:39.000Z</time>
      </trkpt>
      <trkpt lat="48.684724" lon="10.023818">
        <ele>603.346967</ele>
        <time>2024-09-08T08:24:41.000Z</time>
      </trkpt>
      <trkpt lat="48.684654" lon="10.023723">
        <ele>604.018700</ele>
        <time>2024-09-08T08:24:43.000Z</time>
      </trkpt>
      <trkpt lat="48.684584" lon="10.023628">
        <ele>604.690432</ele>
        <time>2024-09-08T08:24:45.000Z</time>
      </trkpt>
      <trkpt lat="48.684491" lon="10.023487">
        <ele>605.630870</ele>
        <time>2024-09-08T08:24:48.000Z</time>
      </trkpt>
      <trkpt lat="48.684405" lon="10.023338">
        <ele>606.564719</ele>
        <time>2024-09-08T08:24:51.000Z</time>
      </trkpt>
      <trkpt lat="48.684323" lon="10.023194">
        <ele>607.462012</ele>
        <time>2024-09-08T08:24:54.000Z</time>
      </trkpt>
      <trkpt lat="48.684247" lon="10.023045">
        <ele>608.350453</ele>
        <time>2024-09-08T08:24:57.000Z</time>
      </trkpt>
      <trkpt lat="48.684182" lon="10.022884">
        <ele>609.240919</ele>
        <time>2024-09-08T08:25:00.000Z</time>
      </trkpt>
      <trkpt lat="48.684115" lon="10.022720">
        <ele>610.150932</ele>
        <time>2024-09-08T08:25:03.000Z</time>
      </trkpt>
      <trkpt lat="48.684048" lon="10.022560">
        <ele>611.044951</ele>
        <time>2024-09-08T08:25:06.000Z</time>
      </trkpt>
      <trkpt lat="48.683988" lon="10.022397">
        <ele>611.925540</ele>
        <time>2024-09-08T08:25:09.000Z</time>
      </trkpt>
      <trkpt lat="48.683924" lon="10.022240">
        <ele>612.796186</ele>
        <time>2024-09-08T08:25:12.000Z</time>
      </trkpt>
      <trkpt lat="48.683864" lon="10.022077">
        <ele>613.712827</ele>
        <time>2024-09-08T08:25:15.000Z</time>
      </trkpt>
      <trkpt lat="48.683800" lon="10.021927">
        <ele>614.607146</ele>
        <time>2024-09-08T08:25:18.000Z</time>
      </trkpt>
      <trkpt lat="48.683739" lon="10.021772">
        <ele>615.510735</ele>
        <time>2024-09-08T08:25:21.000Z</time>
      </trkpt>
      <trkpt lat="48.683680" lon="10.021619">
        <ele>616.397991</ele>
        <time>2024-09-08T08:25:24.000Z</time>
      </trkpt>
      <trkpt lat="48.683620" lon="10.021472">
        <ele>617.263401</ele>
        <time>2024-09-08T08:25:27.000Z</time>
      </trkpt>
      <trkpt lat="48.683556" lon="10.021326">
        <ele>618.140967</ele>
        <time>2024-09-08T08:25:30.000Z</time>
      </trkpt>
      <trkpt lat="48.683490" lon="10.021172">
        <ele>619.060348</ele>
        <time>2024-09-08T08:25:32.999Z</time>
      </trkpt>
      <trkpt lat="48.683422" lon="10.021035">
        <ele>619.918621</ele>
        <time>2024-09-08T08:25:35.999Z</time>
      </trkpt>
      <trkpt lat="48.683357" lon="10.020898">
        <ele>620.763417</ele>
        <time>2024-09-08T08:25:38.999Z</time>
      </trkpt>
      <trkpt lat="48.683288" lon="10.020764">
        <ele>621.614376</ele>
        <time>2024-09-08T08:25:41.999Z</time>
      </trkpt>
      <trkpt lat="48.683224" lon="10.020626">
        <ele>622.458863</ele>
        <time>2024-09-08T08:25:44.999Z</time>
      </trkpt>
      <trkpt lat="48.683156" lon="10.020490">
        <ele>623.313142</ele>
        <time>2024-09-08T08:25:47.999Z</time>
      </trkpt>
      <trkpt lat="48.683095" lon="10.020368">
        <ele>624.079481</ele>
        <time>2024-09-08T08:25:51.999Z</time>
      </trkpt>
      <trkpt lat="48.683028" lon="10.020253">
        <ele>624.847502</ele>
        <time>2024-09-08T08:25:53.999Z</time>
      </trkpt>
      <trkpt lat="48.682961" lon="10.020156">
        <ele>625.550474</ele>
        <time>2024-09-08T08:25:56.999Z</time>
      </trkpt>
      <trkpt lat="48.682878" lon="10.020041">
        <ele>626.403657</ele>
        <time>2024-09-08T08:26:00.999Z</time>
      </trkpt>
      <trkpt lat="48.682781" lon="10.019958">
        <ele>627.124879</ele>
        <time>2024-09-08T08:26:04.999Z</time>
      </trkpt>
      <trkpt lat="48.682662" lon="10.019845">
        <ele>627.935973</ele>
        <time>2024-09-08T08:26:07.999Z</time>
      </trkpt>
      <trkpt lat="48.682570" lon="10.019757">
        <ele>628.564335</ele>
        <time>2024-09-08T08:26:10.999Z</time>
      </trkpt>
      <trkpt lat="48.682484" lon="10.019695">
        <ele>629.114361</ele>
        <time>2024-09-08T08:26:12.999Z</time>
      </trkpt>
      <trkpt lat="48.682393" lon="10.019640">
        <ele>629.680167</ele>
        <time>2024-09-08T08:26:15.999Z</time>
      </trkpt>
      <trkpt lat="48.682264" lon="10.019557">
        <ele>630.489552</ele>
        <time>2024-09-08T08:26:18.999Z</time>
      </trkpt>
      <trkpt lat="48.682133" lon="10.019486">
        <ele>631.293033</ele>
        <time>2024-09-08T08:26:22.000Z</time>
      </trkpt>
      <trkpt lat="48.682005" lon="10.019376">
        <ele>632.142908</ele>
        <time>2024-09-08T08:26:26.000Z</time>
      </trkpt>
      <trkpt lat="48.681899" lon="10.019271">
        <ele>632.874332</ele>
        <time>2024-09-08T08:26:28.000Z</time>
      </trkpt>
      <trkpt lat="48.681799" lon="10.019156">
        <ele>633.599414</ele>
        <time>2024-09-08T08:26:31.000Z</time>
      </trkpt>
      <trkpt lat="48.681713" lon="10.019026">
        <ele>634.301077</ele>
        <time>2024-09-08T08:26:34.000Z</time>
      </trkpt>
      <trkpt lat="48.681647" lon="10.018858">
        <ele>635.046444</ele>
        <time>2024-09-08T08:26:37.000Z</time>
      </trkpt>
      <trkpt lat="48.681600" lon="10.018672">
        <ele>635.805789</ele>
        <time>2024-09-08T08:26:40.000Z</time>
      </trkpt>
      <trkpt lat="48.681581" lon="10.018539">
        <ele>636.324626</ele>
        <time>2024-09-08T08:26:42.000Z</time>
      </trkpt>
      <trkpt lat="48.681573" lon="10.018400">
        <ele>636.856616</ele>
        <time>2024-09-08T08:26:44.000Z</time>
      </trkpt>
      <trkpt lat="48.681582" lon="10.018257">
        <ele>637.336879</ele>
        <time>2024-09-08T08:26:46.000Z</time>
      </trkpt>
      <trkpt lat="48.681603" lon="10.018125">
        <ele>637.733132</ele>
        <time>2024-09-08T08:26:48.000Z</time>
      </trkpt>
      <trkpt lat="48.681674" lon="10.017958">
        <ele>638.312805</ele>
        <time>2024-09-08T08:26:51.000Z</time>
      </trkpt>
      <trkpt lat="48.681726" lon="10.017847">
        <ele>638.710006</ele>
        <time>2024-09-08T08:26:53.000Z</time>
      </trkpt>
      <trkpt lat="48.681791" lon="10.017751">
        <ele>639.111304</ele>
        <time>2024-09-08T08:26:55.000Z</time>
      </trkpt>
      <trkpt lat="48.681903" lon="10.017646">
        <ele>639.693526</ele>
        <time>2024-09-08T08:26:58.000Z</time>
      </trkpt>
      <trkpt lat="48.682027" lon="10.017579">
        <ele>640.275461</ele>
        <time>2024-09-08T08:27:01.000Z</time>
      </trkpt>
      <trkpt lat="48.682157" lon="10.017539">
        <ele>640.861821</ele>
        <time>2024-09-08T08:27:04.000Z</time>
      </trkpt>
      <trkpt lat="48.682280" lon="10.017501">
        <ele>641.416698</ele>
        <time>2024-09-08T08:27:07.000Z</time>
      </trkpt>
      <trkpt lat="48.682371" lon="10.017463">
        <ele>641.833942</ele>
        <time>2024-09-08T08:27:09.000Z</time>
      </trkpt>
      <trkpt lat="48.682482" lon="10.017367">
        <ele>642.398935</ele>
        <time>2024-09-08T08:27:12.000Z</time>
      </trkpt>
      <trkpt lat="48.682592" lon="10.017266">
        <ele>642.967519</ele>
        <time>2024-09-08T08:27:15.000Z</time>
      </trkpt>
      <trkpt lat="48.682666" lon="10.017174">
        <ele>643.390692</ele>
        <time>2024-09-08T08:27:18.000Z</time>
      </trkpt>
      <trkpt lat="48.682765" lon="10.017106">
        <ele>643.871183</ele>
        <time>2024-09-08T08:27:21.999Z</time>
      </trkpt>
      <trkpt lat="48.682995" lon="10.016915">
        <ele>645.030602</ele>
        <time>2024-09-08T08:28:52.000Z</time>
      </trkpt>
      <trkpt lat="48.683066" lon="10.016829">
        <ele>645.214589</ele>
        <time>2024-09-08T08:28:54.000Z</time>
      </trkpt>
      <trkpt lat="48.683149" lon="10.016681">
        <ele>645.443314</ele>
        <time>2024-09-08T08:28:57.000Z</time>
      </trkpt>
      <trkpt lat="48.683214" lon="10.016552">
        <ele>645.634454</ele>
        <time>2024-09-08T08:28:59.000Z</time>
      </trkpt>
      <trkpt lat="48.683312" lon="10.016453">
        <ele>645.844609</ele>
        <time>2024-09-08T08:29:02.000Z</time>
      </trkpt>
      <trkpt lat="48.683385" lon="10.016370">
        <ele>646.007455</ele>
        <time>2024-09-08T08:29:04.000Z</time>
      </trkpt>
      <trkpt lat="48.683456" lon="10.016276">
        <ele>646.175690</ele>
        <time>2024-09-08T08:29:06.000Z</time>
      </trkpt>
      <trkpt lat="48.683533" lon="10.016189">
        <ele>646.347072</ele>
        <time>2024-09-08T08:29:08.000Z</time>
      </trkpt>
      <trkpt lat="48.683609" lon="10.016089">
        <ele>646.526675</ele>
        <time>2024-09-08T08:29:10.000Z</time>
      </trkpt>
      <trkpt lat="48.683692" lon="10.016000">
        <ele>646.708102</ele>
        <time>2024-09-08T08:29:12.000Z</time>
      </trkpt>
      <trkpt lat="48.683776" lon="10.015905">
        <ele>646.895127</ele>
        <time>2024-09-08T08:29:14.000Z</time>
      </trkpt>
      <trkpt lat="48.683867" lon="10.015812">
        <ele>647.090974</ele>
        <time>2024-09-08T08:29:16.000Z</time>
      </trkpt>
      <trkpt lat="48.683953" lon="10.015714">
        <ele>647.282974</ele>
        <time>2024-09-08T08:29:18.000Z</time>
      </trkpt>
      <trkpt lat="48.684049" lon="10.015619">
        <ele>647.487555</ele>
        <time>2024-09-08T08:29:20.000Z</time>
      </trkpt>
      <trkpt lat="48.684157" lon="10.015526">
        <ele>647.709192</ele>
        <time>2024-09-08T08:29:22.000Z</time>
      </trkpt>
      <trkpt lat="48.684259" lon="10.015421">
        <ele>647.929213</ele>
        <time>2024-09-08T08:29:24.000Z</time>
      </trkpt>
      <trkpt lat="48.684373" lon="10.015317">
        <ele>648.166634</ele>
        <time>2024-09-08T08:29:26.000Z</time>
      </trkpt>
      <trkpt lat="48.684489" lon="10.015221">
        <ele>648.270675</ele>
        <time>2024-09-08T08:29:28.000Z</time>
      </trkpt>
      <trkpt lat="48.684614" lon="10.015121">
        <ele>648.260042</ele>
        <time>2024-09-08T08:29:29.999Z</time>
      </trkpt>
      <trkpt lat="48.684738" lon="10.015016">
        <ele>648.249357</ele>
        <time>2024-09-08T08:29:31.999Z</time>
      </trkpt>
      <trkpt lat="48.684863" lon="10.014911">
        <ele>648.238605</ele>
        <time>2024-09-08T08:29:33.999Z</time>
      </trkpt>
      <trkpt lat="48.684989" lon="10.014796">
        <ele>648.227540</ele>
        <time>2024-09-08T08:29:35.999Z</time>
      </trkpt>
      <trkpt lat="48.685110" lon="10.014688">
        <ele>648.216976</ele>
        <time>2024-09-08T08:29:37.999Z</time>
      </trkpt>
      <trkpt lat="48.685239" lon="10.014578">
        <ele>648.205841</ele>
        <time>2024-09-08T08:29:39.999Z</time>
      </trkpt>
      <trkpt lat="48.685369" lon="10.014468">
        <ele>648.194641</ele>
        <time>2024-09-08T08:29:41.999Z</time>
      </trkpt>
      <trkpt lat="48.685497" lon="10.014345">
        <ele>648.183239</ele>
        <time>2024-09-08T08:29:43.999Z</time>
      </trkpt>
      <trkpt lat="48.685631" lon="10.014226">
        <ele>648.171555</ele>
        <time>2024-09-08T08:29:45.999Z</time>
      </trkpt>
      <trkpt lat="48.685767" lon="10.014106">
        <ele>648.159716</ele>
        <time>2024-09-08T08:29:47.999Z</time>
      </trkpt>
      <trkpt lat="48.685900" lon="10.013985">
        <ele>648.148047</ele>
        <time>2024-09-08T08:29:49.999Z</time>
      </trkpt>
      <trkpt lat="48.686033" lon="10.013867">
        <ele>648.254139</ele>
        <time>2024-09-08T08:29:51.999Z</time>
      </trkpt>
      <trkpt lat="48.686166" lon="10.013745">
        <ele>648.565261</ele>
        <time>2024-09-08T08:29:53.999Z</time>
      </trkpt>
      <trkpt lat="48.686302" lon="10.013628">
        <ele>648.878219</ele>
        <time>2024-09-08T08:29:55.999Z</time>
      </trkpt>
      <trkpt lat="48.686439" lon="10.013500">
        <ele>649.200303</ele>
        <time>2024-09-08T08:29:57.999Z</time>
      </trkpt>
      <trkpt lat="48.686575" lon="10.013377">
        <ele>649.517249</ele>
        <time>2024-09-08T08:29:59.999Z</time>
      </trkpt>
      <trkpt lat="48.686713" lon="10.013257">
        <ele>649.835647</ele>
        <time>2024-09-08T08:30:01.999Z</time>
      </trkpt>
      <trkpt lat="48.686851" lon="10.013134">
        <ele>650.156036</ele>
        <time>2024-09-08T08:30:03.999Z</time>
      </trkpt>
      <trkpt lat="48.686980" lon="10.012996">
        <ele>650.472041</ele>
        <time>2024-09-08T08:30:05.999Z</time>
      </trkpt>
      <trkpt lat="48.687108" lon="10.012873">
        <ele>650.775353</ele>
        <time>2024-09-08T08:30:07.999Z</time>
      </trkpt>
      <trkpt lat="48.687234" lon="10.012773">
        <ele>651.059984</ele>
        <time>2024-09-08T08:30:09.999Z</time>
      </trkpt>
      <trkpt lat="48.687351" lon="10.012680">
        <ele>651.324371</ele>
        <time>2024-09-08T08:30:11.999Z</time>
      </trkpt>
      <trkpt lat="48.687459" lon="10.012588">
        <ele>651.572302</ele>
        <time>2024-09-08T08:30:13.999Z</time>
      </trkpt>
      <trkpt lat="48.687549" lon="10.012471">
        <ele>651.886567</ele>
        <time>2024-09-08T08:30:15.999Z</time>
      </trkpt>
      <trkpt lat="48.687612" lon="10.012324">
        <ele>652.372981</ele>
        <time>2024-09-08T08:30:17.999Z</time>
      </trkpt>
      <trkpt lat="48.687644" lon="10.012161">
        <ele>652.844949</ele>
        <time>2024-09-08T08:30:19.999Z</time>
      </trkpt>
      <trkpt lat="48.687651" lon="10.011998">
        <ele>653.298292</ele>
        <time>2024-09-08T08:30:21.999Z</time>
      </trkpt>
      <trkpt lat="48.687629" lon="10.011833">
        <ele>653.765477</ele>
        <time>2024-09-08T08:30:23.999Z</time>
      </trkpt>
      <trkpt lat="48.687593" lon="10.011684">
        <ele>654.205835</ele>
        <time>2024-09-08T08:30:25.999Z</time>
      </trkpt>
      <trkpt lat="48.687557" lon="10.011538">
        <ele>654.638384</ele>
        <time>2024-09-08T08:30:27.999Z</time>
      </trkpt>
      <trkpt lat="48.687518" lon="10.011390">
        <ele>655.080656</ele>
        <time>2024-09-08T08:30:29.999Z</time>
      </trkpt>
      <trkpt lat="48.687478" lon="10.011244">
        <ele>655.519372</ele>
        <time>2024-09-08T08:30:31.999Z</time>
      </trkpt>
      <trkpt lat="48.687436" lon="10.011096">
        <ele>655.966473</ele>
        <time>2024-09-08T08:30:34.000Z</time>
      </trkpt>
      <trkpt lat="48.687396" lon="10.010950">
        <ele>656.405190</ele>
        <time>2024-09-08T08:30:36.000Z</time>
      </trkpt>
      <trkpt lat="48.687354" lon="10.010805">
        <ele>656.844655</ele>
        <time>2024-09-08T08:30:38.000Z</time>
      </trkpt>
      <trkpt lat="48.687311" lon="10.010655">
        <ele>657.298521</ele>
        <time>2024-09-08T08:30:40.000Z</time>
      </trkpt>
      <trkpt lat="48.687267" lon="10.010503">
        <ele>657.759155</ele>
        <time>2024-09-08T08:30:42.000Z</time>
      </trkpt>
      <trkpt lat="48.687227" lon="10.010350">
        <ele>658.215878</ele>
        <time>2024-09-08T08:30:44.000Z</time>
      </trkpt>
      <trkpt lat="48.687187" lon="10.010202">
        <ele>658.659728</ele>
        <time>2024-09-08T08:30:46.000Z</time>
      </trkpt>
      <trkpt lat="48.687147" lon="10.010051">
        <ele>659.111295</ele>
        <time>2024-09-08T08:30:48.000Z</time>
      </trkpt>
      <trkpt lat="48.687104" lon="10.009897">
        <ele>659.494469</ele>
        <time>2024-09-08T08:30:50.000Z</time>
      </trkpt>
      <trkpt lat="48.687062" lon="10.009750">
        <ele>659.807771</ele>
        <time>2024-09-08T08:30:52.000Z</time>
      </trkpt>
      <trkpt lat="48.687020" lon="10.009600">
        <ele>660.126466</ele>
        <time>2024-09-08T08:30:54.000Z</time>
      </trkpt>
      <trkpt lat="48.686980" lon="10.009449">
        <ele>660.444709</ele>
        <time>2024-09-08T08:30:56.000Z</time>
      </trkpt>
      <trkpt lat="48.686946" lon="10.009292">
        <ele>660.767898</ele>
        <time>2024-09-08T08:30:58.000Z</time>
      </trkpt>
      <trkpt lat="48.686915" lon="10.009132">
        <ele>661.094055</ele>
        <time>2024-09-08T08:31:00.000Z</time>
      </trkpt>
      <trkpt lat="48.686882" lon="10.008966">
        <ele>661.433150</ele>
        <time>2024-09-08T08:31:02.000Z</time>
      </trkpt>
      <trkpt lat="48.686844" lon="10.008797">
        <ele>661.782359</ele>
        <time>2024-09-08T08:31:04.000Z</time>
      </trkpt>
      <trkpt lat="48.686808" lon="10.008626">
        <ele>662.133428</ele>
        <time>2024-09-08T08:31:06.000Z</time>
      </trkpt>
      <trkpt lat="48.686775" lon="10.008458">
        <ele>662.476271</ele>
        <time>2024-09-08T08:31:08.000Z</time>
      </trkpt>
      <trkpt lat="48.686744" lon="10.008283">
        <ele>662.830677</ele>
        <time>2024-09-08T08:31:10.000Z</time>
      </trkpt>
      <trkpt lat="48.686727" lon="10.008108">
        <ele>663.176661</ele>
        <time>2024-09-08T08:31:12.000Z</time>
      </trkpt>
      <trkpt lat="48.686781" lon="10.007944">
        <ele>663.535129</ele>
        <time>2024-09-08T08:31:14.000Z</time>
      </trkpt>
      <trkpt lat="48.686881" lon="10.007862">
        <ele>663.872040</ele>
        <time>2024-09-08T08:31:16.000Z</time>
      </trkpt>
      <trkpt lat="48.686988" lon="10.007808">
        <ele>664.206195</ele>
        <time>2024-09-08T08:31:18.000Z</time>
      </trkpt>
      <trkpt lat="48.687094" lon="10.007758">
        <ele>664.535130</ele>
        <time>2024-09-08T08:31:20.000Z</time>
      </trkpt>
      <trkpt lat="48.687200" lon="10.007712">
        <ele>665.004627</ele>
        <time>2024-09-08T08:31:22.000Z</time>
      </trkpt>
      <trkpt lat="48.687303" lon="10.007658">
        <ele>665.526870</ele>
        <time>2024-09-08T08:31:24.000Z</time>
      </trkpt>
      <trkpt lat="48.687406" lon="10.007620">
        <ele>666.034817</ele>
        <time>2024-09-08T08:31:26.000Z</time>
      </trkpt>
      <trkpt lat="48.687508" lon="10.007568">
        <ele>666.550482</ele>
        <time>2024-09-08T08:31:28.000Z</time>
      </trkpt>
      <trkpt lat="48.687613" lon="10.007525">
        <ele>667.071646</ele>
        <time>2024-09-08T08:31:30.000Z</time>
      </trkpt>
      <trkpt lat="48.687718" lon="10.007484">
        <ele>667.591196</ele>
        <time>2024-09-08T08:31:31.999Z</time>
      </trkpt>
      <trkpt lat="48.687824" lon="10.007435">
        <ele>668.122213</ele>
        <time>2024-09-08T08:31:33.999Z</time>
      </trkpt>
      <trkpt lat="48.687934" lon="10.007404">
        <ele>668.658317</ele>
        <time>2024-09-08T08:31:35.999Z</time>
      </trkpt>
      <trkpt lat="48.688042" lon="10.007355">
        <ele>669.198507</ele>
        <time>2024-09-08T08:31:37.999Z</time>
      </trkpt>
      <trkpt lat="48.688147" lon="10.007312">
        <ele>669.719671</ele>
        <time>2024-09-08T08:31:39.999Z</time>
      </trkpt>
      <trkpt lat="48.688258" lon="10.007276">
        <ele>670.263576</ele>
        <time>2024-09-08T08:31:41.999Z</time>
      </trkpt>
      <trkpt lat="48.688369" lon="10.007228">
        <ele>670.816674</ele>
        <time>2024-09-08T08:31:43.999Z</time>
      </trkpt>
      <trkpt lat="48.688481" lon="10.007189">
        <ele>671.367313</ele>
        <time>2024-09-08T08:31:45.999Z</time>
      </trkpt>
      <trkpt lat="48.688595" lon="10.007165">
        <ele>671.918789</ele>
        <time>2024-09-08T08:31:47.999Z</time>
      </trkpt>
      <trkpt lat="48.688706" lon="10.007156">
        <ele>672.451402</ele>
        <time>2024-09-08T08:31:49.999Z</time>
      </trkpt>
      <trkpt lat="48.688820" lon="10.007159">
        <ele>672.997710</ele>
        <time>2024-09-08T08:31:51.999Z</time>
      </trkpt>
      <trkpt lat="48.688937" lon="10.007172">
        <ele>673.370031</ele>
        <time>2024-09-08T08:31:53.999Z</time>
      </trkpt>
      <trkpt lat="48.689056" lon="10.007192">
        <ele>673.593911</ele>
        <time>2024-09-08T08:31:55.999Z</time>
      </trkpt>
      <trkpt lat="48.689169" lon="10.007215">
        <ele>673.807106</ele>
        <time>2024-09-08T08:31:57.999Z</time>
      </trkpt>
      <trkpt lat="48.689280" lon="10.007235">
        <ele>674.016125</ele>
        <time>2024-09-08T08:31:59.999Z</time>
      </trkpt>
      <trkpt lat="48.689393" lon="10.007257">
        <ele>674.229159</ele>
        <time>2024-09-08T08:32:01.999Z</time>
      </trkpt>
      <trkpt lat="48.689513" lon="10.007271">
        <ele>674.454209</ele>
        <time>2024-09-08T08:32:03.999Z</time>
      </trkpt>
      <trkpt lat="48.689634" lon="10.007297">
        <ele>674.682729</ele>
        <time>2024-09-08T08:32:05.999Z</time>
      </trkpt>
      <trkpt lat="48.689758" lon="10.007315">
        <ele>674.915655</ele>
        <time>2024-09-08T08:32:07.999Z</time>
      </trkpt>
      <trkpt lat="48.689876" lon="10.007345">
        <ele>675.139386</ele>
        <time>2024-09-08T08:32:09.999Z</time>
      </trkpt>
      <trkpt lat="48.690003" lon="10.007358">
        <ele>675.377402</ele>
        <time>2024-09-08T08:32:11.999Z</time>
      </trkpt>
      <trkpt lat="48.690127" lon="10.007368">
        <ele>675.609595</ele>
        <time>2024-09-08T08:32:13.999Z</time>
      </trkpt>
      <trkpt lat="48.690259" lon="10.007370">
        <ele>675.856431</ele>
        <time>2024-09-08T08:32:15.999Z</time>
      </trkpt>
      <trkpt lat="48.690388" lon="10.007353">
        <ele>676.098556</ele>
        <time>2024-09-08T08:32:17.999Z</time>
      </trkpt>
      <trkpt lat="48.690514" lon="10.007311">
        <ele>676.339796</ele>
        <time>2024-09-08T08:32:19.999Z</time>
      </trkpt>
      <trkpt lat="48.690643" lon="10.007266">
        <ele>676.587323</ele>
        <time>2024-09-08T08:32:21.999Z</time>
      </trkpt>
      <trkpt lat="48.690766" lon="10.007209">
        <ele>676.696783</ele>
        <time>2024-09-08T08:32:23.999Z</time>
      </trkpt>
      <trkpt lat="48.690890" lon="10.007152">
        <ele>676.792096</ele>
        <time>2024-09-08T08:32:25.999Z</time>
      </trkpt>
      <trkpt lat="48.691014" lon="10.007116">
        <ele>676.884963</ele>
        <time>2024-09-08T08:32:27.999Z</time>
      </trkpt>
      <trkpt lat="48.691133" lon="10.007047">
        <ele>676.978684</ele>
        <time>2024-09-08T08:32:29.999Z</time>
      </trkpt>
      <trkpt lat="48.691250" lon="10.006978">
        <ele>677.071033</ele>
        <time>2024-09-08T08:32:31.999Z</time>
      </trkpt>
      <trkpt lat="48.691365" lon="10.006893">
        <ele>677.165152</ele>
        <time>2024-09-08T08:32:33.999Z</time>
      </trkpt>
      <trkpt lat="48.691484" lon="10.006818">
        <ele>677.259954</ele>
        <time>2024-09-08T08:32:35.999Z</time>
      </trkpt>
      <trkpt lat="48.691603" lon="10.006746">
        <ele>677.354205</ele>
        <time>2024-09-08T08:32:37.999Z</time>
      </trkpt>
      <trkpt lat="48.691725" lon="10.006672">
        <ele>677.450867</ele>
        <time>2024-09-08T08:32:40.000Z</time>
      </trkpt>
      <trkpt lat="48.691845" lon="10.006599">
        <ele>677.545982</ele>
        <time>2024-09-08T08:32:42.000Z</time>
      </trkpt>
      <trkpt lat="48.691966" lon="10.006522">
        <ele>677.642516</ele>
        <time>2024-09-08T08:32:44.000Z</time>
      </trkpt>
      <trkpt lat="48.692085" lon="10.006443">
        <ele>677.738080</ele>
        <time>2024-09-08T08:32:46.000Z</time>
      </trkpt>
      <trkpt lat="48.692204" lon="10.006368">
        <ele>677.832882</ele>
        <time>2024-09-08T08:32:48.000Z</time>
      </trkpt>
      <trkpt lat="48.692323" lon="10.006290">
        <ele>677.928253</ele>
        <time>2024-09-08T08:32:50.000Z</time>
      </trkpt>
      <trkpt lat="48.692442" lon="10.006219">
        <ele>678.268302</ele>
        <time>2024-09-08T08:32:52.000Z</time>
      </trkpt>
      <trkpt lat="48.692562" lon="10.006144">
        <ele>678.632033</ele>
        <time>2024-09-08T08:32:54.000Z</time>
      </trkpt>
      <trkpt lat="48.692677" lon="10.006077">
        <ele>678.977270</ele>
        <time>2024-09-08T08:32:56.000Z</time>
      </trkpt>
      <trkpt lat="48.692794" lon="10.006005">
        <ele>679.331120</ele>
        <time>2024-09-08T08:32:58.000Z</time>
      </trkpt>
      <trkpt lat="48.692912" lon="10.005941">
        <ele>679.682307</ele>
        <time>2024-09-08T08:33:00.000Z</time>
      </trkpt>
      <trkpt lat="48.693026" lon="10.005876">
        <ele>680.023609</ele>
        <time>2024-09-08T08:33:02.000Z</time>
      </trkpt>
      <trkpt lat="48.693137" lon="10.005804">
        <ele>680.361942</ele>
        <time>2024-09-08T08:33:04.000Z</time>
      </trkpt>
      <trkpt lat="48.693246" lon="10.005740">
        <ele>680.689496</ele>
        <time>2024-09-08T08:33:06.000Z</time>
      </trkpt>
      <trkpt lat="48.693356" lon="10.005679">
        <ele>681.017717</ele>
        <time>2024-09-08T08:33:08.000Z</time>
      </trkpt>
      <trkpt lat="48.693463" lon="10.005612">
        <ele>681.342131</ele>
        <time>2024-09-08T08:33:10.000Z</time>
      </trkpt>
      <trkpt lat="48.693567" lon="10.005545">
        <ele>681.658793</ele>
        <time>2024-09-08T08:33:12.000Z</time>
      </trkpt>
      <trkpt lat="48.693668" lon="10.005478">
        <ele>681.967737</ele>
        <time>2024-09-08T08:33:14.000Z</time>
      </trkpt>
      <trkpt lat="48.693771" lon="10.005405">
        <ele>682.286364</ele>
        <time>2024-09-08T08:33:16.000Z</time>
      </trkpt>
      <trkpt lat="48.693877" lon="10.005341">
        <ele>682.606094</ele>
        <time>2024-09-08T08:33:18.000Z</time>
      </trkpt>
      <trkpt lat="48.693980" lon="10.005271">
        <ele>682.922410</ele>
        <time>2024-09-08T08:33:20.000Z</time>
      </trkpt>
      <trkpt lat="48.694085" lon="10.005207">
        <ele>683.273912</ele>
        <time>2024-09-08T08:33:21.999Z</time>
      </trkpt>
      <trkpt lat="48.694189" lon="10.005141">
        <ele>683.630839</ele>
        <time>2024-09-08T08:33:23.999Z</time>
      </trkpt>
      <trkpt lat="48.694291" lon="10.005073">
        <ele>683.983598</ele>
        <time>2024-09-08T08:33:25.999Z</time>
      </trkpt>
      <trkpt lat="48.694390" lon="10.005010">
        <ele>684.323505</ele>
        <time>2024-09-08T08:33:27.999Z</time>
      </trkpt>
      <trkpt lat="48.694490" lon="10.004948">
        <ele>684.665535</ele>
        <time>2024-09-08T08:33:29.999Z</time>
      </trkpt>
      <trkpt lat="48.694592" lon="10.004882">
        <ele>685.016631</ele>
        <time>2024-09-08T08:33:31.999Z</time>
      </trkpt>
      <trkpt lat="48.694695" lon="10.004820">
        <ele>685.367469</ele>
        <time>2024-09-08T08:33:33.999Z</time>
      </trkpt>
      <trkpt lat="48.694796" lon="10.004759">
        <ele>685.711652</ele>
        <time>2024-09-08T08:33:35.999Z</time>
      </trkpt>
      <trkpt lat="48.694896" lon="10.004695">
        <ele>686.055287</ele>
        <time>2024-09-08T08:33:37.999Z</time>
      </trkpt>
      <trkpt lat="48.695002" lon="10.004633">
        <ele>686.414966</ele>
        <time>2024-09-08T08:33:39.999Z</time>
      </trkpt>
      <trkpt lat="48.695105" lon="10.004573">
        <ele>686.764282</ele>
        <time>2024-09-08T08:33:41.999Z</time>
      </trkpt>
      <trkpt lat="48.695206" lon="10.004514">
        <ele>687.106939</ele>
        <time>2024-09-08T08:33:43.999Z</time>
      </trkpt>
      <trkpt lat="48.695313" lon="10.004464">
        <ele>687.461392</ele>
        <time>2024-09-08T08:33:45.999Z</time>
      </trkpt>
      <trkpt lat="48.695419" lon="10.004419">
        <ele>687.809857</ele>
        <time>2024-09-08T08:33:47.999Z</time>
      </trkpt>
      <trkpt lat="48.695524" lon="10.004373">
        <ele>688.155850</ele>
        <time>2024-09-08T08:33:49.999Z</time>
      </trkpt>
      <trkpt lat="48.695633" lon="10.004329">
        <ele>688.512925</ele>
        <time>2024-09-08T08:33:51.999Z</time>
      </trkpt>
      <trkpt lat="48.695744" lon="10.004296">
        <ele>688.741407</ele>
        <time>2024-09-08T08:33:53.999Z</time>
      </trkpt>
      <trkpt lat="48.695852" lon="10.004259">
        <ele>688.868002</ele>
        <time>2024-09-08T08:33:55.999Z</time>
      </trkpt>
      <trkpt lat="48.695961" lon="10.004229">
        <ele>688.994663</ele>
        <time>2024-09-08T08:33:57.999Z</time>
      </trkpt>
      <trkpt lat="48.696069" lon="10.004200">
        <ele>689.120065</ele>
        <time>2024-09-08T08:33:59.999Z</time>
      </trkpt>
      <trkpt lat="48.696165" lon="10.004152">
        <ele>689.235646</ele>
        <time>2024-09-08T08:34:01.999Z</time>
      </trkpt>
      <trkpt lat="48.696209" lon="10.003943">
        <ele>689.401196</ele>
        <time>2024-09-08T08:34:04.999Z</time>
      </trkpt>
      <trkpt lat="48.696192" lon="10.003786">
        <ele>689.521259</ele>
        <time>2024-09-08T08:34:06.999Z</time>
      </trkpt>
      <trkpt lat="48.696181" lon="10.003623">
        <ele>689.644907</ele>
        <time>2024-09-08T08:34:08.999Z</time>
      </trkpt>
      <trkpt lat="48.696172" lon="10.003460">
        <ele>689.768344</ele>
        <time>2024-09-08T08:34:10.999Z</time>
      </trkpt>
      <trkpt lat="48.696161" lon="10.003290">
        <ele>689.897249</ele>
        <time>2024-09-08T08:34:12.999Z</time>
      </trkpt>
      <trkpt lat="48.696148" lon="10.003117">
        <ele>690.028646</ele>
        <time>2024-09-08T08:34:14.999Z</time>
      </trkpt>
      <trkpt lat="48.696137" lon="10.002938">
        <ele>690.164312</ele>
        <time>2024-09-08T08:34:16.999Z</time>
      </trkpt>
      <trkpt lat="48.696127" lon="10.002765">
        <ele>690.295365</ele>
        <time>2024-09-08T08:34:18.999Z</time>
      </trkpt>
      <trkpt lat="48.696114" lon="10.002585">
        <ele>690.432013</ele>
        <time>2024-09-08T08:34:20.999Z</time>
      </trkpt>
      <trkpt lat="48.696103" lon="10.002407">
        <ele>690.566927</ele>
        <time>2024-09-08T08:34:22.999Z</time>
      </trkpt>
      <trkpt lat="48.696094" lon="10.002228">
        <ele>690.702400</ele>
        <time>2024-09-08T08:34:24.999Z</time>
      </trkpt>
      <trkpt lat="48.696081" lon="10.002049">
        <ele>690.695032</ele>
        <time>2024-09-08T08:34:26.999Z</time>
      </trkpt>
      <trkpt lat="48.696069" lon="10.001865">
        <ele>690.658821</ele>
        <time>2024-09-08T08:34:28.999Z</time>
      </trkpt>
      <trkpt lat="48.696059" lon="10.001678">
        <ele>690.622078</ele>
        <time>2024-09-08T08:34:30.999Z</time>
      </trkpt>
      <trkpt lat="48.696046" lon="10.001485">
        <ele>690.584083</ele>
        <time>2024-09-08T08:34:32.999Z</time>
      </trkpt>
      <trkpt lat="48.696036" lon="10.001288">
        <ele>690.545387</ele>
        <time>2024-09-08T08:34:34.999Z</time>
      </trkpt>
      <trkpt lat="48.696037" lon="10.001089">
        <ele>690.506413</ele>
        <time>2024-09-08T08:34:36.999Z</time>
      </trkpt>
      <trkpt lat="48.696010" lon="10.000897">
        <ele>690.467966</ele>
        <time>2024-09-08T08:34:38.999Z</time>
      </trkpt>
      <trkpt lat="48.695999" lon="10.000700">
        <ele>690.429247</ele>
        <time>2024-09-08T08:34:40.999Z</time>
      </trkpt>
      <trkpt lat="48.695986" lon="10.000512">
        <ele>690.392226</ele>
        <time>2024-09-08T08:34:42.999Z</time>
      </trkpt>
      <trkpt lat="48.695976" lon="10.000310">
        <ele>690.352554</ele>
        <time>2024-09-08T08:34:44.999Z</time>
      </trkpt>
      <trkpt lat="48.695965" lon="10.000114">
        <ele>690.314030</ele>
        <time>2024-09-08T08:34:47.000Z</time>
      </trkpt>
      <trkpt lat="48.695953" lon="9.999912">
        <ele>690.274309</ele>
        <time>2024-09-08T08:34:49.000Z</time>
      </trkpt>
      <trkpt lat="48.695942" lon="9.999711">
        <ele>690.234809</ele>
        <time>2024-09-08T08:34:51.000Z</time>
      </trkpt>
      <trkpt lat="48.695928" lon="9.999507">
        <ele>690.194640</ele>
        <time>2024-09-08T08:34:53.000Z</time>
      </trkpt>
      <trkpt lat="48.695916" lon="9.999311">
        <ele>689.992475</ele>
        <time>2024-09-08T08:34:55.000Z</time>
      </trkpt>
      <trkpt lat="48.695904" lon="9.999118">
        <ele>689.775916</ele>
        <time>2024-09-08T08:34:57.000Z</time>
      </trkpt>
      <trkpt lat="48.695895" lon="9.998942">
        <ele>689.578713</ele>
        <time>2024-09-08T08:34:59.000Z</time>
      </trkpt>
      <trkpt lat="48.695901" lon="9.998769">
        <ele>689.385185</ele>
        <time>2024-09-08T08:35:01.000Z</time>
      </trkpt>
      <trkpt lat="48.695893" lon="9.998605">
        <ele>689.201477</ele>
        <time>2024-09-08T08:35:03.000Z</time>
      </trkpt>
      <trkpt lat="48.695715" lon="9.998477">
        <ele>688.868004</ele>
        <time>2024-09-08T08:35:06.000Z</time>
      </trkpt>
      <trkpt lat="48.695606" lon="9.998410">
        <ele>688.668920</ele>
        <time>2024-09-08T08:35:08.000Z</time>
      </trkpt>
      <trkpt lat="48.695482" lon="9.998369">
        <ele>688.454114</ele>
        <time>2024-09-08T08:35:10.000Z</time>
      </trkpt>
      <trkpt lat="48.695359" lon="9.998307">
        <ele>688.234720</ele>
        <time>2024-09-08T08:35:12.000Z</time>
      </trkpt>
      <trkpt lat="48.695228" lon="9.998265">
        <ele>688.008097</ele>
        <time>2024-09-08T08:35:14.000Z</time>
      </trkpt>
      <trkpt lat="48.695091" lon="9.998244">
        <ele>687.775045</ele>
        <time>2024-09-08T08:35:16.000Z</time>
      </trkpt>
      <trkpt lat="48.694950" lon="9.998253">
        <ele>687.536195</ele>
        <time>2024-09-08T08:35:18.000Z</time>
      </trkpt>
      <trkpt lat="48.694810" lon="9.998248">
        <ele>687.299183</ele>
        <time>2024-09-08T08:35:20.000Z</time>
      </trkpt>
      <trkpt lat="48.694661" lon="9.998261">
        <ele>686.938907</ele>
        <time>2024-09-08T08:35:22.000Z</time>
      </trkpt>
      <trkpt lat="48.694511" lon="9.998279">
        <ele>686.410389</ele>
        <time>2024-09-08T08:35:23.999Z</time>
      </trkpt>
      <trkpt lat="48.694356" lon="9.998314">
        <ele>685.859945</ele>
        <time>2024-09-08T08:35:25.999Z</time>
      </trkpt>
      <trkpt lat="48.694200" lon="9.998323">
        <ele>685.311605</ele>
        <time>2024-09-08T08:35:27.999Z</time>
      </trkpt>
      <trkpt lat="48.694042" lon="9.998381">
        <ele>684.740578</ele>
        <time>2024-09-08T08:35:29.999Z</time>
      </trkpt>
      <trkpt lat="48.693877" lon="9.998391">
        <ele>684.160560</ele>
        <time>2024-09-08T08:35:31.999Z</time>
      </trkpt>
      <trkpt lat="48.693708" lon="9.998452">
        <ele>683.550340</ele>
        <time>2024-09-08T08:35:33.999Z</time>
      </trkpt>
      <trkpt lat="48.693542" lon="9.998486">
        <ele>682.961969</ele>
        <time>2024-09-08T08:35:35.999Z</time>
      </trkpt>
      <trkpt lat="48.693371" lon="9.998528">
        <ele>682.353497</ele>
        <time>2024-09-08T08:35:37.999Z</time>
      </trkpt>
      <trkpt lat="48.693197" lon="9.998559">
        <ele>681.738119</ele>
        <time>2024-09-08T08:35:39.999Z</time>
      </trkpt>
      <trkpt lat="48.693019" lon="9.998602">
        <ele>681.105004</ele>
        <time>2024-09-08T08:35:41.999Z</time>
      </trkpt>
      <trkpt lat="48.692928" lon="9.998622">
        <ele>680.782420</ele>
        <time>2024-09-08T08:35:42.999Z</time>
      </trkpt>
      <trkpt lat="48.692749" lon="9.998670">
        <ele>680.149281</ele>
        <time>2024-09-08T08:35:44.999Z</time>
      </trkpt>
      <trkpt lat="48.692656" lon="9.998679">
        <ele>679.824707</ele>
        <time>2024-09-08T08:35:45.999Z</time>
      </trkpt>
      <trkpt lat="48.692562" lon="9.998699">
        <ele>679.494097</ele>
        <time>2024-09-08T08:35:46.999Z</time>
      </trkpt>
      <trkpt lat="48.692470" lon="9.998722">
        <ele>679.169333</ele>
        <time>2024-09-08T08:35:47.999Z</time>
      </trkpt>
      <trkpt lat="48.692375" lon="9.998750">
        <ele>678.832249</ele>
        <time>2024-09-08T08:35:48.999Z</time>
      </trkpt>
      <trkpt lat="48.692278" lon="9.998773">
        <ele>678.490290</ele>
        <time>2024-09-08T08:35:49.999Z</time>
      </trkpt>
      <trkpt lat="48.692182" lon="9.998796">
        <ele>678.151772</ele>
        <time>2024-09-08T08:35:50.999Z</time>
      </trkpt>
      <trkpt lat="48.692085" lon="9.998817">
        <ele>677.810494</ele>
        <time>2024-09-08T08:35:51.999Z</time>
      </trkpt>
      <trkpt lat="48.691987" lon="9.998838">
        <ele>677.465768</ele>
        <time>2024-09-08T08:35:52.999Z</time>
      </trkpt>
      <trkpt lat="48.691887" lon="9.998855">
        <ele>677.115288</ele>
        <time>2024-09-08T08:35:53.999Z</time>
      </trkpt>
      <trkpt lat="48.691787" lon="9.998878">
        <ele>676.763002</ele>
        <time>2024-09-08T08:35:54.999Z</time>
      </trkpt>
      <trkpt lat="48.691688" lon="9.998903">
        <ele>676.413433</ele>
        <time>2024-09-08T08:35:55.999Z</time>
      </trkpt>
      <trkpt lat="48.691588" lon="9.998925">
        <ele>676.061485</ele>
        <time>2024-09-08T08:35:56.999Z</time>
      </trkpt>
      <trkpt lat="48.691488" lon="9.998946">
        <ele>675.709860</ele>
        <time>2024-09-08T08:35:57.999Z</time>
      </trkpt>
      <trkpt lat="48.691386" lon="9.998968">
        <ele>675.351017</ele>
        <time>2024-09-08T08:35:58.999Z</time>
      </trkpt>
      <trkpt lat="48.691284" lon="9.998994">
        <ele>674.990763</ele>
        <time>2024-09-08T08:35:59.999Z</time>
      </trkpt>
      <trkpt lat="48.691184" lon="9.999016">
        <ele>674.638815</ele>
        <time>2024-09-08T08:36:00.999Z</time>
      </trkpt>
      <trkpt lat="48.691079" lon="9.999023">
        <ele>674.290649</ele>
        <time>2024-09-08T08:36:01.999Z</time>
      </trkpt>
      <trkpt lat="48.690975" lon="9.999050">
        <ele>673.945686</ele>
        <time>2024-09-08T08:36:02.999Z</time>
      </trkpt>
      <trkpt lat="48.690876" lon="9.999078">
        <ele>673.616434</ele>
        <time>2024-09-08T08:36:03.999Z</time>
      </trkpt>
      <trkpt lat="48.690773" lon="9.999101">
        <ele>673.276059</ele>
        <time>2024-09-08T08:36:04.999Z</time>
      </trkpt>
      <trkpt lat="48.690669" lon="9.999122">
        <ele>672.933046</ele>
        <time>2024-09-08T08:36:05.999Z</time>
      </trkpt>
      <trkpt lat="48.690562" lon="9.999145">
        <ele>672.579728</ele>
        <time>2024-09-08T08:36:06.999Z</time>
      </trkpt>
      <trkpt lat="48.690452" lon="9.999173">
        <ele>672.215065</ele>
        <time>2024-09-08T08:36:07.999Z</time>
      </trkpt>
      <trkpt lat="48.690340" lon="9.999198">
        <ele>671.844951</ele>
        <time>2024-09-08T08:36:08.999Z</time>
      </trkpt>
      <trkpt lat="48.690227" lon="9.999222">
        <ele>671.471909</ele>
        <time>2024-09-08T08:36:09.999Z</time>
      </trkpt>
      <trkpt lat="48.690117" lon="9.999247">
        <ele>671.108262</ele>
        <time>2024-09-08T08:36:10.999Z</time>
      </trkpt>
      <trkpt lat="48.690007" lon="9.999275">
        <ele>670.743599</ele>
        <time>2024-09-08T08:36:11.999Z</time>
      </trkpt>
      <trkpt lat="48.689895" lon="9.999284">
        <ele>670.376924</ele>
        <time>2024-09-08T08:36:12.999Z</time>
      </trkpt>
      <trkpt lat="48.689785" lon="9.999310">
        <ele>670.012951</ele>
        <time>2024-09-08T08:36:13.999Z</time>
      </trkpt>
      <trkpt lat="48.689677" lon="9.999360">
        <ele>669.643747</ele>
        <time>2024-09-08T08:36:14.999Z</time>
      </trkpt>
      <trkpt lat="48.689564" lon="9.999378">
        <ele>669.272281</ele>
        <time>2024-09-08T08:36:15.999Z</time>
      </trkpt>
      <trkpt lat="48.689453" lon="9.999381">
        <ele>668.909332</ele>
        <time>2024-09-08T08:36:16.999Z</time>
      </trkpt>
      <trkpt lat="48.689340" lon="9.999350">
        <ele>668.489861</ele>
        <time>2024-09-08T08:36:17.999Z</time>
      </trkpt>
      <trkpt lat="48.689229" lon="9.999329">
        <ele>668.017036</ele>
        <time>2024-09-08T08:36:18.999Z</time>
      </trkpt>
      <trkpt lat="48.689118" lon="9.999303">
        <ele>667.542280</ele>
        <time>2024-09-08T08:36:19.999Z</time>
      </trkpt>
      <trkpt lat="48.689009" lon="9.999267">
        <ele>667.070730</ele>
        <time>2024-09-08T08:36:20.999Z</time>
      </trkpt>
      <trkpt lat="48.688898" lon="9.999248">
        <ele>666.598564</ele>
        <time>2024-09-08T08:36:21.999Z</time>
      </trkpt>
      <trkpt lat="48.688794" lon="9.999195">
        <ele>666.134761</ele>
        <time>2024-09-08T08:36:22.999Z</time>
      </trkpt>
      <trkpt lat="48.688696" lon="9.999132">
        <ele>665.684772</ele>
        <time>2024-09-08T08:36:23.999Z</time>
      </trkpt>
      <trkpt lat="48.688597" lon="9.999070">
        <ele>665.231962</ele>
        <time>2024-09-08T08:36:24.999Z</time>
      </trkpt>
      <trkpt lat="48.688501" lon="9.998998">
        <ele>664.779172</ele>
        <time>2024-09-08T08:36:25.999Z</time>
      </trkpt>
      <trkpt lat="48.688403" lon="9.998928">
        <ele>664.321199</ele>
        <time>2024-09-08T08:36:26.999Z</time>
      </trkpt>
      <trkpt lat="48.688306" lon="9.998858">
        <ele>663.867045</ele>
        <time>2024-09-08T08:36:27.999Z</time>
      </trkpt>
      <trkpt lat="48.688211" lon="9.998800">
        <ele>663.434106</ele>
        <time>2024-09-08T08:36:28.999Z</time>
      </trkpt>
      <trkpt lat="48.688109" lon="9.998759">
        <ele>662.988046</ele>
        <time>2024-09-08T08:36:29.999Z</time>
      </trkpt>
      <trkpt lat="48.688004" lon="9.998730">
        <ele>662.536910</ele>
        <time>2024-09-08T08:36:30.999Z</time>
      </trkpt>
      <trkpt lat="48.687903" lon="9.998719">
        <ele>662.108896</ele>
        <time>2024-09-08T08:36:31.999Z</time>
      </trkpt>
      <trkpt lat="48.687796" lon="9.998691">
        <ele>661.649924</ele>
        <time>2024-09-08T08:36:32.999Z</time>
      </trkpt>
      <trkpt lat="48.687688" lon="9.998700">
        <ele>661.192734</ele>
        <time>2024-09-08T08:36:33.999Z</time>
      </trkpt>
      <trkpt lat="48.687577" lon="9.998733">
        <ele>660.482392</ele>
        <time>2024-09-08T08:36:34.999Z</time>
      </trkpt>
      <trkpt lat="48.687472" lon="9.998800">
        <ele>659.696111</ele>
        <time>2024-09-08T08:36:35.999Z</time>
      </trkpt>
      <trkpt lat="48.687361" lon="9.998854">
        <ele>658.891554</ele>
        <time>2024-09-08T08:36:36.999Z</time>
      </trkpt>
      <trkpt lat="48.687250" lon="9.998894">
        <ele>658.104155</ele>
        <time>2024-09-08T08:36:37.999Z</time>
      </trkpt>
      <trkpt lat="48.687147" lon="9.998941">
        <ele>657.361791</ele>
        <time>2024-09-08T08:36:38.999Z</time>
      </trkpt>
      <trkpt lat="48.687044" lon="9.998980">
        <ele>656.629108</ele>
        <time>2024-09-08T08:36:39.999Z</time>
      </trkpt>
      <trkpt lat="48.686933" lon="9.998983">
        <ele>655.862966</ele>
        <time>2024-09-08T08:36:40.999Z</time>
      </trkpt>
      <trkpt lat="48.686823" lon="9.998950">
        <ele>655.089101</ele>
        <time>2024-09-08T08:36:41.999Z</time>
      </trkpt>
      <trkpt lat="48.686714" lon="9.998893">
        <ele>654.293318</ele>
        <time>2024-09-08T08:36:42.999Z</time>
      </trkpt>
      <trkpt lat="48.686606" lon="9.998817">
        <ele>653.471499</ele>
        <time>2024-09-08T08:36:43.999Z</time>
      </trkpt>
      <trkpt lat="48.686499" lon="9.998729">
        <ele>652.631262</ele>
        <time>2024-09-08T08:36:44.999Z</time>
      </trkpt>
      <trkpt lat="48.686392" lon="9.998636">
        <ele>651.779919</ele>
        <time>2024-09-08T08:36:45.999Z</time>
      </trkpt>
      <trkpt lat="48.686282" lon="9.998535">
        <ele>650.892224</ele>
        <time>2024-09-08T08:36:46.999Z</time>
      </trkpt>
      <trkpt lat="48.686175" lon="9.998431">
        <ele>650.014862</ele>
        <time>2024-09-08T08:36:47.999Z</time>
      </trkpt>
      <trkpt lat="48.686065" lon="9.998322">
        <ele>649.107736</ele>
        <time>2024-09-08T08:36:48.999Z</time>
      </trkpt>
      <trkpt lat="48.685956" lon="9.998212">
        <ele>648.144566</ele>
        <time>2024-09-08T08:36:49.999Z</time>
      </trkpt>
      <trkpt lat="48.685846" lon="9.998095">
        <ele>647.098752</ele>
        <time>2024-09-08T08:36:50.999Z</time>
      </trkpt>
      <trkpt lat="48.685739" lon="9.997973">
        <ele>646.056712</ele>
        <time>2024-09-08T08:36:51.999Z</time>
      </trkpt>
      <trkpt lat="48.685636" lon="9.997833">
        <ele>644.979942</ele>
        <time>2024-09-08T08:36:52.999Z</time>
      </trkpt>
      <trkpt lat="48.685535" lon="9.997689">
        <ele>643.900724</ele>
        <time>2024-09-08T08:36:53.999Z</time>
      </trkpt>
      <trkpt lat="48.685426" lon="9.997543">
        <ele>642.768592</ele>
        <time>2024-09-08T08:36:54.999Z</time>
      </trkpt>
      <trkpt lat="48.685319" lon="9.997398">
        <ele>641.651500</ele>
        <time>2024-09-08T08:36:55.999Z</time>
      </trkpt>
      <trkpt lat="48.685201" lon="9.997272">
        <ele>640.528171</ele>
        <time>2024-09-08T08:36:56.999Z</time>
      </trkpt>
      <trkpt lat="48.685084" lon="9.997147">
        <ele>639.414161</ele>
        <time>2024-09-08T08:36:57.999Z</time>
      </trkpt>
      <trkpt lat="48.684959" lon="9.997030">
        <ele>638.270858</ele>
        <time>2024-09-08T08:36:58.999Z</time>
      </trkpt>
      <trkpt lat="48.684835" lon="9.996922">
        <ele>637.157918</ele>
        <time>2024-09-08T08:36:59.999Z</time>
      </trkpt>
      <trkpt lat="48.684706" lon="9.996815">
        <ele>636.013564</ele>
        <time>2024-09-08T08:37:00.999Z</time>
      </trkpt>
      <trkpt lat="48.684578" lon="9.996709">
        <ele>634.878501</ele>
        <time>2024-09-08T08:37:01.999Z</time>
      </trkpt>
      <trkpt lat="48.684452" lon="9.996598">
        <ele>634.078578</ele>
        <time>2024-09-08T08:37:02.999Z</time>
      </trkpt>
      <trkpt lat="48.684323" lon="9.996494">
        <ele>633.350181</ele>
        <time>2024-09-08T08:37:03.999Z</time>
      </trkpt>
      <trkpt lat="48.684192" lon="9.996396">
        <ele>632.621924</ele>
        <time>2024-09-08T08:37:04.999Z</time>
      </trkpt>
      <trkpt lat="48.684061" lon="9.996304">
        <ele>631.902193</ele>
        <time>2024-09-08T08:37:05.999Z</time>
      </trkpt>
      <trkpt lat="48.683931" lon="9.996222">
        <ele>631.200277</ele>
        <time>2024-09-08T08:37:06.999Z</time>
      </trkpt>
      <trkpt lat="48.683797" lon="9.996148">
        <ele>630.489357</ele>
        <time>2024-09-08T08:37:07.999Z</time>
      </trkpt>
      <trkpt lat="48.683660" lon="9.996086">
        <ele>629.776663</ele>
        <time>2024-09-08T08:37:08.999Z</time>
      </trkpt>
      <trkpt lat="48.683520" lon="9.996040">
        <ele>629.062614</ele>
        <time>2024-09-08T08:37:09.999Z</time>
      </trkpt>
      <trkpt lat="48.683382" lon="9.995978">
        <ele>628.345143</ele>
        <time>2024-09-08T08:37:10.999Z</time>
      </trkpt>
      <trkpt lat="48.683241" lon="9.995959">
        <ele>627.639564</ele>
        <time>2024-09-08T08:37:11.999Z</time>
      </trkpt>
      <trkpt lat="48.683101" lon="9.995955">
        <ele>626.941621</ele>
        <time>2024-09-08T08:37:12.999Z</time>
      </trkpt>
      <trkpt lat="48.682963" lon="9.995952">
        <ele>626.253701</ele>
        <time>2024-09-08T08:37:13.999Z</time>
      </trkpt>
      <trkpt lat="48.682825" lon="9.995957">
        <ele>625.569633</ele>
        <time>2024-09-08T08:37:14.999Z</time>
      </trkpt>
      <trkpt lat="48.682687" lon="9.995971">
        <ele>624.899360</ele>
        <time>2024-09-08T08:37:15.999Z</time>
      </trkpt>
      <trkpt lat="48.682554" lon="9.995986">
        <ele>624.253032</ele>
        <time>2024-09-08T08:37:16.999Z</time>
      </trkpt>
      <trkpt lat="48.682421" lon="9.995998">
        <ele>623.607346</ele>
        <time>2024-09-08T08:37:17.999Z</time>
      </trkpt>
      <trkpt lat="48.682289" lon="9.995995">
        <ele>622.967577</ele>
        <time>2024-09-08T08:37:18.999Z</time>
      </trkpt>
      <trkpt lat="48.682157" lon="9.995966">
        <ele>622.321185</ele>
        <time>2024-09-08T08:37:19.999Z</time>
      </trkpt>
      <trkpt lat="48.682037" lon="9.995907">
        <ele>621.709769</ele>
        <time>2024-09-08T08:37:20.999Z</time>
      </trkpt>
      <trkpt lat="48.681926" lon="9.995827">
        <ele>621.114045</ele>
        <time>2024-09-08T08:37:21.999Z</time>
      </trkpt>
      <trkpt lat="48.681817" lon="9.995739">
        <ele>620.515452</ele>
        <time>2024-09-08T08:37:22.999Z</time>
      </trkpt>
      <trkpt lat="48.681702" lon="9.995665">
        <ele>619.909929</ele>
        <time>2024-09-08T08:37:23.999Z</time>
      </trkpt>
      <trkpt lat="48.681607" lon="9.995538">
        <ele>619.295858</ele>
        <time>2024-09-08T08:37:24.999Z</time>
      </trkpt>
      <trkpt lat="48.681512" lon="9.995431">
        <ele>618.722124</ele>
        <time>2024-09-08T08:37:25.999Z</time>
      </trkpt>
      <trkpt lat="48.681415" lon="9.995329">
        <ele>618.149856</ele>
        <time>2024-09-08T08:37:27.000Z</time>
      </trkpt>
      <trkpt lat="48.681312" lon="9.995233">
        <ele>617.563758</ele>
        <time>2024-09-08T08:37:28.000Z</time>
      </trkpt>
      <trkpt lat="48.681210" lon="9.995143">
        <ele>616.991782</ele>
        <time>2024-09-08T08:37:29.000Z</time>
      </trkpt>
      <trkpt lat="48.681104" lon="9.995058">
        <ele>616.478470</ele>
        <time>2024-09-08T08:37:30.000Z</time>
      </trkpt>
      <trkpt lat="48.680992" lon="9.994981">
        <ele>615.952068</ele>
        <time>2024-09-08T08:37:31.000Z</time>
      </trkpt>
      <trkpt lat="48.680875" lon="9.994915">
        <ele>615.417735</ele>
        <time>2024-09-08T08:37:32.000Z</time>
      </trkpt>
      <trkpt lat="48.680753" lon="9.994868">
        <ele>614.878980</ele>
        <time>2024-09-08T08:37:33.000Z</time>
      </trkpt>
      <trkpt lat="48.680630" lon="9.994836">
        <ele>614.344862</ele>
        <time>2024-09-08T08:37:34.000Z</time>
      </trkpt>
      <trkpt lat="48.680506" lon="9.994815">
        <ele>613.810867</ele>
        <time>2024-09-08T08:37:35.000Z</time>
      </trkpt>
      <trkpt lat="48.680385" lon="9.994831">
        <ele>613.291048</ele>
        <time>2024-09-08T08:37:36.000Z</time>
      </trkpt>
      <trkpt lat="48.680261" lon="9.994826">
        <ele>612.760171</ele>
        <time>2024-09-08T08:37:37.000Z</time>
      </trkpt>
      <trkpt lat="48.680138" lon="9.994815">
        <ele>612.232846</ele>
        <time>2024-09-08T08:37:38.000Z</time>
      </trkpt>
      <trkpt lat="48.680014" lon="9.994817">
        <ele>611.702128</ele>
        <time>2024-09-08T08:37:39.000Z</time>
      </trkpt>
      <trkpt lat="48.679891" lon="9.994821">
        <ele>611.175598</ele>
        <time>2024-09-08T08:37:40.000Z</time>
      </trkpt>
      <trkpt lat="48.679762" lon="9.994833">
        <ele>610.622471</ele>
        <time>2024-09-08T08:37:41.000Z</time>
      </trkpt>
      <trkpt lat="48.679637" lon="9.994851">
        <ele>610.085090</ele>
        <time>2024-09-08T08:37:42.000Z</time>
      </trkpt>
      <trkpt lat="48.679515" lon="9.994880">
        <ele>609.556570</ele>
        <time>2024-09-08T08:37:43.000Z</time>
      </trkpt>
      <trkpt lat="48.679393" lon="9.994930">
        <ele>608.967101</ele>
        <time>2024-09-08T08:37:44.000Z</time>
      </trkpt>
      <trkpt lat="48.679271" lon="9.994989">
        <ele>608.323651</ele>
        <time>2024-09-08T08:37:45.000Z</time>
      </trkpt>
      <trkpt lat="48.679151" lon="9.995052">
        <ele>607.685544</ele>
        <time>2024-09-08T08:37:46.000Z</time>
      </trkpt>
      <trkpt lat="48.679032" lon="9.995123">
        <ele>607.042936</ele>
        <time>2024-09-08T08:37:47.000Z</time>
      </trkpt>
      <trkpt lat="48.678913" lon="9.995196">
        <ele>606.397866</ele>
        <time>2024-09-08T08:37:48.000Z</time>
      </trkpt>
      <trkpt lat="48.678791" lon="9.995265">
        <ele>605.743561</ele>
        <time>2024-09-08T08:37:49.000Z</time>
      </trkpt>
      <trkpt lat="48.678669" lon="9.995337">
        <ele>605.085708</ele>
        <time>2024-09-08T08:37:50.000Z</time>
      </trkpt>
      <trkpt lat="48.678545" lon="9.995409">
        <ele>604.418482</ele>
        <time>2024-09-08T08:37:50.999Z</time>
      </trkpt>
      <trkpt lat="48.678422" lon="9.995483">
        <ele>603.753523</ele>
        <time>2024-09-08T08:37:51.999Z</time>
      </trkpt>
      <trkpt lat="48.678301" lon="9.995550">
        <ele>603.106230</ele>
        <time>2024-09-08T08:37:52.999Z</time>
      </trkpt>
      <trkpt lat="48.678177" lon="9.995615">
        <ele>602.446960</ele>
        <time>2024-09-08T08:37:53.999Z</time>
      </trkpt>
      <trkpt lat="48.678053" lon="9.995682">
        <ele>601.785489</ele>
        <time>2024-09-08T08:37:54.999Z</time>
      </trkpt>
      <trkpt lat="48.677923" lon="9.995738">
        <ele>601.106429</ele>
        <time>2024-09-08T08:37:55.999Z</time>
      </trkpt>
      <trkpt lat="48.677796" lon="9.995783">
        <ele>600.451117</ele>
        <time>2024-09-08T08:37:56.999Z</time>
      </trkpt>
      <trkpt lat="48.677665" lon="9.995822">
        <ele>599.754419</ele>
        <time>2024-09-08T08:37:57.999Z</time>
      </trkpt>
      <trkpt lat="48.677536" lon="9.995868">
        <ele>599.052426</ele>
        <time>2024-09-08T08:37:58.999Z</time>
      </trkpt>
      <trkpt lat="48.677408" lon="9.995918">
        <ele>598.352225</ele>
        <time>2024-09-08T08:37:59.999Z</time>
      </trkpt>
      <trkpt lat="48.677279" lon="9.995957">
        <ele>597.655435</ele>
        <time>2024-09-08T08:38:00.999Z</time>
      </trkpt>
      <trkpt lat="48.677152" lon="9.996027">
        <ele>596.939553</ele>
        <time>2024-09-08T08:38:01.999Z</time>
      </trkpt>
      <trkpt lat="48.677035" lon="9.996104">
        <ele>596.263821</ele>
        <time>2024-09-08T08:38:02.999Z</time>
      </trkpt>
      <trkpt lat="48.676924" lon="9.996187">
        <ele>595.608097</ele>
        <time>2024-09-08T08:38:03.999Z</time>
      </trkpt>
      <trkpt lat="48.676815" lon="9.996277">
        <ele>594.950492</ele>
        <time>2024-09-08T08:38:04.999Z</time>
      </trkpt>
      <trkpt lat="48.676704" lon="9.996353">
        <ele>594.305232</ele>
        <time>2024-09-08T08:38:05.999Z</time>
      </trkpt>
      <trkpt lat="48.676603" lon="9.996446">
        <ele>593.679114</ele>
        <time>2024-09-08T08:38:06.999Z</time>
      </trkpt>
      <trkpt lat="48.676509" lon="9.996531">
        <ele>593.099196</ele>
        <time>2024-09-08T08:38:07.999Z</time>
      </trkpt>
      <trkpt lat="48.676415" lon="9.996608">
        <ele>592.533112</ele>
        <time>2024-09-08T08:38:08.999Z</time>
      </trkpt>
      <trkpt lat="48.676319" lon="9.996691">
        <ele>591.947571</ele>
        <time>2024-09-08T08:38:09.999Z</time>
      </trkpt>
      <trkpt lat="48.676229" lon="9.996773">
        <ele>591.391220</ele>
        <time>2024-09-08T08:38:10.999Z</time>
      </trkpt>
      <trkpt lat="48.676140" lon="9.996851">
        <ele>590.846541</ele>
        <time>2024-09-08T08:38:11.999Z</time>
      </trkpt>
      <trkpt lat="48.676061" lon="9.996925">
        <ele>590.760916</ele>
        <time>2024-09-08T08:38:12.999Z</time>
      </trkpt>
      <trkpt lat="48.675911" lon="9.997060">
        <ele>590.835375</ele>
        <time>2024-09-08T08:38:14.999Z</time>
      </trkpt>
      <trkpt lat="48.675775" lon="9.997194">
        <ele>590.904611</ele>
        <time>2024-09-08T08:38:16.999Z</time>
      </trkpt>
      <trkpt lat="48.675690" lon="9.997411">
        <ele>590.975705</ele>
        <time>2024-09-08T08:38:18.999Z</time>
      </trkpt>
      <trkpt lat="48.675695" lon="9.997666">
        <ele>591.047589</ele>
        <time>2024-09-08T08:38:20.999Z</time>
      </trkpt>
      <trkpt lat="48.675737" lon="9.997907">
        <ele>591.117822</ele>
        <time>2024-09-08T08:38:22.999Z</time>
      </trkpt>
      <trkpt lat="48.675785" lon="9.998124">
        <ele>591.182306</ele>
        <time>2024-09-08T08:38:24.999Z</time>
      </trkpt>
      <trkpt lat="48.675838" lon="9.998333">
        <ele>591.245390</ele>
        <time>2024-09-08T08:38:26.999Z</time>
      </trkpt>
      <trkpt lat="48.675885" lon="9.998530">
        <ele>591.304411</ele>
        <time>2024-09-08T08:38:28.999Z</time>
      </trkpt>
      <trkpt lat="48.675922" lon="9.998724">
        <ele>591.361310</ele>
        <time>2024-09-08T08:38:30.999Z</time>
      </trkpt>
      <trkpt lat="48.675968" lon="9.998885">
        <ele>591.410740</ele>
        <time>2024-09-08T08:38:32.999Z</time>
      </trkpt>
      <trkpt lat="48.676012" lon="9.999048">
        <ele>591.460358</ele>
        <time>2024-09-08T08:38:34.999Z</time>
      </trkpt>
      <trkpt lat="48.676050" lon="9.999192">
        <ele>591.591216</ele>
        <time>2024-09-08T08:38:36.999Z</time>
      </trkpt>
      <trkpt lat="48.676088" lon="9.999326">
        <ele>592.237931</ele>
        <time>2024-09-08T08:38:38.999Z</time>
      </trkpt>
      <trkpt lat="48.676134" lon="9.999449">
        <ele>592.864791</ele>
        <time>2024-09-08T08:38:40.999Z</time>
      </trkpt>
      <trkpt lat="48.676162" lon="9.999584">
        <ele>593.492294</ele>
        <time>2024-09-08T08:38:42.999Z</time>
      </trkpt>
      <trkpt lat="48.676205" lon="9.999712">
        <ele>594.129153</ele>
        <time>2024-09-08T08:38:44.999Z</time>
      </trkpt>
      <trkpt lat="48.676231" lon="9.999843">
        <ele>594.735754</ele>
        <time>2024-09-08T08:38:46.999Z</time>
      </trkpt>
      <trkpt lat="48.676283" lon="9.999981">
        <ele>595.440354</ele>
        <time>2024-09-08T08:38:48.999Z</time>
      </trkpt>
      <trkpt lat="48.676323" lon="10.000115">
        <ele>596.092483</ele>
        <time>2024-09-08T08:38:50.999Z</time>
      </trkpt>
      <trkpt lat="48.676359" lon="10.000253">
        <ele>596.750477</ele>
        <time>2024-09-08T08:38:52.999Z</time>
      </trkpt>
      <trkpt lat="48.676400" lon="10.000393">
        <ele>597.429633</ele>
        <time>2024-09-08T08:38:54.999Z</time>
      </trkpt>
      <trkpt lat="48.676442" lon="10.000532">
        <ele>598.107505</ele>
        <time>2024-09-08T08:38:56.999Z</time>
      </trkpt>
      <trkpt lat="48.676494" lon="10.000655">
        <ele>598.755169</ele>
        <time>2024-09-08T08:38:59.000Z</time>
      </trkpt>
      <trkpt lat="48.676536" lon="10.000777">
        <ele>599.365296</ele>
        <time>2024-09-08T08:39:01.000Z</time>
      </trkpt>
      <trkpt lat="48.676574" lon="10.000906">
        <ele>599.991693</ele>
        <time>2024-09-08T08:39:03.000Z</time>
      </trkpt>
      <trkpt lat="48.676612" lon="10.001038">
        <ele>600.630261</ele>
        <time>2024-09-08T08:39:05.000Z</time>
      </trkpt>
      <trkpt lat="48.676651" lon="10.001166">
        <ele>601.255394</ele>
        <time>2024-09-08T08:39:07.000Z</time>
      </trkpt>
      <trkpt lat="48.676688" lon="10.001299">
        <ele>601.895392</ele>
        <time>2024-09-08T08:39:09.000Z</time>
      </trkpt>
      <trkpt lat="48.676729" lon="10.001433">
        <ele>602.550311</ele>
        <time>2024-09-08T08:39:11.000Z</time>
      </trkpt>
      <trkpt lat="48.676774" lon="10.001561">
        <ele>603.193367</ele>
        <time>2024-09-08T08:39:13.000Z</time>
      </trkpt>
      <trkpt lat="48.676816" lon="10.001696">
        <ele>603.834936</ele>
        <time>2024-09-08T08:39:15.000Z</time>
      </trkpt>
      <trkpt lat="48.676847" lon="10.001843">
        <ele>604.469431</ele>
        <time>2024-09-08T08:39:17.000Z</time>
      </trkpt>
      <trkpt lat="48.676866" lon="10.001984">
        <ele>605.061128</ele>
        <time>2024-09-08T08:39:19.000Z</time>
      </trkpt>
      <trkpt lat="48.676879" lon="10.002129">
        <ele>605.662792</ele>
        <time>2024-09-08T08:39:21.000Z</time>
      </trkpt>
      <trkpt lat="48.676892" lon="10.002275">
        <ele>606.268531</ele>
        <time>2024-09-08T08:39:23.000Z</time>
      </trkpt>
      <trkpt lat="48.676902" lon="10.002420">
        <ele>606.867968</ele>
        <time>2024-09-08T08:39:25.000Z</time>
      </trkpt>
      <trkpt lat="48.676906" lon="10.002565">
        <ele>607.464682</ele>
        <time>2024-09-08T08:39:27.000Z</time>
      </trkpt>
      <trkpt lat="48.676909" lon="10.002709">
        <ele>608.057058</ele>
        <time>2024-09-08T08:39:29.000Z</time>
      </trkpt>
      <trkpt lat="48.676909" lon="10.002854">
        <ele>608.653252</ele>
        <time>2024-09-08T08:39:31.000Z</time>
      </trkpt>
      <trkpt lat="48.676911" lon="10.002990">
        <ele>609.212579</ele>
        <time>2024-09-08T08:39:33.000Z</time>
      </trkpt>
      <trkpt lat="48.676923" lon="10.003128">
        <ele>609.784890</ele>
        <time>2024-09-08T08:39:35.000Z</time>
      </trkpt>
      <trkpt lat="48.676934" lon="10.003327">
        <ele>610.605976</ele>
        <time>2024-09-08T08:39:38.000Z</time>
      </trkpt>
      <trkpt lat="48.676960" lon="10.003522">
        <ele>611.423936</ele>
        <time>2024-09-08T08:39:41.000Z</time>
      </trkpt>
      <trkpt lat="48.676990" lon="10.003660">
        <ele>612.021307</ele>
        <time>2024-09-08T08:39:45.000Z</time>
      </trkpt>
      <trkpt lat="48.677013" lon="10.003844">
        <ele>612.791292</ele>
        <time>2024-09-08T08:39:46.999Z</time>
      </trkpt>
      <trkpt lat="48.677023" lon="10.003991">
        <ele>613.398907</ele>
        <time>2024-09-08T08:39:48.999Z</time>
      </trkpt>
      <trkpt lat="48.676990" lon="10.004142">
        <ele>614.052892</ele>
        <time>2024-09-08T08:39:50.999Z</time>
      </trkpt>
      <trkpt lat="48.677007" lon="10.004280">
        <ele>614.630093</ele>
        <time>2024-09-08T08:39:52.999Z</time>
      </trkpt>
      <trkpt lat="48.677033" lon="10.004475">
        <ele>615.803655</ele>
        <time>2024-09-08T08:39:55.999Z</time>
      </trkpt>
      <trkpt lat="48.677056" lon="10.004653">
        <ele>616.944944</ele>
        <time>2024-09-08T08:39:58.999Z</time>
      </trkpt>
      <trkpt lat="48.677115" lon="10.004816">
        <ele>618.114600</ele>
        <time>2024-09-08T08:40:01.999Z</time>
      </trkpt>
      <trkpt lat="48.677138" lon="10.004969">
        <ele>619.101968</ele>
        <time>2024-09-08T08:40:04.999Z</time>
      </trkpt>
      <trkpt lat="48.677163" lon="10.005106">
        <ele>619.996338</ele>
        <time>2024-09-08T08:40:07.999Z</time>
      </trkpt>
      <trkpt lat="48.677180" lon="10.005246">
        <ele>620.892043</ele>
        <time>2024-09-08T08:40:10.999Z</time>
      </trkpt>
      <trkpt lat="48.677201" lon="10.005389">
        <ele>621.813837</ele>
        <time>2024-09-08T08:40:13.999Z</time>
      </trkpt>
      <trkpt lat="48.677226" lon="10.005538">
        <ele>622.781195</ele>
        <time>2024-09-08T08:40:16.999Z</time>
      </trkpt>
      <trkpt lat="48.677246" lon="10.005684">
        <ele>623.719443</ele>
        <time>2024-09-08T08:40:19.999Z</time>
      </trkpt>
      <trkpt lat="48.677266" lon="10.005829">
        <ele>624.651529</ele>
        <time>2024-09-08T08:40:22.999Z</time>
      </trkpt>
      <trkpt lat="48.677285" lon="10.005966">
        <ele>625.532392</ele>
        <time>2024-09-08T08:40:25.999Z</time>
      </trkpt>
      <trkpt lat="48.677299" lon="10.006110">
        <ele>626.448261</ele>
        <time>2024-09-08T08:40:28.999Z</time>
      </trkpt>
      <trkpt lat="48.677328" lon="10.006276">
        <ele>627.528733</ele>
        <time>2024-09-08T08:40:32.999Z</time>
      </trkpt>
      <trkpt lat="48.677350" lon="10.006449">
        <ele>628.637314</ele>
        <time>2024-09-08T08:40:36.999Z</time>
      </trkpt>
      <trkpt lat="48.677377" lon="10.006617">
        <ele>629.725291</ele>
        <time>2024-09-08T08:40:40.999Z</time>
      </trkpt>
      <trkpt lat="48.677396" lon="10.006783">
        <ele>630.785398</ele>
        <time>2024-09-08T08:40:45.999Z</time>
      </trkpt>
      <trkpt lat="48.677413" lon="10.006955">
        <ele>631.879738</ele>
        <time>2024-09-08T08:40:49.999Z</time>
      </trkpt>
      <trkpt lat="48.677421" lon="10.007094">
        <ele>632.532849</ele>
        <time>2024-09-08T08:40:53.999Z</time>
      </trkpt>
      <trkpt lat="48.677435" lon="10.007277">
        <ele>633.381713</ele>
        <time>2024-09-08T08:40:56.999Z</time>
      </trkpt>
      <trkpt lat="48.677447" lon="10.007430">
        <ele>634.091659</ele>
        <time>2024-09-08T08:40:59.999Z</time>
      </trkpt>
      <trkpt lat="48.677462" lon="10.007585">
        <ele>634.813493</ele>
        <time>2024-09-08T08:41:02.999Z</time>
      </trkpt>
      <trkpt lat="48.677466" lon="10.007750">
        <ele>635.574288</ele>
        <time>2024-09-08T08:41:06.000Z</time>
      </trkpt>
      <trkpt lat="48.677466" lon="10.007915">
        <ele>636.334571</ele>
        <time>2024-09-08T08:41:09.000Z</time>
      </trkpt>
      <trkpt lat="48.677476" lon="10.008074">
        <ele>637.070523</ele>
        <time>2024-09-08T08:41:12.000Z</time>
      </trkpt>
      <trkpt lat="48.677467" lon="10.008244">
        <ele>637.856358</ele>
        <time>2024-09-08T08:41:15.000Z</time>
      </trkpt>
      <trkpt lat="48.677497" lon="10.008400">
        <ele>638.605036</ele>
        <time>2024-09-08T08:41:18.000Z</time>
      </trkpt>
      <trkpt lat="48.677532" lon="10.008558">
        <ele>639.372940</ele>
        <time>2024-09-08T08:41:21.000Z</time>
      </trkpt>
      <trkpt lat="48.677554" lon="10.008714">
        <ele>640.107964</ele>
        <time>2024-09-08T08:41:24.000Z</time>
      </trkpt>
      <trkpt lat="48.677593" lon="10.008867">
        <ele>640.863660</ele>
        <time>2024-09-08T08:41:28.000Z</time>
      </trkpt>
      <trkpt lat="48.677635" lon="10.009006">
        <ele>641.568013</ele>
        <time>2024-09-08T08:41:31.000Z</time>
      </trkpt>
      <trkpt lat="48.677692" lon="10.009187">
        <ele>642.492015</ele>
        <time>2024-09-08T08:41:33.000Z</time>
      </trkpt>
      <trkpt lat="48.677736" lon="10.009367">
        <ele>643.376421</ele>
        <time>2024-09-08T08:41:36.000Z</time>
      </trkpt>
      <trkpt lat="48.677832" lon="10.009515">
        <ele>644.332373</ele>
        <time>2024-09-08T08:41:39.000Z</time>
      </trkpt>
      <trkpt lat="48.677891" lon="10.009630">
        <ele>644.671506</ele>
        <time>2024-09-08T08:41:41.000Z</time>
      </trkpt>
      <trkpt lat="48.677956" lon="10.009751">
        <ele>644.943546</ele>
        <time>2024-09-08T08:41:43.000Z</time>
      </trkpt>
      <trkpt lat="48.678027" lon="10.009875">
        <ele>645.229788</ele>
        <time>2024-09-08T08:41:45.000Z</time>
      </trkpt>
      <trkpt lat="48.678101" lon="10.010005">
        <ele>645.529127</ele>
        <time>2024-09-08T08:41:47.000Z</time>
      </trkpt>
      <trkpt lat="48.678181" lon="10.010127">
        <ele>645.828991</ele>
        <time>2024-09-08T08:41:49.000Z</time>
      </trkpt>
      <trkpt lat="48.678269" lon="10.010249">
        <ele>646.144100</ele>
        <time>2024-09-08T08:41:51.000Z</time>
      </trkpt>
      <trkpt lat="48.678354" lon="10.010371">
        <ele>646.453411</ele>
        <time>2024-09-08T08:41:53.000Z</time>
      </trkpt>
      <trkpt lat="48.678444" lon="10.010483">
        <ele>646.761080</ele>
        <time>2024-09-08T08:41:55.000Z</time>
      </trkpt>
      <trkpt lat="48.678535" lon="10.010597">
        <ele>647.073006</ele>
        <time>2024-09-08T08:41:57.000Z</time>
      </trkpt>
      <trkpt lat="48.678619" lon="10.010705">
        <ele>647.364039</ele>
        <time>2024-09-08T08:41:59.000Z</time>
      </trkpt>
      <trkpt lat="48.678703" lon="10.010806">
        <ele>647.647324</ele>
        <time>2024-09-08T08:42:01.000Z</time>
      </trkpt>
      <trkpt lat="48.678789" lon="10.010898">
        <ele>647.925424</ele>
        <time>2024-09-08T08:42:03.000Z</time>
      </trkpt>
      <trkpt lat="48.678875" lon="10.010989">
        <ele>648.202521</ele>
        <time>2024-09-08T08:42:05.000Z</time>
      </trkpt>
      <trkpt lat="48.678964" lon="10.011082">
        <ele>648.488116</ele>
        <time>2024-09-08T08:42:07.000Z</time>
      </trkpt>
      <trkpt lat="48.679049" lon="10.011179">
        <ele>648.769221</ele>
        <time>2024-09-08T08:42:09.000Z</time>
      </trkpt>
      <trkpt lat="48.679132" lon="10.011277">
        <ele>649.047195</ele>
        <time>2024-09-08T08:42:11.000Z</time>
      </trkpt>
      <trkpt lat="48.679213" lon="10.011378">
        <ele>649.185363</ele>
        <time>2024-09-08T08:42:13.000Z</time>
      </trkpt>
      <trkpt lat="48.679302" lon="10.011474">
        <ele>649.089293</ele>
        <time>2024-09-08T08:42:15.000Z</time>
      </trkpt>
      <trkpt lat="48.679387" lon="10.011559">
        <ele>648.999736</ele>
        <time>2024-09-08T08:42:17.000Z</time>
      </trkpt>
      <trkpt lat="48.679471" lon="10.011654">
        <ele>648.907561</ele>
        <time>2024-09-08T08:42:19.000Z</time>
      </trkpt>
      <trkpt lat="48.679558" lon="10.011754">
        <ele>648.811532</ele>
        <time>2024-09-08T08:42:21.000Z</time>
      </trkpt>
      <trkpt lat="48.679643" lon="10.011841">
        <ele>648.721331</ele>
        <time>2024-09-08T08:42:23.000Z</time>
      </trkpt>
      <trkpt lat="48.679731" lon="10.011934">
        <ele>648.626983</ele>
        <time>2024-09-08T08:42:25.000Z</time>
      </trkpt>
      <trkpt lat="48.679823" lon="10.012017">
        <ele>648.532830</ele>
        <time>2024-09-08T08:42:27.000Z</time>
      </trkpt>
      <trkpt lat="48.679927" lon="10.012094">
        <ele>648.431048</ele>
        <time>2024-09-08T08:42:29.000Z</time>
      </trkpt>
      <trkpt lat="48.680040" lon="10.012158">
        <ele>648.324974</ele>
        <time>2024-09-08T08:42:31.000Z</time>
      </trkpt>
      <trkpt lat="48.680155" lon="10.012219">
        <ele>648.217840</ele>
        <time>2024-09-08T08:42:33.000Z</time>
      </trkpt>
      <trkpt lat="48.680276" lon="10.012273">
        <ele>648.106930</ele>
        <time>2024-09-08T08:42:34.999Z</time>
      </trkpt>
      <trkpt lat="48.680402" lon="10.012326">
        <ele>647.991953</ele>
        <time>2024-09-08T08:42:36.999Z</time>
      </trkpt>
      <trkpt lat="48.680533" lon="10.012382">
        <ele>647.872273</ele>
        <time>2024-09-08T08:42:38.999Z</time>
      </trkpt>
      <trkpt lat="48.680671" lon="10.012443">
        <ele>647.745876</ele>
        <time>2024-09-08T08:42:40.999Z</time>
      </trkpt>
      <trkpt lat="48.680817" lon="10.012506">
        <ele>647.597061</ele>
        <time>2024-09-08T08:42:42.999Z</time>
      </trkpt>
      <trkpt lat="48.680967" lon="10.012599">
        <ele>647.371225</ele>
        <time>2024-09-08T08:42:44.999Z</time>
      </trkpt>
      <trkpt lat="48.681107" lon="10.012732">
        <ele>647.140959</ele>
        <time>2024-09-08T08:42:46.999Z</time>
      </trkpt>
      <trkpt lat="48.681241" lon="10.012900">
        <ele>646.898582</ele>
        <time>2024-09-08T08:42:48.999Z</time>
      </trkpt>
      <trkpt lat="48.681370" lon="10.013087">
        <ele>646.649781</ele>
        <time>2024-09-08T08:42:50.999Z</time>
      </trkpt>
      <trkpt lat="48.681436" lon="10.013182">
        <ele>646.522916</ele>
        <time>2024-09-08T08:42:51.999Z</time>
      </trkpt>
      <trkpt lat="48.681502" lon="10.013277">
        <ele>646.396051</ele>
        <time>2024-09-08T08:42:52.999Z</time>
      </trkpt>
      <trkpt lat="48.681571" lon="10.013370">
        <ele>646.267355</ele>
        <time>2024-09-08T08:42:53.999Z</time>
      </trkpt>
      <trkpt lat="48.681705" lon="10.013546">
        <ele>646.020221</ele>
        <time>2024-09-08T08:42:55.999Z</time>
      </trkpt>
      <trkpt lat="48.681833" lon="10.013721">
        <ele>645.779958</ele>
        <time>2024-09-08T08:42:57.999Z</time>
      </trkpt>
      <trkpt lat="48.681942" lon="10.013887">
        <ele>645.564583</ele>
        <time>2024-09-08T08:42:59.999Z</time>
      </trkpt>
      <trkpt lat="48.682039" lon="10.014037">
        <ele>645.371430</ele>
        <time>2024-09-08T08:43:01.999Z</time>
      </trkpt>
      <trkpt lat="48.682114" lon="10.014186">
        <ele>645.199067</ele>
        <time>2024-09-08T08:43:03.999Z</time>
      </trkpt>
      <trkpt lat="48.682184" lon="10.014345">
        <ele>645.120926</ele>
        <time>2024-09-08T08:43:05.999Z</time>
      </trkpt>
      <trkpt lat="48.682240" lon="10.014527">
        <ele>645.101361</ele>
        <time>2024-09-08T08:43:07.999Z</time>
      </trkpt>
      <trkpt lat="48.682273" lon="10.014723">
        <ele>645.081651</ele>
        <time>2024-09-08T08:43:10.000Z</time>
      </trkpt>
      <trkpt lat="48.682297" lon="10.014924">
        <ele>645.061749</ele>
        <time>2024-09-08T08:43:12.000Z</time>
      </trkpt>
      <trkpt lat="48.682322" lon="10.015126">
        <ele>645.041723</ele>
        <time>2024-09-08T08:43:14.000Z</time>
      </trkpt>
      <trkpt lat="48.682350" lon="10.015310">
        <ele>645.023324</ele>
        <time>2024-09-08T08:43:16.000Z</time>
      </trkpt>
      <trkpt lat="48.682363" lon="10.015488">
        <ele>645.005874</ele>
        <time>2024-09-08T08:43:18.000Z</time>
      </trkpt>
      <trkpt lat="48.682380" lon="10.015654">
        <ele>644.989506</ele>
        <time>2024-09-08T08:43:20.000Z</time>
      </trkpt>
      <trkpt lat="48.682399" lon="10.015796">
        <ele>644.975389</ele>
        <time>2024-09-08T08:43:22.000Z</time>
      </trkpt>
      <trkpt lat="48.682493" lon="10.016257">
        <ele>644.928376</ele>
        <time>2024-09-08T08:44:31.000Z</time>
      </trkpt>
      <trkpt lat="48.682523" lon="10.016440">
        <ele>644.910003</ele>
        <time>2024-09-08T08:44:33.000Z</time>
      </trkpt>
      <trkpt lat="48.682527" lon="10.016622">
        <ele>644.892260</ele>
        <time>2024-09-08T08:44:34.999Z</time>
      </trkpt>
      <trkpt lat="48.682564" lon="10.016784">
        <ele>644.875557</ele>
        <time>2024-09-08T08:44:36.999Z</time>
      </trkpt>
      <trkpt lat="48.682624" lon="10.016929">
        <ele>644.622129</ele>
        <time>2024-09-08T08:44:38.999Z</time>
      </trkpt>
      <trkpt lat="48.682663" lon="10.017087">
        <ele>644.129127</ele>
        <time>2024-09-08T08:44:40.999Z</time>
      </trkpt>
      <trkpt lat="48.682627" lon="10.017245">
        <ele>643.640617</ele>
        <time>2024-09-08T08:44:42.999Z</time>
      </trkpt>
      <trkpt lat="48.682513" lon="10.017349">
        <ele>643.051493</ele>
        <time>2024-09-08T08:44:44.999Z</time>
      </trkpt>
      <trkpt lat="48.682408" lon="10.017359">
        <ele>642.585763</ele>
        <time>2024-09-08T08:44:46.999Z</time>
      </trkpt>
      <trkpt lat="48.682292" lon="10.017430">
        <ele>642.031913</ele>
        <time>2024-09-08T08:44:49.999Z</time>
      </trkpt>
      <trkpt lat="48.682183" lon="10.017461">
        <ele>641.540961</ele>
        <time>2024-09-08T08:44:51.999Z</time>
      </trkpt>
      <trkpt lat="48.682058" lon="10.017488">
        <ele>640.982015</ele>
        <time>2024-09-08T08:44:53.999Z</time>
      </trkpt>
      <trkpt lat="48.681921" lon="10.017538">
        <ele>640.358188</ele>
        <time>2024-09-08T08:44:55.999Z</time>
      </trkpt>
      <trkpt lat="48.681785" lon="10.017640">
        <ele>639.686377</ele>
        <time>2024-09-08T08:44:57.999Z</time>
      </trkpt>
      <trkpt lat="48.681670" lon="10.017805">
        <ele>638.985142</ele>
        <time>2024-09-08T08:44:59.999Z</time>
      </trkpt>
      <trkpt lat="48.681588" lon="10.018014">
        <ele>638.274573</ele>
        <time>2024-09-08T08:45:01.999Z</time>
      </trkpt>
      <trkpt lat="48.681548" lon="10.018255">
        <ele>637.548274</ele>
        <time>2024-09-08T08:45:03.999Z</time>
      </trkpt>
      <trkpt lat="48.681567" lon="10.018513">
        <ele>636.759462</ele>
        <time>2024-09-08T08:45:05.999Z</time>
      </trkpt>
      <trkpt lat="48.681605" lon="10.018764">
        <ele>635.810588</ele>
        <time>2024-09-08T08:45:07.999Z</time>
      </trkpt>
      <trkpt lat="48.681688" lon="10.018991">
        <ele>634.854454</ele>
        <time>2024-09-08T08:45:09.999Z</time>
      </trkpt>
      <trkpt lat="48.681741" lon="10.019102">
        <ele>634.349701</ele>
        <time>2024-09-08T08:45:10.999Z</time>
      </trkpt>
      <trkpt lat="48.681805" lon="10.019210">
        <ele>633.814967</ele>
        <time>2024-09-08T08:45:11.999Z</time>
      </trkpt>
      <trkpt lat="48.681885" lon="10.019307">
        <ele>633.243054</ele>
        <time>2024-09-08T08:45:12.999Z</time>
      </trkpt>
      <trkpt lat="48.681974" lon="10.019394">
        <ele>632.651889</ele>
        <time>2024-09-08T08:45:13.999Z</time>
      </trkpt>
      <trkpt lat="48.682073" lon="10.019466">
        <ele>632.038987</ele>
        <time>2024-09-08T08:45:14.999Z</time>
      </trkpt>
      <trkpt lat="48.682177" lon="10.019533">
        <ele>631.408252</ele>
        <time>2024-09-08T08:45:16.000Z</time>
      </trkpt>
      <trkpt lat="48.682284" lon="10.019600">
        <ele>630.762078</ele>
        <time>2024-09-08T08:45:17.000Z</time>
      </trkpt>
      <trkpt lat="48.682389" lon="10.019659">
        <ele>630.137058</ele>
        <time>2024-09-08T08:45:18.000Z</time>
      </trkpt>
      <trkpt lat="48.682498" lon="10.019718">
        <ele>629.491062</ele>
        <time>2024-09-08T08:45:19.000Z</time>
      </trkpt>
      <trkpt lat="48.682607" lon="10.019786">
        <ele>628.833164</ele>
        <time>2024-09-08T08:45:20.000Z</time>
      </trkpt>
      <trkpt lat="48.682710" lon="10.019868">
        <ele>628.183763</ele>
        <time>2024-09-08T08:45:21.000Z</time>
      </trkpt>
      <trkpt lat="48.682809" lon="10.019969">
        <ele>627.517609</ele>
        <time>2024-09-08T08:45:22.000Z</time>
      </trkpt>
      <trkpt lat="48.682906" lon="10.020085">
        <ele>626.814463</ele>
        <time>2024-09-08T08:45:23.000Z</time>
      </trkpt>
      <trkpt lat="48.682995" lon="10.020215">
        <ele>625.886949</ele>
        <time>2024-09-08T08:45:24.000Z</time>
      </trkpt>
      <trkpt lat="48.683074" lon="10.020357">
        <ele>624.967272</ele>
        <time>2024-09-08T08:45:25.000Z</time>
      </trkpt>
      <trkpt lat="48.683155" lon="10.020506">
        <ele>624.011356</ele>
        <time>2024-09-08T08:45:26.000Z</time>
      </trkpt>
      <trkpt lat="48.683219" lon="10.020675">
        <ele>623.046438</ele>
        <time>2024-09-08T08:45:27.000Z</time>
      </trkpt>
      <trkpt lat="48.683292" lon="10.020835">
        <ele>622.083204</ele>
        <time>2024-09-08T08:45:28.000Z</time>
      </trkpt>
      <trkpt lat="48.683369" lon="10.020997">
        <ele>621.094580</ele>
        <time>2024-09-08T08:45:29.000Z</time>
      </trkpt>
      <trkpt lat="48.683448" lon="10.021160">
        <ele>620.093129</ele>
        <time>2024-09-08T08:45:30.000Z</time>
      </trkpt>
      <trkpt lat="48.683526" lon="10.021325">
        <ele>619.088062</ele>
        <time>2024-09-08T08:45:31.000Z</time>
      </trkpt>
      <trkpt lat="48.683616" lon="10.021484">
        <ele>618.050797</ele>
        <time>2024-09-08T08:45:32.000Z</time>
      </trkpt>
      <trkpt lat="48.683692" lon="10.021660">
        <ele>617.009246</ele>
        <time>2024-09-08T08:45:33.000Z</time>
      </trkpt>
      <trkpt lat="48.683749" lon="10.021855">
        <ele>615.953062</ele>
        <time>2024-09-08T08:45:34.000Z</time>
      </trkpt>
      <trkpt lat="48.683822" lon="10.022037">
        <ele>614.898378</ele>
        <time>2024-09-08T08:45:35.000Z</time>
      </trkpt>
      <trkpt lat="48.683908" lon="10.022206">
        <ele>613.841615</ele>
        <time>2024-09-08T08:45:36.000Z</time>
      </trkpt>
      <trkpt lat="48.683976" lon="10.022394">
        <ele>612.814394</ele>
        <time>2024-09-08T08:45:37.000Z</time>
      </trkpt>
      <trkpt lat="48.684049" lon="10.022581">
        <ele>611.800833</ele>
        <time>2024-09-08T08:45:38.000Z</time>
      </trkpt>
      <trkpt lat="48.684125" lon="10.022764">
        <ele>610.792165</ele>
        <time>2024-09-08T08:45:39.000Z</time>
      </trkpt>
      <trkpt lat="48.684200" lon="10.022942">
        <ele>609.806986</ele>
        <time>2024-09-08T08:45:40.000Z</time>
      </trkpt>
      <trkpt lat="48.684281" lon="10.023123">
        <ele>608.786809</ele>
        <time>2024-09-08T08:45:41.000Z</time>
      </trkpt>
      <trkpt lat="48.684368" lon="10.023293">
        <ele>607.783287</ele>
        <time>2024-09-08T08:45:42.000Z</time>
      </trkpt>
      <trkpt lat="48.684449" lon="10.023473">
        <ele>606.766971</ele>
        <time>2024-09-08T08:45:43.000Z</time>
      </trkpt>
      <trkpt lat="48.684560" lon="10.023615">
        <ele>605.740226</ele>
        <time>2024-09-08T08:45:44.000Z</time>
      </trkpt>
      <trkpt lat="48.684666" lon="10.023767">
        <ele>604.708716</ele>
        <time>2024-09-08T08:45:45.000Z</time>
      </trkpt>
      <trkpt lat="48.684779" lon="10.023907">
        <ele>603.677068</ele>
        <time>2024-09-08T08:45:46.000Z</time>
      </trkpt>
      <trkpt lat="48.684899" lon="10.024038">
        <ele>602.631765</ele>
        <time>2024-09-08T08:45:47.000Z</time>
      </trkpt>
      <trkpt lat="48.685025" lon="10.024162">
        <ele>601.569922</ele>
        <time>2024-09-08T08:45:48.000Z</time>
      </trkpt>
      <trkpt lat="48.685152" lon="10.024279">
        <ele>600.565900</ele>
        <time>2024-09-08T08:45:49.000Z</time>
      </trkpt>
      <trkpt lat="48.685281" lon="10.024392">
        <ele>599.851806</ele>
        <time>2024-09-08T08:45:50.000Z</time>
      </trkpt>
      <trkpt lat="48.685405" lon="10.024506">
        <ele>599.156713</ele>
        <time>2024-09-08T08:45:51.000Z</time>
      </trkpt>
      <trkpt lat="48.685530" lon="10.024618">
        <ele>598.460763</ele>
        <time>2024-09-08T08:45:52.000Z</time>
      </trkpt>
      <trkpt lat="48.685654" lon="10.024728">
        <ele>597.772152</ele>
        <time>2024-09-08T08:45:53.000Z</time>
      </trkpt>
      <trkpt lat="48.685781" lon="10.024838">
        <ele>597.071099</ele>
        <time>2024-09-08T08:45:54.000Z</time>
      </trkpt>
      <trkpt lat="48.685903" lon="10.024948">
        <ele>596.390742</ele>
        <time>2024-09-08T08:45:55.000Z</time>
      </trkpt>
      <trkpt lat="48.686020" lon="10.025070">
        <ele>595.710075</ele>
        <time>2024-09-08T08:45:56.000Z</time>
      </trkpt>
      <trkpt lat="48.686135" lon="10.025201">
        <ele>595.020553</ele>
        <time>2024-09-08T08:45:57.000Z</time>
      </trkpt>
      <trkpt lat="48.686247" lon="10.025336">
        <ele>594.334658</ele>
        <time>2024-09-08T08:45:58.000Z</time>
      </trkpt>
      <trkpt lat="48.686347" lon="10.025481">
        <ele>593.671292</ele>
        <time>2024-09-08T08:45:59.000Z</time>
      </trkpt>
      <trkpt lat="48.686441" lon="10.025635">
        <ele>593.007773</ele>
        <time>2024-09-08T08:46:00.000Z</time>
      </trkpt>
      <trkpt lat="48.686533" lon="10.025793">
        <ele>592.341287</ele>
        <time>2024-09-08T08:46:01.000Z</time>
      </trkpt>
      <trkpt lat="48.686621" lon="10.025954">
        <ele>591.717423</ele>
        <time>2024-09-08T08:46:02.000Z</time>
      </trkpt>
      <trkpt lat="48.686695" lon="10.026137">
        <ele>591.108138</ele>
        <time>2024-09-08T08:46:03.000Z</time>
      </trkpt>
      <trkpt lat="48.686781" lon="10.026298">
        <ele>590.520145</ele>
        <time>2024-09-08T08:46:04.000Z</time>
      </trkpt>
      <trkpt lat="48.686866" lon="10.026456">
        <ele>589.941477</ele>
        <time>2024-09-08T08:46:05.000Z</time>
      </trkpt>
      <trkpt lat="48.686958" lon="10.026610">
        <ele>589.351806</ele>
        <time>2024-09-08T08:46:06.000Z</time>
      </trkpt>
      <trkpt lat="48.687066" lon="10.026738">
        <ele>588.762064</ele>
        <time>2024-09-08T08:46:07.000Z</time>
      </trkpt>
      <trkpt lat="48.687156" lon="10.026894">
        <ele>588.173867</ele>
        <time>2024-09-08T08:46:08.000Z</time>
      </trkpt>
      <trkpt lat="48.687261" lon="10.027026">
        <ele>587.587046</ele>
        <time>2024-09-08T08:46:09.000Z</time>
      </trkpt>
      <trkpt lat="48.687368" lon="10.027158">
        <ele>586.993582</ele>
        <time>2024-09-08T08:46:10.000Z</time>
      </trkpt>
      <trkpt lat="48.687473" lon="10.027290">
        <ele>586.406762</ele>
        <time>2024-09-08T08:46:11.000Z</time>
      </trkpt>
      <trkpt lat="48.687581" lon="10.027425">
        <ele>585.804573</ele>
        <time>2024-09-08T08:46:12.000Z</time>
      </trkpt>
      <trkpt lat="48.687688" lon="10.027556">
        <ele>585.212899</ele>
        <time>2024-09-08T08:46:13.000Z</time>
      </trkpt>
      <trkpt lat="48.687801" lon="10.027680">
        <ele>584.612813</ele>
        <time>2024-09-08T08:46:14.000Z</time>
      </trkpt>
      <trkpt lat="48.687926" lon="10.027778">
        <ele>584.025141</ele>
        <time>2024-09-08T08:46:15.000Z</time>
      </trkpt>
      <trkpt lat="48.688043" lon="10.027880">
        <ele>583.478512</ele>
        <time>2024-09-08T08:46:16.000Z</time>
      </trkpt>
      <trkpt lat="48.688165" lon="10.027970">
        <ele>582.929028</ele>
        <time>2024-09-08T08:46:17.000Z</time>
      </trkpt>
      <trkpt lat="48.688289" lon="10.028045">
        <ele>582.388368</ele>
        <time>2024-09-08T08:46:18.000Z</time>
      </trkpt>
      <trkpt lat="48.688407" lon="10.028122">
        <ele>581.868101</ele>
        <time>2024-09-08T08:46:19.000Z</time>
      </trkpt>
      <trkpt lat="48.688531" lon="10.028179">
        <ele>581.343378</ele>
        <time>2024-09-08T08:46:20.000Z</time>
      </trkpt>
      <trkpt lat="48.688656" lon="10.028235">
        <ele>580.815543</ele>
        <time>2024-09-08T08:46:21.000Z</time>
      </trkpt>
      <trkpt lat="48.688778" lon="10.028287">
        <ele>580.302344</ele>
        <time>2024-09-08T08:46:22.000Z</time>
      </trkpt>
      <trkpt lat="48.688898" lon="10.028341">
        <ele>579.795440</ele>
        <time>2024-09-08T08:46:23.000Z</time>
      </trkpt>
      <trkpt lat="48.689016" lon="10.028402">
        <ele>579.290565</ele>
        <time>2024-09-08T08:46:24.000Z</time>
      </trkpt>
      <trkpt lat="48.689135" lon="10.028470">
        <ele>578.775553</ele>
        <time>2024-09-08T08:46:25.000Z</time>
      </trkpt>
      <trkpt lat="48.689252" lon="10.028543">
        <ele>578.263171</ele>
        <time>2024-09-08T08:46:26.000Z</time>
      </trkpt>
      <trkpt lat="48.689364" lon="10.028620">
        <ele>577.765127</ele>
        <time>2024-09-08T08:46:27.000Z</time>
      </trkpt>
      <trkpt lat="48.689482" lon="10.028694">
        <ele>577.247982</ele>
        <time>2024-09-08T08:46:28.000Z</time>
      </trkpt>
      <trkpt lat="48.689598" lon="10.028772">
        <ele>576.811565</ele>
        <time>2024-09-08T08:46:29.000Z</time>
      </trkpt>
      <trkpt lat="48.689717" lon="10.028842">
        <ele>576.431823</ele>
        <time>2024-09-08T08:46:29.999Z</time>
      </trkpt>
      <trkpt lat="48.689811" lon="10.028931">
        <ele>576.102075</ele>
        <time>2024-09-08T08:46:30.999Z</time>
      </trkpt>
      <trkpt lat="48.689920" lon="10.029006">
        <ele>575.745951</ele>
        <time>2024-09-08T08:46:31.999Z</time>
      </trkpt>
      <trkpt lat="48.690044" lon="10.029081">
        <ele>575.348772</ele>
        <time>2024-09-08T08:46:32.999Z</time>
      </trkpt>
      <trkpt lat="48.690176" lon="10.029186">
        <ele>574.905268</ele>
        <time>2024-09-08T08:46:33.999Z</time>
      </trkpt>
      <trkpt lat="48.690299" lon="10.029256">
        <ele>574.514410</ele>
        <time>2024-09-08T08:46:34.999Z</time>
      </trkpt>
      <trkpt lat="48.690403" lon="10.029352">
        <ele>574.152130</ele>
        <time>2024-09-08T08:46:35.999Z</time>
      </trkpt>
      <trkpt lat="48.690511" lon="10.029455">
        <ele>573.772495</ele>
        <time>2024-09-08T08:46:36.999Z</time>
      </trkpt>
      <trkpt lat="48.690619" lon="10.029543">
        <ele>573.407701</ele>
        <time>2024-09-08T08:46:37.999Z</time>
      </trkpt>
      <trkpt lat="48.690732" lon="10.029637">
        <ele>573.024213</ele>
        <time>2024-09-08T08:46:38.999Z</time>
      </trkpt>
      <trkpt lat="48.690837" lon="10.029738">
        <ele>572.654221</ele>
        <time>2024-09-08T08:46:39.999Z</time>
      </trkpt>
      <trkpt lat="48.690944" lon="10.029841">
        <ele>572.277102</ele>
        <time>2024-09-08T08:46:40.999Z</time>
      </trkpt>
      <trkpt lat="48.691052" lon="10.029941">
        <ele>571.900574</ele>
        <time>2024-09-08T08:46:41.999Z</time>
      </trkpt>
      <trkpt lat="48.691155" lon="10.030058">
        <ele>571.522004</ele>
        <time>2024-09-08T08:46:42.999Z</time>
      </trkpt>
      <trkpt lat="48.691265" lon="10.030158">
        <ele>571.150998</ele>
        <time>2024-09-08T08:46:43.999Z</time>
      </trkpt>
      <trkpt lat="48.691368" lon="10.030259">
        <ele>570.796164</ele>
        <time>2024-09-08T08:46:44.999Z</time>
      </trkpt>
      <trkpt lat="48.691469" lon="10.030353">
        <ele>570.453352</ele>
        <time>2024-09-08T08:46:45.999Z</time>
      </trkpt>
      <trkpt lat="48.691571" lon="10.030465">
        <ele>570.089029</ele>
        <time>2024-09-08T08:46:46.999Z</time>
      </trkpt>
      <trkpt lat="48.691673" lon="10.030578">
        <ele>569.723582</ele>
        <time>2024-09-08T08:46:47.999Z</time>
      </trkpt>
      <trkpt lat="48.691771" lon="10.030692">
        <ele>569.366248</ele>
        <time>2024-09-08T08:46:48.999Z</time>
      </trkpt>
      <trkpt lat="48.691869" lon="10.030808">
        <ele>569.006576</ele>
        <time>2024-09-08T08:46:49.999Z</time>
      </trkpt>
      <trkpt lat="48.691964" lon="10.030928">
        <ele>568.648860</ele>
        <time>2024-09-08T08:46:50.999Z</time>
      </trkpt>
      <trkpt lat="48.692054" lon="10.031059">
        <ele>568.287907</ele>
        <time>2024-09-08T08:46:51.999Z</time>
      </trkpt>
      <trkpt lat="48.692140" lon="10.031201">
        <ele>567.920018</ele>
        <time>2024-09-08T08:46:52.999Z</time>
      </trkpt>
      <trkpt lat="48.692220" lon="10.031350">
        <ele>567.553363</ele>
        <time>2024-09-08T08:46:53.999Z</time>
      </trkpt>
      <trkpt lat="48.692296" lon="10.031504">
        <ele>567.186296</ele>
        <time>2024-09-08T08:46:54.999Z</time>
      </trkpt>
      <trkpt lat="48.692366" lon="10.031661">
        <ele>566.824618</ele>
        <time>2024-09-08T08:46:55.999Z</time>
      </trkpt>
      <trkpt lat="48.692430" lon="10.031828">
        <ele>566.455097</ele>
        <time>2024-09-08T08:46:56.999Z</time>
      </trkpt>
      <trkpt lat="48.692490" lon="10.031996">
        <ele>566.072569</ele>
        <time>2024-09-08T08:46:57.999Z</time>
      </trkpt>
      <trkpt lat="48.692548" lon="10.032166">
        <ele>565.689339</ele>
        <time>2024-09-08T08:46:58.999Z</time>
      </trkpt>
      <trkpt lat="48.692602" lon="10.032336">
        <ele>565.311526</ele>
        <time>2024-09-08T08:46:59.999Z</time>
      </trkpt>
      <trkpt lat="48.692655" lon="10.032507">
        <ele>564.933208</ele>
        <time>2024-09-08T08:47:00.999Z</time>
      </trkpt>
      <trkpt lat="48.692708" lon="10.032680">
        <ele>564.551261</ele>
        <time>2024-09-08T08:47:01.999Z</time>
      </trkpt>
      <trkpt lat="48.692758" lon="10.032855">
        <ele>564.169383</ele>
        <time>2024-09-08T08:47:02.999Z</time>
      </trkpt>
      <trkpt lat="48.692809" lon="10.033031">
        <ele>563.784458</ele>
        <time>2024-09-08T08:47:03.999Z</time>
      </trkpt>
      <trkpt lat="48.692858" lon="10.033209">
        <ele>563.398238</ele>
        <time>2024-09-08T08:47:04.999Z</time>
      </trkpt>
      <trkpt lat="48.692906" lon="10.033386">
        <ele>563.015029</ele>
        <time>2024-09-08T08:47:05.999Z</time>
      </trkpt>
      <trkpt lat="48.692950" lon="10.033565">
        <ele>562.632514</ele>
        <time>2024-09-08T08:47:06.999Z</time>
      </trkpt>
      <trkpt lat="48.692993" lon="10.033740">
        <ele>562.258566</ele>
        <time>2024-09-08T08:47:07.999Z</time>
      </trkpt>
      <trkpt lat="48.693034" lon="10.033916">
        <ele>561.884803</ele>
        <time>2024-09-08T08:47:08.999Z</time>
      </trkpt>
      <trkpt lat="48.693071" lon="10.034088">
        <ele>561.522526</ele>
        <time>2024-09-08T08:47:09.999Z</time>
      </trkpt>
      <trkpt lat="48.693108" lon="10.034259">
        <ele>561.162153</ele>
        <time>2024-09-08T08:47:10.999Z</time>
      </trkpt>
      <trkpt lat="48.693124" lon="10.034435">
        <ele>560.950982</ele>
        <time>2024-09-08T08:47:11.999Z</time>
      </trkpt>
      <trkpt lat="48.693155" lon="10.034600">
        <ele>560.843044</ele>
        <time>2024-09-08T08:47:12.999Z</time>
      </trkpt>
      <trkpt lat="48.693185" lon="10.034764">
        <ele>560.735970</ele>
        <time>2024-09-08T08:47:13.999Z</time>
      </trkpt>
      <trkpt lat="48.693214" lon="10.034919">
        <ele>560.634606</ele>
        <time>2024-09-08T08:47:14.999Z</time>
      </trkpt>
      <trkpt lat="48.693241" lon="10.035073">
        <ele>560.534353</ele>
        <time>2024-09-08T08:47:15.999Z</time>
      </trkpt>
      <trkpt lat="48.693268" lon="10.035223">
        <ele>560.436531</ele>
        <time>2024-09-08T08:47:16.999Z</time>
      </trkpt>
      <trkpt lat="48.693295" lon="10.035372">
        <ele>560.339315</ele>
        <time>2024-09-08T08:47:17.999Z</time>
      </trkpt>
      <trkpt lat="48.693321" lon="10.035520">
        <ele>560.242956</ele>
        <time>2024-09-08T08:47:18.999Z</time>
      </trkpt>
      <trkpt lat="48.693346" lon="10.035667">
        <ele>560.147447</ele>
        <time>2024-09-08T08:47:19.999Z</time>
      </trkpt>
      <trkpt lat="48.693368" lon="10.035803">
        <ele>560.059347</ele>
        <time>2024-09-08T08:47:20.999Z</time>
      </trkpt>
      <trkpt lat="48.693398" lon="10.035992">
        <ele>559.937043</ele>
        <time>2024-09-08T08:47:23.000Z</time>
      </trkpt>
      <trkpt lat="48.693570" lon="10.035947">
        <ele>559.770671</ele>
        <time>2024-09-08T08:47:28.000Z</time>
      </trkpt>
      <trkpt lat="48.693532" lon="10.035789">
        <ele>559.664869</ele>
        <time>2024-09-08T08:47:30.000Z</time>
      </trkpt>
      <trkpt lat="48.693500" lon="10.035641">
        <ele>559.566883</ele>
        <time>2024-09-08T08:47:32.000Z</time>
      </trkpt>
      <trkpt lat="48.693486" lon="10.035479">
        <ele>559.464087</ele>
        <time>2024-09-08T08:47:34.000Z</time>
      </trkpt>
      <trkpt lat="48.693477" lon="10.035337">
        <ele>559.374334</ele>
        <time>2024-09-08T08:47:36.000Z</time>
      </trkpt>
      <trkpt lat="48.693468" lon="10.035197">
        <ele>559.444910</ele>
        <time>2024-09-08T08:47:38.000Z</time>
      </trkpt>
      <trkpt lat="48.693456" lon="10.035023">
        <ele>560.365465</ele>
        <time>2024-09-08T08:47:41.000Z</time>
      </trkpt>
      <trkpt lat="48.693448" lon="10.034855">
        <ele>561.251762</ele>
        <time>2024-09-08T08:47:44.000Z</time>
      </trkpt>
      <trkpt lat="48.693436" lon="10.034689">
        <ele>562.130460</ele>
        <time>2024-09-08T08:47:47.000Z</time>
      </trkpt>
      <trkpt lat="48.693439" lon="10.034520">
        <ele>563.020043</ele>
        <time>2024-09-08T08:47:50.000Z</time>
      </trkpt>
      <trkpt lat="48.693432" lon="10.034351">
        <ele>563.911054</ele>
        <time>2024-09-08T08:47:53.000Z</time>
      </trkpt>
      <trkpt lat="48.693413" lon="10.034180">
        <ele>564.823498</ele>
        <time>2024-09-08T08:47:56.000Z</time>
      </trkpt>
      <trkpt lat="48.693395" lon="10.034009">
        <ele>565.734653</ele>
        <time>2024-09-08T08:47:59.000Z</time>
      </trkpt>
      <trkpt lat="48.693375" lon="10.033864">
        <ele>566.514109</ele>
        <time>2024-09-08T08:48:02.000Z</time>
      </trkpt>
      <trkpt lat="48.693362" lon="10.033720">
        <ele>567.278878</ele>
        <time>2024-09-08T08:48:05.000Z</time>
      </trkpt>
      <trkpt lat="48.693349" lon="10.033532">
        <ele>568.273531</ele>
        <time>2024-09-08T08:48:09.000Z</time>
      </trkpt>
      <trkpt lat="48.693326" lon="10.033395">
        <ele>569.017363</ele>
        <time>2024-09-08T08:48:12.000Z</time>
      </trkpt>
      <trkpt lat="48.693315" lon="10.033219">
        <ele>569.947603</ele>
        <time>2024-09-08T08:48:16.000Z</time>
      </trkpt>
      <trkpt lat="48.693298" lon="10.033063">
        <ele>570.779573</ele>
        <time>2024-09-08T08:48:20.000Z</time>
      </trkpt>
      <trkpt lat="48.693283" lon="10.032913">
        <ele>571.577867</ele>
        <time>2024-09-08T08:48:24.000Z</time>
      </trkpt>
      <trkpt lat="48.693280" lon="10.032760">
        <ele>572.383296</ele>
        <time>2024-09-08T08:48:27.999Z</time>
      </trkpt>
      <trkpt lat="48.693268" lon="10.032600">
        <ele>573.230620</ele>
        <time>2024-09-08T08:48:31.999Z</time>
      </trkpt>
      <trkpt lat="48.693258" lon="10.032429">
        <ele>574.205203</ele>
        <time>2024-09-08T08:48:35.999Z</time>
      </trkpt>
      <trkpt lat="48.693232" lon="10.032258">
        <ele>575.261988</ele>
        <time>2024-09-08T08:48:39.999Z</time>
      </trkpt>
      <trkpt lat="48.693219" lon="10.032091">
        <ele>576.274686</ele>
        <time>2024-09-08T08:48:43.999Z</time>
      </trkpt>
      <trkpt lat="48.693196" lon="10.031928">
        <ele>577.278503</ele>
        <time>2024-09-08T08:48:47.999Z</time>
      </trkpt>
      <trkpt lat="48.693167" lon="10.031745">
        <ele>578.411904</ele>
        <time>2024-09-08T08:48:50.999Z</time>
      </trkpt>
      <trkpt lat="48.693152" lon="10.031595">
        <ele>579.325562</ele>
        <time>2024-09-08T08:48:53.999Z</time>
      </trkpt>
      <trkpt lat="48.693135" lon="10.031441">
        <ele>580.265882</ele>
        <time>2024-09-08T08:48:56.999Z</time>
      </trkpt>
      <trkpt lat="48.693121" lon="10.031294">
        <ele>581.160332</ele>
        <time>2024-09-08T08:48:59.999Z</time>
      </trkpt>
      <trkpt lat="48.693118" lon="10.031156">
        <ele>581.991866</ele>
        <time>2024-09-08T08:49:02.999Z</time>
      </trkpt>
      <trkpt lat="48.693126" lon="10.031015">
        <ele>582.844147</ele>
        <time>2024-09-08T08:49:05.999Z</time>
      </trkpt>
      <trkpt lat="48.693145" lon="10.030847">
        <ele>583.870642</ele>
        <time>2024-09-08T08:49:09.999Z</time>
      </trkpt>
      <trkpt lat="48.693177" lon="10.030696">
        <ele>584.825731</ele>
        <time>2024-09-08T08:49:13.999Z</time>
      </trkpt>
      <trkpt lat="48.693226" lon="10.030535">
        <ele>585.893424</ele>
        <time>2024-09-08T08:49:17.999Z</time>
      </trkpt>
      <trkpt lat="48.693262" lon="10.030403">
        <ele>586.753551</ele>
        <time>2024-09-08T08:49:20.999Z</time>
      </trkpt>
      <trkpt lat="48.693302" lon="10.030275">
        <ele>587.606429</ele>
        <time>2024-09-08T08:49:23.999Z</time>
      </trkpt>
      <trkpt lat="48.693339" lon="10.030132">
        <ele>588.531417</ele>
        <time>2024-09-08T08:49:26.999Z</time>
      </trkpt>
      <trkpt lat="48.693377" lon="10.029985">
        <ele>589.482162</ele>
        <time>2024-09-08T08:49:30.000Z</time>
      </trkpt>
      <trkpt lat="48.693409" lon="10.029832">
        <ele>590.496167</ele>
        <time>2024-09-08T08:49:33.000Z</time>
      </trkpt>
      <trkpt lat="48.693458" lon="10.029708">
        <ele>591.470253</ele>
        <time>2024-09-08T08:49:36.000Z</time>
      </trkpt>
      <trkpt lat="48.693509" lon="10.029557">
        <ele>592.613494</ele>
        <time>2024-09-08T08:49:39.000Z</time>
      </trkpt>
      <trkpt lat="48.693552" lon="10.029402">
        <ele>593.746719</ele>
        <time>2024-09-08T08:49:43.000Z</time>
      </trkpt>
      <trkpt lat="48.693592" lon="10.029264">
        <ele>594.762571</ele>
        <time>2024-09-08T08:49:47.000Z</time>
      </trkpt>
      <trkpt lat="48.693638" lon="10.029134">
        <ele>595.756732</ele>
        <time>2024-09-08T08:49:49.000Z</time>
      </trkpt>
      <trkpt lat="48.693681" lon="10.029011">
        <ele>596.694849</ele>
        <time>2024-09-08T08:49:51.000Z</time>
      </trkpt>
      <trkpt lat="48.693737" lon="10.028867">
        <ele>597.821332</ele>
        <time>2024-09-08T08:49:54.000Z</time>
      </trkpt>
      <trkpt lat="48.693790" lon="10.028711">
        <ele>599.003875</ele>
        <time>2024-09-08T08:49:57.000Z</time>
      </trkpt>
      <trkpt lat="48.693836" lon="10.028575">
        <ele>600.033852</ele>
        <time>2024-09-08T08:50:00.000Z</time>
      </trkpt>
      <trkpt lat="48.693865" lon="10.028439">
        <ele>600.997137</ele>
        <time>2024-09-08T08:50:03.000Z</time>
      </trkpt>
      <trkpt lat="48.693917" lon="10.028304">
        <ele>602.050629</ele>
        <time>2024-09-08T08:50:06.000Z</time>
      </trkpt>
      <trkpt lat="48.693963" lon="10.028128">
        <ele>603.326476</ele>
        <time>2024-09-08T08:50:11.000Z</time>
      </trkpt>
      <trkpt lat="48.694003" lon="10.027978">
        <ele>604.416862</ele>
        <time>2024-09-08T08:50:14.000Z</time>
      </trkpt>
      <trkpt lat="48.694052" lon="10.027845">
        <ele>605.443458</ele>
        <time>2024-09-08T08:50:17.000Z</time>
      </trkpt>
      <trkpt lat="48.694100" lon="10.027704">
        <ele>606.512739</ele>
        <time>2024-09-08T08:50:20.000Z</time>
      </trkpt>
      <trkpt lat="48.694143" lon="10.027552">
        <ele>607.627340</ele>
        <time>2024-09-08T08:50:23.000Z</time>
      </trkpt>
      <trkpt lat="48.694187" lon="10.027408">
        <ele>608.614540</ele>
        <time>2024-09-08T08:50:26.000Z</time>
      </trkpt>
      <trkpt lat="48.694237" lon="10.027255">
        <ele>609.427568</ele>
        <time>2024-09-08T08:50:30.000Z</time>
      </trkpt>
      <trkpt lat="48.694290" lon="10.027103">
        <ele>610.246214</ele>
        <time>2024-09-08T08:50:34.000Z</time>
      </trkpt>
      <trkpt lat="48.694337" lon="10.026950">
        <ele>611.049872</ele>
        <time>2024-09-08T08:50:38.000Z</time>
      </trkpt>
      <trkpt lat="48.694379" lon="10.026788">
        <ele>611.878725</ele>
        <time>2024-09-08T08:50:41.000Z</time>
      </trkpt>
      <trkpt lat="48.694417" lon="10.026662">
        <ele>612.538428</ele>
        <time>2024-09-08T08:50:43.000Z</time>
      </trkpt>
      <trkpt lat="48.694472" lon="10.026484">
        <ele>613.474378</ele>
        <time>2024-09-08T08:50:45.999Z</time>
      </trkpt>
      <trkpt lat="48.694520" lon="10.026303">
        <ele>614.403301</ele>
        <time>2024-09-08T08:50:48.999Z</time>
      </trkpt>
      <trkpt lat="48.694566" lon="10.026144">
        <ele>615.230026</ele>
        <time>2024-09-08T08:50:51.999Z</time>
      </trkpt>
      <trkpt lat="48.694622" lon="10.025980">
        <ele>616.109339</ele>
        <time>2024-09-08T08:50:54.999Z</time>
      </trkpt>
      <trkpt lat="48.694679" lon="10.025809">
        <ele>617.021618</ele>
        <time>2024-09-08T08:50:58.999Z</time>
      </trkpt>
      <trkpt lat="48.694724" lon="10.025648">
        <ele>617.854234</ele>
        <time>2024-09-08T08:51:01.999Z</time>
      </trkpt>
      <trkpt lat="48.694769" lon="10.025528">
        <ele>618.511479</ele>
        <time>2024-09-08T08:51:04.999Z</time>
      </trkpt>
      <trkpt lat="48.694834" lon="10.025337">
        <ele>619.534827</ele>
        <time>2024-09-08T08:51:07.999Z</time>
      </trkpt>
      <trkpt lat="48.694898" lon="10.025236">
        <ele>620.201567</ele>
        <time>2024-09-08T08:51:10.999Z</time>
      </trkpt>
      <trkpt lat="48.694968" lon="10.025120">
        <ele>620.950037</ele>
        <time>2024-09-08T08:51:12.999Z</time>
      </trkpt>
      <trkpt lat="48.695045" lon="10.024965">
        <ele>621.553829</ele>
        <time>2024-09-08T08:51:15.999Z</time>
      </trkpt>
      <trkpt lat="48.695107" lon="10.024860">
        <ele>621.778276</ele>
        <time>2024-09-08T08:51:17.999Z</time>
      </trkpt>
      <trkpt lat="48.695168" lon="10.024752">
        <ele>622.004730</ele>
        <time>2024-09-08T08:51:19.999Z</time>
      </trkpt>
      <trkpt lat="48.695229" lon="10.024640">
        <ele>622.236063</ele>
        <time>2024-09-08T08:51:21.999Z</time>
      </trkpt>
      <trkpt lat="48.695286" lon="10.024522">
        <ele>622.469017</ele>
        <time>2024-09-08T08:51:23.999Z</time>
      </trkpt>
      <trkpt lat="48.695345" lon="10.024408">
        <ele>622.699807</ele>
        <time>2024-09-08T08:51:25.999Z</time>
      </trkpt>
      <trkpt lat="48.695403" lon="10.024281">
        <ele>622.945844</ele>
        <time>2024-09-08T08:51:27.999Z</time>
      </trkpt>
      <trkpt lat="48.695452" lon="10.024156">
        <ele>623.177457</ele>
        <time>2024-09-08T08:51:29.999Z</time>
      </trkpt>
      <trkpt lat="48.695511" lon="10.024009">
        <ele>623.451545</ele>
        <time>2024-09-08T08:51:31.999Z</time>
      </trkpt>
      <trkpt lat="48.695599" lon="10.023880">
        <ele>623.747094</ele>
        <time>2024-09-08T08:51:34.000Z</time>
      </trkpt>
      <trkpt lat="48.695643" lon="10.023728">
        <ele>624.011514</ele>
        <time>2024-09-08T08:51:36.000Z</time>
      </trkpt>
      <trkpt lat="48.695687" lon="10.023551">
        <ele>624.312833</ele>
        <time>2024-09-08T08:51:38.000Z</time>
      </trkpt>
      <trkpt lat="48.695725" lon="10.023371">
        <ele>624.613907</ele>
        <time>2024-09-08T08:51:40.000Z</time>
      </trkpt>
      <trkpt lat="48.695758" lon="10.023186">
        <ele>624.919208</ele>
        <time>2024-09-08T08:51:42.000Z</time>
      </trkpt>
      <trkpt lat="48.695774" lon="10.022995">
        <ele>625.225936</ele>
        <time>2024-09-08T08:51:44.000Z</time>
      </trkpt>
      <trkpt lat="48.695821" lon="10.022808">
        <ele>625.544718</ele>
        <time>2024-09-08T08:51:46.000Z</time>
      </trkpt>
      <trkpt lat="48.695854" lon="10.022606">
        <ele>625.769841</ele>
        <time>2024-09-08T08:51:48.000Z</time>
      </trkpt>
      <trkpt lat="48.695888" lon="10.022402">
        <ele>625.853985</ele>
        <time>2024-09-08T08:51:50.000Z</time>
      </trkpt>
      <trkpt lat="48.695925" lon="10.022176">
        <ele>625.947106</ele>
        <time>2024-09-08T08:51:52.000Z</time>
      </trkpt>
      <trkpt lat="48.695965" lon="10.021943">
        <ele>626.043388</ele>
        <time>2024-09-08T08:51:54.000Z</time>
      </trkpt>
      <trkpt lat="48.696006" lon="10.021706">
        <ele>626.141371</ele>
        <time>2024-09-08T08:51:56.000Z</time>
      </trkpt>
      <trkpt lat="48.696042" lon="10.021472">
        <ele>626.237461</ele>
        <time>2024-09-08T08:51:58.000Z</time>
      </trkpt>
      <trkpt lat="48.696078" lon="10.021235">
        <ele>626.334719</ele>
        <time>2024-09-08T08:52:00.000Z</time>
      </trkpt>
      <trkpt lat="48.696125" lon="10.021009">
        <ele>626.429481</ele>
        <time>2024-09-08T08:52:02.000Z</time>
      </trkpt>
      <trkpt lat="48.696178" lon="10.020798">
        <ele>626.519768</ele>
        <time>2024-09-08T08:52:04.000Z</time>
      </trkpt>
      <trkpt lat="48.696228" lon="10.020619">
        <ele>626.597500</ele>
        <time>2024-09-08T08:52:06.000Z</time>
      </trkpt>
      <trkpt lat="48.696281" lon="10.020440">
        <ele>626.675958</ele>
        <time>2024-09-08T08:52:08.000Z</time>
      </trkpt>
      <trkpt lat="48.696336" lon="10.020269">
        <ele>626.752031</ele>
        <time>2024-09-08T08:52:10.000Z</time>
      </trkpt>
      <trkpt lat="48.696368" lon="10.020117">
        <ele>626.815836</ele>
        <time>2024-09-08T08:52:12.000Z</time>
      </trkpt>
      <trkpt lat="48.696423" lon="10.019999">
        <ele>627.172303</ele>
        <time>2024-09-08T08:52:14.000Z</time>
      </trkpt>
      <trkpt lat="48.696462" lon="10.019876">
        <ele>627.555210</ele>
        <time>2024-09-08T08:52:16.000Z</time>
      </trkpt>
      <trkpt lat="48.696490" lon="10.019744">
        <ele>627.944270</ele>
        <time>2024-09-08T08:52:18.000Z</time>
      </trkpt>
      <trkpt lat="48.696527" lon="10.019613">
        <ele>628.344107</ele>
        <time>2024-09-08T08:52:20.000Z</time>
      </trkpt>
      <trkpt lat="48.696577" lon="10.019468">
        <ele>628.803168</ele>
        <time>2024-09-08T08:52:22.000Z</time>
      </trkpt>
      <trkpt lat="48.696620" lon="10.019324">
        <ele>629.246671</ele>
        <time>2024-09-08T08:52:24.000Z</time>
      </trkpt>
      <trkpt lat="48.696669" lon="10.019202">
        <ele>629.647410</ele>
        <time>2024-09-08T08:52:26.000Z</time>
      </trkpt>
      <trkpt lat="48.696710" lon="10.019058">
        <ele>630.087476</ele>
        <time>2024-09-08T08:52:28.000Z</time>
      </trkpt>
      <trkpt lat="48.696757" lon="10.018910">
        <ele>630.548342</ele>
        <time>2024-09-08T08:52:30.000Z</time>
      </trkpt>
      <trkpt lat="48.696806" lon="10.018775">
        <ele>630.980659</ele>
        <time>2024-09-08T08:52:32.000Z</time>
      </trkpt>
      <trkpt lat="48.696851" lon="10.018622">
        <ele>631.450682</ele>
        <time>2024-09-08T08:52:33.999Z</time>
      </trkpt>
      <trkpt lat="48.696902" lon="10.018471">
        <ele>631.926648</ele>
        <time>2024-09-08T08:52:35.999Z</time>
      </trkpt>
      <trkpt lat="48.696945" lon="10.018319">
        <ele>632.390694</ele>
        <time>2024-09-08T08:52:37.999Z</time>
      </trkpt>
      <trkpt lat="48.696993" lon="10.018162">
        <ele>632.876210</ele>
        <time>2024-09-08T08:52:39.999Z</time>
      </trkpt>
      <trkpt lat="48.697047" lon="10.018010">
        <ele>633.360589</ele>
        <time>2024-09-08T08:52:41.999Z</time>
      </trkpt>
      <trkpt lat="48.697095" lon="10.017850">
        <ele>633.853756</ele>
        <time>2024-09-08T08:52:43.999Z</time>
      </trkpt>
      <trkpt lat="48.697161" lon="10.017697">
        <ele>634.366639</ele>
        <time>2024-09-08T08:52:45.999Z</time>
      </trkpt>
      <trkpt lat="48.697215" lon="10.017526">
        <ele>634.668470</ele>
        <time>2024-09-08T08:52:47.999Z</time>
      </trkpt>
      <trkpt lat="48.697254" lon="10.017345">
        <ele>634.915503</ele>
        <time>2024-09-08T08:52:49.999Z</time>
      </trkpt>
      <trkpt lat="48.697299" lon="10.017176">
        <ele>635.151940</ele>
        <time>2024-09-08T08:52:51.999Z</time>
      </trkpt>
      <trkpt lat="48.697346" lon="10.017008">
        <ele>635.388681</ele>
        <time>2024-09-08T08:52:53.999Z</time>
      </trkpt>
      <trkpt lat="48.697400" lon="10.016826">
        <ele>635.647575</ele>
        <time>2024-09-08T08:52:55.999Z</time>
      </trkpt>
      <trkpt lat="48.697434" lon="10.016633">
        <ele>635.906745</ele>
        <time>2024-09-08T08:52:57.999Z</time>
      </trkpt>
      <trkpt lat="48.697462" lon="10.016445">
        <ele>636.156796</ele>
        <time>2024-09-08T08:52:59.999Z</time>
      </trkpt>
      <trkpt lat="48.697476" lon="10.016236">
        <ele>636.429352</ele>
        <time>2024-09-08T08:53:01.999Z</time>
      </trkpt>
      <trkpt lat="48.697520" lon="10.016050">
        <ele>636.685705</ele>
        <time>2024-09-08T08:53:03.999Z</time>
      </trkpt>
      <trkpt lat="48.697549" lon="10.015846">
        <ele>636.956450</ele>
        <time>2024-09-08T08:53:05.999Z</time>
      </trkpt>
      <trkpt lat="48.697578" lon="10.015635">
        <ele>637.236080</ele>
        <time>2024-09-08T08:53:07.999Z</time>
      </trkpt>
      <trkpt lat="48.697597" lon="10.015423">
        <ele>637.513659</ele>
        <time>2024-09-08T08:53:09.999Z</time>
      </trkpt>
      <trkpt lat="48.697623" lon="10.015224">
        <ele>637.776858</ele>
        <time>2024-09-08T08:53:11.999Z</time>
      </trkpt>
      <trkpt lat="48.697661" lon="10.015029">
        <ele>638.107070</ele>
        <time>2024-09-08T08:53:13.999Z</time>
      </trkpt>
      <trkpt lat="48.697698" lon="10.014829">
        <ele>638.895796</ele>
        <time>2024-09-08T08:53:15.999Z</time>
      </trkpt>
      <trkpt lat="48.697748" lon="10.014640">
        <ele>639.668986</ele>
        <time>2024-09-08T08:53:17.999Z</time>
      </trkpt>
      <trkpt lat="48.697781" lon="10.014451">
        <ele>640.411359</ele>
        <time>2024-09-08T08:53:19.999Z</time>
      </trkpt>
      <trkpt lat="48.697827" lon="10.014273">
        <ele>641.137238</ele>
        <time>2024-09-08T08:53:21.999Z</time>
      </trkpt>
      <trkpt lat="48.697872" lon="10.014093">
        <ele>641.868135</ele>
        <time>2024-09-08T08:53:23.999Z</time>
      </trkpt>
      <trkpt lat="48.697914" lon="10.013917">
        <ele>642.578796</ele>
        <time>2024-09-08T08:53:25.999Z</time>
      </trkpt>
      <trkpt lat="48.697956" lon="10.013746">
        <ele>643.271631</ele>
        <time>2024-09-08T08:53:27.999Z</time>
      </trkpt>
      <trkpt lat="48.697994" lon="10.013581">
        <ele>643.935226</ele>
        <time>2024-09-08T08:53:29.999Z</time>
      </trkpt>
      <trkpt lat="48.698033" lon="10.013424">
        <ele>644.572221</ele>
        <time>2024-09-08T08:53:31.999Z</time>
      </trkpt>
      <trkpt lat="48.698080" lon="10.013240">
        <ele>645.321415</ele>
        <time>2024-09-08T08:53:34.999Z</time>
      </trkpt>
      <trkpt lat="48.698124" lon="10.013074">
        <ele>646.000690</ele>
        <time>2024-09-08T08:53:37.999Z</time>
      </trkpt>
      <trkpt lat="48.698169" lon="10.012896">
        <ele>646.724486</ele>
        <time>2024-09-08T08:53:41.000Z</time>
      </trkpt>
      <trkpt lat="48.698223" lon="10.012740">
        <ele>647.393381</ele>
        <time>2024-09-08T08:53:44.000Z</time>
      </trkpt>
      <trkpt lat="48.698270" lon="10.012565">
        <ele>648.110807</ele>
        <time>2024-09-08T08:53:47.000Z</time>
      </trkpt>
      <trkpt lat="48.698324" lon="10.012427">
        <ele>648.699819</ele>
        <time>2024-09-08T08:53:50.000Z</time>
      </trkpt>
      <trkpt lat="48.698374" lon="10.012272">
        <ele>649.318798</ele>
        <time>2024-09-08T08:53:53.000Z</time>
      </trkpt>
      <trkpt lat="48.698428" lon="10.012101">
        <ele>649.998922</ele>
        <time>2024-09-08T08:53:56.000Z</time>
      </trkpt>
      <trkpt lat="48.698493" lon="10.011939">
        <ele>650.679120</ele>
        <time>2024-09-08T08:53:59.000Z</time>
      </trkpt>
      <trkpt lat="48.698558" lon="10.011770">
        <ele>651.380899</ele>
        <time>2024-09-08T08:54:02.000Z</time>
      </trkpt>
      <trkpt lat="48.698622" lon="10.011600">
        <ele>652.083070</ele>
        <time>2024-09-08T08:54:05.000Z</time>
      </trkpt>
      <trkpt lat="48.698691" lon="10.011433">
        <ele>652.789950</ele>
        <time>2024-09-08T08:54:08.000Z</time>
      </trkpt>
      <trkpt lat="48.698738" lon="10.011314">
        <ele>653.287503</ele>
        <time>2024-09-08T08:54:10.000Z</time>
      </trkpt>
      <trkpt lat="48.698782" lon="10.011188">
        <ele>653.798939</ele>
        <time>2024-09-08T08:54:12.000Z</time>
      </trkpt>
      <trkpt lat="48.698852" lon="10.011009">
        <ele>654.545418</ele>
        <time>2024-09-08T08:54:15.000Z</time>
      </trkpt>
      <trkpt lat="48.698888" lon="10.010877">
        <ele>655.057845</ele>
        <time>2024-09-08T08:54:17.000Z</time>
      </trkpt>
      <trkpt lat="48.698931" lon="10.010750">
        <ele>655.569950</ele>
        <time>2024-09-08T08:54:19.000Z</time>
      </trkpt>
      <trkpt lat="48.698968" lon="10.010617">
        <ele>656.087781</ele>
        <time>2024-09-08T08:54:21.000Z</time>
      </trkpt>
      <trkpt lat="48.699000" lon="10.010480">
        <ele>656.609179</ele>
        <time>2024-09-08T08:54:23.000Z</time>
      </trkpt>
      <trkpt lat="48.699032" lon="10.010345">
        <ele>657.123818</ele>
        <time>2024-09-08T08:54:25.000Z</time>
      </trkpt>
      <trkpt lat="48.699060" lon="10.010209">
        <ele>657.634943</ele>
        <time>2024-09-08T08:54:27.000Z</time>
      </trkpt>
      <trkpt lat="48.699096" lon="10.010016">
        <ele>658.332441</ele>
        <time>2024-09-08T08:54:29.999Z</time>
      </trkpt>
      <trkpt lat="48.699138" lon="10.009827">
        <ele>658.977185</ele>
        <time>2024-09-08T08:54:32.999Z</time>
      </trkpt>
      <trkpt lat="48.699166" lon="10.009693">
        <ele>659.431600</ele>
        <time>2024-09-08T08:54:34.999Z</time>
      </trkpt>
      <trkpt lat="48.699199" lon="10.009562">
        <ele>659.884924</ele>
        <time>2024-09-08T08:54:36.999Z</time>
      </trkpt>
      <trkpt lat="48.699221" lon="10.009428">
        <ele>660.331348</ele>
        <time>2024-09-08T08:54:38.999Z</time>
      </trkpt>
      <trkpt lat="48.699258" lon="10.009296">
        <ele>660.794996</ele>
        <time>2024-09-08T08:54:40.999Z</time>
      </trkpt>
      <trkpt lat="48.699282" lon="10.009159">
        <ele>661.253253</ele>
        <time>2024-09-08T08:54:42.999Z</time>
      </trkpt>
      <trkpt lat="48.699312" lon="10.009031">
        <ele>661.692394</ele>
        <time>2024-09-08T08:54:44.999Z</time>
      </trkpt>
      <trkpt lat="48.699340" lon="10.008898">
        <ele>662.143727</ele>
        <time>2024-09-08T08:54:46.999Z</time>
      </trkpt>
      <trkpt lat="48.699382" lon="10.008709">
        <ele>662.788467</ele>
        <time>2024-09-08T08:54:49.999Z</time>
      </trkpt>
      <trkpt lat="48.699413" lon="10.008565">
        <ele>663.278157</ele>
        <time>2024-09-08T08:54:51.999Z</time>
      </trkpt>
      <trkpt lat="48.699474" lon="10.008390">
        <ele>663.917987</ele>
        <time>2024-09-08T08:54:54.999Z</time>
      </trkpt>
      <trkpt lat="48.699519" lon="10.008270">
        <ele>664.364193</ele>
        <time>2024-09-08T08:54:56.999Z</time>
      </trkpt>
      <trkpt lat="48.699569" lon="10.008154">
        <ele>664.812110</ele>
        <time>2024-09-08T08:54:58.999Z</time>
      </trkpt>
      <trkpt lat="48.699658" lon="10.007998">
        <ele>665.478760</ele>
        <time>2024-09-08T08:55:01.999Z</time>
      </trkpt>
      <trkpt lat="48.699733" lon="10.007846">
        <ele>666.092318</ele>
        <time>2024-09-08T08:55:04.999Z</time>
      </trkpt>
      <trkpt lat="48.699807" lon="10.007712">
        <ele>666.657181</ele>
        <time>2024-09-08T08:55:07.999Z</time>
      </trkpt>
      <trkpt lat="48.699870" lon="10.007586">
        <ele>667.381114</ele>
        <time>2024-09-08T08:55:10.999Z</time>
      </trkpt>
      <trkpt lat="48.699933" lon="10.007484">
        <ele>668.257449</ele>
        <time>2024-09-08T08:55:13.999Z</time>
      </trkpt>
      <trkpt lat="48.699989" lon="10.007376">
        <ele>669.119014</ele>
        <time>2024-09-08T08:55:16.999Z</time>
      </trkpt>
      <trkpt lat="48.700054" lon="10.007258">
        <ele>670.083174</ele>
        <time>2024-09-08T08:55:19.999Z</time>
      </trkpt>
      <trkpt lat="48.700119" lon="10.007137">
        <ele>671.061855</ele>
        <time>2024-09-08T08:55:22.999Z</time>
      </trkpt>
      <trkpt lat="48.700181" lon="10.007022">
        <ele>671.993346</ele>
        <time>2024-09-08T08:55:25.999Z</time>
      </trkpt>
      <trkpt lat="48.700247" lon="10.006906">
        <ele>672.954085</ele>
        <time>2024-09-08T08:55:28.999Z</time>
      </trkpt>
      <trkpt lat="48.700318" lon="10.006769">
        <ele>674.046774</ele>
        <time>2024-09-08T08:55:32.999Z</time>
      </trkpt>
      <trkpt lat="48.700381" lon="10.006661">
        <ele>674.950952</ele>
        <time>2024-09-08T08:55:35.999Z</time>
      </trkpt>
      <trkpt lat="48.700445" lon="10.006548">
        <ele>675.885024</ele>
        <time>2024-09-08T08:55:38.999Z</time>
      </trkpt>
      <trkpt lat="48.700500" lon="10.006427">
        <ele>676.806655</ele>
        <time>2024-09-08T08:55:42.999Z</time>
      </trkpt>
      <trkpt lat="48.700558" lon="10.006314">
        <ele>677.704632</ele>
        <time>2024-09-08T08:55:47.000Z</time>
      </trkpt>
      <trkpt lat="48.700627" lon="10.006203">
        <ele>678.661154</ele>
        <time>2024-09-08T08:55:51.000Z</time>
      </trkpt>
      <trkpt lat="48.700698" lon="10.006068">
        <ele>679.743998</ele>
        <time>2024-09-08T08:55:55.000Z</time>
      </trkpt>
      <trkpt lat="48.700779" lon="10.005935">
        <ele>680.879239</ele>
        <time>2024-09-08T08:55:59.000Z</time>
      </trkpt>
      <trkpt lat="48.700838" lon="10.005818">
        <ele>681.802888</ele>
        <time>2024-09-08T08:56:02.000Z</time>
      </trkpt>
      <trkpt lat="48.700990" lon="10.005551">
        <ele>684.014760</ele>
        <time>2024-09-08T08:56:04.000Z</time>
      </trkpt>
      <trkpt lat="48.701062" lon="10.005418">
        <ele>684.467942</ele>
        <time>2024-09-08T08:56:07.000Z</time>
      </trkpt>
      <trkpt lat="48.701131" lon="10.005262">
        <ele>684.948134</ele>
        <time>2024-09-08T08:56:10.000Z</time>
      </trkpt>
      <trkpt lat="48.701193" lon="10.005097">
        <ele>685.433633</ele>
        <time>2024-09-08T08:56:13.000Z</time>
      </trkpt>
      <trkpt lat="48.701205" lon="10.004933">
        <ele>685.855555</ele>
        <time>2024-09-08T08:56:16.000Z</time>
      </trkpt>
      <trkpt lat="48.701243" lon="10.004744">
        <ele>686.360761</ele>
        <time>2024-09-08T08:56:19.000Z</time>
      </trkpt>
      <trkpt lat="48.701252" lon="10.004602">
        <ele>686.725529</ele>
        <time>2024-09-08T08:56:21.000Z</time>
      </trkpt>
      <trkpt lat="48.701263" lon="10.004458">
        <ele>687.096199</ele>
        <time>2024-09-08T08:56:23.000Z</time>
      </trkpt>
      <trkpt lat="48.701256" lon="10.004258">
        <ele>687.608322</ele>
        <time>2024-09-08T08:56:26.000Z</time>
      </trkpt>
      <trkpt lat="48.701246" lon="10.004110">
        <ele>687.988740</ele>
        <time>2024-09-08T08:56:28.000Z</time>
      </trkpt>
      <trkpt lat="48.701239" lon="10.003906">
        <ele>688.511078</ele>
        <time>2024-09-08T08:56:31.000Z</time>
      </trkpt>
      <trkpt lat="48.701225" lon="10.003709">
        <ele>689.017724</ele>
        <time>2024-09-08T08:56:34.000Z</time>
      </trkpt>
      <trkpt lat="48.701212" lon="10.003512">
        <ele>689.523970</ele>
        <time>2024-09-08T08:56:36.999Z</time>
      </trkpt>
      <trkpt lat="48.701199" lon="10.003314">
        <ele>690.032760</ele>
        <time>2024-09-08T08:56:39.999Z</time>
      </trkpt>
      <trkpt lat="48.701190" lon="10.003136">
        <ele>690.489245</ele>
        <time>2024-09-08T08:56:42.999Z</time>
      </trkpt>
      <trkpt lat="48.701177" lon="10.002980">
        <ele>690.891308</ele>
        <time>2024-09-08T08:56:45.999Z</time>
      </trkpt>
      <trkpt lat="48.701174" lon="10.002813">
        <ele>690.941288</ele>
        <time>2024-09-08T08:56:50.999Z</time>
      </trkpt>
      <trkpt lat="48.701164" lon="10.002674">
        <ele>690.867446</ele>
        <time>2024-09-08T08:56:54.999Z</time>
      </trkpt>
      <trkpt lat="48.701134" lon="10.002531">
        <ele>690.788202</ele>
        <time>2024-09-08T08:57:00.999Z</time>
      </trkpt>
      <trkpt lat="48.701135" lon="10.002683">
        <ele>690.707924</ele>
        <time>2024-09-08T08:57:04.999Z</time>
      </trkpt>
      <trkpt lat="48.701139" lon="10.002831">
        <ele>690.629698</ele>
        <time>2024-09-08T08:57:07.999Z</time>
      </trkpt>
      <trkpt lat="48.700967" lon="10.003053">
        <ele>690.448899</ele>
        <time>2024-09-08T09:00:03.999Z</time>
      </trkpt>
      <trkpt lat="48.700862" lon="10.003073">
        <ele>690.364218</ele>
        <time>2024-09-08T09:00:05.999Z</time>
      </trkpt>
      <trkpt lat="48.700747" lon="10.003090">
        <ele>690.271759</ele>
        <time>2024-09-08T09:00:07.999Z</time>
      </trkpt>
      <trkpt lat="48.700614" lon="10.003069">
        <ele>690.164758</ele>
        <time>2024-09-08T09:00:09.999Z</time>
      </trkpt>
      <trkpt lat="48.700491" lon="10.003141">
        <ele>690.059245</ele>
        <time>2024-09-08T09:00:11.999Z</time>
      </trkpt>
      <trkpt lat="48.700354" lon="10.003177">
        <ele>689.947982</ele>
        <time>2024-09-08T09:00:13.999Z</time>
      </trkpt>
      <trkpt lat="48.700214" lon="10.003207">
        <ele>689.834841</ele>
        <time>2024-09-08T09:00:15.999Z</time>
      </trkpt>
      <trkpt lat="48.700065" lon="10.003239">
        <ele>689.714421</ele>
        <time>2024-09-08T09:00:17.999Z</time>
      </trkpt>
      <trkpt lat="48.699919" lon="10.003231">
        <ele>689.597517</ele>
        <time>2024-09-08T09:00:19.999Z</time>
      </trkpt>
      <trkpt lat="48.699773" lon="10.003265">
        <ele>689.562775</ele>
        <time>2024-09-08T09:00:21.999Z</time>
      </trkpt>
      <trkpt lat="48.699629" lon="10.003299">
        <ele>689.557661</ele>
        <time>2024-09-08T09:00:23.999Z</time>
      </trkpt>
      <trkpt lat="48.699483" lon="10.003333">
        <ele>689.552477</ele>
        <time>2024-09-08T09:00:25.999Z</time>
      </trkpt>
      <trkpt lat="48.699338" lon="10.003367">
        <ele>689.547327</ele>
        <time>2024-09-08T09:00:27.999Z</time>
      </trkpt>
      <trkpt lat="48.699197" lon="10.003399">
        <ele>689.542324</ele>
        <time>2024-09-08T09:00:29.999Z</time>
      </trkpt>
      <trkpt lat="48.699054" lon="10.003434">
        <ele>689.537241</ele>
        <time>2024-09-08T09:00:31.999Z</time>
      </trkpt>
      <trkpt lat="48.698909" lon="10.003494">
        <ele>689.531966</ele>
        <time>2024-09-08T09:00:33.999Z</time>
      </trkpt>
      <trkpt lat="48.698766" lon="10.003505">
        <ele>689.526941</ele>
        <time>2024-09-08T09:00:35.999Z</time>
      </trkpt>
      <trkpt lat="48.698633" lon="10.003562">
        <ele>689.522090</ele>
        <time>2024-09-08T09:00:37.999Z</time>
      </trkpt>
      <trkpt lat="48.698495" lon="10.003591">
        <ele>689.517201</ele>
        <time>2024-09-08T09:00:39.999Z</time>
      </trkpt>
      <trkpt lat="48.698357" lon="10.003629">
        <ele>689.512278</ele>
        <time>2024-09-08T09:00:41.999Z</time>
      </trkpt>
      <trkpt lat="48.698221" lon="10.003656">
        <ele>689.507465</ele>
        <time>2024-09-08T09:00:43.999Z</time>
      </trkpt>
      <trkpt lat="48.698084" lon="10.003691">
        <ele>689.534071</ele>
        <time>2024-09-08T09:00:45.999Z</time>
      </trkpt>
      <trkpt lat="48.697945" lon="10.003713">
        <ele>689.702151</ele>
        <time>2024-09-08T09:00:47.999Z</time>
      </trkpt>
      <trkpt lat="48.697807" lon="10.003758">
        <ele>689.871919</ele>
        <time>2024-09-08T09:00:49.999Z</time>
      </trkpt>
      <trkpt lat="48.697667" lon="10.003778">
        <ele>690.041039</ele>
        <time>2024-09-08T09:00:51.999Z</time>
      </trkpt>
      <trkpt lat="48.697521" lon="10.003816">
        <ele>690.219201</ele>
        <time>2024-09-08T09:00:53.999Z</time>
      </trkpt>
      <trkpt lat="48.697377" lon="10.003848">
        <ele>690.394237</ele>
        <time>2024-09-08T09:00:55.999Z</time>
      </trkpt>
      <trkpt lat="48.697231" lon="10.003882">
        <ele>690.571888</ele>
        <time>2024-09-08T09:00:57.999Z</time>
      </trkpt>
      <trkpt lat="48.697082" lon="10.003919">
        <ele>690.753476</ele>
        <time>2024-09-08T09:00:59.999Z</time>
      </trkpt>
      <trkpt lat="48.696935" lon="10.003955">
        <ele>690.932563</ele>
        <time>2024-09-08T09:01:01.999Z</time>
      </trkpt>
      <trkpt lat="48.696788" lon="10.003993">
        <ele>691.111910</ele>
        <time>2024-09-08T09:01:03.999Z</time>
      </trkpt>
      <trkpt lat="48.696640" lon="10.004026">
        <ele>691.291821</ele>
        <time>2024-09-08T09:01:05.999Z</time>
      </trkpt>
      <trkpt lat="48.696490" lon="10.004065">
        <ele>691.474858</ele>
        <time>2024-09-08T09:01:07.999Z</time>
      </trkpt>
      <trkpt lat="48.696336" lon="10.004103">
        <ele>691.662509</ele>
        <time>2024-09-08T09:01:09.999Z</time>
      </trkpt>
      <trkpt lat="48.696181" lon="10.004141">
        <ele>691.202618</ele>
        <time>2024-09-08T09:01:11.999Z</time>
      </trkpt>
      <trkpt lat="48.696025" lon="10.004180">
        <ele>690.724892</ele>
        <time>2024-09-08T09:01:13.999Z</time>
      </trkpt>
      <trkpt lat="48.695866" lon="10.004224">
        <ele>690.236526</ele>
        <time>2024-09-08T09:01:15.999Z</time>
      </trkpt>
      <trkpt lat="48.695704" lon="10.004277">
        <ele>689.735762</ele>
        <time>2024-09-08T09:01:17.999Z</time>
      </trkpt>
      <trkpt lat="48.695538" lon="10.004340">
        <ele>689.218697</ele>
        <time>2024-09-08T09:01:19.999Z</time>
      </trkpt>
      <trkpt lat="48.695370" lon="10.004406">
        <ele>688.694298</ele>
        <time>2024-09-08T09:01:21.999Z</time>
      </trkpt>
      <trkpt lat="48.695203" lon="10.004491">
        <ele>688.161993</ele>
        <time>2024-09-08T09:01:23.999Z</time>
      </trkpt>
      <trkpt lat="48.695034" lon="10.004583">
        <ele>687.619397</ele>
        <time>2024-09-08T09:01:25.999Z</time>
      </trkpt>
      <trkpt lat="48.694949" lon="10.004637">
        <ele>687.340903</ele>
        <time>2024-09-08T09:01:26.999Z</time>
      </trkpt>
      <trkpt lat="48.694862" lon="10.004691">
        <ele>687.056827</ele>
        <time>2024-09-08T09:01:27.999Z</time>
      </trkpt>
      <trkpt lat="48.694775" lon="10.004743">
        <ele>686.774240</ele>
        <time>2024-09-08T09:01:28.999Z</time>
      </trkpt>
      <trkpt lat="48.694686" lon="10.004800">
        <ele>686.482285</ele>
        <time>2024-09-08T09:01:29.999Z</time>
      </trkpt>
      <trkpt lat="48.694594" lon="10.004857">
        <ele>686.173307</ele>
        <time>2024-09-08T09:01:30.999Z</time>
      </trkpt>
      <trkpt lat="48.694502" lon="10.004916">
        <ele>685.819314</ele>
        <time>2024-09-08T09:01:31.999Z</time>
      </trkpt>
      <trkpt lat="48.694410" lon="10.004972">
        <ele>685.467996</ele>
        <time>2024-09-08T09:01:32.999Z</time>
      </trkpt>
      <trkpt lat="48.694316" lon="10.005032">
        <ele>685.106564</ele>
        <time>2024-09-08T09:01:33.999Z</time>
      </trkpt>
      <trkpt lat="48.694221" lon="10.005091">
        <ele>684.742757</ele>
        <time>2024-09-08T09:01:34.999Z</time>
      </trkpt>
      <trkpt lat="48.694127" lon="10.005153">
        <ele>684.379483</ele>
        <time>2024-09-08T09:01:35.999Z</time>
      </trkpt>
      <trkpt lat="48.694028" lon="10.005203">
        <ele>684.009710</ele>
        <time>2024-09-08T09:01:36.999Z</time>
      </trkpt>
      <trkpt lat="48.693932" lon="10.005264">
        <ele>683.640838</ele>
        <time>2024-09-08T09:01:37.999Z</time>
      </trkpt>
      <trkpt lat="48.693836" lon="10.005327">
        <ele>683.270132</ele>
        <time>2024-09-08T09:01:38.999Z</time>
      </trkpt>
      <trkpt lat="48.693738" lon="10.005387">
        <ele>682.895597</ele>
        <time>2024-09-08T09:01:39.999Z</time>
      </trkpt>
      <trkpt lat="48.693641" lon="10.005449">
        <ele>682.522552</ele>
        <time>2024-09-08T09:01:40.999Z</time>
      </trkpt>
      <trkpt lat="48.693544" lon="10.005510">
        <ele>682.150409</ele>
        <time>2024-09-08T09:01:41.999Z</time>
      </trkpt>
      <trkpt lat="48.693447" lon="10.005571">
        <ele>681.778266</ele>
        <time>2024-09-08T09:01:42.999Z</time>
      </trkpt>
      <trkpt lat="48.693349" lon="10.005634">
        <ele>681.401046</ele>
        <time>2024-09-08T09:01:43.999Z</time>
      </trkpt>
      <trkpt lat="48.693252" lon="10.005699">
        <ele>681.025217</ele>
        <time>2024-09-08T09:01:44.999Z</time>
      </trkpt>
      <trkpt lat="48.693154" lon="10.005758">
        <ele>680.651552</ele>
        <time>2024-09-08T09:01:45.999Z</time>
      </trkpt>
      <trkpt lat="48.693057" lon="10.005817">
        <ele>680.281177</ele>
        <time>2024-09-08T09:01:46.999Z</time>
      </trkpt>
      <trkpt lat="48.692959" lon="10.005875">
        <ele>679.908369</ele>
        <time>2024-09-08T09:01:47.999Z</time>
      </trkpt>
      <trkpt lat="48.692859" lon="10.005938">
        <ele>679.653433</ele>
        <time>2024-09-08T09:01:48.999Z</time>
      </trkpt>
      <trkpt lat="48.692758" lon="10.006000">
        <ele>679.416130</ele>
        <time>2024-09-08T09:01:49.999Z</time>
      </trkpt>
      <trkpt lat="48.692654" lon="10.006060">
        <ele>679.173797</ele>
        <time>2024-09-08T09:01:50.999Z</time>
      </trkpt>
      <trkpt lat="48.692550" lon="10.006119">
        <ele>678.931973</ele>
        <time>2024-09-08T09:01:51.999Z</time>
      </trkpt>
      <trkpt lat="48.692448" lon="10.006185">
        <ele>678.690449</ele>
        <time>2024-09-08T09:01:52.999Z</time>
      </trkpt>
      <trkpt lat="48.692345" lon="10.006250">
        <ele>678.447478</ele>
        <time>2024-09-08T09:01:53.999Z</time>
      </trkpt>
      <trkpt lat="48.692244" lon="10.006313">
        <ele>678.209631</ele>
        <time>2024-09-08T09:01:54.999Z</time>
      </trkpt>
      <trkpt lat="48.692141" lon="10.006375">
        <ele>677.968285</ele>
        <time>2024-09-08T09:01:55.999Z</time>
      </trkpt>
      <trkpt lat="48.692039" lon="10.006441">
        <ele>677.726762</ele>
        <time>2024-09-08T09:01:56.999Z</time>
      </trkpt>
      <trkpt lat="48.691936" lon="10.006507">
        <ele>677.483234</ele>
        <time>2024-09-08T09:01:57.999Z</time>
      </trkpt>
      <trkpt lat="48.691832" lon="10.006570">
        <ele>677.239333</ele>
        <time>2024-09-08T09:01:58.999Z</time>
      </trkpt>
      <trkpt lat="48.691730" lon="10.006638">
        <ele>676.996666</ele>
        <time>2024-09-08T09:01:59.999Z</time>
      </trkpt>
      <trkpt lat="48.691629" lon="10.006705">
        <ele>676.756570</ele>
        <time>2024-09-08T09:02:00.999Z</time>
      </trkpt>
      <trkpt lat="48.691527" lon="10.006776">
        <ele>676.512134</ele>
        <time>2024-09-08T09:02:01.999Z</time>
      </trkpt>
      <trkpt lat="48.691424" lon="10.006838">
        <ele>676.270787</ele>
        <time>2024-09-08T09:02:02.999Z</time>
      </trkpt>
      <trkpt lat="48.691324" lon="10.006904">
        <ele>676.033262</ele>
        <time>2024-09-08T09:02:03.999Z</time>
      </trkpt>
      <trkpt lat="48.691220" lon="10.006959">
        <ele>675.823932</ele>
        <time>2024-09-08T09:02:04.999Z</time>
      </trkpt>
      <trkpt lat="48.691122" lon="10.007023">
        <ele>675.639252</ele>
        <time>2024-09-08T09:02:05.999Z</time>
      </trkpt>
      <trkpt lat="48.691021" lon="10.007070">
        <ele>675.456406</ele>
        <time>2024-09-08T09:02:06.999Z</time>
      </trkpt>
      <trkpt lat="48.690923" lon="10.007125">
        <ele>675.275549</ele>
        <time>2024-09-08T09:02:07.999Z</time>
      </trkpt>
      <trkpt lat="48.690816" lon="10.007167">
        <ele>675.084266</ele>
        <time>2024-09-08T09:02:08.999Z</time>
      </trkpt>
      <trkpt lat="48.690710" lon="10.007202">
        <ele>674.896522</ele>
        <time>2024-09-08T09:02:09.999Z</time>
      </trkpt>
      <trkpt lat="48.690605" lon="10.007239">
        <ele>674.709964</ele>
        <time>2024-09-08T09:02:10.999Z</time>
      </trkpt>
      <trkpt lat="48.690503" lon="10.007276">
        <ele>674.528458</ele>
        <time>2024-09-08T09:02:12.000Z</time>
      </trkpt>
      <trkpt lat="48.690399" lon="10.007303">
        <ele>674.345858</ele>
        <time>2024-09-08T09:02:13.000Z</time>
      </trkpt>
      <trkpt lat="48.690293" lon="10.007320">
        <ele>674.161396</ele>
        <time>2024-09-08T09:02:14.000Z</time>
      </trkpt>
      <trkpt lat="48.690185" lon="10.007328">
        <ele>673.974274</ele>
        <time>2024-09-08T09:02:15.000Z</time>
      </trkpt>
      <trkpt lat="48.690077" lon="10.007328">
        <ele>673.787375</ele>
        <time>2024-09-08T09:02:16.000Z</time>
      </trkpt>
      <trkpt lat="48.689970" lon="10.007320">
        <ele>673.601982</ele>
        <time>2024-09-08T09:02:17.000Z</time>
      </trkpt>
      <trkpt lat="48.689864" lon="10.007305">
        <ele>673.417746</ele>
        <time>2024-09-08T09:02:18.000Z</time>
      </trkpt>
      <trkpt lat="48.689758" lon="10.007287">
        <ele>673.233160</ele>
        <time>2024-09-08T09:02:19.000Z</time>
      </trkpt>
      <trkpt lat="48.689651" lon="10.007269">
        <ele>673.046854</ele>
        <time>2024-09-08T09:02:20.000Z</time>
      </trkpt>
      <trkpt lat="48.689546" lon="10.007251">
        <ele>672.863987</ele>
        <time>2024-09-08T09:02:21.000Z</time>
      </trkpt>
      <trkpt lat="48.689439" lon="10.007231">
        <ele>672.598279</ele>
        <time>2024-09-08T09:02:22.000Z</time>
      </trkpt>
      <trkpt lat="48.689334" lon="10.007214">
        <ele>672.320472</ele>
        <time>2024-09-08T09:02:23.000Z</time>
      </trkpt>
      <trkpt lat="48.689228" lon="10.007197">
        <ele>672.040049</ele>
        <time>2024-09-08T09:02:24.000Z</time>
      </trkpt>
      <trkpt lat="48.689122" lon="10.007174">
        <ele>671.758337</ele>
        <time>2024-09-08T09:02:25.000Z</time>
      </trkpt>
      <trkpt lat="48.689016" lon="10.007154">
        <ele>671.477318</ele>
        <time>2024-09-08T09:02:26.000Z</time>
      </trkpt>
      <trkpt lat="48.688908" lon="10.007137">
        <ele>671.191661</ele>
        <time>2024-09-08T09:02:27.000Z</time>
      </trkpt>
      <trkpt lat="48.688801" lon="10.007120">
        <ele>670.908622</ele>
        <time>2024-09-08T09:02:28.000Z</time>
      </trkpt>
      <trkpt lat="48.688694" lon="10.007113">
        <ele>670.626864</ele>
        <time>2024-09-08T09:02:29.000Z</time>
      </trkpt>
      <trkpt lat="48.688586" lon="10.007118">
        <ele>670.342604</ele>
        <time>2024-09-08T09:02:30.000Z</time>
      </trkpt>
      <trkpt lat="48.688477" lon="10.007142">
        <ele>670.052834</ele>
        <time>2024-09-08T09:02:31.000Z</time>
      </trkpt>
      <trkpt lat="48.688370" lon="10.007181">
        <ele>669.763304</ele>
        <time>2024-09-08T09:02:32.000Z</time>
      </trkpt>
      <trkpt lat="48.688263" lon="10.007224">
        <ele>669.472070</ele>
        <time>2024-09-08T09:02:33.000Z</time>
      </trkpt>
      <trkpt lat="48.688156" lon="10.007265">
        <ele>669.181708</ele>
        <time>2024-09-08T09:02:34.000Z</time>
      </trkpt>
      <trkpt lat="48.688048" lon="10.007313">
        <ele>668.885605</ele>
        <time>2024-09-08T09:02:35.000Z</time>
      </trkpt>
      <trkpt lat="48.687940" lon="10.007364">
        <ele>668.587992</ele>
        <time>2024-09-08T09:02:36.000Z</time>
      </trkpt>
      <trkpt lat="48.687831" lon="10.007411">
        <ele>668.289843</ele>
        <time>2024-09-08T09:02:37.000Z</time>
      </trkpt>
      <trkpt lat="48.687722" lon="10.007458">
        <ele>667.973852</ele>
        <time>2024-09-08T09:02:38.000Z</time>
      </trkpt>
      <trkpt lat="48.687611" lon="10.007502">
        <ele>667.621177</ele>
        <time>2024-09-08T09:02:39.000Z</time>
      </trkpt>
      <trkpt lat="48.687501" lon="10.007547">
        <ele>667.270951</ele>
        <time>2024-09-08T09:02:40.000Z</time>
      </trkpt>
      <trkpt lat="48.687391" lon="10.007592">
        <ele>666.920724</ele>
        <time>2024-09-08T09:02:41.000Z</time>
      </trkpt>
      <trkpt lat="48.687281" lon="10.007636">
        <ele>666.571022</ele>
        <time>2024-09-08T09:02:42.000Z</time>
      </trkpt>
      <trkpt lat="48.687172" lon="10.007685">
        <ele>666.221540</ele>
        <time>2024-09-08T09:02:43.000Z</time>
      </trkpt>
      <trkpt lat="48.687064" lon="10.007734">
        <ele>665.875003</ele>
        <time>2024-09-08T09:02:44.000Z</time>
      </trkpt>
      <trkpt lat="48.686957" lon="10.007779">
        <ele>665.533670</ele>
        <time>2024-09-08T09:02:45.000Z</time>
      </trkpt>
      <trkpt lat="48.686863" lon="10.007828">
        <ele>665.228107</ele>
        <time>2024-09-08T09:02:46.000Z</time>
      </trkpt>
      <trkpt lat="48.686772" lon="10.007871">
        <ele>664.935102</ele>
        <time>2024-09-08T09:02:47.000Z</time>
      </trkpt>
      <trkpt lat="48.686712" lon="10.007986">
        <ele>664.637664</ele>
        <time>2024-09-08T09:02:48.000Z</time>
      </trkpt>
      <trkpt lat="48.686689" lon="10.008131">
        <ele>664.335053</ele>
        <time>2024-09-08T09:02:49.000Z</time>
      </trkpt>
      <trkpt lat="48.686714" lon="10.008273">
        <ele>664.036834</ele>
        <time>2024-09-08T09:02:50.000Z</time>
      </trkpt>
      <trkpt lat="48.686739" lon="10.008405">
        <ele>663.758172</ele>
        <time>2024-09-08T09:02:51.000Z</time>
      </trkpt>
      <trkpt lat="48.686766" lon="10.008540">
        <ele>663.471933</ele>
        <time>2024-09-08T09:02:52.000Z</time>
      </trkpt>
      <trkpt lat="48.686793" lon="10.008686">
        <ele>663.164263</ele>
        <time>2024-09-08T09:02:53.000Z</time>
      </trkpt>
      <trkpt lat="48.686823" lon="10.008823">
        <ele>662.871366</ele>
        <time>2024-09-08T09:02:54.000Z</time>
      </trkpt>
      <trkpt lat="48.686849" lon="10.008961">
        <ele>662.580154</ele>
        <time>2024-09-08T09:02:55.000Z</time>
      </trkpt>
      <trkpt lat="48.686881" lon="10.009096">
        <ele>662.290234</ele>
        <time>2024-09-08T09:02:56.000Z</time>
      </trkpt>
      <trkpt lat="48.686912" lon="10.009237">
        <ele>661.989900</ele>
        <time>2024-09-08T09:02:57.000Z</time>
      </trkpt>
      <trkpt lat="48.686942" lon="10.009381">
        <ele>661.684743</ele>
        <time>2024-09-08T09:02:58.000Z</time>
      </trkpt>
      <trkpt lat="48.686978" lon="10.009525">
        <ele>661.373566</ele>
        <time>2024-09-08T09:02:59.000Z</time>
      </trkpt>
      <trkpt lat="48.687004" lon="10.009677">
        <ele>661.056246</ele>
        <time>2024-09-08T09:03:00.000Z</time>
      </trkpt>
      <trkpt lat="48.687046" lon="10.009822">
        <ele>660.736251</ele>
        <time>2024-09-08T09:03:01.000Z</time>
      </trkpt>
      <trkpt lat="48.687087" lon="10.009969">
        <ele>660.413754</ele>
        <time>2024-09-08T09:03:02.000Z</time>
      </trkpt>
      <trkpt lat="48.687131" lon="10.010114">
        <ele>660.091251</ele>
        <time>2024-09-08T09:03:03.000Z</time>
      </trkpt>
      <trkpt lat="48.687173" lon="10.010259">
        <ele>659.771257</ele>
        <time>2024-09-08T09:03:04.000Z</time>
      </trkpt>
      <trkpt lat="48.687218" lon="10.010408">
        <ele>659.440130</ele>
        <time>2024-09-08T09:03:05.000Z</time>
      </trkpt>
      <trkpt lat="48.687259" lon="10.010559">
        <ele>659.110174</ele>
        <time>2024-09-08T09:03:06.000Z</time>
      </trkpt>
      <trkpt lat="48.687299" lon="10.010707">
        <ele>658.786988</ele>
        <time>2024-09-08T09:03:07.000Z</time>
      </trkpt>
      <trkpt lat="48.687338" lon="10.010854">
        <ele>658.466826</ele>
        <time>2024-09-08T09:03:08.000Z</time>
      </trkpt>
      <trkpt lat="48.687382" lon="10.011002">
        <ele>658.138806</ele>
        <time>2024-09-08T09:03:09.000Z</time>
      </trkpt>
      <trkpt lat="48.687426" lon="10.011148">
        <ele>657.814467</ele>
        <time>2024-09-08T09:03:10.000Z</time>
      </trkpt>
      <trkpt lat="48.687455" lon="10.011306">
        <ele>657.483056</ele>
        <time>2024-09-08T09:03:11.000Z</time>
      </trkpt>
      <trkpt lat="48.687496" lon="10.011456">
        <ele>657.154969</ele>
        <time>2024-09-08T09:03:12.000Z</time>
      </trkpt>
      <trkpt lat="48.687538" lon="10.011604">
        <ele>656.778789</ele>
        <time>2024-09-08T09:03:13.000Z</time>
      </trkpt>
      <trkpt lat="48.687579" lon="10.011756">
        <ele>656.375082</ele>
        <time>2024-09-08T09:03:14.000Z</time>
      </trkpt>
      <trkpt lat="48.687614" lon="10.011915">
        <ele>655.962997</ele>
        <time>2024-09-08T09:03:15.000Z</time>
      </trkpt>
      <trkpt lat="48.687629" lon="10.012080">
        <ele>655.553491</ele>
        <time>2024-09-08T09:03:16.000Z</time>
      </trkpt>
      <trkpt lat="48.687604" lon="10.012253">
        <ele>655.118074</ele>
        <time>2024-09-08T09:03:17.000Z</time>
      </trkpt>
      <trkpt lat="48.687539" lon="10.012400">
        <ele>654.683070</ele>
        <time>2024-09-08T09:03:18.000Z</time>
      </trkpt>
      <trkpt lat="48.687461" lon="10.012513">
        <ele>654.281105</ele>
        <time>2024-09-08T09:03:19.000Z</time>
      </trkpt>
      <trkpt lat="48.687366" lon="10.012605">
        <ele>653.861170</ele>
        <time>2024-09-08T09:03:20.000Z</time>
      </trkpt>
      <trkpt lat="48.687265" lon="10.012697">
        <ele>653.422242</ele>
        <time>2024-09-08T09:03:21.000Z</time>
      </trkpt>
      <trkpt lat="48.687162" lon="10.012789">
        <ele>652.976914</ele>
        <time>2024-09-08T09:03:22.000Z</time>
      </trkpt>
      <trkpt lat="48.687059" lon="10.012881">
        <ele>652.531587</ele>
        <time>2024-09-08T09:03:23.000Z</time>
      </trkpt>
      <trkpt lat="48.686958" lon="10.012968">
        <ele>652.098866</ele>
        <time>2024-09-08T09:03:24.000Z</time>
      </trkpt>
      <trkpt lat="48.686858" lon="10.013059">
        <ele>651.664396</ele>
        <time>2024-09-08T09:03:25.000Z</time>
      </trkpt>
      <trkpt lat="48.686761" lon="10.013147">
        <ele>651.243301</ele>
        <time>2024-09-08T09:03:26.000Z</time>
      </trkpt>
      <trkpt lat="48.686668" lon="10.013232">
        <ele>650.838775</ele>
        <time>2024-09-08T09:03:27.000Z</time>
      </trkpt>
      <trkpt lat="48.686575" lon="10.013315">
        <ele>650.436767</ele>
        <time>2024-09-08T09:03:28.000Z</time>
      </trkpt>
      <trkpt lat="48.686494" lon="10.013416">
        <ele>650.348515</ele>
        <time>2024-09-08T09:03:29.000Z</time>
      </trkpt>
      <trkpt lat="48.686401" lon="10.013492">
        <ele>650.328841</ele>
        <time>2024-09-08T09:03:30.000Z</time>
      </trkpt>
      <trkpt lat="48.686312" lon="10.013576">
        <ele>650.309317</ele>
        <time>2024-09-08T09:03:31.000Z</time>
      </trkpt>
      <trkpt lat="48.686221" lon="10.013657">
        <ele>650.289665</ele>
        <time>2024-09-08T09:03:32.000Z</time>
      </trkpt>
      <trkpt lat="48.686130" lon="10.013733">
        <ele>650.270317</ele>
        <time>2024-09-08T09:03:33.000Z</time>
      </trkpt>
      <trkpt lat="48.686042" lon="10.013814">
        <ele>650.251145</ele>
        <time>2024-09-08T09:03:34.000Z</time>
      </trkpt>
      <trkpt lat="48.685953" lon="10.013897">
        <ele>650.231686</ele>
        <time>2024-09-08T09:03:35.000Z</time>
      </trkpt>
      <trkpt lat="48.685865" lon="10.013979">
        <ele>650.212450</ele>
        <time>2024-09-08T09:03:36.000Z</time>
      </trkpt>
      <trkpt lat="48.685775" lon="10.014057">
        <ele>650.193144</ele>
        <time>2024-09-08T09:03:37.000Z</time>
      </trkpt>
      <trkpt lat="48.685687" lon="10.014137">
        <ele>650.174035</ele>
        <time>2024-09-08T09:03:38.000Z</time>
      </trkpt>
      <trkpt lat="48.685597" lon="10.014207">
        <ele>650.155198</ele>
        <time>2024-09-08T09:03:39.000Z</time>
      </trkpt>
      <trkpt lat="48.685511" lon="10.014286">
        <ele>650.136472</ele>
        <time>2024-09-08T09:03:40.000Z</time>
      </trkpt>
      <trkpt lat="48.685425" lon="10.014363">
        <ele>650.117872</ele>
        <time>2024-09-08T09:03:41.000Z</time>
      </trkpt>
      <trkpt lat="48.685339" lon="10.014443">
        <ele>650.099081</ele>
        <time>2024-09-08T09:03:42.000Z</time>
      </trkpt>
      <trkpt lat="48.685254" lon="10.014523">
        <ele>650.080449</ele>
        <time>2024-09-08T09:03:43.000Z</time>
      </trkpt>
      <trkpt lat="48.685170" lon="10.014601">
        <ele>650.062105</ele>
        <time>2024-09-08T09:03:44.000Z</time>
      </trkpt>
      <trkpt lat="48.685086" lon="10.014677">
        <ele>650.043888</ele>
        <time>2024-09-08T09:03:45.000Z</time>
      </trkpt>
      <trkpt lat="48.685000" lon="10.014755">
        <ele>650.012498</ele>
        <time>2024-09-08T09:03:46.000Z</time>
      </trkpt>
      <trkpt lat="48.684915" lon="10.014830">
        <ele>649.940304</ele>
        <time>2024-09-08T09:03:47.000Z</time>
      </trkpt>
      <trkpt lat="48.684825" lon="10.014895">
        <ele>649.867128</ele>
        <time>2024-09-08T09:03:48.000Z</time>
      </trkpt>
      <trkpt lat="48.684740" lon="10.014970">
        <ele>649.794934</ele>
        <time>2024-09-08T09:03:49.000Z</time>
      </trkpt>
      <trkpt lat="48.684655" lon="10.015046">
        <ele>649.722494</ele>
        <time>2024-09-08T09:03:50.000Z</time>
      </trkpt>
      <trkpt lat="48.684572" lon="10.015124">
        <ele>649.650808</ele>
        <time>2024-09-08T09:03:51.000Z</time>
      </trkpt>
      <trkpt lat="48.684489" lon="10.015199">
        <ele>649.579878</ele>
        <time>2024-09-08T09:03:52.000Z</time>
      </trkpt>
      <trkpt lat="48.684410" lon="10.015273">
        <ele>649.511709</ele>
        <time>2024-09-08T09:03:53.000Z</time>
      </trkpt>
      <trkpt lat="48.684331" lon="10.015345">
        <ele>649.444044</ele>
        <time>2024-09-08T09:03:54.000Z</time>
      </trkpt>
      <trkpt lat="48.684254" lon="10.015417">
        <ele>649.377632</ele>
        <time>2024-09-08T09:03:55.000Z</time>
      </trkpt>
      <trkpt lat="48.684107" lon="10.015556">
        <ele>649.250452</ele>
        <time>2024-09-08T09:03:57.000Z</time>
      </trkpt>
      <trkpt lat="48.683962" lon="10.015707">
        <ele>649.121311</ele>
        <time>2024-09-08T09:03:59.000Z</time>
      </trkpt>
      <trkpt lat="48.683820" lon="10.015846">
        <ele>648.997228</ele>
        <time>2024-09-08T09:04:00.999Z</time>
      </trkpt>
      <trkpt lat="48.683688" lon="10.015995">
        <ele>648.876409</ele>
        <time>2024-09-08T09:04:02.999Z</time>
      </trkpt>
      <trkpt lat="48.683563" lon="10.016148">
        <ele>648.758461</ele>
        <time>2024-09-08T09:04:04.999Z</time>
      </trkpt>
      <trkpt lat="48.683444" lon="10.016305">
        <ele>648.519242</ele>
        <time>2024-09-08T09:04:06.999Z</time>
      </trkpt>
      <trkpt lat="48.683320" lon="10.016452">
        <ele>648.190444</ele>
        <time>2024-09-08T09:04:08.999Z</time>
      </trkpt>
      <trkpt lat="48.683192" lon="10.016595">
        <ele>647.858333</ele>
        <time>2024-09-08T09:04:11.000Z</time>
      </trkpt>
      <trkpt lat="48.683076" lon="10.016760">
        <ele>647.526053</ele>
        <time>2024-09-08T09:04:13.000Z</time>
      </trkpt>
      <trkpt lat="48.682961" lon="10.016918">
        <ele>647.201852</ele>
        <time>2024-09-08T09:04:15.000Z</time>
      </trkpt>
      <trkpt lat="48.682853" lon="10.017011">
        <ele>646.942443</ele>
        <time>2024-09-08T09:04:17.000Z</time>
      </trkpt>
      <trkpt lat="48.682754" lon="10.017061">
        <ele>646.724535</ele>
        <time>2024-09-08T09:04:19.000Z</time>
      </trkpt>
      <trkpt lat="48.682660" lon="10.016969">
        <ele>646.490844</ele>
        <time>2024-09-08T09:04:21.000Z</time>
      </trkpt>
      <trkpt lat="48.682611" lon="10.016824">
        <ele>646.266283</ele>
        <time>2024-09-08T09:04:23.000Z</time>
      </trkpt>
      <trkpt lat="48.682575" lon="10.016691">
        <ele>646.068118</ele>
        <time>2024-09-08T09:04:25.000Z</time>
      </trkpt>
      <trkpt lat="48.682543" lon="10.016552">
        <ele>645.865176</ele>
        <time>2024-09-08T09:04:27.000Z</time>
      </trkpt>
      <trkpt lat="48.682525" lon="10.016412">
        <ele>645.668546</ele>
        <time>2024-09-08T09:04:29.000Z</time>
      </trkpt>
      <trkpt lat="48.682501" lon="10.016274">
        <ele>645.471808</ele>
        <time>2024-09-08T09:04:31.000Z</time>
      </trkpt>
      <trkpt lat="48.682473" lon="10.016141">
        <ele>645.279358</ele>
        <time>2024-09-08T09:04:33.000Z</time>
      </trkpt>
      <trkpt lat="48.682451" lon="10.015986">
        <ele>645.060791</ele>
        <time>2024-09-08T09:04:35.000Z</time>
      </trkpt>
      <trkpt lat="48.682428" lon="10.015818">
        <ele>644.916315</ele>
        <time>2024-09-08T09:04:37.000Z</time>
      </trkpt>
      <trkpt lat="48.682409" lon="10.015647">
        <ele>644.847103</ele>
        <time>2024-09-08T09:04:39.000Z</time>
      </trkpt>
      <trkpt lat="48.682389" lon="10.015474">
        <ele>644.777002</ele>
        <time>2024-09-08T09:04:41.000Z</time>
      </trkpt>
      <trkpt lat="48.682364" lon="10.015292">
        <ele>644.702803</ele>
        <time>2024-09-08T09:04:43.000Z</time>
      </trkpt>
      <trkpt lat="48.682352" lon="10.015105">
        <ele>644.627813</ele>
        <time>2024-09-08T09:04:45.000Z</time>
      </trkpt>
      <trkpt lat="48.682337" lon="10.014919">
        <ele>644.553021</ele>
        <time>2024-09-08T09:04:47.000Z</time>
      </trkpt>
      <trkpt lat="48.682314" lon="10.014741">
        <ele>644.480627</ele>
        <time>2024-09-08T09:04:49.000Z</time>
      </trkpt>
      <trkpt lat="48.682282" lon="10.014555">
        <ele>644.403908</ele>
        <time>2024-09-08T09:04:51.000Z</time>
      </trkpt>
      <trkpt lat="48.682237" lon="10.014370">
        <ele>644.325216</ele>
        <time>2024-09-08T09:04:53.000Z</time>
      </trkpt>
      <trkpt lat="48.682177" lon="10.014194">
        <ele>644.246155</ele>
        <time>2024-09-08T09:04:55.000Z</time>
      </trkpt>
      <trkpt lat="48.682101" lon="10.014023">
        <ele>644.163879</ele>
        <time>2024-09-08T09:04:57.000Z</time>
      </trkpt>
      <trkpt lat="48.682002" lon="10.013863">
        <ele>644.076356</ele>
        <time>2024-09-08T09:04:59.000Z</time>
      </trkpt>
      <trkpt lat="48.681889" lon="10.013710">
        <ele>643.984726</ele>
        <time>2024-09-08T09:05:01.000Z</time>
      </trkpt>
      <trkpt lat="48.681776" lon="10.013554">
        <ele>643.892293</ele>
        <time>2024-09-08T09:05:03.000Z</time>
      </trkpt>
      <trkpt lat="48.681668" lon="10.013403">
        <ele>644.240196</ele>
        <time>2024-09-08T09:05:05.000Z</time>
      </trkpt>
      <trkpt lat="48.681553" lon="10.013254">
        <ele>644.782584</ele>
        <time>2024-09-08T09:05:07.000Z</time>
      </trkpt>
      <trkpt lat="48.681445" lon="10.013106">
        <ele>645.304571</ele>
        <time>2024-09-08T09:05:09.000Z</time>
      </trkpt>
      <trkpt lat="48.681341" lon="10.012955">
        <ele>645.820906</ele>
        <time>2024-09-08T09:05:11.000Z</time>
      </trkpt>
      <trkpt lat="48.681240" lon="10.012816">
        <ele>646.310004</ele>
        <time>2024-09-08T09:05:13.000Z</time>
      </trkpt>
      <trkpt lat="48.681147" lon="10.012693">
        <ele>646.752508</ele>
        <time>2024-09-08T09:05:15.000Z</time>
      </trkpt>
      <trkpt lat="48.681050" lon="10.012589">
        <ele>647.178443</ele>
        <time>2024-09-08T09:05:17.000Z</time>
      </trkpt>
      <trkpt lat="48.680949" lon="10.012504">
        <ele>647.592553</ele>
        <time>2024-09-08T09:05:19.000Z</time>
      </trkpt>
      <trkpt lat="48.680838" lon="10.012438">
        <ele>648.019932</ele>
        <time>2024-09-08T09:05:21.000Z</time>
      </trkpt>
      <trkpt lat="48.680721" lon="10.012391">
        <ele>648.453756</ele>
        <time>2024-09-08T09:05:23.000Z</time>
      </trkpt>
      <trkpt lat="48.680609" lon="10.012347">
        <ele>648.868445</ele>
        <time>2024-09-08T09:05:25.000Z</time>
      </trkpt>
      <trkpt lat="48.680498" lon="10.012295">
        <ele>649.284861</ele>
        <time>2024-09-08T09:05:27.000Z</time>
      </trkpt>
      <trkpt lat="48.680384" lon="10.012246">
        <ele>649.709569</ele>
        <time>2024-09-08T09:05:29.000Z</time>
      </trkpt>
      <trkpt lat="48.680265" lon="10.012199">
        <ele>650.150325</ele>
        <time>2024-09-08T09:05:31.000Z</time>
      </trkpt>
      <trkpt lat="48.680148" lon="10.012147">
        <ele>650.250946</ele>
        <time>2024-09-08T09:05:33.000Z</time>
      </trkpt>
      <trkpt lat="48.680037" lon="10.012086">
        <ele>650.155658</ele>
        <time>2024-09-08T09:05:35.000Z</time>
      </trkpt>
      <trkpt lat="48.679924" lon="10.012014">
        <ele>650.056730</ele>
        <time>2024-09-08T09:05:37.000Z</time>
      </trkpt>
      <trkpt lat="48.679814" lon="10.011930">
        <ele>649.957318</ele>
        <time>2024-09-08T09:05:39.000Z</time>
      </trkpt>
      <trkpt lat="48.679707" lon="10.011825">
        <ele>649.854432</ele>
        <time>2024-09-08T09:05:41.000Z</time>
      </trkpt>
      <trkpt lat="48.679593" lon="10.011713">
        <ele>649.744777</ele>
        <time>2024-09-08T09:05:43.000Z</time>
      </trkpt>
      <trkpt lat="48.679480" lon="10.011597">
        <ele>649.634617</ele>
        <time>2024-09-08T09:05:45.000Z</time>
      </trkpt>
      <trkpt lat="48.679358" lon="10.011464">
        <ele>649.513314</ele>
        <time>2024-09-08T09:05:47.000Z</time>
      </trkpt>
      <trkpt lat="48.679231" lon="10.011321">
        <ele>649.385609</ele>
        <time>2024-09-08T09:05:49.000Z</time>
      </trkpt>
      <trkpt lat="48.679098" lon="10.011174">
        <ele>649.252741</ele>
        <time>2024-09-08T09:05:51.000Z</time>
      </trkpt>
      <trkpt lat="48.678959" lon="10.011021">
        <ele>649.114077</ele>
        <time>2024-09-08T09:05:53.000Z</time>
      </trkpt>
      <trkpt lat="48.678815" lon="10.010860">
        <ele>648.969639</ele>
        <time>2024-09-08T09:05:55.000Z</time>
      </trkpt>
      <trkpt lat="48.678739" lon="10.010777">
        <ele>648.894027</ele>
        <time>2024-09-08T09:05:56.000Z</time>
      </trkpt>
      <trkpt lat="48.678663" lon="10.010690">
        <ele>648.625204</ele>
        <time>2024-09-08T09:05:57.000Z</time>
      </trkpt>
      <trkpt lat="48.678586" lon="10.010599">
        <ele>648.203855</ele>
        <time>2024-09-08T09:05:58.000Z</time>
      </trkpt>
      <trkpt lat="48.678507" lon="10.010509">
        <ele>647.777389</ele>
        <time>2024-09-08T09:05:59.000Z</time>
      </trkpt>
      <trkpt lat="48.678426" lon="10.010414">
        <ele>647.335423</ele>
        <time>2024-09-08T09:06:00.000Z</time>
      </trkpt>
      <trkpt lat="48.678346" lon="10.010311">
        <ele>646.882444</ele>
        <time>2024-09-08T09:06:01.000Z</time>
      </trkpt>
      <trkpt lat="48.678271" lon="10.010201">
        <ele>646.432038</ele>
        <time>2024-09-08T09:06:02.000Z</time>
      </trkpt>
      <trkpt lat="48.678193" lon="10.010089">
        <ele>645.968346</ele>
        <time>2024-09-08T09:06:03.000Z</time>
      </trkpt>
      <trkpt lat="48.678120" lon="10.009981">
        <ele>645.528097</ele>
        <time>2024-09-08T09:06:04.000Z</time>
      </trkpt>
      <trkpt lat="48.678049" lon="10.009869">
        <ele>645.085830</ele>
        <time>2024-09-08T09:06:05.000Z</time>
      </trkpt>
      <trkpt lat="48.677979" lon="10.009752">
        <ele>644.636090</ele>
        <time>2024-09-08T09:06:06.000Z</time>
      </trkpt>
      <trkpt lat="48.677910" lon="10.009644">
        <ele>644.208014</ele>
        <time>2024-09-08T09:06:07.000Z</time>
      </trkpt>
      <trkpt lat="48.677846" lon="10.009525">
        <ele>643.770825</ele>
        <time>2024-09-08T09:06:08.000Z</time>
      </trkpt>
      <trkpt lat="48.677788" lon="10.009402">
        <ele>643.340285</ele>
        <time>2024-09-08T09:06:09.000Z</time>
      </trkpt>
      <trkpt lat="48.677731" lon="10.009276">
        <ele>642.905214</ele>
        <time>2024-09-08T09:06:10.000Z</time>
      </trkpt>
      <trkpt lat="48.677677" lon="10.009145">
        <ele>642.465309</ele>
        <time>2024-09-08T09:06:11.000Z</time>
      </trkpt>
      <trkpt lat="48.677628" lon="10.009010">
        <ele>642.026486</ele>
        <time>2024-09-08T09:06:12.000Z</time>
      </trkpt>
      <trkpt lat="48.677586" lon="10.008866">
        <ele>641.578061</ele>
        <time>2024-09-08T09:06:13.000Z</time>
      </trkpt>
      <trkpt lat="48.677551" lon="10.008715">
        <ele>641.122200</ele>
        <time>2024-09-08T09:06:14.000Z</time>
      </trkpt>
      <trkpt lat="48.677519" lon="10.008557">
        <ele>640.248604</ele>
        <time>2024-09-08T09:06:15.000Z</time>
      </trkpt>
      <trkpt lat="48.677492" lon="10.008394">
        <ele>639.341827</ele>
        <time>2024-09-08T09:06:16.000Z</time>
      </trkpt>
      <trkpt lat="48.677471" lon="10.008220">
        <ele>638.387395</ele>
        <time>2024-09-08T09:06:17.000Z</time>
      </trkpt>
      <trkpt lat="48.677461" lon="10.008038">
        <ele>637.401955</ele>
        <time>2024-09-08T09:06:18.000Z</time>
      </trkpt>
      <trkpt lat="48.677456" lon="10.007849">
        <ele>636.381321</ele>
        <time>2024-09-08T09:06:19.000Z</time>
      </trkpt>
      <trkpt lat="48.677446" lon="10.007659">
        <ele>635.352856</ele>
        <time>2024-09-08T09:06:20.000Z</time>
      </trkpt>
      <trkpt lat="48.677440" lon="10.007470">
        <ele>634.331862</ele>
        <time>2024-09-08T09:06:21.000Z</time>
      </trkpt>
      <trkpt lat="48.677422" lon="10.007276">
        <ele>633.274781</ele>
        <time>2024-09-08T09:06:22.000Z</time>
      </trkpt>
      <trkpt lat="48.677402" lon="10.007079">
        <ele>632.199306</ele>
        <time>2024-09-08T09:06:23.000Z</time>
      </trkpt>
      <trkpt lat="48.677380" lon="10.006879">
        <ele>631.105261</ele>
        <time>2024-09-08T09:06:24.000Z</time>
      </trkpt>
      <trkpt lat="48.677358" lon="10.006675">
        <ele>629.989920</ele>
        <time>2024-09-08T09:06:25.000Z</time>
      </trkpt>
      <trkpt lat="48.677329" lon="10.006472">
        <ele>628.869217</ele>
        <time>2024-09-08T09:06:26.000Z</time>
      </trkpt>
      <trkpt lat="48.677302" lon="10.006261">
        <ele>627.709506</ele>
        <time>2024-09-08T09:06:27.000Z</time>
      </trkpt>
      <trkpt lat="48.677279" lon="10.006049">
        <ele>626.550243</ele>
        <time>2024-09-08T09:06:28.000Z</time>
      </trkpt>
      <trkpt lat="48.677249" lon="10.005833">
        <ele>625.278722</ele>
        <time>2024-09-08T09:06:29.000Z</time>
      </trkpt>
      <trkpt lat="48.677226" lon="10.005615">
        <ele>623.995675</ele>
        <time>2024-09-08T09:06:30.000Z</time>
      </trkpt>
      <trkpt lat="48.677197" lon="10.005394">
        <ele>622.686146</ele>
        <time>2024-09-08T09:06:31.000Z</time>
      </trkpt>
      <trkpt lat="48.677168" lon="10.005173">
        <ele>621.376616</ele>
        <time>2024-09-08T09:06:32.000Z</time>
      </trkpt>
      <trkpt lat="48.677138" lon="10.004950">
        <ele>620.053953</ele>
        <time>2024-09-08T09:06:33.000Z</time>
      </trkpt>
      <trkpt lat="48.677108" lon="10.004726">
        <ele>618.725595</ele>
        <time>2024-09-08T09:06:34.000Z</time>
      </trkpt>
      <trkpt lat="48.677075" lon="10.004505">
        <ele>617.408747</ele>
        <time>2024-09-08T09:06:35.000Z</time>
      </trkpt>
      <trkpt lat="48.677047" lon="10.004280">
        <ele>616.078063</ele>
        <time>2024-09-08T09:06:36.000Z</time>
      </trkpt>
      <trkpt lat="48.677021" lon="10.004059">
        <ele>614.773420</ele>
        <time>2024-09-08T09:06:37.000Z</time>
      </trkpt>
      <trkpt lat="48.676997" lon="10.003837">
        <ele>613.466012</ele>
        <time>2024-09-08T09:06:38.000Z</time>
      </trkpt>
      <trkpt lat="48.676973" lon="10.003617">
        <ele>612.170074</ele>
        <time>2024-09-08T09:06:39.000Z</time>
      </trkpt>
      <trkpt lat="48.676952" lon="10.003398">
        <ele>610.883929</ele>
        <time>2024-09-08T09:06:40.000Z</time>
      </trkpt>
      <trkpt lat="48.676936" lon="10.003177">
        <ele>609.957359</ele>
        <time>2024-09-08T09:06:41.000Z</time>
      </trkpt>
      <trkpt lat="48.676927" lon="10.002953">
        <ele>609.139308</ele>
        <time>2024-09-08T09:06:42.000Z</time>
      </trkpt>
      <trkpt lat="48.676921" lon="10.002733">
        <ele>608.336665</ele>
        <time>2024-09-08T09:06:43.000Z</time>
      </trkpt>
      <trkpt lat="48.676916" lon="10.002515">
        <ele>607.541517</ele>
        <time>2024-09-08T09:06:44.000Z</time>
      </trkpt>
      <trkpt lat="48.676910" lon="10.002297">
        <ele>606.746158</ele>
        <time>2024-09-08T09:06:45.000Z</time>
      </trkpt>
      <trkpt lat="48.676897" lon="10.002079">
        <ele>605.948255</ele>
        <time>2024-09-08T09:06:46.000Z</time>
      </trkpt>
      <trkpt lat="48.676863" lon="10.001868">
        <ele>605.156531</ele>
        <time>2024-09-08T09:06:47.000Z</time>
      </trkpt>
      <trkpt lat="48.676816" lon="10.001664">
        <ele>604.368928</ele>
        <time>2024-09-08T09:06:48.000Z</time>
      </trkpt>
      <trkpt lat="48.676761" lon="10.001464">
        <ele>603.579171</ele>
        <time>2024-09-08T09:06:49.000Z</time>
      </trkpt>
      <trkpt lat="48.676702" lon="10.001274">
        <ele>602.813802</ele>
        <time>2024-09-08T09:06:50.000Z</time>
      </trkpt>
      <trkpt lat="48.676643" lon="10.001083">
        <ele>602.045131</ele>
        <time>2024-09-08T09:06:51.000Z</time>
      </trkpt>
      <trkpt lat="48.676583" lon="10.000891">
        <ele>601.270811</ele>
        <time>2024-09-08T09:06:52.000Z</time>
      </trkpt>
      <trkpt lat="48.676525" lon="10.000697">
        <ele>600.492490</ele>
        <time>2024-09-08T09:06:53.000Z</time>
      </trkpt>
      <trkpt lat="48.676466" lon="10.000506">
        <ele>599.713333</ele>
        <time>2024-09-08T09:06:54.000Z</time>
      </trkpt>
      <trkpt lat="48.676407" lon="10.000311">
        <ele>598.920763</ele>
        <time>2024-09-08T09:06:55.000Z</time>
      </trkpt>
      <trkpt lat="48.676350" lon="10.000121">
        <ele>598.149646</ele>
        <time>2024-09-08T09:06:56.000Z</time>
      </trkpt>
      <trkpt lat="48.676292" lon="9.999929">
        <ele>597.369483</ele>
        <time>2024-09-08T09:06:57.000Z</time>
      </trkpt>
      <trkpt lat="48.676234" lon="9.999740">
        <ele>596.599385</ele>
        <time>2024-09-08T09:06:58.000Z</time>
      </trkpt>
      <trkpt lat="48.676180" lon="9.999552">
        <ele>595.841840</ele>
        <time>2024-09-08T09:06:59.000Z</time>
      </trkpt>
      <trkpt lat="48.676129" lon="9.999365">
        <ele>595.094249</ele>
        <time>2024-09-08T09:07:00.000Z</time>
      </trkpt>
      <trkpt lat="48.676077" lon="9.999175">
        <ele>594.334274</ele>
        <time>2024-09-08T09:07:01.000Z</time>
      </trkpt>
      <trkpt lat="48.676027" lon="9.998987">
        <ele>593.585374</ele>
        <time>2024-09-08T09:07:02.000Z</time>
      </trkpt>
      <trkpt lat="48.675980" lon="9.998799">
        <ele>592.842582</ele>
        <time>2024-09-08T09:07:03.000Z</time>
      </trkpt>
      <trkpt lat="48.675934" lon="9.998617">
        <ele>592.122500</ele>
        <time>2024-09-08T09:07:04.000Z</time>
      </trkpt>
      <trkpt lat="48.675885" lon="9.998439">
        <ele>591.409911</ele>
        <time>2024-09-08T09:07:05.000Z</time>
      </trkpt>
      <trkpt lat="48.675840" lon="9.998264">
        <ele>590.715973</ele>
        <time>2024-09-08T09:07:06.000Z</time>
      </trkpt>
      <trkpt lat="48.675799" lon="9.998090">
        <ele>590.765520</ele>
        <time>2024-09-08T09:07:07.000Z</time>
      </trkpt>
      <trkpt lat="48.675754" lon="9.997923">
        <ele>590.995296</ele>
        <time>2024-09-08T09:07:08.000Z</time>
      </trkpt>
      <trkpt lat="48.675722" lon="9.997766">
        <ele>591.204612</ele>
        <time>2024-09-08T09:07:09.000Z</time>
      </trkpt>
      <trkpt lat="48.675698" lon="9.997616">
        <ele>591.401229</ele>
        <time>2024-09-08T09:07:10.000Z</time>
      </trkpt>
      <trkpt lat="48.675692" lon="9.997478">
        <ele>591.577411</ele>
        <time>2024-09-08T09:07:11.000Z</time>
      </trkpt>
      <trkpt lat="48.675744" lon="9.997249">
        <ele>591.885905</ele>
        <time>2024-09-08T09:07:13.000Z</time>
      </trkpt>
      <trkpt lat="48.675874" lon="9.997132">
        <ele>592.177653</ele>
        <time>2024-09-08T09:07:15.000Z</time>
      </trkpt>
      <trkpt lat="48.675989" lon="9.997021">
        <ele>592.440747</ele>
        <time>2024-09-08T09:07:17.000Z</time>
      </trkpt>
      <trkpt lat="48.676092" lon="9.996933">
        <ele>592.668900</ele>
        <time>2024-09-08T09:07:19.000Z</time>
      </trkpt>
      <trkpt lat="48.676179" lon="9.996858">
        <ele>592.862032</ele>
        <time>2024-09-08T09:07:21.000Z</time>
      </trkpt>
      <trkpt lat="48.676263" lon="9.996776">
        <ele>593.054838</ele>
        <time>2024-09-08T09:07:23.000Z</time>
      </trkpt>
      <trkpt lat="48.676351" lon="9.996700">
        <ele>593.250277</ele>
        <time>2024-09-08T09:07:25.000Z</time>
      </trkpt>
      <trkpt lat="48.676436" lon="9.996624">
        <ele>593.440710</ele>
        <time>2024-09-08T09:07:27.000Z</time>
      </trkpt>
      <trkpt lat="48.676524" lon="9.996562">
        <ele>593.627956</ele>
        <time>2024-09-08T09:07:29.000Z</time>
      </trkpt>
      <trkpt lat="48.676604" lon="9.996488">
        <ele>593.808807</ele>
        <time>2024-09-08T09:07:31.000Z</time>
      </trkpt>
      <trkpt lat="48.676713" lon="9.996396">
        <ele>594.052850</ele>
        <time>2024-09-08T09:07:34.000Z</time>
      </trkpt>
      <trkpt lat="48.676822" lon="9.996295">
        <ele>594.771110</ele>
        <time>2024-09-08T09:07:37.000Z</time>
      </trkpt>
      <trkpt lat="48.676939" lon="9.996207">
        <ele>595.505395</ele>
        <time>2024-09-08T09:07:40.000Z</time>
      </trkpt>
      <trkpt lat="48.677059" lon="9.996127">
        <ele>596.242364</ele>
        <time>2024-09-08T09:07:43.000Z</time>
      </trkpt>
      <trkpt lat="48.677179" lon="9.996049">
        <ele>596.976373</ele>
        <time>2024-09-08T09:07:46.000Z</time>
      </trkpt>
      <trkpt lat="48.677307" lon="9.995992">
        <ele>597.726307</ele>
        <time>2024-09-08T09:07:49.000Z</time>
      </trkpt>
      <trkpt lat="48.677427" lon="9.995936">
        <ele>598.432111</ele>
        <time>2024-09-08T09:07:52.000Z</time>
      </trkpt>
      <trkpt lat="48.677543" lon="9.995890">
        <ele>599.106117</ele>
        <time>2024-09-08T09:07:55.000Z</time>
      </trkpt>
      <trkpt lat="48.677661" lon="9.995851">
        <ele>599.784994</ele>
        <time>2024-09-08T09:07:58.000Z</time>
      </trkpt>
      <trkpt lat="48.677784" lon="9.995813">
        <ele>600.490604</ele>
        <time>2024-09-08T09:08:01.000Z</time>
      </trkpt>
      <trkpt lat="48.677905" lon="9.995772">
        <ele>601.187548</ele>
        <time>2024-09-08T09:08:04.000Z</time>
      </trkpt>
      <trkpt lat="48.678023" lon="9.995730">
        <ele>601.868886</ele>
        <time>2024-09-08T09:08:07.000Z</time>
      </trkpt>
      <trkpt lat="48.678142" lon="9.995682">
        <ele>602.561091</ele>
        <time>2024-09-08T09:08:10.000Z</time>
      </trkpt>
      <trkpt lat="48.678255" lon="9.995622">
        <ele>603.234158</ele>
        <time>2024-09-08T09:08:13.000Z</time>
      </trkpt>
      <trkpt lat="48.678371" lon="9.995561">
        <ele>603.924369</ele>
        <time>2024-09-08T09:08:16.000Z</time>
      </trkpt>
      <trkpt lat="48.678493" lon="9.995494">
        <ele>604.591064</ele>
        <time>2024-09-08T09:08:19.000Z</time>
      </trkpt>
      <trkpt lat="48.678577" lon="9.995444">
        <ele>605.034197</ele>
        <time>2024-09-08T09:08:21.000Z</time>
      </trkpt>
      <trkpt lat="48.678697" lon="9.995368">
        <ele>605.672814</ele>
        <time>2024-09-08T09:08:24.000Z</time>
      </trkpt>
      <trkpt lat="48.678815" lon="9.995298">
        <ele>606.295029</ele>
        <time>2024-09-08T09:08:27.000Z</time>
      </trkpt>
      <trkpt lat="48.678936" lon="9.995240">
        <ele>606.918160</ele>
        <time>2024-09-08T09:08:30.000Z</time>
      </trkpt>
      <trkpt lat="48.679057" lon="9.995169">
        <ele>607.555275</ele>
        <time>2024-09-08T09:08:33.000Z</time>
      </trkpt>
      <trkpt lat="48.679175" lon="9.995099">
        <ele>608.177489</ele>
        <time>2024-09-08T09:08:36.000Z</time>
      </trkpt>
      <trkpt lat="48.679294" lon="9.995027">
        <ele>608.806653</ele>
        <time>2024-09-08T09:08:39.000Z</time>
      </trkpt>
      <trkpt lat="48.679412" lon="9.994964">
        <ele>609.420954</ele>
        <time>2024-09-08T09:08:42.000Z</time>
      </trkpt>
      <trkpt lat="48.679536" lon="9.994909">
        <ele>610.055341</ele>
        <time>2024-09-08T09:08:45.000Z</time>
      </trkpt>
      <trkpt lat="48.679663" lon="9.994874">
        <ele>610.689125</ele>
        <time>2024-09-08T09:08:48.000Z</time>
      </trkpt>
      <trkpt lat="48.679756" lon="9.994874">
        <ele>611.145736</ele>
        <time>2024-09-08T09:08:50.000Z</time>
      </trkpt>
      <trkpt lat="48.679848" lon="9.994875">
        <ele>611.597450</ele>
        <time>2024-09-08T09:08:52.000Z</time>
      </trkpt>
      <trkpt lat="48.679985" lon="9.994879">
        <ele>612.270217</ele>
        <time>2024-09-08T09:08:55.000Z</time>
      </trkpt>
      <trkpt lat="48.680078" lon="9.994882">
        <ele>612.726932</ele>
        <time>2024-09-08T09:08:57.000Z</time>
      </trkpt>
      <trkpt lat="48.680173" lon="9.994879">
        <ele>613.183729</ele>
        <time>2024-09-08T09:08:59.000Z</time>
      </trkpt>
      <trkpt lat="48.680305" lon="9.994871">
        <ele>613.801485</ele>
        <time>2024-09-08T09:09:02.000Z</time>
      </trkpt>
      <trkpt lat="48.680434" lon="9.994870">
        <ele>614.404726</ele>
        <time>2024-09-08T09:09:05.000Z</time>
      </trkpt>
      <trkpt lat="48.680565" lon="9.994882">
        <ele>615.018431</ele>
        <time>2024-09-08T09:09:08.000Z</time>
      </trkpt>
      <trkpt lat="48.680694" lon="9.994903">
        <ele>615.625139</ele>
        <time>2024-09-08T09:09:11.000Z</time>
      </trkpt>
      <trkpt lat="48.680820" lon="9.994942">
        <ele>616.226522</ele>
        <time>2024-09-08T09:09:14.000Z</time>
      </trkpt>
      <trkpt lat="48.680943" lon="9.995009">
        <ele>616.837766</ele>
        <time>2024-09-08T09:09:17.000Z</time>
      </trkpt>
      <trkpt lat="48.681065" lon="9.995086">
        <ele>617.455818</ele>
        <time>2024-09-08T09:09:20.000Z</time>
      </trkpt>
      <trkpt lat="48.681148" lon="9.995148">
        <ele>617.888583</ele>
        <time>2024-09-08T09:09:22.000Z</time>
      </trkpt>
      <trkpt lat="48.681257" lon="9.995263">
        <ele>618.509767</ele>
        <time>2024-09-08T09:09:25.000Z</time>
      </trkpt>
      <trkpt lat="48.681332" lon="9.995340">
        <ele>618.933466</ele>
        <time>2024-09-08T09:09:27.000Z</time>
      </trkpt>
      <trkpt lat="48.681441" lon="9.995455">
        <ele>619.554650</ele>
        <time>2024-09-08T09:09:30.000Z</time>
      </trkpt>
      <trkpt lat="48.681517" lon="9.995537">
        <ele>619.990998</ele>
        <time>2024-09-08T09:09:32.000Z</time>
      </trkpt>
      <trkpt lat="48.681591" lon="9.995619">
        <ele>620.419763</ele>
        <time>2024-09-08T09:09:34.000Z</time>
      </trkpt>
      <trkpt lat="48.681668" lon="9.995700">
        <ele>620.858160</ele>
        <time>2024-09-08T09:09:36.000Z</time>
      </trkpt>
      <trkpt lat="48.681746" lon="9.995777">
        <ele>621.293541</ele>
        <time>2024-09-08T09:09:38.000Z</time>
      </trkpt>
      <trkpt lat="48.681828" lon="9.995852">
        <ele>621.722710</ele>
        <time>2024-09-08T09:09:40.000Z</time>
      </trkpt>
      <trkpt lat="48.681915" lon="9.995919">
        <ele>622.154043</ele>
        <time>2024-09-08T09:09:42.000Z</time>
      </trkpt>
      <trkpt lat="48.682008" lon="9.995975">
        <ele>622.596336</ele>
        <time>2024-09-08T09:09:44.000Z</time>
      </trkpt>
      <trkpt lat="48.682100" lon="9.996023">
        <ele>623.026366</ele>
        <time>2024-09-08T09:09:46.000Z</time>
      </trkpt>
      <trkpt lat="48.682196" lon="9.996055">
        <ele>623.460779</ele>
        <time>2024-09-08T09:09:48.000Z</time>
      </trkpt>
      <trkpt lat="48.682293" lon="9.996069">
        <ele>623.891402</ele>
        <time>2024-09-08T09:09:50.000Z</time>
      </trkpt>
      <trkpt lat="48.682390" lon="9.996066">
        <ele>624.320171</ele>
        <time>2024-09-08T09:09:52.000Z</time>
      </trkpt>
      <trkpt lat="48.682488" lon="9.996068">
        <ele>624.753310</ele>
        <time>2024-09-08T09:09:54.000Z</time>
      </trkpt>
      <trkpt lat="48.682587" lon="9.996063">
        <ele>625.191072</ele>
        <time>2024-09-08T09:09:56.000Z</time>
      </trkpt>
      <trkpt lat="48.682683" lon="9.996052">
        <ele>625.616546</ele>
        <time>2024-09-08T09:09:58.000Z</time>
      </trkpt>
      <trkpt lat="48.682781" lon="9.996044">
        <ele>626.050274</ele>
        <time>2024-09-08T09:10:00.000Z</time>
      </trkpt>
      <trkpt lat="48.682881" lon="9.996037">
        <ele>626.492684</ele>
        <time>2024-09-08T09:10:02.000Z</time>
      </trkpt>
      <trkpt lat="48.682978" lon="9.996027">
        <ele>626.922356</ele>
        <time>2024-09-08T09:10:04.000Z</time>
      </trkpt>
      <trkpt lat="48.683075" lon="9.996027">
        <ele>627.351036</ele>
        <time>2024-09-08T09:10:05.999Z</time>
      </trkpt>
      <trkpt lat="48.683171" lon="9.996031">
        <ele>627.775458</ele>
        <time>2024-09-08T09:10:07.999Z</time>
      </trkpt>
      <trkpt lat="48.683269" lon="9.996037">
        <ele>628.208911</ele>
        <time>2024-09-08T09:10:09.999Z</time>
      </trkpt>
      <trkpt lat="48.683367" lon="9.996050">
        <ele>628.643668</ele>
        <time>2024-09-08T09:10:11.999Z</time>
      </trkpt>
      <trkpt lat="48.683468" lon="9.996053">
        <ele>629.090112</ele>
        <time>2024-09-08T09:10:13.999Z</time>
      </trkpt>
      <trkpt lat="48.683564" lon="9.996086">
        <ele>629.572762</ele>
        <time>2024-09-08T09:10:15.999Z</time>
      </trkpt>
      <trkpt lat="48.683661" lon="9.996126">
        <ele>630.136798</ele>
        <time>2024-09-08T09:10:17.999Z</time>
      </trkpt>
      <trkpt lat="48.683756" lon="9.996168">
        <ele>630.692045</ele>
        <time>2024-09-08T09:10:19.999Z</time>
      </trkpt>
      <trkpt lat="48.683848" lon="9.996218">
        <ele>631.240440</ele>
        <time>2024-09-08T09:10:21.999Z</time>
      </trkpt>
      <trkpt lat="48.683937" lon="9.996272">
        <ele>631.778355</ele>
        <time>2024-09-08T09:10:23.999Z</time>
      </trkpt>
      <trkpt lat="48.684024" lon="9.996329">
        <ele>632.310184</ele>
        <time>2024-09-08T09:10:25.999Z</time>
      </trkpt>
      <trkpt lat="48.684111" lon="9.996388">
        <ele>632.844996</ele>
        <time>2024-09-08T09:10:28.000Z</time>
      </trkpt>
      <trkpt lat="48.684195" lon="9.996451">
        <ele>633.370896</ele>
        <time>2024-09-08T09:10:30.000Z</time>
      </trkpt>
      <trkpt lat="48.684284" lon="9.996512">
        <ele>633.918981</ele>
        <time>2024-09-08T09:10:32.000Z</time>
      </trkpt>
      <trkpt lat="48.684368" lon="9.996581">
        <ele>634.455114</ele>
        <time>2024-09-08T09:10:34.000Z</time>
      </trkpt>
      <trkpt lat="48.684449" lon="9.996656">
        <ele>634.987758</ele>
        <time>2024-09-08T09:10:36.000Z</time>
      </trkpt>
      <trkpt lat="48.684531" lon="9.996719">
        <ele>635.503626</ele>
        <time>2024-09-08T09:10:38.000Z</time>
      </trkpt>
      <trkpt lat="48.684612" lon="9.996788">
        <ele>636.025023</ele>
        <time>2024-09-08T09:10:40.000Z</time>
      </trkpt>
      <trkpt lat="48.684691" lon="9.996856">
        <ele>636.534829</ele>
        <time>2024-09-08T09:10:42.000Z</time>
      </trkpt>
      <trkpt lat="48.684773" lon="9.996916">
        <ele>637.045766</ele>
        <time>2024-09-08T09:10:44.000Z</time>
      </trkpt>
      <trkpt lat="48.684886" lon="9.997026">
        <ele>637.799402</ele>
        <time>2024-09-08T09:10:47.000Z</time>
      </trkpt>
      <trkpt lat="48.684996" lon="9.997134">
        <ele>638.534879</ele>
        <time>2024-09-08T09:10:50.000Z</time>
      </trkpt>
      <trkpt lat="48.685101" lon="9.997241">
        <ele>639.244905</ele>
        <time>2024-09-08T09:10:53.000Z</time>
      </trkpt>
      <trkpt lat="48.685199" lon="9.997345">
        <ele>640.078638</ele>
        <time>2024-09-08T09:10:56.000Z</time>
      </trkpt>
      <trkpt lat="48.685294" lon="9.997445">
        <ele>640.949008</ele>
        <time>2024-09-08T09:10:59.000Z</time>
      </trkpt>
      <trkpt lat="48.685387" lon="9.997553">
        <ele>641.830661</ele>
        <time>2024-09-08T09:11:02.000Z</time>
      </trkpt>
      <trkpt lat="48.685471" lon="9.997660">
        <ele>642.656397</ele>
        <time>2024-09-08T09:11:05.000Z</time>
      </trkpt>
      <trkpt lat="48.685552" lon="9.997772">
        <ele>643.481525</ele>
        <time>2024-09-08T09:11:08.000Z</time>
      </trkpt>
      <trkpt lat="48.685637" lon="9.997875">
        <ele>644.300476</ele>
        <time>2024-09-08T09:11:11.000Z</time>
      </trkpt>
      <trkpt lat="48.685721" lon="9.997984">
        <ele>645.132638</ele>
        <time>2024-09-08T09:11:14.000Z</time>
      </trkpt>
      <trkpt lat="48.685803" lon="9.998099">
        <ele>645.973387</ele>
        <time>2024-09-08T09:11:17.000Z</time>
      </trkpt>
      <trkpt lat="48.685868" lon="9.998207">
        <ele>646.699264</ele>
        <time>2024-09-08T09:11:22.000Z</time>
      </trkpt>
      <trkpt lat="48.685948" lon="9.998303">
        <ele>647.467128</ele>
        <time>2024-09-08T09:11:26.000Z</time>
      </trkpt>
      <trkpt lat="48.686027" lon="9.998387">
        <ele>648.193301</ele>
        <time>2024-09-08T09:11:29.000Z</time>
      </trkpt>
      <trkpt lat="48.686110" lon="9.998469">
        <ele>648.938831</ele>
        <time>2024-09-08T09:11:32.000Z</time>
      </trkpt>
      <trkpt lat="48.686199" lon="9.998533">
        <ele>649.680044</ele>
        <time>2024-09-08T09:11:34.000Z</time>
      </trkpt>
      <trkpt lat="48.686297" lon="9.998606">
        <ele>650.501674</ele>
        <time>2024-09-08T09:11:38.000Z</time>
      </trkpt>
      <trkpt lat="48.686384" lon="9.998688">
        <ele>651.272584</ele>
        <time>2024-09-08T09:11:40.000Z</time>
      </trkpt>
      <trkpt lat="48.686473" lon="9.998781">
        <ele>652.086043</ele>
        <time>2024-09-08T09:11:44.000Z</time>
      </trkpt>
      <trkpt lat="48.686550" lon="9.998854">
        <ele>652.769461</ele>
        <time>2024-09-08T09:11:46.000Z</time>
      </trkpt>
      <trkpt lat="48.686633" lon="9.998921">
        <ele>653.402548</ele>
        <time>2024-09-08T09:11:48.000Z</time>
      </trkpt>
      <trkpt lat="48.686759" lon="9.998969">
        <ele>654.235830</ele>
        <time>2024-09-08T09:11:51.000Z</time>
      </trkpt>
      <trkpt lat="48.686890" lon="9.998987">
        <ele>655.079466</ele>
        <time>2024-09-08T09:11:54.000Z</time>
      </trkpt>
      <trkpt lat="48.687013" lon="9.998979">
        <ele>655.869069</ele>
        <time>2024-09-08T09:11:57.000Z</time>
      </trkpt>
      <trkpt lat="48.687142" lon="9.998948">
        <ele>656.706775</ele>
        <time>2024-09-08T09:11:59.999Z</time>
      </trkpt>
      <trkpt lat="48.687234" lon="9.998899">
        <ele>657.332241</ele>
        <time>2024-09-08T09:12:01.999Z</time>
      </trkpt>
      <trkpt lat="48.687346" lon="9.998846">
        <ele>658.084804</ele>
        <time>2024-09-08T09:12:04.999Z</time>
      </trkpt>
      <trkpt lat="48.687462" lon="9.998796">
        <ele>658.858320</ele>
        <time>2024-09-08T09:12:07.999Z</time>
      </trkpt>
      <trkpt lat="48.687579" lon="9.998758">
        <ele>659.625770</ele>
        <time>2024-09-08T09:12:10.999Z</time>
      </trkpt>
      <trkpt lat="48.687671" lon="9.998746">
        <ele>660.218007</ele>
        <time>2024-09-08T09:12:13.999Z</time>
      </trkpt>
      <trkpt lat="48.687771" lon="9.998758">
        <ele>660.861380</ele>
        <time>2024-09-08T09:12:16.999Z</time>
      </trkpt>
      <trkpt lat="48.687912" lon="9.998782">
        <ele>661.771393</ele>
        <time>2024-09-08T09:12:19.999Z</time>
      </trkpt>
      <trkpt lat="48.688038" lon="9.998811">
        <ele>662.588786</ele>
        <time>2024-09-08T09:12:22.999Z</time>
      </trkpt>
      <trkpt lat="48.688168" lon="9.998860">
        <ele>663.447982</ele>
        <time>2024-09-08T09:12:25.999Z</time>
      </trkpt>
      <trkpt lat="48.688254" lon="9.998906">
        <ele>664.032931</ele>
        <time>2024-09-08T09:12:27.999Z</time>
      </trkpt>
      <trkpt lat="48.688342" lon="9.998955">
        <ele>664.578400</ele>
        <time>2024-09-08T09:12:29.999Z</time>
      </trkpt>
      <trkpt lat="48.688425" lon="9.999015">
        <ele>664.907568</ele>
        <time>2024-09-08T09:12:31.999Z</time>
      </trkpt>
      <trkpt lat="48.688512" lon="9.999061">
        <ele>665.237383</ele>
        <time>2024-09-08T09:12:34.000Z</time>
      </trkpt>
      <trkpt lat="48.688601" lon="9.999120">
        <ele>665.585101</ele>
        <time>2024-09-08T09:12:36.000Z</time>
      </trkpt>
      <trkpt lat="48.688687" lon="9.999176">
        <ele>665.920147</ele>
        <time>2024-09-08T09:12:38.000Z</time>
      </trkpt>
      <trkpt lat="48.688777" lon="9.999231">
        <ele>666.267502</ele>
        <time>2024-09-08T09:12:40.000Z</time>
      </trkpt>
      <trkpt lat="48.688867" lon="9.999276">
        <ele>666.606725</ele>
        <time>2024-09-08T09:12:42.000Z</time>
      </trkpt>
      <trkpt lat="48.688959" lon="9.999318">
        <ele>666.950641</ele>
        <time>2024-09-08T09:12:44.000Z</time>
      </trkpt>
      <trkpt lat="48.689051" lon="9.999352">
        <ele>667.289586</ele>
        <time>2024-09-08T09:12:46.000Z</time>
      </trkpt>
      <trkpt lat="48.689154" lon="9.999371">
        <ele>667.660968</ele>
        <time>2024-09-08T09:12:48.000Z</time>
      </trkpt>
      <trkpt lat="48.689258" lon="9.999395">
        <ele>668.037500</ele>
        <time>2024-09-08T09:12:50.000Z</time>
      </trkpt>
      <trkpt lat="48.689362" lon="9.999408">
        <ele>668.411003</ele>
        <time>2024-09-08T09:12:52.000Z</time>
      </trkpt>
      <trkpt lat="48.689469" lon="9.999416">
        <ele>668.794444</ele>
        <time>2024-09-08T09:12:54.000Z</time>
      </trkpt>
      <trkpt lat="48.689573" lon="9.999410">
        <ele>669.166951</ele>
        <time>2024-09-08T09:12:56.000Z</time>
      </trkpt>
      <trkpt lat="48.689679" lon="9.999391">
        <ele>669.548994</ele>
        <time>2024-09-08T09:12:58.000Z</time>
      </trkpt>
      <trkpt lat="48.689785" lon="9.999366">
        <ele>669.932961</ele>
        <time>2024-09-08T09:13:00.000Z</time>
      </trkpt>
      <trkpt lat="48.689894" lon="9.999346">
        <ele>670.325946</ele>
        <time>2024-09-08T09:13:02.000Z</time>
      </trkpt>
      <trkpt lat="48.690003" lon="9.999311">
        <ele>670.724748</ele>
        <time>2024-09-08T09:13:04.000Z</time>
      </trkpt>
      <trkpt lat="48.690107" lon="9.999284">
        <ele>671.094243</ele>
        <time>2024-09-08T09:13:06.000Z</time>
      </trkpt>
      <trkpt lat="48.690212" lon="9.999260">
        <ele>671.454514</ele>
        <time>2024-09-08T09:13:08.000Z</time>
      </trkpt>
      <trkpt lat="48.690314" lon="9.999231">
        <ele>671.806617</ele>
        <time>2024-09-08T09:13:10.000Z</time>
      </trkpt>
      <trkpt lat="48.690423" lon="9.999208">
        <ele>672.179997</ele>
        <time>2024-09-08T09:13:12.000Z</time>
      </trkpt>
      <trkpt lat="48.690534" lon="9.999189">
        <ele>672.558989</ele>
        <time>2024-09-08T09:13:14.000Z</time>
      </trkpt>
      <trkpt lat="48.690639" lon="9.999164">
        <ele>672.919601</ele>
        <time>2024-09-08T09:13:16.000Z</time>
      </trkpt>
      <trkpt lat="48.690747" lon="9.999135">
        <ele>673.291730</ele>
        <time>2024-09-08T09:13:18.000Z</time>
      </trkpt>
      <trkpt lat="48.690849" lon="9.999114">
        <ele>673.640972</ele>
        <time>2024-09-08T09:13:20.000Z</time>
      </trkpt>
      <trkpt lat="48.690954" lon="9.999091">
        <ele>674.000916</ele>
        <time>2024-09-08T09:13:22.000Z</time>
      </trkpt>
      <trkpt lat="48.691058" lon="9.999066">
        <ele>674.358177</ele>
        <time>2024-09-08T09:13:24.000Z</time>
      </trkpt>
      <trkpt lat="48.691162" lon="9.999046">
        <ele>674.713854</ele>
        <time>2024-09-08T09:13:26.000Z</time>
      </trkpt>
      <trkpt lat="48.691264" lon="9.999027">
        <ele>675.062521</ele>
        <time>2024-09-08T09:13:28.000Z</time>
      </trkpt>
      <trkpt lat="48.691369" lon="9.999005">
        <ele>675.422151</ele>
        <time>2024-09-08T09:13:30.000Z</time>
      </trkpt>
      <trkpt lat="48.691473" lon="9.998982">
        <ele>675.778738</ele>
        <time>2024-09-08T09:13:32.000Z</time>
      </trkpt>
      <trkpt lat="48.691576" lon="9.998958">
        <ele>676.132301</ele>
        <time>2024-09-08T09:13:34.000Z</time>
      </trkpt>
      <trkpt lat="48.691680" lon="9.998935">
        <ele>676.488887</ele>
        <time>2024-09-08T09:13:36.000Z</time>
      </trkpt>
      <trkpt lat="48.691789" lon="9.998909">
        <ele>676.863253</ele>
        <time>2024-09-08T09:13:38.000Z</time>
      </trkpt>
      <trkpt lat="48.691891" lon="9.998891">
        <ele>677.221375</ele>
        <time>2024-09-08T09:13:40.000Z</time>
      </trkpt>
      <trkpt lat="48.691998" lon="9.998874">
        <ele>677.608064</ele>
        <time>2024-09-08T09:13:42.000Z</time>
      </trkpt>
      <trkpt lat="48.692108" lon="9.998856">
        <ele>678.005726</ele>
        <time>2024-09-08T09:13:44.000Z</time>
      </trkpt>
      <trkpt lat="48.692213" lon="9.998823">
        <ele>678.391153</ele>
        <time>2024-09-08T09:13:46.000Z</time>
      </trkpt>
      <trkpt lat="48.692318" lon="9.998791">
        <ele>678.776105</ele>
        <time>2024-09-08T09:13:47.999Z</time>
      </trkpt>
      <trkpt lat="48.692425" lon="9.998773">
        <ele>679.163049</ele>
        <time>2024-09-08T09:13:49.999Z</time>
      </trkpt>
      <trkpt lat="48.692535" lon="9.998745">
        <ele>679.563953</ele>
        <time>2024-09-08T09:13:51.999Z</time>
      </trkpt>
      <trkpt lat="48.692642" lon="9.998721">
        <ele>679.952725</ele>
        <time>2024-09-08T09:13:53.999Z</time>
      </trkpt>
      <trkpt lat="48.692750" lon="9.998700">
        <ele>680.344084</ele>
        <time>2024-09-08T09:13:55.999Z</time>
      </trkpt>
      <trkpt lat="48.692868" lon="9.998673">
        <ele>680.773010</ele>
        <time>2024-09-08T09:13:57.999Z</time>
      </trkpt>
      <trkpt lat="48.692987" lon="9.998656">
        <ele>681.202618</ele>
        <time>2024-09-08T09:13:59.999Z</time>
      </trkpt>
      <trkpt lat="48.693104" lon="9.998632">
        <ele>681.626977</ele>
        <time>2024-09-08T09:14:01.999Z</time>
      </trkpt>
      <trkpt lat="48.693215" lon="9.998596">
        <ele>682.034973</ele>
        <time>2024-09-08T09:14:03.999Z</time>
      </trkpt>
      <trkpt lat="48.693330" lon="9.998575">
        <ele>682.451299</ele>
        <time>2024-09-08T09:14:05.999Z</time>
      </trkpt>
      <trkpt lat="48.693445" lon="9.998557">
        <ele>682.866832</ele>
        <time>2024-09-08T09:14:07.999Z</time>
      </trkpt>
      <trkpt lat="48.693561" lon="9.998529">
        <ele>683.289019</ele>
        <time>2024-09-08T09:14:09.999Z</time>
      </trkpt>
      <trkpt lat="48.693675" lon="9.998500">
        <ele>683.678785</ele>
        <time>2024-09-08T09:14:11.999Z</time>
      </trkpt>
      <trkpt lat="48.693793" lon="9.998477">
        <ele>684.049099</ele>
        <time>2024-09-08T09:14:13.999Z</time>
      </trkpt>
      <trkpt lat="48.693905" lon="9.998451">
        <ele>684.401779</ele>
        <time>2024-09-08T09:14:15.999Z</time>
      </trkpt>
      <trkpt lat="48.694019" lon="9.998433">
        <ele>684.758537</ele>
        <time>2024-09-08T09:14:17.999Z</time>
      </trkpt>
      <trkpt lat="48.694129" lon="9.998404">
        <ele>685.106068</ele>
        <time>2024-09-08T09:14:19.999Z</time>
      </trkpt>
      <trkpt lat="48.694243" lon="9.998374">
        <ele>685.466218</ele>
        <time>2024-09-08T09:14:21.999Z</time>
      </trkpt>
      <trkpt lat="48.694347" lon="9.998348">
        <ele>685.794306</ele>
        <time>2024-09-08T09:14:23.999Z</time>
      </trkpt>
      <trkpt lat="48.694451" lon="9.998333">
        <ele>686.119480</ele>
        <time>2024-09-08T09:14:25.999Z</time>
      </trkpt>
      <trkpt lat="48.694560" lon="9.998315">
        <ele>686.460763</ele>
        <time>2024-09-08T09:14:27.999Z</time>
      </trkpt>
      <trkpt lat="48.694666" lon="9.998299">
        <ele>686.792332</ele>
        <time>2024-09-08T09:14:29.999Z</time>
      </trkpt>
      <trkpt lat="48.694774" lon="9.998291">
        <ele>687.128894</ele>
        <time>2024-09-08T09:14:31.999Z</time>
      </trkpt>
      <trkpt lat="48.694886" lon="9.998288">
        <ele>687.477560</ele>
        <time>2024-09-08T09:14:33.999Z</time>
      </trkpt>
      <trkpt lat="48.695002" lon="9.998297">
        <ele>687.839094</ele>
        <time>2024-09-08T09:14:35.999Z</time>
      </trkpt>
      <trkpt lat="48.695114" lon="9.998307">
        <ele>688.188310</ele>
        <time>2024-09-08T09:14:37.999Z</time>
      </trkpt>
      <trkpt lat="48.695227" lon="9.998326">
        <ele>688.542193</ele>
        <time>2024-09-08T09:14:40.000Z</time>
      </trkpt>
      <trkpt lat="48.695337" lon="9.998360">
        <ele>688.891632</ele>
        <time>2024-09-08T09:14:42.000Z</time>
      </trkpt>
      <trkpt lat="48.695451" lon="9.998391">
        <ele>689.196292</ele>
        <time>2024-09-08T09:14:44.000Z</time>
      </trkpt>
      <trkpt lat="48.695564" lon="9.998430">
        <ele>689.414211</ele>
        <time>2024-09-08T09:14:46.000Z</time>
      </trkpt>
      <trkpt lat="48.695670" lon="9.998492">
        <ele>689.627861</ele>
        <time>2024-09-08T09:14:48.000Z</time>
      </trkpt>
      <trkpt lat="48.695771" lon="9.998556">
        <ele>689.833715</ele>
        <time>2024-09-08T09:14:50.000Z</time>
      </trkpt>
      <trkpt lat="48.695875" lon="9.998619">
        <ele>690.044319</ele>
        <time>2024-09-08T09:14:52.000Z</time>
      </trkpt>
      <trkpt lat="48.695979" lon="9.998680">
        <ele>690.254014</ele>
        <time>2024-09-08T09:14:54.000Z</time>
      </trkpt>
      <trkpt lat="48.696088" lon="9.998749">
        <ele>690.476139</ele>
        <time>2024-09-08T09:14:56.000Z</time>
      </trkpt>
      <trkpt lat="48.696198" lon="9.998812">
        <ele>690.697259</ele>
        <time>2024-09-08T09:14:58.000Z</time>
      </trkpt>
      <trkpt lat="48.696311" lon="9.998878">
        <ele>690.924976</ele>
        <time>2024-09-08T09:15:00.000Z</time>
      </trkpt>
      <trkpt lat="48.696425" lon="9.998937">
        <ele>691.151493</ele>
        <time>2024-09-08T09:15:02.000Z</time>
      </trkpt>
      <trkpt lat="48.696536" lon="9.999012">
        <ele>691.380022</ele>
        <time>2024-09-08T09:15:04.000Z</time>
      </trkpt>
      <trkpt lat="48.696649" lon="9.999079">
        <ele>691.608189</ele>
        <time>2024-09-08T09:15:06.000Z</time>
      </trkpt>
      <trkpt lat="48.696762" lon="9.999146">
        <ele>691.836355</ele>
        <time>2024-09-08T09:15:08.000Z</time>
      </trkpt>
      <trkpt lat="48.696878" lon="9.999215">
        <ele>692.070679</ele>
        <time>2024-09-08T09:15:10.000Z</time>
      </trkpt>
      <trkpt lat="48.696992" lon="9.999287">
        <ele>692.302914</ele>
        <time>2024-09-08T09:15:12.000Z</time>
      </trkpt>
      <trkpt lat="48.697103" lon="9.999350">
        <ele>692.510785</ele>
        <time>2024-09-08T09:15:14.000Z</time>
      </trkpt>
      <trkpt lat="48.697206" lon="9.999413">
        <ele>692.623831</ele>
        <time>2024-09-08T09:15:16.000Z</time>
      </trkpt>
      <trkpt lat="48.697319" lon="9.999477">
        <ele>692.746607</ele>
        <time>2024-09-08T09:15:18.000Z</time>
      </trkpt>
      <trkpt lat="48.697429" lon="9.999535">
        <ele>692.865143</ele>
        <time>2024-09-08T09:15:20.000Z</time>
      </trkpt>
      <trkpt lat="48.697539" lon="9.999604">
        <ele>692.986309</ele>
        <time>2024-09-08T09:15:22.000Z</time>
      </trkpt>
      <trkpt lat="48.697651" lon="9.999662">
        <ele>693.106769</ele>
        <time>2024-09-08T09:15:24.000Z</time>
      </trkpt>
      <trkpt lat="48.697765" lon="9.999727">
        <ele>693.230733</ele>
        <time>2024-09-08T09:15:26.000Z</time>
      </trkpt>
      <trkpt lat="48.697885" lon="9.999788">
        <ele>693.359551</ele>
        <time>2024-09-08T09:15:28.000Z</time>
      </trkpt>
      <trkpt lat="48.698002" lon="9.999846">
        <ele>693.484837</ele>
        <time>2024-09-08T09:15:30.000Z</time>
      </trkpt>
      <trkpt lat="48.698114" lon="9.999885">
        <ele>693.601794</ele>
        <time>2024-09-08T09:15:32.000Z</time>
      </trkpt>
      <trkpt lat="48.698230" lon="9.999930">
        <ele>693.723659</ele>
        <time>2024-09-08T09:15:34.000Z</time>
      </trkpt>
      <trkpt lat="48.698347" lon="9.999960">
        <ele>693.844426</ele>
        <time>2024-09-08T09:15:36.000Z</time>
      </trkpt>
      <trkpt lat="48.698467" lon="9.999993">
        <ele>693.968549</ele>
        <time>2024-09-08T09:15:38.000Z</time>
      </trkpt>
      <trkpt lat="48.698581" lon="10.000015">
        <ele>694.085507</ele>
        <time>2024-09-08T09:15:39.999Z</time>
      </trkpt>
      <trkpt lat="48.698696" lon="10.000029">
        <ele>694.202923</ele>
        <time>2024-09-08T09:15:41.999Z</time>
      </trkpt>
      <trkpt lat="48.698801" lon="10.000049">
        <ele>694.310625</ele>
        <time>2024-09-08T09:15:43.999Z</time>
      </trkpt>
      <trkpt lat="48.698902" lon="10.000045">
        <ele>694.346763</ele>
        <time>2024-09-08T09:15:45.999Z</time>
      </trkpt>
      <trkpt lat="48.698993" lon="10.000050">
        <ele>694.370648</ele>
        <time>2024-09-08T09:15:47.999Z</time>
      </trkpt>
      <trkpt lat="48.699118" lon="10.000053">
        <ele>694.403440</ele>
        <time>2024-09-08T09:15:50.999Z</time>
      </trkpt>
      <trkpt lat="48.699214" lon="10.000051">
        <ele>694.428624</ele>
        <time>2024-09-08T09:15:52.999Z</time>
      </trkpt>
      <trkpt lat="48.699341" lon="10.000052">
        <ele>694.461937</ele>
        <time>2024-09-08T09:15:55.999Z</time>
      </trkpt>
      <trkpt lat="48.699456" lon="10.000044">
        <ele>694.492134</ele>
        <time>2024-09-08T09:15:58.999Z</time>
      </trkpt>
      <trkpt lat="48.699554" lon="10.000057">
        <ele>694.517938</ele>
        <time>2024-09-08T09:16:01.999Z</time>
      </trkpt>
      <trkpt lat="48.699653" lon="10.000067">
        <ele>694.543964</ele>
        <time>2024-09-08T09:16:04.999Z</time>
      </trkpt>
      <trkpt lat="48.699742" lon="10.000106">
        <ele>694.568266</ele>
        <time>2024-09-08T09:16:24.999Z</time>
      </trkpt>
      <trkpt lat="48.699651" lon="10.000093">
        <ele>694.592242</ele>
        <time>2024-09-08T09:18:05.999Z</time>
      </trkpt>
      <trkpt lat="48.699786" lon="10.000073">
        <ele>694.627822</ele>
        <time>2024-09-08T09:21:34.000Z</time>
      </trkpt>
      <trkpt lat="48.699879" lon="10.000062">
        <ele>694.652290</ele>
        <time>2024-09-08T09:21:40.000Z</time>
      </trkpt>
      <trkpt lat="48.699989" lon="10.000069">
        <ele>694.681169</ele>
        <time>2024-09-08T09:21:44.000Z</time>
      </trkpt>
      <trkpt lat="48.700082" lon="10.000073">
        <ele>694.705574</ele>
        <time>2024-09-08T09:21:47.000Z</time>
      </trkpt>
      <trkpt lat="48.700173" lon="10.000084">
        <ele>694.729519</ele>
        <time>2024-09-08T09:21:50.000Z</time>
      </trkpt>
      <trkpt lat="48.700265" lon="10.000090">
        <ele>694.753674</ele>
        <time>2024-09-08T09:21:53.000Z</time>
      </trkpt>
      <trkpt lat="48.700383" lon="10.000073">
        <ele>694.784765</ele>
        <time>2024-09-08T09:21:57.000Z</time>
      </trkpt>
      <trkpt lat="48.700499" lon="10.000072">
        <ele>694.629354</ele>
        <time>2024-09-08T09:22:00.000Z</time>
      </trkpt>
      <trkpt lat="48.700626" lon="10.000067">
        <ele>694.349799</ele>
        <time>2024-09-08T09:22:03.000Z</time>
      </trkpt>
      <trkpt lat="48.700724" lon="10.000041">
        <ele>694.130871</ele>
        <time>2024-09-08T09:22:05.000Z</time>
      </trkpt>
      <trkpt lat="48.700824" lon="9.999989">
        <ele>693.898224</ele>
        <time>2024-09-08T09:22:07.000Z</time>
      </trkpt>
      <trkpt lat="48.700929" lon="9.999930">
        <ele>693.651797</ele>
        <time>2024-09-08T09:22:09.000Z</time>
      </trkpt>
      <trkpt lat="48.701022" lon="9.999896">
        <ele>693.441279</ele>
        <time>2024-09-08T09:22:11.000Z</time>
      </trkpt>
      <trkpt lat="48.701126" lon="10.000073">
        <ele>693.097114</ele>
        <time>2024-09-08T09:22:14.000Z</time>
      </trkpt>
      <trkpt lat="48.701129" lon="10.000258">
        <ele>692.828360</ele>
        <time>2024-09-08T09:22:16.000Z</time>
      </trkpt>
      <trkpt lat="48.701106" lon="10.000427">
        <ele>692.577759</ele>
        <time>2024-09-08T09:22:18.000Z</time>
      </trkpt>
      <trkpt lat="48.701087" lon="10.000623">
        <ele>692.290056</ele>
        <time>2024-09-08T09:22:20.000Z</time>
      </trkpt>
      <trkpt lat="48.701062" lon="10.000814">
        <ele>692.007266</ele>
        <time>2024-09-08T09:22:22.000Z</time>
      </trkpt>
      <trkpt lat="48.701060" lon="10.001020">
        <ele>691.708062</ele>
        <time>2024-09-08T09:22:24.000Z</time>
      </trkpt>
      <trkpt lat="48.701070" lon="10.001228">
        <ele>691.405185</ele>
        <time>2024-09-08T09:22:26.000Z</time>
      </trkpt>
      <trkpt lat="48.701082" lon="10.001440">
        <ele>691.096169</ele>
        <time>2024-09-08T09:22:28.000Z</time>
      </trkpt>
      <trkpt lat="48.701092" lon="10.001659">
        <ele>690.773715</ele>
        <time>2024-09-08T09:22:30.000Z</time>
      </trkpt>
      <trkpt lat="48.701091" lon="10.001880">
        <ele>690.433320</ele>
        <time>2024-09-08T09:22:32.000Z</time>
      </trkpt>
      <trkpt lat="48.701105" lon="10.002108">
        <ele>690.080635</ele>
        <time>2024-09-08T09:22:34.000Z</time>
      </trkpt>
      <trkpt lat="48.701137" lon="10.002359">
        <ele>689.686895</ele>
        <time>2024-09-08T09:22:36.000Z</time>
      </trkpt>
      <trkpt lat="48.701141" lon="10.002497">
        <ele>689.474141</ele>
        <time>2024-09-08T09:22:37.000Z</time>
      </trkpt>
      <trkpt lat="48.701158" lon="10.002754">
        <ele>689.076324</ele>
        <time>2024-09-08T09:22:39.000Z</time>
      </trkpt>
      <trkpt lat="48.701160" lon="10.003015">
        <ele>688.674302</ele>
        <time>2024-09-08T09:22:41.000Z</time>
      </trkpt>
      <trkpt lat="48.701177" lon="10.003280">
        <ele>688.264222</ele>
        <time>2024-09-08T09:22:43.000Z</time>
      </trkpt>
      <trkpt lat="48.701192" lon="10.003546">
        <ele>687.853033</ele>
        <time>2024-09-08T09:22:45.000Z</time>
      </trkpt>
      <trkpt lat="48.701200" lon="10.003682">
        <ele>687.642735</ele>
        <time>2024-09-08T09:22:46.000Z</time>
      </trkpt>
      <trkpt lat="48.701209" lon="10.003824">
        <ele>687.423019</ele>
        <time>2024-09-08T09:22:47.000Z</time>
      </trkpt>
      <trkpt lat="48.701217" lon="10.003962">
        <ele>687.209651</ele>
        <time>2024-09-08T09:22:48.000Z</time>
      </trkpt>
      <trkpt lat="48.701225" lon="10.004105">
        <ele>686.988612</ele>
        <time>2024-09-08T09:22:49.000Z</time>
      </trkpt>
      <trkpt lat="48.701233" lon="10.004249">
        <ele>686.766037</ele>
        <time>2024-09-08T09:22:50.000Z</time>
      </trkpt>
      <trkpt lat="48.701239" lon="10.004395">
        <ele>686.386515</ele>
        <time>2024-09-08T09:22:51.000Z</time>
      </trkpt>
      <trkpt lat="48.701243" lon="10.004542">
        <ele>685.807966</ele>
        <time>2024-09-08T09:22:52.000Z</time>
      </trkpt>
      <trkpt lat="48.701239" lon="10.004689">
        <ele>685.229418</ele>
        <time>2024-09-08T09:22:53.000Z</time>
      </trkpt>
      <trkpt lat="48.701226" lon="10.004836">
        <ele>684.646194</ele>
        <time>2024-09-08T09:22:54.000Z</time>
      </trkpt>
      <trkpt lat="48.701219" lon="10.004987">
        <ele>684.050944</ele>
        <time>2024-09-08T09:22:55.000Z</time>
      </trkpt>
      <trkpt lat="48.701177" lon="10.005126">
        <ele>683.449783</ele>
        <time>2024-09-08T09:22:56.000Z</time>
      </trkpt>
      <trkpt lat="48.701129" lon="10.005255">
        <ele>682.867441</ele>
        <time>2024-09-08T09:22:57.000Z</time>
      </trkpt>
      <trkpt lat="48.701077" lon="10.005383">
        <ele>682.276383</ele>
        <time>2024-09-08T09:22:58.000Z</time>
      </trkpt>
      <trkpt lat="48.700995" lon="10.005485">
        <ele>681.644251</ele>
        <time>2024-09-08T09:22:59.000Z</time>
      </trkpt>
      <trkpt lat="48.700933" lon="10.005604">
        <ele>681.048058</ele>
        <time>2024-09-08T09:23:00.000Z</time>
      </trkpt>
      <trkpt lat="48.700868" lon="10.005726">
        <ele>680.431493</ele>
        <time>2024-09-08T09:23:01.000Z</time>
      </trkpt>
      <trkpt lat="48.700800" lon="10.005852">
        <ele>679.791448</ele>
        <time>2024-09-08T09:23:02.000Z</time>
      </trkpt>
      <trkpt lat="48.700732" lon="10.005978">
        <ele>679.151402</ele>
        <time>2024-09-08T09:23:03.000Z</time>
      </trkpt>
      <trkpt lat="48.700660" lon="10.006109">
        <ele>678.481020</ele>
        <time>2024-09-08T09:23:04.000Z</time>
      </trkpt>
      <trkpt lat="48.700587" lon="10.006242">
        <ele>677.800782</ele>
        <time>2024-09-08T09:23:05.000Z</time>
      </trkpt>
      <trkpt lat="48.700513" lon="10.006379">
        <ele>677.104618</ele>
        <time>2024-09-08T09:23:06.000Z</time>
      </trkpt>
      <trkpt lat="48.700435" lon="10.006520">
        <ele>676.381136</ele>
        <time>2024-09-08T09:23:07.000Z</time>
      </trkpt>
      <trkpt lat="48.700356" lon="10.006663">
        <ele>675.548231</ele>
        <time>2024-09-08T09:23:08.000Z</time>
      </trkpt>
      <trkpt lat="48.700272" lon="10.006815">
        <ele>674.486823</ele>
        <time>2024-09-08T09:23:09.000Z</time>
      </trkpt>
      <trkpt lat="48.700188" lon="10.006969">
        <ele>673.417181</ele>
        <time>2024-09-08T09:23:10.000Z</time>
      </trkpt>
      <trkpt lat="48.700102" lon="10.007133">
        <ele>672.295726</ele>
        <time>2024-09-08T09:23:11.000Z</time>
      </trkpt>
      <trkpt lat="48.700016" lon="10.007300">
        <ele>671.161650</ele>
        <time>2024-09-08T09:23:12.000Z</time>
      </trkpt>
      <trkpt lat="48.699927" lon="10.007465">
        <ele>670.020753</ele>
        <time>2024-09-08T09:23:13.000Z</time>
      </trkpt>
      <trkpt lat="48.699835" lon="10.007634">
        <ele>668.847860</ele>
        <time>2024-09-08T09:23:14.000Z</time>
      </trkpt>
      <trkpt lat="48.699740" lon="10.007808">
        <ele>667.638828</ele>
        <time>2024-09-08T09:23:15.000Z</time>
      </trkpt>
      <trkpt lat="48.699646" lon="10.007981">
        <ele>666.439088</ele>
        <time>2024-09-08T09:23:16.000Z</time>
      </trkpt>
      <trkpt lat="48.699553" lon="10.008159">
        <ele>665.223612</ele>
        <time>2024-09-08T09:23:17.000Z</time>
      </trkpt>
      <trkpt lat="48.699471" lon="10.008356">
        <ele>663.976635</ele>
        <time>2024-09-08T09:23:18.000Z</time>
      </trkpt>
      <trkpt lat="48.699404" lon="10.008557">
        <ele>662.771016</ele>
        <time>2024-09-08T09:23:19.000Z</time>
      </trkpt>
      <trkpt lat="48.699354" lon="10.008768">
        <ele>661.570710</ele>
        <time>2024-09-08T09:23:20.000Z</time>
      </trkpt>
      <trkpt lat="48.699310" lon="10.008978">
        <ele>660.810922</ele>
        <time>2024-09-08T09:23:21.000Z</time>
      </trkpt>
      <trkpt lat="48.699265" lon="10.009185">
        <ele>660.164411</ele>
        <time>2024-09-08T09:23:22.000Z</time>
      </trkpt>
      <trkpt lat="48.699220" lon="10.009390">
        <ele>659.523531</ele>
        <time>2024-09-08T09:23:23.000Z</time>
      </trkpt>
      <trkpt lat="48.699176" lon="10.009593">
        <ele>658.889695</ele>
        <time>2024-09-08T09:23:24.000Z</time>
      </trkpt>
      <trkpt lat="48.699131" lon="10.009796">
        <ele>658.254442</ele>
        <time>2024-09-08T09:23:25.000Z</time>
      </trkpt>
      <trkpt lat="48.699103" lon="10.009998">
        <ele>657.642141</ele>
        <time>2024-09-08T09:23:26.000Z</time>
      </trkpt>
      <trkpt lat="48.699047" lon="10.010181">
        <ele>657.043764</ele>
        <time>2024-09-08T09:23:27.000Z</time>
      </trkpt>
      <trkpt lat="48.699020" lon="10.010383">
        <ele>656.432369</ele>
        <time>2024-09-08T09:23:28.000Z</time>
      </trkpt>
      <trkpt lat="48.698971" lon="10.010569">
        <ele>655.838273</ele>
        <time>2024-09-08T09:23:29.000Z</time>
      </trkpt>
      <trkpt lat="48.698907" lon="10.010741">
        <ele>655.252538</ele>
        <time>2024-09-08T09:23:30.000Z</time>
      </trkpt>
      <trkpt lat="48.698848" lon="10.010917">
        <ele>654.666951</ele>
        <time>2024-09-08T09:23:31.000Z</time>
      </trkpt>
      <trkpt lat="48.698787" lon="10.011086">
        <ele>654.095542</ele>
        <time>2024-09-08T09:23:32.000Z</time>
      </trkpt>
      <trkpt lat="48.698731" lon="10.011261">
        <ele>653.518605</ele>
        <time>2024-09-08T09:23:33.000Z</time>
      </trkpt>
      <trkpt lat="48.698666" lon="10.011430">
        <ele>652.828412</ele>
        <time>2024-09-08T09:23:34.000Z</time>
      </trkpt>
      <trkpt lat="48.698604" lon="10.011601">
        <ele>652.044427</ele>
        <time>2024-09-08T09:23:35.000Z</time>
      </trkpt>
      <trkpt lat="48.698539" lon="10.011771">
        <ele>651.254966</ele>
        <time>2024-09-08T09:23:36.000Z</time>
      </trkpt>
      <trkpt lat="48.698473" lon="10.011941">
        <ele>650.462434</ele>
        <time>2024-09-08T09:23:37.000Z</time>
      </trkpt>
      <trkpt lat="48.698406" lon="10.012111">
        <ele>649.666798</ele>
        <time>2024-09-08T09:23:38.000Z</time>
      </trkpt>
      <trkpt lat="48.698331" lon="10.012273">
        <ele>648.871650</ele>
        <time>2024-09-08T09:23:39.000Z</time>
      </trkpt>
      <trkpt lat="48.698283" lon="10.012461">
        <ele>648.061649</ele>
        <time>2024-09-08T09:23:40.000Z</time>
      </trkpt>
      <trkpt lat="48.698214" lon="10.012637">
        <ele>647.239065</ele>
        <time>2024-09-08T09:23:41.000Z</time>
      </trkpt>
      <trkpt lat="48.698157" lon="10.012821">
        <ele>646.422299</ele>
        <time>2024-09-08T09:23:42.000Z</time>
      </trkpt>
      <trkpt lat="48.698107" lon="10.013017">
        <ele>645.577920</ele>
        <time>2024-09-08T09:23:43.000Z</time>
      </trkpt>
      <trkpt lat="48.698057" lon="10.013212">
        <ele>644.737288</ele>
        <time>2024-09-08T09:23:44.000Z</time>
      </trkpt>
      <trkpt lat="48.698008" lon="10.013413">
        <ele>643.876264</ele>
        <time>2024-09-08T09:23:45.000Z</time>
      </trkpt>
      <trkpt lat="48.697961" lon="10.013617">
        <ele>643.008010</ele>
        <time>2024-09-08T09:23:46.000Z</time>
      </trkpt>
      <trkpt lat="48.697912" lon="10.013821">
        <ele>642.243940</ele>
        <time>2024-09-08T09:23:47.000Z</time>
      </trkpt>
      <trkpt lat="48.697860" lon="10.014024">
        <ele>641.952654</ele>
        <time>2024-09-08T09:23:48.000Z</time>
      </trkpt>
      <trkpt lat="48.697810" lon="10.014228">
        <ele>641.661557</ele>
        <time>2024-09-08T09:23:49.000Z</time>
      </trkpt>
      <trkpt lat="48.697762" lon="10.014429">
        <ele>641.375623</ele>
        <time>2024-09-08T09:23:50.000Z</time>
      </trkpt>
      <trkpt lat="48.697719" lon="10.014624">
        <ele>641.100599</ele>
        <time>2024-09-08T09:23:51.000Z</time>
      </trkpt>
      <trkpt lat="48.697681" lon="10.014819">
        <ele>640.828616</ele>
        <time>2024-09-08T09:23:52.000Z</time>
      </trkpt>
      <trkpt lat="48.697646" lon="10.015013">
        <ele>640.559583</ele>
        <time>2024-09-08T09:23:53.000Z</time>
      </trkpt>
      <trkpt lat="48.697614" lon="10.015206">
        <ele>640.293386</ele>
        <time>2024-09-08T09:23:54.000Z</time>
      </trkpt>
      <trkpt lat="48.697587" lon="10.015396">
        <ele>640.033399</ele>
        <time>2024-09-08T09:23:55.000Z</time>
      </trkpt>
      <trkpt lat="48.697560" lon="10.015584">
        <ele>639.776026</ele>
        <time>2024-09-08T09:23:56.000Z</time>
      </trkpt>
      <trkpt lat="48.697533" lon="10.015770">
        <ele>639.521268</ele>
        <time>2024-09-08T09:23:57.000Z</time>
      </trkpt>
      <trkpt lat="48.697509" lon="10.015952">
        <ele>639.272994</ele>
        <time>2024-09-08T09:23:58.000Z</time>
      </trkpt>
      <trkpt lat="48.697489" lon="10.016133">
        <ele>639.027501</ele>
        <time>2024-09-08T09:23:59.000Z</time>
      </trkpt>
      <trkpt lat="48.697461" lon="10.016312">
        <ele>638.781419</ele>
        <time>2024-09-08T09:24:00.000Z</time>
      </trkpt>
      <trkpt lat="48.697438" lon="10.016488">
        <ele>638.496690</ele>
        <time>2024-09-08T09:24:01.000Z</time>
      </trkpt>
      <trkpt lat="48.697397" lon="10.016653">
        <ele>638.166006</ele>
        <time>2024-09-08T09:24:02.000Z</time>
      </trkpt>
      <trkpt lat="48.697367" lon="10.016820">
        <ele>637.841382</ele>
        <time>2024-09-08T09:24:03.000Z</time>
      </trkpt>
      <trkpt lat="48.697331" lon="10.016987">
        <ele>637.511868</ele>
        <time>2024-09-08T09:24:04.000Z</time>
      </trkpt>
      <trkpt lat="48.697285" lon="10.017161">
        <ele>637.160302</ele>
        <time>2024-09-08T09:24:05.000Z</time>
      </trkpt>
      <trkpt lat="48.697237" lon="10.017331">
        <ele>636.813494</ele>
        <time>2024-09-08T09:24:06.000Z</time>
      </trkpt>
      <trkpt lat="48.697185" lon="10.017505">
        <ele>636.455238</ele>
        <time>2024-09-08T09:24:07.000Z</time>
      </trkpt>
      <trkpt lat="48.697131" lon="10.017676">
        <ele>636.099685</ele>
        <time>2024-09-08T09:24:08.000Z</time>
      </trkpt>
      <trkpt lat="48.697074" lon="10.017850">
        <ele>635.735338</ele>
        <time>2024-09-08T09:24:09.000Z</time>
      </trkpt>
      <trkpt lat="48.697020" lon="10.018021">
        <ele>635.379784</ele>
        <time>2024-09-08T09:24:10.000Z</time>
      </trkpt>
      <trkpt lat="48.696966" lon="10.018187">
        <ele>635.032666</ele>
        <time>2024-09-08T09:24:11.000Z</time>
      </trkpt>
      <trkpt lat="48.696914" lon="10.018352">
        <ele>634.689716</ele>
        <time>2024-09-08T09:24:12.000Z</time>
      </trkpt>
      <trkpt lat="48.696858" lon="10.018525">
        <ele>634.328307</ele>
        <time>2024-09-08T09:24:13.000Z</time>
      </trkpt>
      <trkpt lat="48.696817" lon="10.018708">
        <ele>633.965828</ele>
        <time>2024-09-08T09:24:14.000Z</time>
      </trkpt>
      <trkpt lat="48.696760" lon="10.018883">
        <ele>633.599798</ele>
        <time>2024-09-08T09:24:15.000Z</time>
      </trkpt>
      <trkpt lat="48.696700" lon="10.019055">
        <ele>633.055546</ele>
        <time>2024-09-08T09:24:16.000Z</time>
      </trkpt>
      <trkpt lat="48.696641" lon="10.019229">
        <ele>632.473932</ele>
        <time>2024-09-08T09:24:17.000Z</time>
      </trkpt>
      <trkpt lat="48.696584" lon="10.019405">
        <ele>631.891046</ele>
        <time>2024-09-08T09:24:18.000Z</time>
      </trkpt>
      <trkpt lat="48.696526" lon="10.019584">
        <ele>631.298168</ele>
        <time>2024-09-08T09:24:19.000Z</time>
      </trkpt>
      <trkpt lat="48.696470" lon="10.019770">
        <ele>630.690331</ele>
        <time>2024-09-08T09:24:20.000Z</time>
      </trkpt>
      <trkpt lat="48.696412" lon="10.019957">
        <ele>630.076011</ele>
        <time>2024-09-08T09:24:21.000Z</time>
      </trkpt>
      <trkpt lat="48.696353" lon="10.020149">
        <ele>629.446315</ele>
        <time>2024-09-08T09:24:22.000Z</time>
      </trkpt>
      <trkpt lat="48.696292" lon="10.020346">
        <ele>628.799337</ele>
        <time>2024-09-08T09:24:23.000Z</time>
      </trkpt>
      <trkpt lat="48.696225" lon="10.020540">
        <ele>628.148340</ele>
        <time>2024-09-08T09:24:24.000Z</time>
      </trkpt>
      <trkpt lat="48.696169" lon="10.020745">
        <ele>627.488687</ele>
        <time>2024-09-08T09:24:25.000Z</time>
      </trkpt>
      <trkpt lat="48.696113" lon="10.020945">
        <ele>626.842744</ele>
        <time>2024-09-08T09:24:26.000Z</time>
      </trkpt>
      <trkpt lat="48.696069" lon="10.021148">
        <ele>626.207463</ele>
        <time>2024-09-08T09:24:27.000Z</time>
      </trkpt>
      <trkpt lat="48.696035" lon="10.021350">
        <ele>625.587645</ele>
        <time>2024-09-08T09:24:28.000Z</time>
      </trkpt>
      <trkpt lat="48.696003" lon="10.021543">
        <ele>625.390012</ele>
        <time>2024-09-08T09:24:29.000Z</time>
      </trkpt>
      <trkpt lat="48.695971" lon="10.021730">
        <ele>625.326164</ele>
        <time>2024-09-08T09:24:30.000Z</time>
      </trkpt>
      <trkpt lat="48.695941" lon="10.021911">
        <ele>625.264485</ele>
        <time>2024-09-08T09:24:31.000Z</time>
      </trkpt>
      <trkpt lat="48.695914" lon="10.022085">
        <ele>625.205410</ele>
        <time>2024-09-08T09:24:32.000Z</time>
      </trkpt>
      <trkpt lat="48.695887" lon="10.022250">
        <ele>625.149226</ele>
        <time>2024-09-08T09:24:33.000Z</time>
      </trkpt>
      <trkpt lat="48.695860" lon="10.022412">
        <ele>625.094003</ele>
        <time>2024-09-08T09:24:34.000Z</time>
      </trkpt>
      <trkpt lat="48.695834" lon="10.022569">
        <ele>625.040505</ele>
        <time>2024-09-08T09:24:35.000Z</time>
      </trkpt>
      <trkpt lat="48.695811" lon="10.022726">
        <ele>624.987353</ele>
        <time>2024-09-08T09:24:36.000Z</time>
      </trkpt>
      <trkpt lat="48.695785" lon="10.022881">
        <ele>624.934497</ele>
        <time>2024-09-08T09:24:37.000Z</time>
      </trkpt>
      <trkpt lat="48.695760" lon="10.023034">
        <ele>624.882403</ele>
        <time>2024-09-08T09:24:38.000Z</time>
      </trkpt>
      <trkpt lat="48.695734" lon="10.023186">
        <ele>624.830506</ele>
        <time>2024-09-08T09:24:39.000Z</time>
      </trkpt>
      <trkpt lat="48.695706" lon="10.023339">
        <ele>624.778031</ele>
        <time>2024-09-08T09:24:40.000Z</time>
      </trkpt>
      <trkpt lat="48.695676" lon="10.023488">
        <ele>624.726545</ele>
        <time>2024-09-08T09:24:41.000Z</time>
      </trkpt>
      <trkpt lat="48.695642" lon="10.023635">
        <ele>624.675064</ele>
        <time>2024-09-08T09:24:42.000Z</time>
      </trkpt>
      <trkpt lat="48.695606" lon="10.023781">
        <ele>624.623553</ele>
        <time>2024-09-08T09:24:43.000Z</time>
      </trkpt>
      <trkpt lat="48.695563" lon="10.023921">
        <ele>624.572518</ele>
        <time>2024-09-08T09:24:44.000Z</time>
      </trkpt>
      <trkpt lat="48.695515" lon="10.024057">
        <ele>624.387403</ele>
        <time>2024-09-08T09:24:45.000Z</time>
      </trkpt>
      <trkpt lat="48.695461" lon="10.024189">
        <ele>623.933903</ele>
        <time>2024-09-08T09:24:46.000Z</time>
      </trkpt>
      <trkpt lat="48.695391" lon="10.024305">
        <ele>623.474929</ele>
        <time>2024-09-08T09:24:47.000Z</time>
      </trkpt>
      <trkpt lat="48.695337" lon="10.024438">
        <ele>623.018943</ele>
        <time>2024-09-08T09:24:48.000Z</time>
      </trkpt>
      <trkpt lat="48.695275" lon="10.024561">
        <ele>622.566997</ele>
        <time>2024-09-08T09:24:49.000Z</time>
      </trkpt>
      <trkpt lat="48.695213" lon="10.024680">
        <ele>622.124276</ele>
        <time>2024-09-08T09:24:50.000Z</time>
      </trkpt>
      <trkpt lat="48.695147" lon="10.024797">
        <ele>621.674835</ele>
        <time>2024-09-08T09:24:51.000Z</time>
      </trkpt>
      <trkpt lat="48.695079" lon="10.024916">
        <ele>621.215194</ele>
        <time>2024-09-08T09:24:52.000Z</time>
      </trkpt>
      <trkpt lat="48.695011" lon="10.025039">
        <ele>620.746660</ele>
        <time>2024-09-08T09:24:53.000Z</time>
      </trkpt>
      <trkpt lat="48.694937" lon="10.025159">
        <ele>620.267094</ele>
        <time>2024-09-08T09:24:54.000Z</time>
      </trkpt>
      <trkpt lat="48.694867" lon="10.025285">
        <ele>619.786159</ele>
        <time>2024-09-08T09:24:55.000Z</time>
      </trkpt>
      <trkpt lat="48.694804" lon="10.025431">
        <ele>619.276780</ele>
        <time>2024-09-08T09:24:56.000Z</time>
      </trkpt>
      <trkpt lat="48.694750" lon="10.025582">
        <ele>618.775262</ele>
        <time>2024-09-08T09:24:57.000Z</time>
      </trkpt>
      <trkpt lat="48.694698" lon="10.025740">
        <ele>618.259687</ele>
        <time>2024-09-08T09:24:58.000Z</time>
      </trkpt>
      <trkpt lat="48.694643" lon="10.025899">
        <ele>617.735469</ele>
        <time>2024-09-08T09:24:59.000Z</time>
      </trkpt>
      <trkpt lat="48.694593" lon="10.026061">
        <ele>617.213223</ele>
        <time>2024-09-08T09:25:00.000Z</time>
      </trkpt>
      <trkpt lat="48.694545" lon="10.026220">
        <ele>616.702642</ele>
        <time>2024-09-08T09:25:01.000Z</time>
      </trkpt>
      <trkpt lat="48.694499" lon="10.026384">
        <ele>615.740977</ele>
        <time>2024-09-08T09:25:02.000Z</time>
      </trkpt>
      <trkpt lat="48.694451" lon="10.026546">
        <ele>614.648740</ele>
        <time>2024-09-08T09:25:03.000Z</time>
      </trkpt>
      <trkpt lat="48.694399" lon="10.026712">
        <ele>613.518539</ele>
        <time>2024-09-08T09:25:04.000Z</time>
      </trkpt>
      <trkpt lat="48.694351" lon="10.026882">
        <ele>612.381230</ele>
        <time>2024-09-08T09:25:05.000Z</time>
      </trkpt>
      <trkpt lat="48.694301" lon="10.027053">
        <ele>611.230840</ele>
        <time>2024-09-08T09:25:06.000Z</time>
      </trkpt>
      <trkpt lat="48.694246" lon="10.027228">
        <ele>610.038637</ele>
        <time>2024-09-08T09:25:07.000Z</time>
      </trkpt>
      <trkpt lat="48.694191" lon="10.027407">
        <ele>608.824172</ele>
        <time>2024-09-08T09:25:08.000Z</time>
      </trkpt>
      <trkpt lat="48.694136" lon="10.027588">
        <ele>607.598543</ele>
        <time>2024-09-08T09:25:09.000Z</time>
      </trkpt>
      <trkpt lat="48.694082" lon="10.027771">
        <ele>606.365559</ele>
        <time>2024-09-08T09:25:10.001Z</time>
      </trkpt>
      <trkpt lat="48.694017" lon="10.027949">
        <ele>605.114308</ele>
        <time>2024-09-08T09:25:11.001Z</time>
      </trkpt>
      <trkpt lat="48.693959" lon="10.028141">
        <ele>603.815521</ele>
        <time>2024-09-08T09:25:12.001Z</time>
      </trkpt>
      <trkpt lat="48.693898" lon="10.028335">
        <ele>602.493756</ele>
        <time>2024-09-08T09:25:13.001Z</time>
      </trkpt>
      <trkpt lat="48.693838" lon="10.028535">
        <ele>601.142461</ele>
        <time>2024-09-08T09:25:14.001Z</time>
      </trkpt>
      <trkpt lat="48.693773" lon="10.028737">
        <ele>599.755884</ele>
        <time>2024-09-08T09:25:15.001Z</time>
      </trkpt>
      <trkpt lat="48.693698" lon="10.028936">
        <ele>598.245809</ele>
        <time>2024-09-08T09:25:16.001Z</time>
      </trkpt>
      <trkpt lat="48.693630" lon="10.029143">
        <ele>596.722126</ele>
        <time>2024-09-08T09:25:17.000Z</time>
      </trkpt>
      <trkpt lat="48.693558" lon="10.029353">
        <ele>595.162718</ele>
        <time>2024-09-08T09:25:18.000Z</time>
      </trkpt>
      <trkpt lat="48.693480" lon="10.029562">
        <ele>593.580547</ele>
        <time>2024-09-08T09:25:19.000Z</time>
      </trkpt>
      <trkpt lat="48.693406" lon="10.029768">
        <ele>592.035035</ele>
        <time>2024-09-08T09:25:20.000Z</time>
      </trkpt>
      <trkpt lat="48.693333" lon="10.029971">
        <ele>590.511658</ele>
        <time>2024-09-08T09:25:21.000Z</time>
      </trkpt>
      <trkpt lat="48.693263" lon="10.030183">
        <ele>588.949569</ele>
        <time>2024-09-08T09:25:22.000Z</time>
      </trkpt>
      <trkpt lat="48.693195" lon="10.030398">
        <ele>587.378502</ele>
        <time>2024-09-08T09:25:23.000Z</time>
      </trkpt>
      <trkpt lat="48.693136" lon="10.030614">
        <ele>585.838030</ele>
        <time>2024-09-08T09:25:24.000Z</time>
      </trkpt>
      <trkpt lat="48.693087" lon="10.030827">
        <ele>584.351582</ele>
        <time>2024-09-08T09:25:25.000Z</time>
      </trkpt>
      <trkpt lat="48.693045" lon="10.031063">
        <ele>582.740832</ele>
        <time>2024-09-08T09:25:26.000Z</time>
      </trkpt>
      <trkpt lat="48.693051" lon="10.031314">
        <ele>581.204338</ele>
        <time>2024-09-08T09:25:27.000Z</time>
      </trkpt>
      <trkpt lat="48.693079" lon="10.031568">
        <ele>579.766023</ele>
        <time>2024-09-08T09:25:28.000Z</time>
      </trkpt>
      <trkpt lat="48.693119" lon="10.031816">
        <ele>578.340118</ele>
        <time>2024-09-08T09:25:29.000Z</time>
      </trkpt>
      <trkpt lat="48.693161" lon="10.032062">
        <ele>576.920919</ele>
        <time>2024-09-08T09:25:30.000Z</time>
      </trkpt>
      <trkpt lat="48.693198" lon="10.032311">
        <ele>575.495379</ele>
        <time>2024-09-08T09:25:31.000Z</time>
      </trkpt>
      <trkpt lat="48.693230" lon="10.032559">
        <ele>574.084011</ele>
        <time>2024-09-08T09:25:32.000Z</time>
      </trkpt>
      <trkpt lat="48.693271" lon="10.032791">
        <ele>572.742589</ele>
        <time>2024-09-08T09:25:33.000Z</time>
      </trkpt>
      <trkpt lat="48.693277" lon="10.033031">
        <ele>571.401159</ele>
        <time>2024-09-08T09:25:34.000Z</time>
      </trkpt>
      <trkpt lat="48.693299" lon="10.033269">
        <ele>570.058892</ele>
        <time>2024-09-08T09:25:35.000Z</time>
      </trkpt>
      <trkpt lat="48.693324" lon="10.033505">
        <ele>568.723900</ele>
        <time>2024-09-08T09:25:36.000Z</time>
      </trkpt>
      <trkpt lat="48.693346" lon="10.033721">
        <ele>567.503203</ele>
        <time>2024-09-08T09:25:37.000Z</time>
      </trkpt>
      <trkpt lat="48.693366" lon="10.033921">
        <ele>566.432060</ele>
        <time>2024-09-08T09:25:38.000Z</time>
      </trkpt>
      <trkpt lat="48.693388" lon="10.034135">
        <ele>565.483651</ele>
        <time>2024-09-08T09:25:39.000Z</time>
      </trkpt>
      <trkpt lat="48.693405" lon="10.034346">
        <ele>564.552820</ele>
        <time>2024-09-08T09:25:40.000Z</time>
      </trkpt>
      <trkpt lat="48.693417" lon="10.034556">
        <ele>563.629786</ele>
        <time>2024-09-08T09:25:41.000Z</time>
      </trkpt>
      <trkpt lat="48.693420" lon="10.034750">
        <ele>562.780023</ele>
        <time>2024-09-08T09:25:42.000Z</time>
      </trkpt>
      <trkpt lat="48.693455" lon="10.034937">
        <ele>561.928864</ele>
        <time>2024-09-08T09:25:43.000Z</time>
      </trkpt>
      <trkpt lat="48.693464" lon="10.035109">
        <ele>561.173310</ele>
        <time>2024-09-08T09:25:44.000Z</time>
      </trkpt>
      <trkpt lat="48.693474" lon="10.035286">
        <ele>560.395391</ele>
        <time>2024-09-08T09:25:45.000Z</time>
      </trkpt>
      <trkpt lat="48.693482" lon="10.035475">
        <ele>559.566057</ele>
        <time>2024-09-08T09:25:46.000Z</time>
      </trkpt>
      <trkpt lat="48.693468" lon="10.035663">
        <ele>558.737579</ele>
        <time>2024-09-08T09:25:47.000Z</time>
      </trkpt>
      <trkpt lat="48.693512" lon="10.035820">
        <ele>557.990674</ele>
        <time>2024-09-08T09:25:48.000Z</time>
      </trkpt>
      <trkpt lat="48.693505" lon="10.035974">
        <ele>557.314709</ele>
        <time>2024-09-08T09:25:49.000Z</time>
      </trkpt>
      <trkpt lat="48.693483" lon="10.036113">
        <ele>556.688773</ele>
        <time>2024-09-08T09:25:50.000Z</time>
      </trkpt>
      <trkpt lat="48.693475" lon="10.036449">
        <ele>555.216467</ele>
        <time>2024-09-08T09:25:52.000Z</time>
      </trkpt>
      <trkpt lat="48.693499" lon="10.036588">
        <ele>554.669721</ele>
        <time>2024-09-08T09:25:53.000Z</time>
      </trkpt>
      <trkpt lat="48.693523" lon="10.036725">
        <ele>554.456628</ele>
        <time>2024-09-08T09:25:54.000Z</time>
      </trkpt>
      <trkpt lat="48.693549" lon="10.036873">
        <ele>554.226382</ele>
        <time>2024-09-08T09:25:55.000Z</time>
      </trkpt>
      <trkpt lat="48.693578" lon="10.037029">
        <ele>553.982730</ele>
        <time>2024-09-08T09:25:56.000Z</time>
      </trkpt>
      <trkpt lat="48.693607" lon="10.037184">
        <ele>553.740526</ele>
        <time>2024-09-08T09:25:57.000Z</time>
      </trkpt>
      <trkpt lat="48.693636" lon="10.037336">
        <ele>553.502658</ele>
        <time>2024-09-08T09:25:58.000Z</time>
      </trkpt>
      <trkpt lat="48.693680" lon="10.037481">
        <ele>553.262737</ele>
        <time>2024-09-08T09:25:59.000Z</time>
      </trkpt>
      <trkpt lat="48.693700" lon="10.037645">
        <ele>553.012010</ele>
        <time>2024-09-08T09:26:00.000Z</time>
      </trkpt>
      <trkpt lat="48.693728" lon="10.037809">
        <ele>552.757342</ele>
        <time>2024-09-08T09:26:01.000Z</time>
      </trkpt>
      <trkpt lat="48.693757" lon="10.037972">
        <ele>552.503546</ele>
        <time>2024-09-08T09:26:02.000Z</time>
      </trkpt>
      <trkpt lat="48.693790" lon="10.038135">
        <ele>552.247228</ele>
        <time>2024-09-08T09:26:03.000Z</time>
      </trkpt>
      <trkpt lat="48.693818" lon="10.038300">
        <ele>551.991105</ele>
        <time>2024-09-08T09:26:04.000Z</time>
      </trkpt>
      <trkpt lat="48.693835" lon="10.038477">
        <ele>551.722205</ele>
        <time>2024-09-08T09:26:05.000Z</time>
      </trkpt>
      <trkpt lat="48.693847" lon="10.038649">
        <ele>551.462184</ele>
        <time>2024-09-08T09:26:06.000Z</time>
      </trkpt>
      <trkpt lat="48.693856" lon="10.038815">
        <ele>551.211783</ele>
        <time>2024-09-08T09:26:07.000Z</time>
      </trkpt>
      <trkpt lat="48.693859" lon="10.038976">
        <ele>550.969644</ele>
        <time>2024-09-08T09:26:08.000Z</time>
      </trkpt>
      <trkpt lat="48.693857" lon="10.039140">
        <ele>550.723048</ele>
        <time>2024-09-08T09:26:09.000Z</time>
      </trkpt>
      <trkpt lat="48.693853" lon="10.039297">
        <ele>550.567501</ele>
        <time>2024-09-08T09:26:10.000Z</time>
      </trkpt>
      <trkpt lat="48.693847" lon="10.039454">
        <ele>550.478387</ele>
        <time>2024-09-08T09:26:11.000Z</time>
      </trkpt>
      <trkpt lat="48.693841" lon="10.039610">
        <ele>550.389838</ele>
        <time>2024-09-08T09:26:12.000Z</time>
      </trkpt>
      <trkpt lat="48.693816" lon="10.039762">
        <ele>550.301072</ele>
        <time>2024-09-08T09:26:13.000Z</time>
      </trkpt>
      <trkpt lat="48.693815" lon="10.039910">
        <ele>550.217202</ele>
        <time>2024-09-08T09:26:14.000Z</time>
      </trkpt>
      <trkpt lat="48.693806" lon="10.040058">
        <ele>550.132982</ele>
        <time>2024-09-08T09:26:15.000Z</time>
      </trkpt>
      <trkpt lat="48.693796" lon="10.040207">
        <ele>550.048114</ele>
        <time>2024-09-08T09:26:16.000Z</time>
      </trkpt>
      <trkpt lat="48.693785" lon="10.040356">
        <ele>549.963155</ele>
        <time>2024-09-08T09:26:17.000Z</time>
      </trkpt>
      <trkpt lat="48.693771" lon="10.040502">
        <ele>549.879554</ele>
        <time>2024-09-08T09:26:18.000Z</time>
      </trkpt>
      <trkpt lat="48.693760" lon="10.040650">
        <ele>549.795159</ele>
        <time>2024-09-08T09:26:19.000Z</time>
      </trkpt>
      <trkpt lat="48.693752" lon="10.040795">
        <ele>549.712707</ele>
        <time>2024-09-08T09:26:20.000Z</time>
      </trkpt>
      <trkpt lat="48.693745" lon="10.040939">
        <ele>549.630887</ele>
        <time>2024-09-08T09:26:21.000Z</time>
      </trkpt>
      <trkpt lat="48.693738" lon="10.041084">
        <ele>549.548501</ele>
        <time>2024-09-08T09:26:22.000Z</time>
      </trkpt>
      <trkpt lat="48.693731" lon="10.041229">
        <ele>549.466116</ele>
        <time>2024-09-08T09:26:23.000Z</time>
      </trkpt>
      <trkpt lat="48.693723" lon="10.041371">
        <ele>549.385358</ele>
        <time>2024-09-08T09:26:24.000Z</time>
      </trkpt>
      <trkpt lat="48.693715" lon="10.041517">
        <ele>549.302341</ele>
        <time>2024-09-08T09:26:25.000Z</time>
      </trkpt>
      <trkpt lat="48.693706" lon="10.041662">
        <ele>549.219813</ele>
        <time>2024-09-08T09:26:26.000Z</time>
      </trkpt>
      <trkpt lat="48.693696" lon="10.041805">
        <ele>549.138327</ele>
        <time>2024-09-08T09:26:27.000Z</time>
      </trkpt>
      <trkpt lat="48.693688" lon="10.041954">
        <ele>549.051303</ele>
        <time>2024-09-08T09:26:28.000Z</time>
      </trkpt>
      <trkpt lat="48.693679" lon="10.042100">
        <ele>548.957880</ele>
        <time>2024-09-08T09:26:29.000Z</time>
      </trkpt>
      <trkpt lat="48.693673" lon="10.042249">
        <ele>548.862775</ele>
        <time>2024-09-08T09:26:30.000Z</time>
      </trkpt>
      <trkpt lat="48.693665" lon="10.042396">
        <ele>548.768802</ele>
        <time>2024-09-08T09:26:31.000Z</time>
      </trkpt>
      <trkpt lat="48.693660" lon="10.042542">
        <ele>548.675660</ele>
        <time>2024-09-08T09:26:32.000Z</time>
      </trkpt>
      <trkpt lat="48.693656" lon="10.042688">
        <ele>548.582562</ele>
        <time>2024-09-08T09:26:33.000Z</time>
      </trkpt>
      <trkpt lat="48.693651" lon="10.042833">
        <ele>548.490056</ele>
        <time>2024-09-08T09:26:34.000Z</time>
      </trkpt>
      <trkpt lat="48.693643" lon="10.042979">
        <ele>548.396718</ele>
        <time>2024-09-08T09:26:35.000Z</time>
      </trkpt>
      <trkpt lat="48.693637" lon="10.043125">
        <ele>548.303520</ele>
        <time>2024-09-08T09:26:36.000Z</time>
      </trkpt>
      <trkpt lat="48.693635" lon="10.043269">
        <ele>548.211756</ele>
        <time>2024-09-08T09:26:37.000Z</time>
      </trkpt>
      <trkpt lat="48.693633" lon="10.043412">
        <ele>548.120630</ele>
        <time>2024-09-08T09:26:38.000Z</time>
      </trkpt>
      <trkpt lat="48.693629" lon="10.043557">
        <ele>548.028168</ele>
        <time>2024-09-08T09:26:39.000Z</time>
      </trkpt>
      <trkpt lat="48.693627" lon="10.043701">
        <ele>547.936405</ele>
        <time>2024-09-08T09:26:40.000Z</time>
      </trkpt>
      <trkpt lat="48.693627" lon="10.043844">
        <ele>547.845298</ele>
        <time>2024-09-08T09:26:41.000Z</time>
      </trkpt>
      <trkpt lat="48.693629" lon="10.043987">
        <ele>547.754171</ele>
        <time>2024-09-08T09:26:42.000Z</time>
      </trkpt>
      <trkpt lat="48.693618" lon="10.044129">
        <ele>547.663081</ele>
        <time>2024-09-08T09:26:43.000Z</time>
      </trkpt>
      <trkpt lat="48.693617" lon="10.044273">
        <ele>547.571333</ele>
        <time>2024-09-08T09:26:44.000Z</time>
      </trkpt>
      <trkpt lat="48.693615" lon="10.044416">
        <ele>547.480206</ele>
        <time>2024-09-08T09:26:45.000Z</time>
      </trkpt>
      <trkpt lat="48.693613" lon="10.044560">
        <ele>547.388442</ele>
        <time>2024-09-08T09:26:46.000Z</time>
      </trkpt>
      <trkpt lat="48.693613" lon="10.044704">
        <ele>547.307049</ele>
        <time>2024-09-08T09:26:47.000Z</time>
      </trkpt>
      <trkpt lat="48.693614" lon="10.044846">
        <ele>547.240290</ele>
        <time>2024-09-08T09:26:48.000Z</time>
      </trkpt>
      <trkpt lat="48.693613" lon="10.044988">
        <ele>547.173531</ele>
        <time>2024-09-08T09:26:49.000Z</time>
      </trkpt>
      <trkpt lat="48.693611" lon="10.045128">
        <ele>547.107701</ele>
        <time>2024-09-08T09:26:50.000Z</time>
      </trkpt>
      <trkpt lat="48.693606" lon="10.045268">
        <ele>547.041790</ele>
        <time>2024-09-08T09:26:51.000Z</time>
      </trkpt>
      <trkpt lat="48.693604" lon="10.045409">
        <ele>546.975489</ele>
        <time>2024-09-08T09:26:52.000Z</time>
      </trkpt>
      <trkpt lat="48.693605" lon="10.045549">
        <ele>546.909671</ele>
        <time>2024-09-08T09:26:53.000Z</time>
      </trkpt>
      <trkpt lat="48.693606" lon="10.045688">
        <ele>546.844322</ele>
        <time>2024-09-08T09:26:54.000Z</time>
      </trkpt>
      <trkpt lat="48.693604" lon="10.045830">
        <ele>546.777551</ele>
        <time>2024-09-08T09:26:55.000Z</time>
      </trkpt>
      <trkpt lat="48.693602" lon="10.045971">
        <ele>546.711251</ele>
        <time>2024-09-08T09:26:56.000Z</time>
      </trkpt>
      <trkpt lat="48.693602" lon="10.046112">
        <ele>546.644966</ele>
        <time>2024-09-08T09:26:57.000Z</time>
      </trkpt>
      <trkpt lat="48.693602" lon="10.046253">
        <ele>546.578681</ele>
        <time>2024-09-08T09:26:58.000Z</time>
      </trkpt>
      <trkpt lat="48.693600" lon="10.046396">
        <ele>546.511440</ele>
        <time>2024-09-08T09:26:59.000Z</time>
      </trkpt>
      <trkpt lat="48.693598" lon="10.046539">
        <ele>546.444200</ele>
        <time>2024-09-08T09:27:00.000Z</time>
      </trkpt>
      <trkpt lat="48.693598" lon="10.046681">
        <ele>546.377445</ele>
        <time>2024-09-08T09:27:01.000Z</time>
      </trkpt>
      <trkpt lat="48.693581" lon="10.046822">
        <ele>546.310063</ele>
        <time>2024-09-08T09:27:02.000Z</time>
      </trkpt>
      <trkpt lat="48.693578" lon="10.046963">
        <ele>546.243744</ele>
        <time>2024-09-08T09:27:03.000Z</time>
      </trkpt>
      <trkpt lat="48.693575" lon="10.047104">
        <ele>546.177424</ele>
        <time>2024-09-08T09:27:04.000Z</time>
      </trkpt>
      <trkpt lat="48.693572" lon="10.047245">
        <ele>546.111104</ele>
        <time>2024-09-08T09:27:05.000Z</time>
      </trkpt>
      <trkpt lat="48.693569" lon="10.047384">
        <ele>546.040858</ele>
        <time>2024-09-08T09:27:06.000Z</time>
      </trkpt>
      <trkpt lat="48.693565" lon="10.047523">
        <ele>545.941891</ele>
        <time>2024-09-08T09:27:07.000Z</time>
      </trkpt>
      <trkpt lat="48.693560" lon="10.047663">
        <ele>545.842162</ele>
        <time>2024-09-08T09:27:08.000Z</time>
      </trkpt>
      <trkpt lat="48.693556" lon="10.047801">
        <ele>545.743906</ele>
        <time>2024-09-08T09:27:09.000Z</time>
      </trkpt>
      <trkpt lat="48.693551" lon="10.047938">
        <ele>545.646307</ele>
        <time>2024-09-08T09:27:10.000Z</time>
      </trkpt>
      <trkpt lat="48.693546" lon="10.048077">
        <ele>545.547287</ele>
        <time>2024-09-08T09:27:11.000Z</time>
      </trkpt>
      <trkpt lat="48.693540" lon="10.048218">
        <ele>545.446784</ele>
        <time>2024-09-08T09:27:12.000Z</time>
      </trkpt>
      <trkpt lat="48.693534" lon="10.048362">
        <ele>545.344151</ele>
        <time>2024-09-08T09:27:13.000Z</time>
      </trkpt>
      <trkpt lat="48.693528" lon="10.048505">
        <ele>545.242227</ele>
        <time>2024-09-08T09:27:14.000Z</time>
      </trkpt>
      <trkpt lat="48.693532" lon="10.048647">
        <ele>545.141129</ele>
        <time>2024-09-08T09:27:15.000Z</time>
      </trkpt>
      <trkpt lat="48.693523" lon="10.048792">
        <ele>545.037533</ele>
        <time>2024-09-08T09:27:16.001Z</time>
      </trkpt>
      <trkpt lat="48.693508" lon="10.048935">
        <ele>544.934539</ele>
        <time>2024-09-08T09:27:17.001Z</time>
      </trkpt>
      <trkpt lat="48.693498" lon="10.049079">
        <ele>544.831544</ele>
        <time>2024-09-08T09:27:18.001Z</time>
      </trkpt>
      <trkpt lat="48.693486" lon="10.049223">
        <ele>544.728302</ele>
        <time>2024-09-08T09:27:19.001Z</time>
      </trkpt>
      <trkpt lat="48.693469" lon="10.049364">
        <ele>544.626347</ele>
        <time>2024-09-08T09:27:20.001Z</time>
      </trkpt>
      <trkpt lat="48.693455" lon="10.049506">
        <ele>544.524219</ele>
        <time>2024-09-08T09:27:21.001Z</time>
      </trkpt>
      <trkpt lat="48.693440" lon="10.049649">
        <ele>544.421225</ele>
        <time>2024-09-08T09:27:22.001Z</time>
      </trkpt>
      <trkpt lat="48.693423" lon="10.049790">
        <ele>544.319270</ele>
        <time>2024-09-08T09:27:23.001Z</time>
      </trkpt>
      <trkpt lat="48.693407" lon="10.049930">
        <ele>544.218204</ele>
        <time>2024-09-08T09:27:24.001Z</time>
      </trkpt>
      <trkpt lat="48.693388" lon="10.050070">
        <ele>544.116674</ele>
        <time>2024-09-08T09:27:25.001Z</time>
      </trkpt>
      <trkpt lat="48.693353" lon="10.050205">
        <ele>544.045780</ele>
        <time>2024-09-08T09:27:26.001Z</time>
      </trkpt>
      <trkpt lat="48.693331" lon="10.050348">
        <ele>543.974009</ele>
        <time>2024-09-08T09:27:27.000Z</time>
      </trkpt>
      <trkpt lat="48.693308" lon="10.050487">
        <ele>543.903964</ele>
        <time>2024-09-08T09:27:28.000Z</time>
      </trkpt>
      <trkpt lat="48.693284" lon="10.050630">
        <ele>543.831842</ele>
        <time>2024-09-08T09:27:29.000Z</time>
      </trkpt>
      <trkpt lat="48.693260" lon="10.050769">
        <ele>543.761614</ele>
        <time>2024-09-08T09:27:30.000Z</time>
      </trkpt>
      <trkpt lat="48.693234" lon="10.050911">
        <ele>543.689584</ele>
        <time>2024-09-08T09:27:31.000Z</time>
      </trkpt>
      <trkpt lat="48.693207" lon="10.051053">
        <ele>543.617353</ele>
        <time>2024-09-08T09:27:32.000Z</time>
      </trkpt>
      <trkpt lat="48.693178" lon="10.051195">
        <ele>543.544697</ele>
        <time>2024-09-08T09:27:33.000Z</time>
      </trkpt>
      <trkpt lat="48.693148" lon="10.051335">
        <ele>543.472750</ele>
        <time>2024-09-08T09:27:34.000Z</time>
      </trkpt>
      <trkpt lat="48.693116" lon="10.051475">
        <ele>543.400332</ele>
        <time>2024-09-08T09:27:35.000Z</time>
      </trkpt>
      <trkpt lat="48.693080" lon="10.051610">
        <ele>543.329163</ele>
        <time>2024-09-08T09:27:36.000Z</time>
      </trkpt>
      <trkpt lat="48.693040" lon="10.051745">
        <ele>543.256832</ele>
        <time>2024-09-08T09:27:37.000Z</time>
      </trkpt>
      <trkpt lat="48.692990" lon="10.051872">
        <ele>543.184552</ele>
        <time>2024-09-08T09:27:38.000Z</time>
      </trkpt>
      <trkpt lat="48.692960" lon="10.052017">
        <ele>543.110276</ele>
        <time>2024-09-08T09:27:39.000Z</time>
      </trkpt>
      <trkpt lat="48.692907" lon="10.052142">
        <ele>543.037658</ele>
        <time>2024-09-08T09:27:40.000Z</time>
      </trkpt>
      <trkpt lat="48.692855" lon="10.052265">
        <ele>542.966261</ele>
        <time>2024-09-08T09:27:41.000Z</time>
      </trkpt>
      <trkpt lat="48.692804" lon="10.052392">
        <ele>542.893599</ele>
        <time>2024-09-08T09:27:42.000Z</time>
      </trkpt>
      <trkpt lat="48.692753" lon="10.052517">
        <ele>542.821770</ele>
        <time>2024-09-08T09:27:43.000Z</time>
      </trkpt>
      <trkpt lat="48.692703" lon="10.052644">
        <ele>542.745255</ele>
        <time>2024-09-08T09:27:44.000Z</time>
      </trkpt>
      <trkpt lat="48.692650" lon="10.052767">
        <ele>542.664916</ele>
        <time>2024-09-08T09:27:45.000Z</time>
      </trkpt>
      <trkpt lat="48.692596" lon="10.052893">
        <ele>542.582749</ele>
        <time>2024-09-08T09:27:46.000Z</time>
      </trkpt>
      <trkpt lat="48.692545" lon="10.053020">
        <ele>542.501443</ele>
        <time>2024-09-08T09:27:47.000Z</time>
      </trkpt>
      <trkpt lat="48.692493" lon="10.053150">
        <ele>542.418304</ele>
        <time>2024-09-08T09:27:48.000Z</time>
      </trkpt>
      <trkpt lat="48.692442" lon="10.053276">
        <ele>542.337464</ele>
        <time>2024-09-08T09:27:49.000Z</time>
      </trkpt>
      <trkpt lat="48.692391" lon="10.053402">
        <ele>542.256624</ele>
        <time>2024-09-08T09:27:50.000Z</time>
      </trkpt>
      <trkpt lat="48.692341" lon="10.053532">
        <ele>542.174331</ele>
        <time>2024-09-08T09:27:51.000Z</time>
      </trkpt>
      <trkpt lat="48.692292" lon="10.053663">
        <ele>542.091977</ele>
        <time>2024-09-08T09:27:52.000Z</time>
      </trkpt>
      <trkpt lat="48.692247" lon="10.053796">
        <ele>542.010233</ele>
        <time>2024-09-08T09:27:53.000Z</time>
      </trkpt>
      <trkpt lat="48.692205" lon="10.053932">
        <ele>541.928110</ele>
        <time>2024-09-08T09:27:54.000Z</time>
      </trkpt>
      <trkpt lat="48.692165" lon="10.054070">
        <ele>541.845674</ele>
        <time>2024-09-08T09:27:55.000Z</time>
      </trkpt>
      <trkpt lat="48.692124" lon="10.054204">
        <ele>541.764892</ele>
        <time>2024-09-08T09:27:56.000Z</time>
      </trkpt>
      <trkpt lat="48.692086" lon="10.054342">
        <ele>541.683108</ele>
        <time>2024-09-08T09:27:57.000Z</time>
      </trkpt>
      <trkpt lat="48.692049" lon="10.054478">
        <ele>541.602653</ele>
        <time>2024-09-08T09:27:58.000Z</time>
      </trkpt>
      <trkpt lat="48.692014" lon="10.054617">
        <ele>541.521283</ele>
        <time>2024-09-08T09:27:59.000Z</time>
      </trkpt>
      <trkpt lat="48.691979" lon="10.054755">
        <ele>541.440423</ele>
        <time>2024-09-08T09:28:00.000Z</time>
      </trkpt>
      <trkpt lat="48.691951" lon="10.054898">
        <ele>541.358840</ele>
        <time>2024-09-08T09:28:01.000Z</time>
      </trkpt>
      <trkpt lat="48.691927" lon="10.055045">
        <ele>541.284107</ele>
        <time>2024-09-08T09:28:02.000Z</time>
      </trkpt>
      <trkpt lat="48.691905" lon="10.055190">
        <ele>541.237872</ele>
        <time>2024-09-08T09:28:03.000Z</time>
      </trkpt>
      <trkpt lat="48.691883" lon="10.055337">
        <ele>541.191031</ele>
        <time>2024-09-08T09:28:04.000Z</time>
      </trkpt>
      <trkpt lat="48.691868" lon="10.055484">
        <ele>541.144807</ele>
        <time>2024-09-08T09:28:05.000Z</time>
      </trkpt>
      <trkpt lat="48.691849" lon="10.055628">
        <ele>541.099172</ele>
        <time>2024-09-08T09:28:06.000Z</time>
      </trkpt>
      <trkpt lat="48.691823" lon="10.055775">
        <ele>541.051879</ele>
        <time>2024-09-08T09:28:07.000Z</time>
      </trkpt>
      <trkpt lat="48.691807" lon="10.055923">
        <ele>541.005274</ele>
        <time>2024-09-08T09:28:08.000Z</time>
      </trkpt>
      <trkpt lat="48.691793" lon="10.056071">
        <ele>540.958811</ele>
        <time>2024-09-08T09:28:09.000Z</time>
      </trkpt>
      <trkpt lat="48.691780" lon="10.056220">
        <ele>540.912105</ele>
        <time>2024-09-08T09:28:10.000Z</time>
      </trkpt>
      <trkpt lat="48.691765" lon="10.056367">
        <ele>540.865881</ele>
        <time>2024-09-08T09:28:11.000Z</time>
      </trkpt>
      <trkpt lat="48.691752" lon="10.056513">
        <ele>540.820099</ele>
        <time>2024-09-08T09:28:12.000Z</time>
      </trkpt>
      <trkpt lat="48.691738" lon="10.056659">
        <ele>540.774251</ele>
        <time>2024-09-08T09:28:13.000Z</time>
      </trkpt>
      <trkpt lat="48.691722" lon="10.056799">
        <ele>540.730098</ele>
        <time>2024-09-08T09:28:14.000Z</time>
      </trkpt>
      <trkpt lat="48.691709" lon="10.056943">
        <ele>540.684931</ele>
        <time>2024-09-08T09:28:15.000Z</time>
      </trkpt>
      <trkpt lat="48.691699" lon="10.057084">
        <ele>540.640862</ele>
        <time>2024-09-08T09:28:16.000Z</time>
      </trkpt>
      <trkpt lat="48.691689" lon="10.057227">
        <ele>540.596174</ele>
        <time>2024-09-08T09:28:17.000Z</time>
      </trkpt>
      <trkpt lat="48.691681" lon="10.057365">
        <ele>540.553124</ele>
        <time>2024-09-08T09:28:18.000Z</time>
      </trkpt>
      <trkpt lat="48.691676" lon="10.057505">
        <ele>540.509554</ele>
        <time>2024-09-08T09:28:19.000Z</time>
      </trkpt>
      <trkpt lat="48.691692" lon="10.057769">
        <ele>540.440870</ele>
        <time>2024-09-08T09:28:21.000Z</time>
      </trkpt>
      <trkpt lat="48.691724" lon="10.058014">
        <ele>540.414298</ele>
        <time>2024-09-08T09:28:23.000Z</time>
      </trkpt>
      <trkpt lat="48.691759" lon="10.058243">
        <ele>540.389288</ele>
        <time>2024-09-08T09:28:25.000Z</time>
      </trkpt>
      <trkpt lat="48.691804" lon="10.058463">
        <ele>540.364783</ele>
        <time>2024-09-08T09:28:27.000Z</time>
      </trkpt>
      <trkpt lat="48.691832" lon="10.058645">
        <ele>540.344900</ele>
        <time>2024-09-08T09:28:29.000Z</time>
      </trkpt>
      <trkpt lat="48.691810" lon="10.058846">
        <ele>540.323223</ele>
        <time>2024-09-08T09:28:31.000Z</time>
      </trkpt>
      <trkpt lat="48.691740" lon="10.059019">
        <ele>540.301633</ele>
        <time>2024-09-08T09:28:33.000Z</time>
      </trkpt>
      <trkpt lat="48.691588" lon="10.059016">
        <ele>540.277132</ele>
        <time>2024-09-08T09:28:35.000Z</time>
      </trkpt>
      <trkpt lat="48.691436" lon="10.059014">
        <ele>540.252632</ele>
        <time>2024-09-08T09:28:37.000Z</time>
      </trkpt>
      <trkpt lat="48.691292" lon="10.059033">
        <ele>540.229334</ele>
        <time>2024-09-08T09:28:39.000Z</time>
      </trkpt>
      <trkpt lat="48.691161" lon="10.059066">
        <ele>540.207930</ele>
        <time>2024-09-08T09:28:41.000Z</time>
      </trkpt>
      <trkpt lat="48.691025" lon="10.059085">
        <ele>540.185916</ele>
        <time>2024-09-08T09:28:43.000Z</time>
      </trkpt>
      <trkpt lat="48.690883" lon="10.059131">
        <ele>540.162511</ele>
        <time>2024-09-08T09:28:45.000Z</time>
      </trkpt>
      <trkpt lat="48.690733" lon="10.059164">
        <ele>540.274846</ele>
        <time>2024-09-08T09:28:47.000Z</time>
      </trkpt>
      <trkpt lat="48.690578" lon="10.059204">
        <ele>540.422643</ele>
        <time>2024-09-08T09:28:49.000Z</time>
      </trkpt>
      <trkpt lat="48.690423" lon="10.059240">
        <ele>540.570043</ele>
        <time>2024-09-08T09:28:51.000Z</time>
      </trkpt>
      <trkpt lat="48.690271" lon="10.059281">
        <ele>540.715168</ele>
        <time>2024-09-08T09:28:53.000Z</time>
      </trkpt>
      <trkpt lat="48.690116" lon="10.059328">
        <ele>540.863755</ele>
        <time>2024-09-08T09:28:55.000Z</time>
      </trkpt>
      <trkpt lat="48.689954" lon="10.059366">
        <ele>541.017848</ele>
        <time>2024-09-08T09:28:57.000Z</time>
      </trkpt>
      <trkpt lat="48.689802" lon="10.059416">
        <ele>541.164055</ele>
        <time>2024-09-08T09:28:59.000Z</time>
      </trkpt>
      <trkpt lat="48.689646" lon="10.059447">
        <ele>541.311949</ele>
        <time>2024-09-08T09:29:01.000Z</time>
      </trkpt>
      <trkpt lat="48.689483" lon="10.059434">
        <ele>541.465379</ele>
        <time>2024-09-08T09:29:03.000Z</time>
      </trkpt>
      <trkpt lat="48.689319" lon="10.059400">
        <ele>541.620973</ele>
        <time>2024-09-08T09:29:05.000Z</time>
      </trkpt>
      <trkpt lat="48.689154" lon="10.059360">
        <ele>541.778044</ele>
        <time>2024-09-08T09:29:07.000Z</time>
      </trkpt>
      <trkpt lat="48.688983" lon="10.059326">
        <ele>541.698032</ele>
        <time>2024-09-08T09:29:09.000Z</time>
      </trkpt>
      <trkpt lat="48.688812" lon="10.059289">
        <ele>541.430101</ele>
        <time>2024-09-08T09:29:11.000Z</time>
      </trkpt>
      <trkpt lat="48.688641" lon="10.059241">
        <ele>541.160346</ele>
        <time>2024-09-08T09:29:13.000Z</time>
      </trkpt>
      <trkpt lat="48.688475" lon="10.059190">
        <ele>540.897620</ele>
        <time>2024-09-08T09:29:15.000Z</time>
      </trkpt>
      <trkpt lat="48.688304" lon="10.059139">
        <ele>540.627289</ele>
        <time>2024-09-08T09:29:17.000Z</time>
      </trkpt>
      <trkpt lat="48.688134" lon="10.059081">
        <ele>540.356996</ele>
        <time>2024-09-08T09:29:19.000Z</time>
      </trkpt>
      <trkpt lat="48.687962" lon="10.059016">
        <ele>540.082028</ele>
        <time>2024-09-08T09:29:21.000Z</time>
      </trkpt>
      <trkpt lat="48.687793" lon="10.058953">
        <ele>539.812070</ele>
        <time>2024-09-08T09:29:23.001Z</time>
      </trkpt>
      <trkpt lat="48.687627" lon="10.058879">
        <ele>539.543668</ele>
        <time>2024-09-08T09:29:25.001Z</time>
      </trkpt>
      <trkpt lat="48.687455" lon="10.058805">
        <ele>539.266326</ele>
        <time>2024-09-08T09:29:27.001Z</time>
      </trkpt>
      <trkpt lat="48.687281" lon="10.058740">
        <ele>538.988611</ele>
        <time>2024-09-08T09:29:29.001Z</time>
      </trkpt>
      <trkpt lat="48.687115" lon="10.058670">
        <ele>538.722334</ele>
        <time>2024-09-08T09:29:31.000Z</time>
      </trkpt>
      <trkpt lat="48.686953" lon="10.058609">
        <ele>538.464375</ele>
        <time>2024-09-08T09:29:33.000Z</time>
      </trkpt>
      <trkpt lat="48.686794" lon="10.058568">
        <ele>538.215136</ele>
        <time>2024-09-08T09:29:35.000Z</time>
      </trkpt>
      <trkpt lat="48.686697" lon="10.058443">
        <ele>538.018335</ele>
        <time>2024-09-08T09:29:37.000Z</time>
      </trkpt>
      <trkpt lat="48.686624" lon="10.058273">
        <ele>537.811444</ele>
        <time>2024-09-08T09:29:39.000Z</time>
      </trkpt>
      <trkpt lat="48.686502" lon="10.058343">
        <ele>537.609844</ele>
        <time>2024-09-08T09:29:41.000Z</time>
      </trkpt>
      <trkpt lat="48.686370" lon="10.058402">
        <ele>537.397167</ele>
        <time>2024-09-08T09:29:43.000Z</time>
      </trkpt>
      <trkpt lat="48.686221" lon="10.058373">
        <ele>537.165023</ele>
        <time>2024-09-08T09:29:45.000Z</time>
      </trkpt>
      <trkpt lat="48.686073" lon="10.058352">
        <ele>536.935315</ele>
        <time>2024-09-08T09:29:47.000Z</time>
      </trkpt>
      <trkpt lat="48.685916" lon="10.058361">
        <ele>536.692528</ele>
        <time>2024-09-08T09:29:49.000Z</time>
      </trkpt>
      <trkpt lat="48.685760" lon="10.058375">
        <ele>536.451036</ele>
        <time>2024-09-08T09:29:51.000Z</time>
      </trkpt>
      <trkpt lat="48.685602" lon="10.058401">
        <ele>536.240541</ele>
        <time>2024-09-08T09:29:53.000Z</time>
      </trkpt>
      <trkpt lat="48.685440" lon="10.058446">
        <ele>536.106745</ele>
        <time>2024-09-08T09:29:55.000Z</time>
      </trkpt>
      <trkpt lat="48.685272" lon="10.058494">
        <ele>535.967862</ele>
        <time>2024-09-08T09:29:57.000Z</time>
      </trkpt>
      <trkpt lat="48.685104" lon="10.058560">
        <ele>535.826871</ele>
        <time>2024-09-08T09:29:59.000Z</time>
      </trkpt>
      <trkpt lat="48.684936" lon="10.058629">
        <ele>535.685467</ele>
        <time>2024-09-08T09:30:01.000Z</time>
      </trkpt>
      <trkpt lat="48.684770" lon="10.058679">
        <ele>535.547976</ele>
        <time>2024-09-08T09:30:03.000Z</time>
      </trkpt>
      <trkpt lat="48.684601" lon="10.058632">
        <ele>535.408393</ele>
        <time>2024-09-08T09:30:05.000Z</time>
      </trkpt>
      <trkpt lat="48.684448" lon="10.058743">
        <ele>535.270581</ele>
        <time>2024-09-08T09:30:07.000Z</time>
      </trkpt>
      <trkpt lat="48.684338" lon="10.058958">
        <ele>535.124700</ele>
        <time>2024-09-08T09:30:09.000Z</time>
      </trkpt>
      <trkpt lat="48.684267" lon="10.059042">
        <ele>535.051514</ele>
        <time>2024-09-08T09:30:10.000Z</time>
      </trkpt>
      <trkpt lat="48.684190" lon="10.059113">
        <ele>534.978284</ele>
        <time>2024-09-08T09:30:11.000Z</time>
      </trkpt>
      <trkpt lat="48.684027" lon="10.059232">
        <ele>534.831291</ele>
        <time>2024-09-08T09:30:13.000Z</time>
      </trkpt>
      <trkpt lat="48.683946" lon="10.059291">
        <ele>534.750330</ele>
        <time>2024-09-08T09:30:14.000Z</time>
      </trkpt>
      <trkpt lat="48.683866" lon="10.059362">
        <ele>534.665034</ele>
        <time>2024-09-08T09:30:15.000Z</time>
      </trkpt>
      <trkpt lat="48.683790" lon="10.059439">
        <ele>534.580923</ele>
        <time>2024-09-08T09:30:16.000Z</time>
      </trkpt>
      <trkpt lat="48.683714" lon="10.059522">
        <ele>534.494732</ele>
        <time>2024-09-08T09:30:17.000Z</time>
      </trkpt>
      <trkpt lat="48.683639" lon="10.059603">
        <ele>534.409996</ele>
        <time>2024-09-08T09:30:18.000Z</time>
      </trkpt>
      <trkpt lat="48.683563" lon="10.059692">
        <ele>534.321625</ele>
        <time>2024-09-08T09:30:19.000Z</time>
      </trkpt>
      <trkpt lat="48.683488" lon="10.059777">
        <ele>534.235456</ele>
        <time>2024-09-08T09:30:20.000Z</time>
      </trkpt>
      <trkpt lat="48.683412" lon="10.059861">
        <ele>534.148908</ele>
        <time>2024-09-08T09:30:21.000Z</time>
      </trkpt>
      <trkpt lat="48.683336" lon="10.059947">
        <ele>534.061639</ele>
        <time>2024-09-08T09:30:22.000Z</time>
      </trkpt>
      <trkpt lat="48.683261" lon="10.060032">
        <ele>533.975470</ele>
        <time>2024-09-08T09:30:23.000Z</time>
      </trkpt>
      <trkpt lat="48.683186" lon="10.060120">
        <ele>533.888197</ele>
        <time>2024-09-08T09:30:24.000Z</time>
      </trkpt>
      <trkpt lat="48.683109" lon="10.060212">
        <ele>533.797979</ele>
        <time>2024-09-08T09:30:25.000Z</time>
      </trkpt>
      <trkpt lat="48.683034" lon="10.060303">
        <ele>533.709578</ele>
        <time>2024-09-08T09:30:26.000Z</time>
      </trkpt>
      <trkpt lat="48.682958" lon="10.060391">
        <ele>533.621576</ele>
        <time>2024-09-08T09:30:27.000Z</time>
      </trkpt>
      <trkpt lat="48.682883" lon="10.060483">
        <ele>533.532795</ele>
        <time>2024-09-08T09:30:28.000Z</time>
      </trkpt>
      <trkpt lat="48.682808" lon="10.060572">
        <ele>533.445149</ele>
        <time>2024-09-08T09:30:29.000Z</time>
      </trkpt>
      <trkpt lat="48.682732" lon="10.060663">
        <ele>533.356028</ele>
        <time>2024-09-08T09:30:30.000Z</time>
      </trkpt>
      <trkpt lat="48.682659" lon="10.060758">
        <ele>533.267492</ele>
        <time>2024-09-08T09:30:31.000Z</time>
      </trkpt>
      <trkpt lat="48.682584" lon="10.060852">
        <ele>533.177941</ele>
        <time>2024-09-08T09:30:32.000Z</time>
      </trkpt>
      <trkpt lat="48.682506" lon="10.060945">
        <ele>533.133189</ele>
        <time>2024-09-08T09:30:33.000Z</time>
      </trkpt>
      <trkpt lat="48.682430" lon="10.061036">
        <ele>533.097895</ele>
        <time>2024-09-08T09:30:34.000Z</time>
      </trkpt>
      <trkpt lat="48.682354" lon="10.061130">
        <ele>533.062148</ele>
        <time>2024-09-08T09:30:35.000Z</time>
      </trkpt>
      <trkpt lat="48.682280" lon="10.061223">
        <ele>533.027118</ele>
        <time>2024-09-08T09:30:36.000Z</time>
      </trkpt>
      <trkpt lat="48.682207" lon="10.061315">
        <ele>532.992520</ele>
        <time>2024-09-08T09:30:37.000Z</time>
      </trkpt>
      <trkpt lat="48.682133" lon="10.061408">
        <ele>532.957490</ele>
        <time>2024-09-08T09:30:38.000Z</time>
      </trkpt>
      <trkpt lat="48.682057" lon="10.061497">
        <ele>532.922491</ele>
        <time>2024-09-08T09:30:39.000Z</time>
      </trkpt>
      <trkpt lat="48.681983" lon="10.061588">
        <ele>532.887766</ele>
        <time>2024-09-08T09:30:40.000Z</time>
      </trkpt>
      <trkpt lat="48.681909" lon="10.061678">
        <ele>532.853191</ele>
        <time>2024-09-08T09:30:41.000Z</time>
      </trkpt>
      <trkpt lat="48.681834" lon="10.061767">
        <ele>532.818480</ele>
        <time>2024-09-08T09:30:42.000Z</time>
      </trkpt>
      <trkpt lat="48.681758" lon="10.061857">
        <ele>532.783334</ele>
        <time>2024-09-08T09:30:43.000Z</time>
      </trkpt>
      <trkpt lat="48.681682" lon="10.061945">
        <ele>532.748483</ele>
        <time>2024-09-08T09:30:44.000Z</time>
      </trkpt>
      <trkpt lat="48.681609" lon="10.062032">
        <ele>532.714642</ele>
        <time>2024-09-08T09:30:45.000Z</time>
      </trkpt>
      <trkpt lat="48.681534" lon="10.062123">
        <ele>532.679633</ele>
        <time>2024-09-08T09:30:46.000Z</time>
      </trkpt>
      <trkpt lat="48.681459" lon="10.062211">
        <ele>532.645070</ele>
        <time>2024-09-08T09:30:47.000Z</time>
      </trkpt>
      <trkpt lat="48.681384" lon="10.062302">
        <ele>532.610060</ele>
        <time>2024-09-08T09:30:48.000Z</time>
      </trkpt>
      <trkpt lat="48.681309" lon="10.062390">
        <ele>532.575497</ele>
        <time>2024-09-08T09:30:49.000Z</time>
      </trkpt>
      <trkpt lat="48.681231" lon="10.062480">
        <ele>532.539775</ele>
        <time>2024-09-08T09:30:50.000Z</time>
      </trkpt>
      <trkpt lat="48.681155" lon="10.062569">
        <ele>532.499655</ele>
        <time>2024-09-08T09:30:51.000Z</time>
      </trkpt>
      <trkpt lat="48.681079" lon="10.062657">
        <ele>532.416344</ele>
        <time>2024-09-08T09:30:52.000Z</time>
      </trkpt>
      <trkpt lat="48.681003" lon="10.062746">
        <ele>532.332683</ele>
        <time>2024-09-08T09:30:53.000Z</time>
      </trkpt>
      <trkpt lat="48.680928" lon="10.062833">
        <ele>532.250413</ele>
        <time>2024-09-08T09:30:54.000Z</time>
      </trkpt>
      <trkpt lat="48.680851" lon="10.062917">
        <ele>532.167774</ele>
        <time>2024-09-08T09:30:55.000Z</time>
      </trkpt>
      <trkpt lat="48.680772" lon="10.062998">
        <ele>532.084694</ele>
        <time>2024-09-08T09:30:56.000Z</time>
      </trkpt>
      <trkpt lat="48.680694" lon="10.063084">
        <ele>532.000675</ele>
        <time>2024-09-08T09:30:57.000Z</time>
      </trkpt>
      <trkpt lat="48.680616" lon="10.063164">
        <ele>531.918638</ele>
        <time>2024-09-08T09:30:58.000Z</time>
      </trkpt>
      <trkpt lat="48.680464" lon="10.063296">
        <ele>531.766052</ele>
        <time>2024-09-08T09:31:00.000Z</time>
      </trkpt>
      <trkpt lat="48.680314" lon="10.063427">
        <ele>531.615262</ele>
        <time>2024-09-08T09:31:02.000Z</time>
      </trkpt>
      <trkpt lat="48.680164" lon="10.063511">
        <ele>531.475991</ele>
        <time>2024-09-08T09:31:04.000Z</time>
      </trkpt>
      <trkpt lat="48.680051" lon="10.063599">
        <ele>531.365337</ele>
        <time>2024-09-08T09:31:06.000Z</time>
      </trkpt>
      <trkpt lat="48.679997" lon="10.063738">
        <ele>531.272604</ele>
        <time>2024-09-08T09:31:09.000Z</time>
      </trkpt>
      <trkpt lat="48.679873" lon="10.063829">
        <ele>531.152609</ele>
        <time>2024-09-08T09:31:11.000Z</time>
      </trkpt>
      <trkpt lat="48.679743" lon="10.063929">
        <ele>531.025632</ele>
        <time>2024-09-08T09:31:13.000Z</time>
      </trkpt>
      <trkpt lat="48.679604" lon="10.064011">
        <ele>530.894045</ele>
        <time>2024-09-08T09:31:15.000Z</time>
      </trkpt>
      <trkpt lat="48.679458" lon="10.064095">
        <ele>530.753111</ele>
        <time>2024-09-08T09:31:17.000Z</time>
      </trkpt>
      <trkpt lat="48.679306" lon="10.064188">
        <ele>530.605178</ele>
        <time>2024-09-08T09:31:19.000Z</time>
      </trkpt>
      <trkpt lat="48.679156" lon="10.064277">
        <ele>530.459803</ele>
        <time>2024-09-08T09:31:21.000Z</time>
      </trkpt>
      <trkpt lat="48.679012" lon="10.064372">
        <ele>530.318066</ele>
        <time>2024-09-08T09:31:23.000Z</time>
      </trkpt>
      <trkpt lat="48.678870" lon="10.064468">
        <ele>530.177740</ele>
        <time>2024-09-08T09:31:25.000Z</time>
      </trkpt>
      <trkpt lat="48.678726" lon="10.064566">
        <ele>530.035280</ele>
        <time>2024-09-08T09:31:27.000Z</time>
      </trkpt>
      <trkpt lat="48.678623" lon="10.064767">
        <ele>529.883682</ele>
        <time>2024-09-08T09:31:29.000Z</time>
      </trkpt>
      <trkpt lat="48.678516" lon="10.064877">
        <ele>529.766983</ele>
        <time>2024-09-08T09:31:31.000Z</time>
      </trkpt>
      <trkpt lat="48.678369" lon="10.064856">
        <ele>529.633743</ele>
        <time>2024-09-08T09:31:33.000Z</time>
      </trkpt>
      <trkpt lat="48.678212" lon="10.064939">
        <ele>529.483685</ele>
        <time>2024-09-08T09:31:35.000Z</time>
      </trkpt>
      <trkpt lat="48.678074" lon="10.065076">
        <ele>529.334785</ele>
        <time>2024-09-08T09:31:37.000Z</time>
      </trkpt>
      <trkpt lat="48.677940" lon="10.065208">
        <ele>529.227023</ele>
        <time>2024-09-08T09:31:39.000Z</time>
      </trkpt>
      <trkpt lat="48.677807" lon="10.065343">
        <ele>529.123571</ele>
        <time>2024-09-08T09:31:41.000Z</time>
      </trkpt>
      <trkpt lat="48.677672" lon="10.065484">
        <ele>529.017611</ele>
        <time>2024-09-08T09:31:43.000Z</time>
      </trkpt>
      <trkpt lat="48.677533" lon="10.065628">
        <ele>528.908796</ele>
        <time>2024-09-08T09:31:45.000Z</time>
      </trkpt>
      <trkpt lat="48.677397" lon="10.065777">
        <ele>528.800339</ele>
        <time>2024-09-08T09:31:47.000Z</time>
      </trkpt>
      <trkpt lat="48.677265" lon="10.065941">
        <ele>528.690021</ele>
        <time>2024-09-08T09:31:49.000Z</time>
      </trkpt>
      <trkpt lat="48.677125" lon="10.066084">
        <ele>528.580910</ele>
        <time>2024-09-08T09:31:51.000Z</time>
      </trkpt>
      <trkpt lat="48.676977" lon="10.066213">
        <ele>528.470575</ele>
        <time>2024-09-08T09:31:53.000Z</time>
      </trkpt>
      <trkpt lat="48.676831" lon="10.066341">
        <ele>528.361573</ele>
        <time>2024-09-08T09:31:55.000Z</time>
      </trkpt>
      <trkpt lat="48.676681" lon="10.066458">
        <ele>528.252553</ele>
        <time>2024-09-08T09:31:57.000Z</time>
      </trkpt>
      <trkpt lat="48.676523" lon="10.066573">
        <ele>528.149430</ele>
        <time>2024-09-08T09:31:59.000Z</time>
      </trkpt>
      <trkpt lat="48.676362" lon="10.066680">
        <ele>528.101417</ele>
        <time>2024-09-08T09:32:01.000Z</time>
      </trkpt>
      <trkpt lat="48.676194" lon="10.066765">
        <ele>528.053048</ele>
        <time>2024-09-08T09:32:03.000Z</time>
      </trkpt>
      <trkpt lat="48.676019" lon="10.066797">
        <ele>528.004912</ele>
        <time>2024-09-08T09:32:05.000Z</time>
      </trkpt>
      <trkpt lat="48.675844" lon="10.066756">
        <ele>527.956555</ele>
        <time>2024-09-08T09:32:07.000Z</time>
      </trkpt>
      <trkpt lat="48.675758" lon="10.066712">
        <ele>527.931766</ele>
        <time>2024-09-08T09:32:08.000Z</time>
      </trkpt>
      <trkpt lat="48.675673" lon="10.066668">
        <ele>527.907236</ele>
        <time>2024-09-08T09:32:09.000Z</time>
      </trkpt>
      <trkpt lat="48.675585" lon="10.066629">
        <ele>527.882197</ele>
        <time>2024-09-08T09:32:10.000Z</time>
      </trkpt>
      <trkpt lat="48.675408" lon="10.066614">
        <ele>527.833787</ele>
        <time>2024-09-08T09:32:12.000Z</time>
      </trkpt>
      <trkpt lat="48.675235" lon="10.066638">
        <ele>527.786346</ele>
        <time>2024-09-08T09:32:14.000Z</time>
      </trkpt>
      <trkpt lat="48.675061" lon="10.066663">
        <ele>527.738617</ele>
        <time>2024-09-08T09:32:16.000Z</time>
      </trkpt>
      <trkpt lat="48.674890" lon="10.066683">
        <ele>527.691782</ele>
        <time>2024-09-08T09:32:18.000Z</time>
      </trkpt>
      <trkpt lat="48.674721" lon="10.066697">
        <ele>527.643570</ele>
        <time>2024-09-08T09:32:20.000Z</time>
      </trkpt>
      <trkpt lat="48.674547" lon="10.066697">
        <ele>527.591348</ele>
        <time>2024-09-08T09:32:22.000Z</time>
      </trkpt>
      <trkpt lat="48.674374" lon="10.066645">
        <ele>527.538414</ele>
        <time>2024-09-08T09:32:24.000Z</time>
      </trkpt>
      <trkpt lat="48.674284" lon="10.066625">
        <ele>527.511114</ele>
        <time>2024-09-08T09:32:25.000Z</time>
      </trkpt>
      <trkpt lat="48.674138" lon="10.066489">
        <ele>527.459670</ele>
        <time>2024-09-08T09:32:27.000Z</time>
      </trkpt>
      <trkpt lat="48.674063" lon="10.066411">
        <ele>527.432364</ele>
        <time>2024-09-08T09:32:28.000Z</time>
      </trkpt>
      <trkpt lat="48.674000" lon="10.066313">
        <ele>527.405258</ele>
        <time>2024-09-08T09:32:29.000Z</time>
      </trkpt>
      <trkpt lat="48.673937" lon="10.066215">
        <ele>527.378153</ele>
        <time>2024-09-08T09:32:30.000Z</time>
      </trkpt>
      <trkpt lat="48.673813" lon="10.066020">
        <ele>527.324501</ele>
        <time>2024-09-08T09:32:32.000Z</time>
      </trkpt>
      <trkpt lat="48.673741" lon="10.065935">
        <ele>527.297102</ele>
        <time>2024-09-08T09:32:33.000Z</time>
      </trkpt>
      <trkpt lat="48.673663" lon="10.065862">
        <ele>527.269582</ele>
        <time>2024-09-08T09:32:34.000Z</time>
      </trkpt>
      <trkpt lat="48.673577" lon="10.065812">
        <ele>527.241935</ele>
        <time>2024-09-08T09:32:35.000Z</time>
      </trkpt>
      <trkpt lat="48.673486" lon="10.065770">
        <ele>527.213383</ele>
        <time>2024-09-08T09:32:36.000Z</time>
      </trkpt>
      <trkpt lat="48.673396" lon="10.065736">
        <ele>527.185545</ele>
        <time>2024-09-08T09:32:37.000Z</time>
      </trkpt>
      <trkpt lat="48.673307" lon="10.065705">
        <ele>527.158136</ele>
        <time>2024-09-08T09:32:38.000Z</time>
      </trkpt>
      <trkpt lat="48.673218" lon="10.065675">
        <ele>527.130771</ele>
        <time>2024-09-08T09:32:39.000Z</time>
      </trkpt>
      <trkpt lat="48.673130" lon="10.065645">
        <ele>527.145264</ele>
        <time>2024-09-08T09:32:40.000Z</time>
      </trkpt>
      <trkpt lat="48.672977" lon="10.065532">
        <ele>527.189947</ele>
        <time>2024-09-08T09:32:42.000Z</time>
      </trkpt>
      <trkpt lat="48.672837" lon="10.065391">
        <ele>527.234082</ele>
        <time>2024-09-08T09:32:44.000Z</time>
      </trkpt>
      <trkpt lat="48.672725" lon="10.065215">
        <ele>527.276449</ele>
        <time>2024-09-08T09:32:46.000Z</time>
      </trkpt>
      <trkpt lat="48.672675" lon="10.064984">
        <ele>527.318587</ele>
        <time>2024-09-08T09:32:48.000Z</time>
      </trkpt>
      <trkpt lat="48.672645" lon="10.064730">
        <ele>527.363314</ele>
        <time>2024-09-08T09:32:50.000Z</time>
      </trkpt>
      <trkpt lat="48.672612" lon="10.064476">
        <ele>527.408186</ele>
        <time>2024-09-08T09:32:52.000Z</time>
      </trkpt>
      <trkpt lat="48.672584" lon="10.064226">
        <ele>527.452140</ele>
        <time>2024-09-08T09:32:54.000Z</time>
      </trkpt>
      <trkpt lat="48.672557" lon="10.063996">
        <ele>527.492633</ele>
        <time>2024-09-08T09:32:56.000Z</time>
      </trkpt>
      <trkpt lat="48.672528" lon="10.063761">
        <ele>527.534074</ele>
        <time>2024-09-08T09:32:58.000Z</time>
      </trkpt>
      <trkpt lat="48.672499" lon="10.063522">
        <ele>527.576195</ele>
        <time>2024-09-08T09:33:00.000Z</time>
      </trkpt>
      <trkpt lat="48.672472" lon="10.063280">
        <ele>527.683837</ele>
        <time>2024-09-08T09:33:02.000Z</time>
      </trkpt>
      <trkpt lat="48.672444" lon="10.063037">
        <ele>527.860832</ele>
        <time>2024-09-08T09:33:04.000Z</time>
      </trkpt>
      <trkpt lat="48.672413" lon="10.062793">
        <ele>528.039121</ele>
        <time>2024-09-08T09:33:06.000Z</time>
      </trkpt>
      <trkpt lat="48.672387" lon="10.062549">
        <ele>528.216463</ele>
        <time>2024-09-08T09:33:08.000Z</time>
      </trkpt>
      <trkpt lat="48.672359" lon="10.062305">
        <ele>528.394166</ele>
        <time>2024-09-08T09:33:10.000Z</time>
      </trkpt>
      <trkpt lat="48.672333" lon="10.062071">
        <ele>528.564429</ele>
        <time>2024-09-08T09:33:12.000Z</time>
      </trkpt>
      <trkpt lat="48.672306" lon="10.061845">
        <ele>528.729224</ele>
        <time>2024-09-08T09:33:14.000Z</time>
      </trkpt>
      <trkpt lat="48.672284" lon="10.061622">
        <ele>528.891010</ele>
        <time>2024-09-08T09:33:16.000Z</time>
      </trkpt>
      <trkpt lat="48.672261" lon="10.061398">
        <ele>529.053670</ele>
        <time>2024-09-08T09:33:17.999Z</time>
      </trkpt>
      <trkpt lat="48.672244" lon="10.061181">
        <ele>529.210467</ele>
        <time>2024-09-08T09:33:19.999Z</time>
      </trkpt>
      <trkpt lat="48.672228" lon="10.060963">
        <ele>529.367853</ele>
        <time>2024-09-08T09:33:21.999Z</time>
      </trkpt>
      <trkpt lat="48.672213" lon="10.060739">
        <ele>529.529405</ele>
        <time>2024-09-08T09:33:23.999Z</time>
      </trkpt>
      <trkpt lat="48.672199" lon="10.060516">
        <ele>529.666960</ele>
        <time>2024-09-08T09:33:25.999Z</time>
      </trkpt>
      <trkpt lat="48.672186" lon="10.060285">
        <ele>529.805328</ele>
        <time>2024-09-08T09:33:27.999Z</time>
      </trkpt>
      <trkpt lat="48.672179" lon="10.060046">
        <ele>529.948111</ele>
        <time>2024-09-08T09:33:29.999Z</time>
      </trkpt>
      <trkpt lat="48.672173" lon="10.059806">
        <ele>530.091453</ele>
        <time>2024-09-08T09:33:31.999Z</time>
      </trkpt>
      <trkpt lat="48.672174" lon="10.059561">
        <ele>530.237680</ele>
        <time>2024-09-08T09:33:34.000Z</time>
      </trkpt>
      <trkpt lat="48.672184" lon="10.059313">
        <ele>530.385969</ele>
        <time>2024-09-08T09:33:36.000Z</time>
      </trkpt>
      <trkpt lat="48.672202" lon="10.059071">
        <ele>530.531316</ele>
        <time>2024-09-08T09:33:38.000Z</time>
      </trkpt>
      <trkpt lat="48.672232" lon="10.058824">
        <ele>530.681206</ele>
        <time>2024-09-08T09:33:40.000Z</time>
      </trkpt>
      <trkpt lat="48.672267" lon="10.058577">
        <ele>530.831979</ele>
        <time>2024-09-08T09:33:42.000Z</time>
      </trkpt>
      <trkpt lat="48.672306" lon="10.058332">
        <ele>530.982390</ele>
        <time>2024-09-08T09:33:44.000Z</time>
      </trkpt>
      <trkpt lat="48.672344" lon="10.058089">
        <ele>531.131431</ele>
        <time>2024-09-08T09:33:46.000Z</time>
      </trkpt>
      <trkpt lat="48.672380" lon="10.057838">
        <ele>531.214193</ele>
        <time>2024-09-08T09:33:48.000Z</time>
      </trkpt>
      <trkpt lat="48.672418" lon="10.057585">
        <ele>531.266751</ele>
        <time>2024-09-08T09:33:50.000Z</time>
      </trkpt>
      <trkpt lat="48.672451" lon="10.057326">
        <ele>531.320183</ele>
        <time>2024-09-08T09:33:52.000Z</time>
      </trkpt>
      <trkpt lat="48.672487" lon="10.057069">
        <ele>531.373401</ele>
        <time>2024-09-08T09:33:54.000Z</time>
      </trkpt>
      <trkpt lat="48.672525" lon="10.056821">
        <ele>531.424972</ele>
        <time>2024-09-08T09:33:56.000Z</time>
      </trkpt>
      <trkpt lat="48.672561" lon="10.056584">
        <ele>531.474233</ele>
        <time>2024-09-08T09:33:58.000Z</time>
      </trkpt>
      <trkpt lat="48.672601" lon="10.056338">
        <ele>531.525553</ele>
        <time>2024-09-08T09:34:00.000Z</time>
      </trkpt>
      <trkpt lat="48.672637" lon="10.056089">
        <ele>531.577186</ele>
        <time>2024-09-08T09:34:02.000Z</time>
      </trkpt>
      <trkpt lat="48.672671" lon="10.055841">
        <ele>531.628493</ele>
        <time>2024-09-08T09:34:04.000Z</time>
      </trkpt>
      <trkpt lat="48.672710" lon="10.055595">
        <ele>531.679740</ele>
        <time>2024-09-08T09:34:06.000Z</time>
      </trkpt>
      <trkpt lat="48.672744" lon="10.055345">
        <ele>531.735563</ele>
        <time>2024-09-08T09:34:08.000Z</time>
      </trkpt>
      <trkpt lat="48.672774" lon="10.055091">
        <ele>531.910282</ele>
        <time>2024-09-08T09:34:10.000Z</time>
      </trkpt>
      <trkpt lat="48.672800" lon="10.054843">
        <ele>532.080311</ele>
        <time>2024-09-08T09:34:12.000Z</time>
      </trkpt>
      <trkpt lat="48.672808" lon="10.054586">
        <ele>532.254524</ele>
        <time>2024-09-08T09:34:14.000Z</time>
      </trkpt>
      <trkpt lat="48.672809" lon="10.054333">
        <ele>532.425839</ele>
        <time>2024-09-08T09:34:16.000Z</time>
      </trkpt>
      <trkpt lat="48.672804" lon="10.054083">
        <ele>532.595197</ele>
        <time>2024-09-08T09:34:18.000Z</time>
      </trkpt>
      <trkpt lat="48.672794" lon="10.053831">
        <ele>532.766139</ele>
        <time>2024-09-08T09:34:20.000Z</time>
      </trkpt>
      <trkpt lat="48.672779" lon="10.053580">
        <ele>532.936791</ele>
        <time>2024-09-08T09:34:22.000Z</time>
      </trkpt>
      <trkpt lat="48.672771" lon="10.053326">
        <ele>533.108976</ele>
        <time>2024-09-08T09:34:24.000Z</time>
      </trkpt>
      <trkpt lat="48.672764" lon="10.053069">
        <ele>533.283144</ele>
        <time>2024-09-08T09:34:26.000Z</time>
      </trkpt>
      <trkpt lat="48.672762" lon="10.052818">
        <ele>533.453114</ele>
        <time>2024-09-08T09:34:28.000Z</time>
      </trkpt>
      <trkpt lat="48.672765" lon="10.052564">
        <ele>533.609819</ele>
        <time>2024-09-08T09:34:30.000Z</time>
      </trkpt>
      <trkpt lat="48.672779" lon="10.052303">
        <ele>533.734046</ele>
        <time>2024-09-08T09:34:32.000Z</time>
      </trkpt>
      <trkpt lat="48.672807" lon="10.052047">
        <ele>533.857149</ele>
        <time>2024-09-08T09:34:34.000Z</time>
      </trkpt>
      <trkpt lat="48.672840" lon="10.051797">
        <ele>533.978096</ele>
        <time>2024-09-08T09:34:36.000Z</time>
      </trkpt>
      <trkpt lat="48.672879" lon="10.051554">
        <ele>534.096732</ele>
        <time>2024-09-08T09:34:38.000Z</time>
      </trkpt>
      <trkpt lat="48.672920" lon="10.051308">
        <ele>534.217095</ele>
        <time>2024-09-08T09:34:40.000Z</time>
      </trkpt>
      <trkpt lat="48.672957" lon="10.051061">
        <ele>534.337250</ele>
        <time>2024-09-08T09:34:42.000Z</time>
      </trkpt>
      <trkpt lat="48.672999" lon="10.050818">
        <ele>534.456413</ele>
        <time>2024-09-08T09:34:44.000Z</time>
      </trkpt>
      <trkpt lat="48.673041" lon="10.050574">
        <ele>534.576035</ele>
        <time>2024-09-08T09:34:46.000Z</time>
      </trkpt>
      <trkpt lat="48.673077" lon="10.050327">
        <ele>534.696032</ele>
        <time>2024-09-08T09:34:48.000Z</time>
      </trkpt>
      <trkpt lat="48.673114" lon="10.050086">
        <ele>534.813412</ele>
        <time>2024-09-08T09:34:49.999Z</time>
      </trkpt>
      <trkpt lat="48.673152" lon="10.049842">
        <ele>534.918257</ele>
        <time>2024-09-08T09:34:51.999Z</time>
      </trkpt>
      <trkpt lat="48.673195" lon="10.049600">
        <ele>535.011850</ele>
        <time>2024-09-08T09:34:53.999Z</time>
      </trkpt>
      <trkpt lat="48.673228" lon="10.049350">
        <ele>535.107063</ele>
        <time>2024-09-08T09:34:55.999Z</time>
      </trkpt>
      <trkpt lat="48.673254" lon="10.049103">
        <ele>535.200473</ele>
        <time>2024-09-08T09:34:57.999Z</time>
      </trkpt>
      <trkpt lat="48.673273" lon="10.048855">
        <ele>535.293713</ele>
        <time>2024-09-08T09:34:59.999Z</time>
      </trkpt>
      <trkpt lat="48.673285" lon="10.048604">
        <ele>535.387698</ele>
        <time>2024-09-08T09:35:01.999Z</time>
      </trkpt>
      <trkpt lat="48.673293" lon="10.048349">
        <ele>535.483038</ele>
        <time>2024-09-08T09:35:03.999Z</time>
      </trkpt>
      <trkpt lat="48.673293" lon="10.048097">
        <ele>535.577151</ele>
        <time>2024-09-08T09:35:05.999Z</time>
      </trkpt>
      <trkpt lat="48.673285" lon="10.047846">
        <ele>535.671000</ele>
        <time>2024-09-08T09:35:07.999Z</time>
      </trkpt>
      <trkpt lat="48.673274" lon="10.047594">
        <ele>535.765318</ele>
        <time>2024-09-08T09:35:09.999Z</time>
      </trkpt>
      <trkpt lat="48.673253" lon="10.047348">
        <ele>535.857955</ele>
        <time>2024-09-08T09:35:11.999Z</time>
      </trkpt>
      <trkpt lat="48.673223" lon="10.047099">
        <ele>535.950457</ele>
        <time>2024-09-08T09:35:13.999Z</time>
      </trkpt>
      <trkpt lat="48.673189" lon="10.046848">
        <ele>536.043345</ele>
        <time>2024-09-08T09:35:15.999Z</time>
      </trkpt>
      <trkpt lat="48.673146" lon="10.046603">
        <ele>536.135246</ele>
        <time>2024-09-08T09:35:17.999Z</time>
      </trkpt>
      <trkpt lat="48.673097" lon="10.046364">
        <ele>536.225969</ele>
        <time>2024-09-08T09:35:19.999Z</time>
      </trkpt>
      <trkpt lat="48.673043" lon="10.046127">
        <ele>536.316858</ele>
        <time>2024-09-08T09:35:21.999Z</time>
      </trkpt>
      <trkpt lat="48.672981" lon="10.045901">
        <ele>536.405577</ele>
        <time>2024-09-08T09:35:23.999Z</time>
      </trkpt>
      <trkpt lat="48.672918" lon="10.045676">
        <ele>536.494174</ele>
        <time>2024-09-08T09:35:25.999Z</time>
      </trkpt>
      <trkpt lat="48.672852" lon="10.045452">
        <ele>536.583096</ele>
        <time>2024-09-08T09:35:27.999Z</time>
      </trkpt>
      <trkpt lat="48.672791" lon="10.045227">
        <ele>536.671271</ele>
        <time>2024-09-08T09:35:29.999Z</time>
      </trkpt>
      <trkpt lat="48.672724" lon="10.045004">
        <ele>536.760088</ele>
        <time>2024-09-08T09:35:31.999Z</time>
      </trkpt>
      <trkpt lat="48.672659" lon="10.044780">
        <ele>536.848788</ele>
        <time>2024-09-08T09:35:33.999Z</time>
      </trkpt>
      <trkpt lat="48.672595" lon="10.044553">
        <ele>536.995060</ele>
        <time>2024-09-08T09:35:35.999Z</time>
      </trkpt>
      <trkpt lat="48.672524" lon="10.044326">
        <ele>537.162755</ele>
        <time>2024-09-08T09:35:37.999Z</time>
      </trkpt>
      <trkpt lat="48.672458" lon="10.044093">
        <ele>537.332024</ele>
        <time>2024-09-08T09:35:40.000Z</time>
      </trkpt>
      <trkpt lat="48.672393" lon="10.043858">
        <ele>537.502128</ele>
        <time>2024-09-08T09:35:42.000Z</time>
      </trkpt>
      <trkpt lat="48.672322" lon="10.043628">
        <ele>537.671636</ele>
        <time>2024-09-08T09:35:44.000Z</time>
      </trkpt>
      <trkpt lat="48.672259" lon="10.043395">
        <ele>537.839732</ele>
        <time>2024-09-08T09:35:46.000Z</time>
      </trkpt>
      <trkpt lat="48.672189" lon="10.043172">
        <ele>538.004582</ele>
        <time>2024-09-08T09:35:48.000Z</time>
      </trkpt>
      <trkpt lat="48.672121" lon="10.042945">
        <ele>538.171003</ele>
        <time>2024-09-08T09:35:50.000Z</time>
      </trkpt>
      <trkpt lat="48.672054" lon="10.042719">
        <ele>538.336399</ele>
        <time>2024-09-08T09:35:52.000Z</time>
      </trkpt>
      <trkpt lat="48.671985" lon="10.042500">
        <ele>538.498404</ele>
        <time>2024-09-08T09:35:54.000Z</time>
      </trkpt>
      <trkpt lat="48.671906" lon="10.042289">
        <ele>538.660346</ele>
        <time>2024-09-08T09:35:56.000Z</time>
      </trkpt>
      <trkpt lat="48.671816" lon="10.042086">
        <ele>538.783782</ele>
        <time>2024-09-08T09:35:58.000Z</time>
      </trkpt>
      <trkpt lat="48.671741" lon="10.041863">
        <ele>538.901349</ele>
        <time>2024-09-08T09:36:00.000Z</time>
      </trkpt>
      <trkpt lat="48.671657" lon="10.041646">
        <ele>539.019517</ele>
        <time>2024-09-08T09:36:02.000Z</time>
      </trkpt>
      <trkpt lat="48.671565" lon="10.041436">
        <ele>539.137908</ele>
        <time>2024-09-08T09:36:04.000Z</time>
      </trkpt>
      <trkpt lat="48.671476" lon="10.041226">
        <ele>539.255133</ele>
        <time>2024-09-08T09:36:06.000Z</time>
      </trkpt>
      <trkpt lat="48.671383" lon="10.041019">
        <ele>539.372751</ele>
        <time>2024-09-08T09:36:08.000Z</time>
      </trkpt>
      <trkpt lat="48.671288" lon="10.040812">
        <ele>539.491175</ele>
        <time>2024-09-08T09:36:10.000Z</time>
      </trkpt>
      <trkpt lat="48.671195" lon="10.040602">
        <ele>539.609962</ele>
        <time>2024-09-08T09:36:12.000Z</time>
      </trkpt>
      <trkpt lat="48.671103" lon="10.040394">
        <ele>539.727572</ele>
        <time>2024-09-08T09:36:14.000Z</time>
      </trkpt>
      <trkpt lat="48.671000" lon="10.040204">
        <ele>539.843056</ele>
        <time>2024-09-08T09:36:16.000Z</time>
      </trkpt>
      <trkpt lat="48.670875" lon="10.040033">
        <ele>539.962895</ele>
        <time>2024-09-08T09:36:18.000Z</time>
      </trkpt>
      <trkpt lat="48.670737" lon="10.039873">
        <ele>540.056762</ele>
        <time>2024-09-08T09:36:20.000Z</time>
      </trkpt>
      <trkpt lat="48.670599" lon="10.039710">
        <ele>540.149774</ele>
        <time>2024-09-08T09:36:22.000Z</time>
      </trkpt>
      <trkpt lat="48.670461" lon="10.039541">
        <ele>540.244097</ele>
        <time>2024-09-08T09:36:24.000Z</time>
      </trkpt>
      <trkpt lat="48.670323" lon="10.039374">
        <ele>540.337980</ele>
        <time>2024-09-08T09:36:26.000Z</time>
      </trkpt>
      <trkpt lat="48.670184" lon="10.039211">
        <ele>540.431412</ele>
        <time>2024-09-08T09:36:28.000Z</time>
      </trkpt>
      <trkpt lat="48.670044" lon="10.039048">
        <ele>540.525265</ele>
        <time>2024-09-08T09:36:30.000Z</time>
      </trkpt>
      <trkpt lat="48.669908" lon="10.038880">
        <ele>540.618542</ele>
        <time>2024-09-08T09:36:32.000Z</time>
      </trkpt>
      <trkpt lat="48.669773" lon="10.038711">
        <ele>540.711631</ele>
        <time>2024-09-08T09:36:34.000Z</time>
      </trkpt>
      <trkpt lat="48.669642" lon="10.038537">
        <ele>540.804239</ele>
        <time>2024-09-08T09:36:36.000Z</time>
      </trkpt>
      <trkpt lat="48.669509" lon="10.038360">
        <ele>540.898340</ele>
        <time>2024-09-08T09:36:38.000Z</time>
      </trkpt>
      <trkpt lat="48.669388" lon="10.038170">
        <ele>541.039859</ele>
        <time>2024-09-08T09:36:40.000Z</time>
      </trkpt>
      <trkpt lat="48.669269" lon="10.037975">
        <ele>541.201771</ele>
        <time>2024-09-08T09:36:42.000Z</time>
      </trkpt>
      <trkpt lat="48.669151" lon="10.037777">
        <ele>541.364412</ele>
        <time>2024-09-08T09:36:44.000Z</time>
      </trkpt>
      <trkpt lat="48.669033" lon="10.037580">
        <ele>541.526601</ele>
        <time>2024-09-08T09:36:46.000Z</time>
      </trkpt>
      <trkpt lat="48.668915" lon="10.037384">
        <ele>541.688339</ele>
        <time>2024-09-08T09:36:48.000Z</time>
      </trkpt>
      <trkpt lat="48.668798" lon="10.037187">
        <ele>541.849909</ele>
        <time>2024-09-08T09:36:49.999Z</time>
      </trkpt>
      <trkpt lat="48.668682" lon="10.036994">
        <ele>542.009052</ele>
        <time>2024-09-08T09:36:51.999Z</time>
      </trkpt>
      <trkpt lat="48.668568" lon="10.036798">
        <ele>542.168325</ele>
        <time>2024-09-08T09:36:53.999Z</time>
      </trkpt>
      <trkpt lat="48.668453" lon="10.036624">
        <ele>542.318446</ele>
        <time>2024-09-08T09:36:55.999Z</time>
      </trkpt>
      <trkpt lat="48.668335" lon="10.036473">
        <ele>542.461108</ele>
        <time>2024-09-08T09:36:57.999Z</time>
      </trkpt>
      <trkpt lat="48.668242" lon="10.036333">
        <ele>542.582203</ele>
        <time>2024-09-08T09:36:59.999Z</time>
      </trkpt>
      <trkpt lat="48.668167" lon="10.036186">
        <ele>542.718169</ele>
        <time>2024-09-08T09:37:01.999Z</time>
      </trkpt>
      <trkpt lat="48.668087" lon="10.036056">
        <ele>542.848899</ele>
        <time>2024-09-08T09:37:03.999Z</time>
      </trkpt>
      <trkpt lat="48.667991" lon="10.035925">
        <ele>542.992865</ele>
        <time>2024-09-08T09:37:05.999Z</time>
      </trkpt>
      <trkpt lat="48.667895" lon="10.035762">
        <ele>543.153547</ele>
        <time>2024-09-08T09:37:07.999Z</time>
      </trkpt>
      <trkpt lat="48.667812" lon="10.035591">
        <ele>543.309679</ele>
        <time>2024-09-08T09:37:09.999Z</time>
      </trkpt>
      <trkpt lat="48.667730" lon="10.035412">
        <ele>543.469954</ele>
        <time>2024-09-08T09:37:11.999Z</time>
      </trkpt>
      <trkpt lat="48.667636" lon="10.035256">
        <ele>543.625319</ele>
        <time>2024-09-08T09:37:13.999Z</time>
      </trkpt>
      <trkpt lat="48.667493" lon="10.035256">
        <ele>543.784624</ele>
        <time>2024-09-08T09:37:15.999Z</time>
      </trkpt>
      <trkpt lat="48.667367" lon="10.035367">
        <ele>543.947018</ele>
        <time>2024-09-08T09:37:17.999Z</time>
      </trkpt>
      <trkpt lat="48.667236" lon="10.035441">
        <ele>544.102778</ele>
        <time>2024-09-08T09:37:19.999Z</time>
      </trkpt>
      <trkpt lat="48.667104" lon="10.035475">
        <ele>544.251941</ele>
        <time>2024-09-08T09:37:21.999Z</time>
      </trkpt>
      <trkpt lat="48.666981" lon="10.035508">
        <ele>544.391099</ele>
        <time>2024-09-08T09:37:23.999Z</time>
      </trkpt>
      <trkpt lat="48.666855" lon="10.035534">
        <ele>544.532762</ele>
        <time>2024-09-08T09:37:25.999Z</time>
      </trkpt>
      <trkpt lat="48.666722" lon="10.035564">
        <ele>544.639293</ele>
        <time>2024-09-08T09:37:27.999Z</time>
      </trkpt>
      <trkpt lat="48.666584" lon="10.035598">
        <ele>544.722787</ele>
        <time>2024-09-08T09:37:29.999Z</time>
      </trkpt>
      <trkpt lat="48.666452" lon="10.035622">
        <ele>544.802180</ele>
        <time>2024-09-08T09:37:31.999Z</time>
      </trkpt>
      <trkpt lat="48.666318" lon="10.035654">
        <ele>544.883190</ele>
        <time>2024-09-08T09:37:33.999Z</time>
      </trkpt>
      <trkpt lat="48.666172" lon="10.035674">
        <ele>544.970733</ele>
        <time>2024-09-08T09:37:35.999Z</time>
      </trkpt>
      <trkpt lat="48.666030" lon="10.035700">
        <ele>545.056149</ele>
        <time>2024-09-08T09:37:37.999Z</time>
      </trkpt>
      <trkpt lat="48.665884" lon="10.035727">
        <ele>545.143984</ele>
        <time>2024-09-08T09:37:39.999Z</time>
      </trkpt>
      <trkpt lat="48.665731" lon="10.035762">
        <ele>545.236388</ele>
        <time>2024-09-08T09:37:41.999Z</time>
      </trkpt>
      <trkpt lat="48.665576" lon="10.035794">
        <ele>545.329807</ele>
        <time>2024-09-08T09:37:43.999Z</time>
      </trkpt>
      <trkpt lat="48.665422" lon="10.035824">
        <ele>545.422529</ele>
        <time>2024-09-08T09:37:46.000Z</time>
      </trkpt>
      <trkpt lat="48.665267" lon="10.035860">
        <ele>545.516173</ele>
        <time>2024-09-08T09:37:48.000Z</time>
      </trkpt>
      <trkpt lat="48.665111" lon="10.035896">
        <ele>545.610408</ele>
        <time>2024-09-08T09:37:50.000Z</time>
      </trkpt>
      <trkpt lat="48.664953" lon="10.035930">
        <ele>545.764208</ele>
        <time>2024-09-08T09:37:52.000Z</time>
      </trkpt>
      <trkpt lat="48.664796" lon="10.035956">
        <ele>545.988924</ele>
        <time>2024-09-08T09:37:54.000Z</time>
      </trkpt>
      <trkpt lat="48.664642" lon="10.035963">
        <ele>546.208139</ele>
        <time>2024-09-08T09:37:56.000Z</time>
      </trkpt>
      <trkpt lat="48.664482" lon="10.035966">
        <ele>546.435809</ele>
        <time>2024-09-08T09:37:58.000Z</time>
      </trkpt>
      <trkpt lat="48.664326" lon="10.035967">
        <ele>546.657773</ele>
        <time>2024-09-08T09:38:00.000Z</time>
      </trkpt>
      <trkpt lat="48.664166" lon="10.035962">
        <ele>546.885474</ele>
        <time>2024-09-08T09:38:02.000Z</time>
      </trkpt>
      <trkpt lat="48.664005" lon="10.035960">
        <ele>547.114557</ele>
        <time>2024-09-08T09:38:04.000Z</time>
      </trkpt>
      <trkpt lat="48.663841" lon="10.035962">
        <ele>547.347909</ele>
        <time>2024-09-08T09:38:06.000Z</time>
      </trkpt>
      <trkpt lat="48.663678" lon="10.035961">
        <ele>547.579832</ele>
        <time>2024-09-08T09:38:08.000Z</time>
      </trkpt>
      <trkpt lat="48.663518" lon="10.035967">
        <ele>547.807555</ele>
        <time>2024-09-08T09:38:10.000Z</time>
      </trkpt>
      <trkpt lat="48.663354" lon="10.035976">
        <ele>548.041052</ele>
        <time>2024-09-08T09:38:12.000Z</time>
      </trkpt>
      <trkpt lat="48.663196" lon="10.035968">
        <ele>548.283864</ele>
        <time>2024-09-08T09:38:14.000Z</time>
      </trkpt>
      <trkpt lat="48.663039" lon="10.035965">
        <ele>548.599251</ele>
        <time>2024-09-08T09:38:16.000Z</time>
      </trkpt>
      <trkpt lat="48.662883" lon="10.035976">
        <ele>548.912945</ele>
        <time>2024-09-08T09:38:18.000Z</time>
      </trkpt>
      <trkpt lat="48.662722" lon="10.035985">
        <ele>549.236563</ele>
        <time>2024-09-08T09:38:20.000Z</time>
      </trkpt>
      <trkpt lat="48.662578" lon="10.036018">
        <ele>549.529107</ele>
        <time>2024-09-08T09:38:22.000Z</time>
      </trkpt>
      <trkpt lat="48.662424" lon="10.036007">
        <ele>549.838788</ele>
        <time>2024-09-08T09:38:24.000Z</time>
      </trkpt>
      <trkpt lat="48.662269" lon="10.035991">
        <ele>550.150856</ele>
        <time>2024-09-08T09:38:26.000Z</time>
      </trkpt>
      <trkpt lat="48.662108" lon="10.035982">
        <ele>550.474474</ele>
        <time>2024-09-08T09:38:28.000Z</time>
      </trkpt>
      <trkpt lat="48.661971" lon="10.035990">
        <ele>550.749867</ele>
        <time>2024-09-08T09:38:30.000Z</time>
      </trkpt>
      <trkpt lat="48.661825" lon="10.035996">
        <ele>551.043243</ele>
        <time>2024-09-08T09:38:32.000Z</time>
      </trkpt>
      <trkpt lat="48.661678" lon="10.036013">
        <ele>551.339379</ele>
        <time>2024-09-08T09:38:34.000Z</time>
      </trkpt>
      <trkpt lat="48.661529" lon="10.036047">
        <ele>551.642052</ele>
        <time>2024-09-08T09:38:36.000Z</time>
      </trkpt>
      <trkpt lat="48.661379" lon="10.036078">
        <ele>551.899228</ele>
        <time>2024-09-08T09:38:38.000Z</time>
      </trkpt>
      <trkpt lat="48.661232" lon="10.036117">
        <ele>552.071931</ele>
        <time>2024-09-08T09:38:40.000Z</time>
      </trkpt>
      <trkpt lat="48.661083" lon="10.036159">
        <ele>552.247319</ele>
        <time>2024-09-08T09:38:42.000Z</time>
      </trkpt>
      <trkpt lat="48.660938" lon="10.036196">
        <ele>552.417482</ele>
        <time>2024-09-08T09:38:44.000Z</time>
      </trkpt>
      <trkpt lat="48.660794" lon="10.036232">
        <ele>552.586377</ele>
        <time>2024-09-08T09:38:45.999Z</time>
      </trkpt>
      <trkpt lat="48.660649" lon="10.036252">
        <ele>552.754869</ele>
        <time>2024-09-08T09:38:47.999Z</time>
      </trkpt>
      <trkpt lat="48.660501" lon="10.036260">
        <ele>552.926246</ele>
        <time>2024-09-08T09:38:49.999Z</time>
      </trkpt>
      <trkpt lat="48.660355" lon="10.036249">
        <ele>553.095408</ele>
        <time>2024-09-08T09:38:51.999Z</time>
      </trkpt>
      <trkpt lat="48.660211" lon="10.036224">
        <ele>553.263139</ele>
        <time>2024-09-08T09:38:53.999Z</time>
      </trkpt>
      <trkpt lat="48.660063" lon="10.036178">
        <ele>553.437979</ele>
        <time>2024-09-08T09:38:55.999Z</time>
      </trkpt>
      <trkpt lat="48.659918" lon="10.036102">
        <ele>553.615546</ele>
        <time>2024-09-08T09:38:57.999Z</time>
      </trkpt>
      <trkpt lat="48.659781" lon="10.036015">
        <ele>553.787467</ele>
        <time>2024-09-08T09:38:59.999Z</time>
      </trkpt>
      <trkpt lat="48.659647" lon="10.035907">
        <ele>554.014117</ele>
        <time>2024-09-08T09:39:01.999Z</time>
      </trkpt>
      <trkpt lat="48.659517" lon="10.035788">
        <ele>554.383637</ele>
        <time>2024-09-08T09:39:03.999Z</time>
      </trkpt>
      <trkpt lat="48.659397" lon="10.035651">
        <ele>554.749217</ele>
        <time>2024-09-08T09:39:05.999Z</time>
      </trkpt>
      <trkpt lat="48.659291" lon="10.035496">
        <ele>555.107682</ele>
        <time>2024-09-08T09:39:07.999Z</time>
      </trkpt>
      <trkpt lat="48.659212" lon="10.035300">
        <ele>555.476591</ele>
        <time>2024-09-08T09:39:09.999Z</time>
      </trkpt>
      <trkpt lat="48.659163" lon="10.035081">
        <ele>555.848093</ele>
        <time>2024-09-08T09:39:11.999Z</time>
      </trkpt>
      <trkpt lat="48.659129" lon="10.034852">
        <ele>556.225205</ele>
        <time>2024-09-08T09:39:13.999Z</time>
      </trkpt>
      <trkpt lat="48.659113" lon="10.034631">
        <ele>556.582409</ele>
        <time>2024-09-08T09:39:15.999Z</time>
      </trkpt>
      <trkpt lat="48.659094" lon="10.034401">
        <ele>556.954827</ele>
        <time>2024-09-08T09:39:17.999Z</time>
      </trkpt>
      <trkpt lat="48.659082" lon="10.034166">
        <ele>557.333525</ele>
        <time>2024-09-08T09:39:19.999Z</time>
      </trkpt>
      <trkpt lat="48.659074" lon="10.033937">
        <ele>557.701971</ele>
        <time>2024-09-08T09:39:21.999Z</time>
      </trkpt>
      <trkpt lat="48.659065" lon="10.033708">
        <ele>558.070554</ele>
        <time>2024-09-08T09:39:23.999Z</time>
      </trkpt>
      <trkpt lat="48.659058" lon="10.033475">
        <ele>558.479721</ele>
        <time>2024-09-08T09:39:25.999Z</time>
      </trkpt>
      <trkpt lat="48.659047" lon="10.033243">
        <ele>558.937281</ele>
        <time>2024-09-08T09:39:27.999Z</time>
      </trkpt>
      <trkpt lat="48.659039" lon="10.033010">
        <ele>559.396253</ele>
        <time>2024-09-08T09:39:29.999Z</time>
      </trkpt>
      <trkpt lat="48.659036" lon="10.032779">
        <ele>559.850760</ele>
        <time>2024-09-08T09:39:31.999Z</time>
      </trkpt>
      <trkpt lat="48.659016" lon="10.032553">
        <ele>560.299315</ele>
        <time>2024-09-08T09:39:33.999Z</time>
      </trkpt>
      <trkpt lat="48.659005" lon="10.032319">
        <ele>560.760800</ele>
        <time>2024-09-08T09:39:35.999Z</time>
      </trkpt>
      <trkpt lat="48.658998" lon="10.032097">
        <ele>561.198012</ele>
        <time>2024-09-08T09:39:37.999Z</time>
      </trkpt>
      <trkpt lat="48.658983" lon="10.031876">
        <ele>561.635049</ele>
        <time>2024-09-08T09:39:39.999Z</time>
      </trkpt>
      <trkpt lat="48.658974" lon="10.031655">
        <ele>562.070622</ele>
        <time>2024-09-08T09:39:41.999Z</time>
      </trkpt>
      <trkpt lat="48.658966" lon="10.031431">
        <ele>562.511915</ele>
        <time>2024-09-08T09:39:43.999Z</time>
      </trkpt>
      <trkpt lat="48.658955" lon="10.031197">
        <ele>562.973400</ele>
        <time>2024-09-08T09:39:45.999Z</time>
      </trkpt>
      <trkpt lat="48.658945" lon="10.030977">
        <ele>563.407205</ele>
        <time>2024-09-08T09:39:47.999Z</time>
      </trkpt>
      <trkpt lat="48.658934" lon="10.030747">
        <ele>563.726118</ele>
        <time>2024-09-08T09:39:49.999Z</time>
      </trkpt>
      <trkpt lat="48.658919" lon="10.030517">
        <ele>563.892289</ele>
        <time>2024-09-08T09:39:52.000Z</time>
      </trkpt>
      <trkpt lat="48.658912" lon="10.030292">
        <ele>564.054240</ele>
        <time>2024-09-08T09:39:54.000Z</time>
      </trkpt>
      <trkpt lat="48.658896" lon="10.030065">
        <ele>564.218377</ele>
        <time>2024-09-08T09:39:56.000Z</time>
      </trkpt>
      <trkpt lat="48.658874" lon="10.029836">
        <ele>564.384758</ele>
        <time>2024-09-08T09:39:58.000Z</time>
      </trkpt>
      <trkpt lat="48.658849" lon="10.029611">
        <ele>564.548803</ele>
        <time>2024-09-08T09:40:00.000Z</time>
      </trkpt>
      <trkpt lat="48.658818" lon="10.029386">
        <ele>564.714057</ele>
        <time>2024-09-08T09:40:02.000Z</time>
      </trkpt>
      <trkpt lat="48.658782" lon="10.029159">
        <ele>564.881906</ele>
        <time>2024-09-08T09:40:04.000Z</time>
      </trkpt>
      <trkpt lat="48.658744" lon="10.028931">
        <ele>565.050973</ele>
        <time>2024-09-08T09:40:06.000Z</time>
      </trkpt>
      <trkpt lat="48.658705" lon="10.028702">
        <ele>565.221006</ele>
        <time>2024-09-08T09:40:08.000Z</time>
      </trkpt>
      <trkpt lat="48.658673" lon="10.028476">
        <ele>565.387189</ele>
        <time>2024-09-08T09:40:10.000Z</time>
      </trkpt>
      <trkpt lat="48.658636" lon="10.028248">
        <ele>565.555994</ele>
        <time>2024-09-08T09:40:12.000Z</time>
      </trkpt>
      <trkpt lat="48.658597" lon="10.028008">
        <ele>565.722516</ele>
        <time>2024-09-08T09:40:14.000Z</time>
      </trkpt>
      <trkpt lat="48.658561" lon="10.027776">
        <ele>565.878823</ele>
        <time>2024-09-08T09:40:16.000Z</time>
      </trkpt>
      <trkpt lat="48.658531" lon="10.027554">
        <ele>566.027445</ele>
        <time>2024-09-08T09:40:18.000Z</time>
      </trkpt>
      <trkpt lat="48.658498" lon="10.027325">
        <ele>566.181175</ele>
        <time>2024-09-08T09:40:20.000Z</time>
      </trkpt>
      <trkpt lat="48.658466" lon="10.027093">
        <ele>566.336623</ele>
        <time>2024-09-08T09:40:22.000Z</time>
      </trkpt>
      <trkpt lat="48.658434" lon="10.026867">
        <ele>566.488220</ele>
        <time>2024-09-08T09:40:24.000Z</time>
      </trkpt>
      <trkpt lat="48.658412" lon="10.026637">
        <ele>566.640648</ele>
        <time>2024-09-08T09:40:26.000Z</time>
      </trkpt>
      <trkpt lat="48.658404" lon="10.026396">
        <ele>566.798916</ele>
        <time>2024-09-08T09:40:28.000Z</time>
      </trkpt>
      <trkpt lat="48.658407" lon="10.026161">
        <ele>566.953078</ele>
        <time>2024-09-08T09:40:30.000Z</time>
      </trkpt>
      <trkpt lat="48.658412" lon="10.025929">
        <ele>567.105324</ele>
        <time>2024-09-08T09:40:32.000Z</time>
      </trkpt>
      <trkpt lat="48.658410" lon="10.025710">
        <ele>567.248977</ele>
        <time>2024-09-08T09:40:34.000Z</time>
      </trkpt>
      <trkpt lat="48.658388" lon="10.025473">
        <ele>567.398263</ele>
        <time>2024-09-08T09:40:36.000Z</time>
      </trkpt>
      <trkpt lat="48.658363" lon="10.025234">
        <ele>567.467853</ele>
        <time>2024-09-08T09:40:38.000Z</time>
      </trkpt>
      <trkpt lat="48.658315" lon="10.025013">
        <ele>567.534758</ele>
        <time>2024-09-08T09:40:40.000Z</time>
      </trkpt>
      <trkpt lat="48.658244" lon="10.024802">
        <ele>567.602859</ele>
        <time>2024-09-08T09:40:42.000Z</time>
      </trkpt>
      <trkpt lat="48.658168" lon="10.024596">
        <ele>567.670716</ele>
        <time>2024-09-08T09:40:44.000Z</time>
      </trkpt>
      <trkpt lat="48.658083" lon="10.024398">
        <ele>567.738628</ele>
        <time>2024-09-08T09:40:46.000Z</time>
      </trkpt>
      <trkpt lat="48.658000" lon="10.024204">
        <ele>567.805101</ele>
        <time>2024-09-08T09:40:47.999Z</time>
      </trkpt>
      <trkpt lat="48.657910" lon="10.024011">
        <ele>567.873043</ele>
        <time>2024-09-08T09:40:49.999Z</time>
      </trkpt>
      <trkpt lat="48.657817" lon="10.023827">
        <ele>567.939674</ele>
        <time>2024-09-08T09:40:51.999Z</time>
      </trkpt>
      <trkpt lat="48.657717" lon="10.023653">
        <ele>568.006003</ele>
        <time>2024-09-08T09:40:53.999Z</time>
      </trkpt>
      <trkpt lat="48.657618" lon="10.023474">
        <ele>568.073144</ele>
        <time>2024-09-08T09:40:55.999Z</time>
      </trkpt>
      <trkpt lat="48.657514" lon="10.023306">
        <ele>568.139361</ele>
        <time>2024-09-08T09:40:57.999Z</time>
      </trkpt>
      <trkpt lat="48.657413" lon="10.023134">
        <ele>568.246094</ele>
        <time>2024-09-08T09:40:59.999Z</time>
      </trkpt>
      <trkpt lat="48.657309" lon="10.022965">
        <ele>568.401721</ele>
        <time>2024-09-08T09:41:01.999Z</time>
      </trkpt>
      <trkpt lat="48.657202" lon="10.022785">
        <ele>568.564881</ele>
        <time>2024-09-08T09:41:03.999Z</time>
      </trkpt>
      <trkpt lat="48.657097" lon="10.022613">
        <ele>568.722684</ele>
        <time>2024-09-08T09:41:05.999Z</time>
      </trkpt>
      <trkpt lat="48.656990" lon="10.022436">
        <ele>568.884348</ele>
        <time>2024-09-08T09:41:07.999Z</time>
      </trkpt>
      <trkpt lat="48.656886" lon="10.022265">
        <ele>569.040965</ele>
        <time>2024-09-08T09:41:09.999Z</time>
      </trkpt>
      <trkpt lat="48.656778" lon="10.022104">
        <ele>569.195573</ele>
        <time>2024-09-08T09:41:11.999Z</time>
      </trkpt>
      <trkpt lat="48.656657" lon="10.021957">
        <ele>569.353825</ele>
        <time>2024-09-08T09:41:13.999Z</time>
      </trkpt>
      <trkpt lat="48.656528" lon="10.021825">
        <ele>569.512648</ele>
        <time>2024-09-08T09:41:15.999Z</time>
      </trkpt>
      <trkpt lat="48.656388" lon="10.021701">
        <ele>569.678097</ele>
        <time>2024-09-08T09:41:17.999Z</time>
      </trkpt>
      <trkpt lat="48.656255" lon="10.021579">
        <ele>569.836722</ele>
        <time>2024-09-08T09:41:19.999Z</time>
      </trkpt>
      <trkpt lat="48.656121" lon="10.021457">
        <ele>569.996220</ele>
        <time>2024-09-08T09:41:21.999Z</time>
      </trkpt>
      <trkpt lat="48.655991" lon="10.021332">
        <ele>570.189602</ele>
        <time>2024-09-08T09:41:23.999Z</time>
      </trkpt>
      <trkpt lat="48.655861" lon="10.021204">
        <ele>570.387846</ele>
        <time>2024-09-08T09:41:25.999Z</time>
      </trkpt>
      <trkpt lat="48.655727" lon="10.021077">
        <ele>570.589946</ele>
        <time>2024-09-08T09:41:27.999Z</time>
      </trkpt>
      <trkpt lat="48.655602" lon="10.020937">
        <ele>570.788718</ele>
        <time>2024-09-08T09:41:29.999Z</time>
      </trkpt>
      <trkpt lat="48.655468" lon="10.020812">
        <ele>570.989928</ele>
        <time>2024-09-08T09:41:31.999Z</time>
      </trkpt>
      <trkpt lat="48.655341" lon="10.020680">
        <ele>571.186860</ele>
        <time>2024-09-08T09:41:33.999Z</time>
      </trkpt>
      <trkpt lat="48.655210" lon="10.020530">
        <ele>571.396833</ele>
        <time>2024-09-08T09:41:35.999Z</time>
      </trkpt>
      <trkpt lat="48.655070" lon="10.020397">
        <ele>571.608124</ele>
        <time>2024-09-08T09:41:37.999Z</time>
      </trkpt>
      <trkpt lat="48.654935" lon="10.020250">
        <ele>571.820709</ele>
        <time>2024-09-08T09:41:39.999Z</time>
      </trkpt>
      <trkpt lat="48.654820" lon="10.020072">
        <ele>572.030962</ele>
        <time>2024-09-08T09:41:41.999Z</time>
      </trkpt>
      <trkpt lat="48.654714" lon="10.019890">
        <ele>572.235859</ele>
        <time>2024-09-08T09:41:43.999Z</time>
      </trkpt>
      <trkpt lat="48.654619" lon="10.019692">
        <ele>572.402115</ele>
        <time>2024-09-08T09:41:45.999Z</time>
      </trkpt>
      <trkpt lat="48.654534" lon="10.019486">
        <ele>572.545029</ele>
        <time>2024-09-08T09:41:47.999Z</time>
      </trkpt>
      <trkpt lat="48.654456" lon="10.019267">
        <ele>572.691425</ele>
        <time>2024-09-08T09:41:49.999Z</time>
      </trkpt>
      <trkpt lat="48.654384" lon="10.019051">
        <ele>572.833784</ele>
        <time>2024-09-08T09:41:51.999Z</time>
      </trkpt>
      <trkpt lat="48.654300" lon="10.018852">
        <ele>572.972740</ele>
        <time>2024-09-08T09:41:53.999Z</time>
      </trkpt>
      <trkpt lat="48.654211" lon="10.018655">
        <ele>573.113171</ele>
        <time>2024-09-08T09:41:55.999Z</time>
      </trkpt>
      <trkpt lat="48.654113" lon="10.018473">
        <ele>573.251330</ele>
        <time>2024-09-08T09:41:58.000Z</time>
      </trkpt>
      <trkpt lat="48.654015" lon="10.018287">
        <ele>573.391322</ele>
        <time>2024-09-08T09:42:00.000Z</time>
      </trkpt>
      <trkpt lat="48.653914" lon="10.018099">
        <ele>573.533906</ele>
        <time>2024-09-08T09:42:02.000Z</time>
      </trkpt>
      <trkpt lat="48.653816" lon="10.017906">
        <ele>573.677141</ele>
        <time>2024-09-08T09:42:04.000Z</time>
      </trkpt>
      <trkpt lat="48.653718" lon="10.017713">
        <ele>573.820376</ele>
        <time>2024-09-08T09:42:06.000Z</time>
      </trkpt>
      <trkpt lat="48.653631" lon="10.017514">
        <ele>573.961920</ele>
        <time>2024-09-08T09:42:08.000Z</time>
      </trkpt>
      <trkpt lat="48.653547" lon="10.017309">
        <ele>574.107113</ele>
        <time>2024-09-08T09:42:10.000Z</time>
      </trkpt>
      <trkpt lat="48.653466" lon="10.017101">
        <ele>574.252436</ele>
        <time>2024-09-08T09:42:12.000Z</time>
      </trkpt>
      <trkpt lat="48.653385" lon="10.016897">
        <ele>574.395691</ele>
        <time>2024-09-08T09:42:14.000Z</time>
      </trkpt>
      <trkpt lat="48.653301" lon="10.016691">
        <ele>574.541396</ele>
        <time>2024-09-08T09:42:16.000Z</time>
      </trkpt>
      <trkpt lat="48.653219" lon="10.016483">
        <ele>574.687185</ele>
        <time>2024-09-08T09:42:18.000Z</time>
      </trkpt>
      <trkpt lat="48.653134" lon="10.016275">
        <ele>574.834393</ele>
        <time>2024-09-08T09:42:20.000Z</time>
      </trkpt>
      <trkpt lat="48.653050" lon="10.016064">
        <ele>574.982668</ele>
        <time>2024-09-08T09:42:22.000Z</time>
      </trkpt>
      <trkpt lat="48.652966" lon="10.015857">
        <ele>575.128886</ele>
        <time>2024-09-08T09:42:24.000Z</time>
      </trkpt>
      <trkpt lat="48.652881" lon="10.015659">
        <ele>575.271012</ele>
        <time>2024-09-08T09:42:26.000Z</time>
      </trkpt>
      <trkpt lat="48.652789" lon="10.015460">
        <ele>575.417203</ele>
        <time>2024-09-08T09:42:28.000Z</time>
      </trkpt>
      <trkpt lat="48.652717" lon="10.015250">
        <ele>575.568934</ele>
        <time>2024-09-08T09:42:30.000Z</time>
      </trkpt>
      <trkpt lat="48.652636" lon="10.015046">
        <ele>575.852641</ele>
        <time>2024-09-08T09:42:32.000Z</time>
      </trkpt>
      <trkpt lat="48.652546" lon="10.014860">
        <ele>576.127462</ele>
        <time>2024-09-08T09:42:34.000Z</time>
      </trkpt>
      <trkpt lat="48.652433" lon="10.014698">
        <ele>576.408282</ele>
        <time>2024-09-08T09:42:36.000Z</time>
      </trkpt>
      <trkpt lat="48.652306" lon="10.014572">
        <ele>576.682268</ele>
        <time>2024-09-08T09:42:38.000Z</time>
      </trkpt>
      <trkpt lat="48.652167" lon="10.014478">
        <ele>576.956963</ele>
        <time>2024-09-08T09:42:40.000Z</time>
      </trkpt>
      <trkpt lat="48.652027" lon="10.014392">
        <ele>577.229579</ele>
        <time>2024-09-08T09:42:42.000Z</time>
      </trkpt>
      <trkpt lat="48.651888" lon="10.014300">
        <ele>577.503310</ele>
        <time>2024-09-08T09:42:44.000Z</time>
      </trkpt>
      <trkpt lat="48.651750" lon="10.014211">
        <ele>577.773968</ele>
        <time>2024-09-08T09:42:46.000Z</time>
      </trkpt>
      <trkpt lat="48.651623" lon="10.014098">
        <ele>578.039776</ele>
        <time>2024-09-08T09:42:48.000Z</time>
      </trkpt>
      <trkpt lat="48.651508" lon="10.013946">
        <ele>578.315247</ele>
        <time>2024-09-08T09:42:49.999Z</time>
      </trkpt>
      <trkpt lat="48.651411" lon="10.013774">
        <ele>578.584818</ele>
        <time>2024-09-08T09:42:51.999Z</time>
      </trkpt>
      <trkpt lat="48.651327" lon="10.013591">
        <ele>578.849058</ele>
        <time>2024-09-08T09:42:53.999Z</time>
      </trkpt>
      <trkpt lat="48.651243" lon="10.013397">
        <ele>579.118586</ele>
        <time>2024-09-08T09:42:55.999Z</time>
      </trkpt>
      <trkpt lat="48.651158" lon="10.013213">
        <ele>579.379477</ele>
        <time>2024-09-08T09:42:57.999Z</time>
      </trkpt>
      <trkpt lat="48.651075" lon="10.013025">
        <ele>579.642221</ele>
        <time>2024-09-08T09:42:59.999Z</time>
      </trkpt>
      <trkpt lat="48.650988" lon="10.012842">
        <ele>579.904201</ele>
        <time>2024-09-08T09:43:01.999Z</time>
      </trkpt>
      <trkpt lat="48.650907" lon="10.012659">
        <ele>580.160160</ele>
        <time>2024-09-08T09:43:03.999Z</time>
      </trkpt>
      <trkpt lat="48.650826" lon="10.012471">
        <ele>580.420966</ele>
        <time>2024-09-08T09:43:05.999Z</time>
      </trkpt>
      <trkpt lat="48.650753" lon="10.012277">
        <ele>580.680395</ele>
        <time>2024-09-08T09:43:07.999Z</time>
      </trkpt>
      <trkpt lat="48.650697" lon="10.012067">
        <ele>580.943544</ele>
        <time>2024-09-08T09:43:09.999Z</time>
      </trkpt>
      <trkpt lat="48.650656" lon="10.011848">
        <ele>581.208042</ele>
        <time>2024-09-08T09:43:11.999Z</time>
      </trkpt>
      <trkpt lat="48.650604" lon="10.011631">
        <ele>581.476271</ele>
        <time>2024-09-08T09:43:13.999Z</time>
      </trkpt>
      <trkpt lat="48.650533" lon="10.011429">
        <ele>581.742148</ele>
        <time>2024-09-08T09:43:15.999Z</time>
      </trkpt>
      <trkpt lat="48.650443" lon="10.011246">
        <ele>581.990365</ele>
        <time>2024-09-08T09:43:17.999Z</time>
      </trkpt>
      <trkpt lat="48.650333" lon="10.011084">
        <ele>582.165743</ele>
        <time>2024-09-08T09:43:19.999Z</time>
      </trkpt>
      <trkpt lat="48.650214" lon="10.010941">
        <ele>582.339369</ele>
        <time>2024-09-08T09:43:21.999Z</time>
      </trkpt>
      <trkpt lat="48.650087" lon="10.010814">
        <ele>582.513304</ele>
        <time>2024-09-08T09:43:23.999Z</time>
      </trkpt>
      <trkpt lat="48.649950" lon="10.010704">
        <ele>582.690518</ele>
        <time>2024-09-08T09:43:25.999Z</time>
      </trkpt>
      <trkpt lat="48.649819" lon="10.010586">
        <ele>582.864715</ele>
        <time>2024-09-08T09:43:27.999Z</time>
      </trkpt>
      <trkpt lat="48.649685" lon="10.010478">
        <ele>583.038194</ele>
        <time>2024-09-08T09:43:29.999Z</time>
      </trkpt>
      <trkpt lat="48.649550" lon="10.010368">
        <ele>583.213392</ele>
        <time>2024-09-08T09:43:31.999Z</time>
      </trkpt>
      <trkpt lat="48.649414" lon="10.010267">
        <ele>583.386499</ele>
        <time>2024-09-08T09:43:33.999Z</time>
      </trkpt>
      <trkpt lat="48.649271" lon="10.010169">
        <ele>583.565876</ele>
        <time>2024-09-08T09:43:35.999Z</time>
      </trkpt>
      <trkpt lat="48.649128" lon="10.010077">
        <ele>583.743433</ele>
        <time>2024-09-08T09:43:37.999Z</time>
      </trkpt>
      <trkpt lat="48.648983" lon="10.009996">
        <ele>583.920051</ele>
        <time>2024-09-08T09:43:39.999Z</time>
      </trkpt>
      <trkpt lat="48.648839" lon="10.009909">
        <ele>584.126167</ele>
        <time>2024-09-08T09:43:41.999Z</time>
      </trkpt>
      <trkpt lat="48.648698" lon="10.009818">
        <ele>584.362524</ele>
        <time>2024-09-08T09:43:43.999Z</time>
      </trkpt>
      <trkpt lat="48.648557" lon="10.009714">
        <ele>584.604382</ele>
        <time>2024-09-08T09:43:45.999Z</time>
      </trkpt>
      <trkpt lat="48.648429" lon="10.009601">
        <ele>584.832872</ele>
        <time>2024-09-08T09:43:47.999Z</time>
      </trkpt>
      <trkpt lat="48.648297" lon="10.009481">
        <ele>585.070303</ele>
        <time>2024-09-08T09:43:49.999Z</time>
      </trkpt>
      <trkpt lat="48.648169" lon="10.009359">
        <ele>585.303547</ele>
        <time>2024-09-08T09:43:51.999Z</time>
      </trkpt>
      <trkpt lat="48.648044" lon="10.009229">
        <ele>585.537408</ele>
        <time>2024-09-08T09:43:53.999Z</time>
      </trkpt>
      <trkpt lat="48.647919" lon="10.009087">
        <ele>585.778402</ele>
        <time>2024-09-08T09:43:55.999Z</time>
      </trkpt>
      <trkpt lat="48.647799" lon="10.008937">
        <ele>586.018382</ele>
        <time>2024-09-08T09:43:57.999Z</time>
      </trkpt>
      <trkpt lat="48.647683" lon="10.008795">
        <ele>586.248428</ele>
        <time>2024-09-08T09:43:59.999Z</time>
      </trkpt>
      <trkpt lat="48.647565" lon="10.008642">
        <ele>586.488016</ele>
        <time>2024-09-08T09:44:01.999Z</time>
      </trkpt>
      <trkpt lat="48.647437" lon="10.008514">
        <ele>586.724575</ele>
        <time>2024-09-08T09:44:04.000Z</time>
      </trkpt>
      <trkpt lat="48.647297" lon="10.008411">
        <ele>586.928999</ele>
        <time>2024-09-08T09:44:06.000Z</time>
      </trkpt>
      <trkpt lat="48.647145" lon="10.008340">
        <ele>587.124880</ele>
        <time>2024-09-08T09:44:08.000Z</time>
      </trkpt>
      <trkpt lat="48.646990" lon="10.008304">
        <ele>587.317979</ele>
        <time>2024-09-08T09:44:10.000Z</time>
      </trkpt>
      <trkpt lat="48.646838" lon="10.008262">
        <ele>587.508243</ele>
        <time>2024-09-08T09:44:12.000Z</time>
      </trkpt>
      <trkpt lat="48.646691" lon="10.008206">
        <ele>587.694902</ele>
        <time>2024-09-08T09:44:14.000Z</time>
      </trkpt>
      <trkpt lat="48.646548" lon="10.008124">
        <ele>587.883204</ele>
        <time>2024-09-08T09:44:16.000Z</time>
      </trkpt>
      <trkpt lat="48.646406" lon="10.008019">
        <ele>588.077812</ele>
        <time>2024-09-08T09:44:18.000Z</time>
      </trkpt>
      <trkpt lat="48.646264" lon="10.007920">
        <ele>588.270328</ele>
        <time>2024-09-08T09:44:20.000Z</time>
      </trkpt>
      <trkpt lat="48.646123" lon="10.007822">
        <ele>588.461385</ele>
        <time>2024-09-08T09:44:22.000Z</time>
      </trkpt>
      <trkpt lat="48.645987" lon="10.007703">
        <ele>588.654825</ele>
        <time>2024-09-08T09:44:24.000Z</time>
      </trkpt>
      <trkpt lat="48.645854" lon="10.007581">
        <ele>588.846330</ele>
        <time>2024-09-08T09:44:26.000Z</time>
      </trkpt>
      <trkpt lat="48.645728" lon="10.007444">
        <ele>589.041300</ele>
        <time>2024-09-08T09:44:28.000Z</time>
      </trkpt>
      <trkpt lat="48.645601" lon="10.007296">
        <ele>589.261019</ele>
        <time>2024-09-08T09:44:30.000Z</time>
      </trkpt>
      <trkpt lat="48.645474" lon="10.007146">
        <ele>589.481848</ele>
        <time>2024-09-08T09:44:32.000Z</time>
      </trkpt>
      <trkpt lat="48.645352" lon="10.006998">
        <ele>589.696177</ele>
        <time>2024-09-08T09:44:34.000Z</time>
      </trkpt>
      <trkpt lat="48.645224" lon="10.006851">
        <ele>589.916436</ele>
        <time>2024-09-08T09:44:36.000Z</time>
      </trkpt>
      <trkpt lat="48.645104" lon="10.006702">
        <ele>590.129206</ele>
        <time>2024-09-08T09:44:38.000Z</time>
      </trkpt>
      <trkpt lat="48.644984" lon="10.006543">
        <ele>590.347834</ele>
        <time>2024-09-08T09:44:40.000Z</time>
      </trkpt>
      <trkpt lat="48.644878" lon="10.006364">
        <ele>590.565545</ele>
        <time>2024-09-08T09:44:42.000Z</time>
      </trkpt>
      <trkpt lat="48.644776" lon="10.006179">
        <ele>590.783780</ele>
        <time>2024-09-08T09:44:44.000Z</time>
      </trkpt>
      <trkpt lat="48.644685" lon="10.005987">
        <ele>590.997794</ele>
        <time>2024-09-08T09:44:46.000Z</time>
      </trkpt>
      <trkpt lat="48.644593" lon="10.005802">
        <ele>591.207511</ele>
        <time>2024-09-08T09:44:48.000Z</time>
      </trkpt>
      <trkpt lat="48.644507" lon="10.005619">
        <ele>591.410909</ele>
        <time>2024-09-08T09:44:50.000Z</time>
      </trkpt>
      <trkpt lat="48.644423" lon="10.005439">
        <ele>591.551365</ele>
        <time>2024-09-08T09:44:51.998Z</time>
      </trkpt>
      <trkpt lat="48.644337" lon="10.005264">
        <ele>591.666776</ele>
        <time>2024-09-08T09:44:53.998Z</time>
      </trkpt>
      <trkpt lat="48.644256" lon="10.005065">
        <ele>591.790460</ele>
        <time>2024-09-08T09:44:55.998Z</time>
      </trkpt>
      <trkpt lat="48.644176" lon="10.004867">
        <ele>591.913274</ele>
        <time>2024-09-08T09:44:57.998Z</time>
      </trkpt>
      <trkpt lat="48.644099" lon="10.004673">
        <ele>592.033032</ele>
        <time>2024-09-08T09:44:59.998Z</time>
      </trkpt>
      <trkpt lat="48.644024" lon="10.004468">
        <ele>592.157033</ele>
        <time>2024-09-08T09:45:01.998Z</time>
      </trkpt>
      <trkpt lat="48.643943" lon="10.004270">
        <ele>592.280267</ele>
        <time>2024-09-08T09:45:03.998Z</time>
      </trkpt>
      <trkpt lat="48.643855" lon="10.004091">
        <ele>592.398334</ele>
        <time>2024-09-08T09:45:05.998Z</time>
      </trkpt>
      <trkpt lat="48.643748" lon="10.003933">
        <ele>592.518060</ele>
        <time>2024-09-08T09:45:07.998Z</time>
      </trkpt>
      <trkpt lat="48.643627" lon="10.003803">
        <ele>592.636903</ele>
        <time>2024-09-08T09:45:09.998Z</time>
      </trkpt>
      <trkpt lat="48.643487" lon="10.003696">
        <ele>592.762514</ele>
        <time>2024-09-08T09:45:11.998Z</time>
      </trkpt>
      <trkpt lat="48.643341" lon="10.003620">
        <ele>592.886167</ele>
        <time>2024-09-08T09:45:13.998Z</time>
      </trkpt>
      <trkpt lat="48.643185" lon="10.003571">
        <ele>593.167127</ele>
        <time>2024-09-08T09:45:15.998Z</time>
      </trkpt>
      <trkpt lat="48.643029" lon="10.003593">
        <ele>593.475890</ele>
        <time>2024-09-08T09:45:17.998Z</time>
      </trkpt>
      <trkpt lat="48.642875" lon="10.003622">
        <ele>593.781721</ele>
        <time>2024-09-08T09:45:19.998Z</time>
      </trkpt>
      <trkpt lat="48.642721" lon="10.003668">
        <ele>594.091065</ele>
        <time>2024-09-08T09:45:21.998Z</time>
      </trkpt>
      <trkpt lat="48.642565" lon="10.003719">
        <ele>594.405587</ele>
        <time>2024-09-08T09:45:23.998Z</time>
      </trkpt>
      <trkpt lat="48.642411" lon="10.003765">
        <ele>594.714932</ele>
        <time>2024-09-08T09:45:25.998Z</time>
      </trkpt>
      <trkpt lat="48.642258" lon="10.003807">
        <ele>595.021371</ele>
        <time>2024-09-08T09:45:27.998Z</time>
      </trkpt>
      <trkpt lat="48.642109" lon="10.003851">
        <ele>595.320545</ele>
        <time>2024-09-08T09:45:29.998Z</time>
      </trkpt>
      <trkpt lat="48.641949" lon="10.003873">
        <ele>595.637157</ele>
        <time>2024-09-08T09:45:31.998Z</time>
      </trkpt>
      <trkpt lat="48.641784" lon="10.003854">
        <ele>595.963265</ele>
        <time>2024-09-08T09:45:33.998Z</time>
      </trkpt>
      <trkpt lat="48.641630" lon="10.003824">
        <ele>596.269259</ele>
        <time>2024-09-08T09:45:35.998Z</time>
      </trkpt>
      <trkpt lat="48.641473" lon="10.003798">
        <ele>596.598760</ele>
        <time>2024-09-08T09:45:37.998Z</time>
      </trkpt>
      <trkpt lat="48.641319" lon="10.003755">
        <ele>596.951682</ele>
        <time>2024-09-08T09:45:39.998Z</time>
      </trkpt>
      <trkpt lat="48.641171" lon="10.003728">
        <ele>597.287639</ele>
        <time>2024-09-08T09:45:41.998Z</time>
      </trkpt>
      <trkpt lat="48.641031" lon="10.003695">
        <ele>597.606956</ele>
        <time>2024-09-08T09:45:43.998Z</time>
      </trkpt>
      <trkpt lat="48.640894" lon="10.003658">
        <ele>597.920586</ele>
        <time>2024-09-08T09:45:45.998Z</time>
      </trkpt>
      <trkpt lat="48.640754" lon="10.003601">
        <ele>598.247318</ele>
        <time>2024-09-08T09:45:47.998Z</time>
      </trkpt>
      <trkpt lat="48.640632" lon="10.003520">
        <ele>598.547561</ele>
        <time>2024-09-08T09:45:49.998Z</time>
      </trkpt>
      <trkpt lat="48.640504" lon="10.003466">
        <ele>598.847029</ele>
        <time>2024-09-08T09:45:51.998Z</time>
      </trkpt>
      <trkpt lat="48.640373" lon="10.003471">
        <ele>599.142353</ele>
        <time>2024-09-08T09:45:53.998Z</time>
      </trkpt>
      <trkpt lat="48.640264" lon="10.003577">
        <ele>599.434349</ele>
        <time>2024-09-08T09:45:55.998Z</time>
      </trkpt>
      <trkpt lat="48.640231" lon="10.003776">
        <ele>599.739887</ele>
        <time>2024-09-08T09:45:57.998Z</time>
      </trkpt>
      <trkpt lat="48.640209" lon="10.003979">
        <ele>600.046231</ele>
        <time>2024-09-08T09:45:59.998Z</time>
      </trkpt>
      <trkpt lat="48.640177" lon="10.004172">
        <ele>600.342554</ele>
        <time>2024-09-08T09:46:01.998Z</time>
      </trkpt>
      <trkpt lat="48.640112" lon="10.004334">
        <ele>600.560257</ele>
        <time>2024-09-08T09:46:03.998Z</time>
      </trkpt>
      <trkpt lat="48.640004" lon="10.004434">
        <ele>600.689363</ele>
        <time>2024-09-08T09:46:05.998Z</time>
      </trkpt>
      <trkpt lat="48.639868" lon="10.004477">
        <ele>600.831038</ele>
        <time>2024-09-08T09:46:07.998Z</time>
      </trkpt>
      <trkpt lat="48.639726" lon="10.004489">
        <ele>600.976062</ele>
        <time>2024-09-08T09:46:10.000Z</time>
      </trkpt>
      <trkpt lat="48.639578" lon="10.004501">
        <ele>601.127196</ele>
        <time>2024-09-08T09:46:12.000Z</time>
      </trkpt>
      <trkpt lat="48.639438" lon="10.004553">
        <ele>601.274192</ele>
        <time>2024-09-08T09:46:14.000Z</time>
      </trkpt>
      <trkpt lat="48.639333" lon="10.004708">
        <ele>601.423765</ele>
        <time>2024-09-08T09:46:16.000Z</time>
      </trkpt>
      <trkpt lat="48.639283" lon="10.004921">
        <ele>601.576076</ele>
        <time>2024-09-08T09:46:18.000Z</time>
      </trkpt>
      <trkpt lat="48.639260" lon="10.005123">
        <ele>601.714193</ele>
        <time>2024-09-08T09:46:20.000Z</time>
      </trkpt>
      <trkpt lat="48.639244" lon="10.005334">
        <ele>601.857303</ele>
        <time>2024-09-08T09:46:22.000Z</time>
      </trkpt>
      <trkpt lat="48.639235" lon="10.005553">
        <ele>602.005155</ele>
        <time>2024-09-08T09:46:24.000Z</time>
      </trkpt>
      <trkpt lat="48.639224" lon="10.005774">
        <ele>602.154491</ele>
        <time>2024-09-08T09:46:26.000Z</time>
      </trkpt>
      <trkpt lat="48.639211" lon="10.005996">
        <ele>602.304666</ele>
        <time>2024-09-08T09:46:28.000Z</time>
      </trkpt>
      <trkpt lat="48.639191" lon="10.006215">
        <ele>602.557417</ele>
        <time>2024-09-08T09:46:30.000Z</time>
      </trkpt>
      <trkpt lat="48.639169" lon="10.006437">
        <ele>602.848070</ele>
        <time>2024-09-08T09:46:32.000Z</time>
      </trkpt>
      <trkpt lat="48.639149" lon="10.006642">
        <ele>603.116375</ele>
        <time>2024-09-08T09:46:34.000Z</time>
      </trkpt>
      <trkpt lat="48.639121" lon="10.006835">
        <ele>603.372217</ele>
        <time>2024-09-08T09:46:36.000Z</time>
      </trkpt>
      <trkpt lat="48.639102" lon="10.007043">
        <ele>603.644090</ele>
        <time>2024-09-08T09:46:38.000Z</time>
      </trkpt>
      <trkpt lat="48.639072" lon="10.007249">
        <ele>603.917213</ele>
        <time>2024-09-08T09:46:40.000Z</time>
      </trkpt>
      <trkpt lat="48.639044" lon="10.007466">
        <ele>604.203485</ele>
        <time>2024-09-08T09:46:42.000Z</time>
      </trkpt>
      <trkpt lat="48.639013" lon="10.007674">
        <ele>604.479563</ele>
        <time>2024-09-08T09:46:44.000Z</time>
      </trkpt>
      <trkpt lat="48.638963" lon="10.007875">
        <ele>604.757641</ele>
        <time>2024-09-08T09:46:46.000Z</time>
      </trkpt>
      <trkpt lat="48.638925" lon="10.008085">
        <ele>605.039554</ele>
        <time>2024-09-08T09:46:48.000Z</time>
      </trkpt>
      <trkpt lat="48.638889" lon="10.008283">
        <ele>605.305447</ele>
        <time>2024-09-08T09:46:50.000Z</time>
      </trkpt>
      <trkpt lat="48.638856" lon="10.008466">
        <ele>605.551055</ele>
        <time>2024-09-08T09:46:52.000Z</time>
      </trkpt>
      <trkpt lat="48.638823" lon="10.008650">
        <ele>605.797913</ele>
        <time>2024-09-08T09:46:54.000Z</time>
      </trkpt>
      <trkpt lat="48.638793" lon="10.008819">
        <ele>606.303164</ele>
        <time>2024-09-08T09:46:56.000Z</time>
      </trkpt>
      <trkpt lat="48.638767" lon="10.008960">
        <ele>606.824460</ele>
        <time>2024-09-08T09:46:58.000Z</time>
      </trkpt>
      <trkpt lat="48.638737" lon="10.009096">
        <ele>607.335038</ele>
        <time>2024-09-08T09:47:00.000Z</time>
      </trkpt>
      <trkpt lat="48.638700" lon="10.009223">
        <ele>607.829300</ele>
        <time>2024-09-08T09:47:02.000Z</time>
      </trkpt>
      <trkpt lat="48.638654" lon="10.009341">
        <ele>608.317180</ele>
        <time>2024-09-08T09:47:04.000Z</time>
      </trkpt>
      <trkpt lat="48.638604" lon="10.009459">
        <ele>608.816358</ele>
        <time>2024-09-08T09:47:06.000Z</time>
      </trkpt>
      <trkpt lat="48.638561" lon="10.009586">
        <ele>609.324527</ele>
        <time>2024-09-08T09:47:07.998Z</time>
      </trkpt>
      <trkpt lat="48.638497" lon="10.009695">
        <ele>609.843778</ele>
        <time>2024-09-08T09:47:09.998Z</time>
      </trkpt>
      <trkpt lat="48.638427" lon="10.009800">
        <ele>610.374924</ele>
        <time>2024-09-08T09:47:11.998Z</time>
      </trkpt>
      <trkpt lat="48.638355" lon="10.009899">
        <ele>610.899178</ele>
        <time>2024-09-08T09:47:13.998Z</time>
      </trkpt>
      <trkpt lat="48.638282" lon="10.009993">
        <ele>611.415720</ele>
        <time>2024-09-08T09:47:15.998Z</time>
      </trkpt>
      <trkpt lat="48.638206" lon="10.010090">
        <ele>611.951504</ele>
        <time>2024-09-08T09:47:17.998Z</time>
      </trkpt>
      <trkpt lat="48.638128" lon="10.010184">
        <ele>612.488852</ele>
        <time>2024-09-08T09:47:19.998Z</time>
      </trkpt>
      <trkpt lat="48.638050" lon="10.010281">
        <ele>613.032920</ele>
        <time>2024-09-08T09:47:21.999Z</time>
      </trkpt>
      <trkpt lat="48.637970" lon="10.010376">
        <ele>613.580932</ele>
        <time>2024-09-08T09:47:23.999Z</time>
      </trkpt>
      <trkpt lat="48.637890" lon="10.010471">
        <ele>614.128944</ele>
        <time>2024-09-08T09:47:25.999Z</time>
      </trkpt>
      <trkpt lat="48.637809" lon="10.010566">
        <ele>614.681207</ele>
        <time>2024-09-08T09:47:27.999Z</time>
      </trkpt>
      <trkpt lat="48.637728" lon="10.010663">
        <ele>615.237861</ele>
        <time>2024-09-08T09:47:29.999Z</time>
      </trkpt>
      <trkpt lat="48.637647" lon="10.010752">
        <ele>615.853372</ele>
        <time>2024-09-08T09:47:31.999Z</time>
      </trkpt>
      <trkpt lat="48.637571" lon="10.010846">
        <ele>616.565979</ele>
        <time>2024-09-08T09:47:33.999Z</time>
      </trkpt>
      <trkpt lat="48.637498" lon="10.010938">
        <ele>617.255681</ele>
        <time>2024-09-08T09:47:35.999Z</time>
      </trkpt>
      <trkpt lat="48.637425" lon="10.011029">
        <ele>617.942322</ele>
        <time>2024-09-08T09:47:37.999Z</time>
      </trkpt>
      <trkpt lat="48.637354" lon="10.011113">
        <ele>618.596617</ele>
        <time>2024-09-08T09:47:39.999Z</time>
      </trkpt>
      <trkpt lat="48.637251" lon="10.011239">
        <ele>619.558169</ele>
        <time>2024-09-08T09:47:42.999Z</time>
      </trkpt>
      <trkpt lat="48.637151" lon="10.011358">
        <ele>620.481755</ele>
        <time>2024-09-08T09:47:45.999Z</time>
      </trkpt>
      <trkpt lat="48.637060" lon="10.011464">
        <ele>621.315473</ele>
        <time>2024-09-08T09:47:48.999Z</time>
      </trkpt>
      <trkpt lat="48.636964" lon="10.011561">
        <ele>622.153516</ele>
        <time>2024-09-08T09:47:51.999Z</time>
      </trkpt>
      <trkpt lat="48.636865" lon="10.011670">
        <ele>623.042363</ele>
        <time>2024-09-08T09:47:54.999Z</time>
      </trkpt>
      <trkpt lat="48.636756" lon="10.011792">
        <ele>624.026639</ele>
        <time>2024-09-08T09:47:57.999Z</time>
      </trkpt>
      <trkpt lat="48.636657" lon="10.011885">
        <ele>624.872606</ele>
        <time>2024-09-08T09:48:00.999Z</time>
      </trkpt>
      <trkpt lat="48.636559" lon="10.012014">
        <ele>625.815596</ele>
        <time>2024-09-08T09:48:03.999Z</time>
      </trkpt>
      <trkpt lat="48.636493" lon="10.012105">
        <ele>626.463823</ele>
        <time>2024-09-08T09:48:05.999Z</time>
      </trkpt>
      <trkpt lat="48.636400" lon="10.012248">
        <ele>627.426397</ele>
        <time>2024-09-08T09:48:08.999Z</time>
      </trkpt>
      <trkpt lat="48.636339" lon="10.012349">
        <ele>628.082845</ele>
        <time>2024-09-08T09:48:10.999Z</time>
      </trkpt>
      <trkpt lat="48.636271" lon="10.012448">
        <ele>628.695568</ele>
        <time>2024-09-08T09:48:12.999Z</time>
      </trkpt>
      <trkpt lat="48.636203" lon="10.012548">
        <ele>629.055514</ele>
        <time>2024-09-08T09:48:15.000Z</time>
      </trkpt>
      <trkpt lat="48.636138" lon="10.012660">
        <ele>629.429439</ele>
        <time>2024-09-08T09:48:17.000Z</time>
      </trkpt>
      <trkpt lat="48.636076" lon="10.012772">
        <ele>629.795951</ele>
        <time>2024-09-08T09:48:19.000Z</time>
      </trkpt>
      <trkpt lat="48.636011" lon="10.012896">
        <ele>630.192993</ele>
        <time>2024-09-08T09:48:21.000Z</time>
      </trkpt>
      <trkpt lat="48.635945" lon="10.013029">
        <ele>630.610230</ele>
        <time>2024-09-08T09:48:23.000Z</time>
      </trkpt>
      <trkpt lat="48.635887" lon="10.013166">
        <ele>631.018382</ele>
        <time>2024-09-08T09:48:25.000Z</time>
      </trkpt>
      <trkpt lat="48.635827" lon="10.013301">
        <ele>631.426507</ele>
        <time>2024-09-08T09:48:27.000Z</time>
      </trkpt>
      <trkpt lat="48.635766" lon="10.013439">
        <ele>631.842997</ele>
        <time>2024-09-08T09:48:29.000Z</time>
      </trkpt>
      <trkpt lat="48.635706" lon="10.013582">
        <ele>632.267923</ele>
        <time>2024-09-08T09:48:31.000Z</time>
      </trkpt>
      <trkpt lat="48.635642" lon="10.013721">
        <ele>632.692907</ele>
        <time>2024-09-08T09:48:33.000Z</time>
      </trkpt>
      <trkpt lat="48.635574" lon="10.013861">
        <ele>633.128769</ele>
        <time>2024-09-08T09:48:35.000Z</time>
      </trkpt>
      <trkpt lat="48.635500" lon="10.013993">
        <ele>633.563004</ele>
        <time>2024-09-08T09:48:37.000Z</time>
      </trkpt>
      <trkpt lat="48.635412" lon="10.014105">
        <ele>633.999503</ele>
        <time>2024-09-08T09:48:39.000Z</time>
      </trkpt>
      <trkpt lat="48.635329" lon="10.014225">
        <ele>634.435268</ele>
        <time>2024-09-08T09:48:41.000Z</time>
      </trkpt>
      <trkpt lat="48.635253" lon="10.014346">
        <ele>634.854040</ele>
        <time>2024-09-08T09:48:43.000Z</time>
      </trkpt>
      <trkpt lat="48.635162" lon="10.014437">
        <ele>635.268097</ele>
        <time>2024-09-08T09:48:45.000Z</time>
      </trkpt>
      <trkpt lat="48.635078" lon="10.014514">
        <ele>635.627792</ele>
        <time>2024-09-08T09:48:47.000Z</time>
      </trkpt>
      <trkpt lat="48.634961" lon="10.014607">
        <ele>636.096054</ele>
        <time>2024-09-08T09:48:50.000Z</time>
      </trkpt>
      <trkpt lat="48.634849" lon="10.014677">
        <ele>636.525403</ele>
        <time>2024-09-08T09:48:53.000Z</time>
      </trkpt>
      <trkpt lat="48.634729" lon="10.014752">
        <ele>636.985421</ele>
        <time>2024-09-08T09:48:56.000Z</time>
      </trkpt>
      <trkpt lat="48.634604" lon="10.014805">
        <ele>637.445372</ele>
        <time>2024-09-08T09:48:59.000Z</time>
      </trkpt>
      <trkpt lat="48.634480" lon="10.014848">
        <ele>637.896111</ele>
        <time>2024-09-08T09:49:02.000Z</time>
      </trkpt>
      <trkpt lat="48.634355" lon="10.014882">
        <ele>638.346103</ele>
        <time>2024-09-08T09:49:05.000Z</time>
      </trkpt>
      <trkpt lat="48.634228" lon="10.014910">
        <ele>638.800834</ele>
        <time>2024-09-08T09:49:08.000Z</time>
      </trkpt>
      <trkpt lat="48.634135" lon="10.014922">
        <ele>639.131542</ele>
        <time>2024-09-08T09:49:10.000Z</time>
      </trkpt>
      <trkpt lat="48.634039" lon="10.014927">
        <ele>639.471885</ele>
        <time>2024-09-08T09:49:12.000Z</time>
      </trkpt>
      <trkpt lat="48.633940" lon="10.014931">
        <ele>639.822782</ele>
        <time>2024-09-08T09:49:13.999Z</time>
      </trkpt>
      <trkpt lat="48.633840" lon="10.014933">
        <ele>640.177127</ele>
        <time>2024-09-08T09:49:15.999Z</time>
      </trkpt>
      <trkpt lat="48.633734" lon="10.014933">
        <ele>640.552701</ele>
        <time>2024-09-08T09:49:17.999Z</time>
      </trkpt>
      <trkpt lat="48.633627" lon="10.014936">
        <ele>640.931882</ele>
        <time>2024-09-08T09:49:19.999Z</time>
      </trkpt>
      <trkpt lat="48.633511" lon="10.014952">
        <ele>641.344591</ele>
        <time>2024-09-08T09:49:21.999Z</time>
      </trkpt>
      <trkpt lat="48.633390" lon="10.014977">
        <ele>641.777290</ele>
        <time>2024-09-08T09:49:23.999Z</time>
      </trkpt>
      <trkpt lat="48.633258" lon="10.015004">
        <ele>641.704521</ele>
        <time>2024-09-08T09:49:25.999Z</time>
      </trkpt>
      <trkpt lat="48.633117" lon="10.015034">
        <ele>641.573420</ele>
        <time>2024-09-08T09:49:27.999Z</time>
      </trkpt>
      <trkpt lat="48.632976" lon="10.015059">
        <ele>641.442708</ele>
        <time>2024-09-08T09:49:29.999Z</time>
      </trkpt>
      <trkpt lat="48.632839" lon="10.015099">
        <ele>641.314240</ele>
        <time>2024-09-08T09:49:31.999Z</time>
      </trkpt>
      <trkpt lat="48.632706" lon="10.015129">
        <ele>641.190429</ele>
        <time>2024-09-08T09:49:33.999Z</time>
      </trkpt>
      <trkpt lat="48.632573" lon="10.015175">
        <ele>641.064813</ele>
        <time>2024-09-08T09:49:35.999Z</time>
      </trkpt>
      <trkpt lat="48.632444" lon="10.015210">
        <ele>640.944144</ele>
        <time>2024-09-08T09:49:37.999Z</time>
      </trkpt>
      <trkpt lat="48.632318" lon="10.015245">
        <ele>640.826193</ele>
        <time>2024-09-08T09:49:39.999Z</time>
      </trkpt>
      <trkpt lat="48.632189" lon="10.015290">
        <ele>640.704302</ele>
        <time>2024-09-08T09:49:41.999Z</time>
      </trkpt>
      <trkpt lat="48.632055" lon="10.015330">
        <ele>640.578546</ele>
        <time>2024-09-08T09:49:43.999Z</time>
      </trkpt>
      <trkpt lat="48.631914" lon="10.015374">
        <ele>640.445990</ele>
        <time>2024-09-08T09:49:45.999Z</time>
      </trkpt>
      <trkpt lat="48.631771" lon="10.015417">
        <ele>640.311750</ele>
        <time>2024-09-08T09:49:47.999Z</time>
      </trkpt>
      <trkpt lat="48.631617" lon="10.015460">
        <ele>640.167563</ele>
        <time>2024-09-08T09:49:49.999Z</time>
      </trkpt>
      <trkpt lat="48.631456" lon="10.015516">
        <ele>639.734985</ele>
        <time>2024-09-08T09:49:51.999Z</time>
      </trkpt>
      <trkpt lat="48.631290" lon="10.015566">
        <ele>639.278414</ele>
        <time>2024-09-08T09:49:53.999Z</time>
      </trkpt>
      <trkpt lat="48.631118" lon="10.015610">
        <ele>638.807860</ele>
        <time>2024-09-08T09:49:55.999Z</time>
      </trkpt>
      <trkpt lat="48.630943" lon="10.015671">
        <ele>638.323433</ele>
        <time>2024-09-08T09:49:57.999Z</time>
      </trkpt>
      <trkpt lat="48.630854" lon="10.015696">
        <ele>638.079254</ele>
        <time>2024-09-08T09:49:58.999Z</time>
      </trkpt>
      <trkpt lat="48.630765" lon="10.015722">
        <ele>637.834742</ele>
        <time>2024-09-08T09:49:59.999Z</time>
      </trkpt>
      <trkpt lat="48.630676" lon="10.015752">
        <ele>637.588780</ele>
        <time>2024-09-08T09:50:00.999Z</time>
      </trkpt>
      <trkpt lat="48.630587" lon="10.015784">
        <ele>637.342017</ele>
        <time>2024-09-08T09:50:01.999Z</time>
      </trkpt>
      <trkpt lat="48.630496" lon="10.015787">
        <ele>637.096486</ele>
        <time>2024-09-08T09:50:02.999Z</time>
      </trkpt>
      <trkpt lat="48.630406" lon="10.015816">
        <ele>636.848267</ele>
        <time>2024-09-08T09:50:03.999Z</time>
      </trkpt>
      <trkpt lat="48.630316" lon="10.015847">
        <ele>636.599281</ele>
        <time>2024-09-08T09:50:04.999Z</time>
      </trkpt>
      <trkpt lat="48.630140" lon="10.015934">
        <ele>636.099827</ele>
        <time>2024-09-08T09:50:06.999Z</time>
      </trkpt>
      <trkpt lat="48.630046" lon="10.015966">
        <ele>635.839924</ele>
        <time>2024-09-08T09:50:07.999Z</time>
      </trkpt>
      <trkpt lat="48.629953" lon="10.016001">
        <ele>635.581412</ele>
        <time>2024-09-08T09:50:08.999Z</time>
      </trkpt>
      <trkpt lat="48.629862" lon="10.016032">
        <ele>635.329795</ele>
        <time>2024-09-08T09:50:09.999Z</time>
      </trkpt>
      <trkpt lat="48.629771" lon="10.016057">
        <ele>635.344413</ele>
        <time>2024-09-08T09:50:10.999Z</time>
      </trkpt>
      <trkpt lat="48.629677" lon="10.016078">
        <ele>635.384150</ele>
        <time>2024-09-08T09:50:11.999Z</time>
      </trkpt>
      <trkpt lat="48.629586" lon="10.016082">
        <ele>635.422221</ele>
        <time>2024-09-08T09:50:12.999Z</time>
      </trkpt>
      <trkpt lat="48.629443" lon="10.016035">
        <ele>635.483418</ele>
        <time>2024-09-08T09:50:14.999Z</time>
      </trkpt>
      <trkpt lat="48.629356" lon="10.015983">
        <ele>635.522536</ele>
        <time>2024-09-08T09:50:16.999Z</time>
      </trkpt>
      <trkpt lat="48.629253" lon="10.015948">
        <ele>635.566683</ele>
        <time>2024-09-08T09:50:27.000Z</time>
      </trkpt>
      <trkpt lat="48.629167" lon="10.015901">
        <ele>635.604922</ele>
        <time>2024-09-08T09:50:31.000Z</time>
      </trkpt>
      <trkpt lat="48.629083" lon="10.016096">
        <ele>635.669257</ele>
        <time>2024-09-08T09:53:37.999Z</time>
      </trkpt>
      <trkpt lat="48.629056" lon="10.016255">
        <ele>635.714631</ele>
        <time>2024-09-08T09:53:41.999Z</time>
      </trkpt>
      <trkpt lat="48.629031" lon="10.016395">
        <ele>635.754714</ele>
        <time>2024-09-08T09:53:44.999Z</time>
      </trkpt>
      <trkpt lat="48.628927" lon="10.016486">
        <ele>635.804955</ele>
        <time>2024-09-08T09:53:47.999Z</time>
      </trkpt>
      <trkpt lat="48.628799" lon="10.016484">
        <ele>635.858487</ele>
        <time>2024-09-08T09:53:50.999Z</time>
      </trkpt>
      <trkpt lat="48.628666" lon="10.016506">
        <ele>635.914438</ele>
        <time>2024-09-08T09:53:53.999Z</time>
      </trkpt>
      <trkpt lat="48.628572" lon="10.016531">
        <ele>635.954351</ele>
        <time>2024-09-08T09:53:55.999Z</time>
      </trkpt>
      <trkpt lat="48.628476" lon="10.016553">
        <ele>635.994955</ele>
        <time>2024-09-08T09:53:57.999Z</time>
      </trkpt>
      <trkpt lat="48.628386" lon="10.016580">
        <ele>636.033326</ele>
        <time>2024-09-08T09:53:59.999Z</time>
      </trkpt>
      <trkpt lat="48.628259" lon="10.016628">
        <ele>636.195295</ele>
        <time>2024-09-08T09:54:02.999Z</time>
      </trkpt>
      <trkpt lat="48.628133" lon="10.016680">
        <ele>636.467438</ele>
        <time>2024-09-08T09:54:05.999Z</time>
      </trkpt>
      <trkpt lat="48.628011" lon="10.016749">
        <ele>636.738836</ele>
        <time>2024-09-08T09:54:08.999Z</time>
      </trkpt>
      <trkpt lat="48.627925" lon="10.016799">
        <ele>636.930813</ele>
        <time>2024-09-08T09:54:10.999Z</time>
      </trkpt>
      <trkpt lat="48.627840" lon="10.016857">
        <ele>637.125111</ele>
        <time>2024-09-08T09:54:12.999Z</time>
      </trkpt>
      <trkpt lat="48.627753" lon="10.016921">
        <ele>637.326689</ele>
        <time>2024-09-08T09:54:14.999Z</time>
      </trkpt>
      <trkpt lat="48.627638" lon="10.017023">
        <ele>637.604461</ele>
        <time>2024-09-08T09:54:17.999Z</time>
      </trkpt>
      <trkpt lat="48.627534" lon="10.017139">
        <ele>637.873694</ele>
        <time>2024-09-08T09:54:20.999Z</time>
      </trkpt>
      <trkpt lat="48.627430" lon="10.017257">
        <ele>638.144571</ele>
        <time>2024-09-08T09:54:23.999Z</time>
      </trkpt>
      <trkpt lat="48.627329" lon="10.017375">
        <ele>638.410473</ele>
        <time>2024-09-08T09:54:26.999Z</time>
      </trkpt>
      <trkpt lat="48.627235" lon="10.017523">
        <ele>638.693164</ele>
        <time>2024-09-08T09:54:29.999Z</time>
      </trkpt>
      <trkpt lat="48.627148" lon="10.017671">
        <ele>638.965951</ele>
        <time>2024-09-08T09:54:33.000Z</time>
      </trkpt>
      <trkpt lat="48.627059" lon="10.017823">
        <ele>639.245626</ele>
        <time>2024-09-08T09:54:36.000Z</time>
      </trkpt>
      <trkpt lat="48.627006" lon="10.017948">
        <ele>639.450162</ele>
        <time>2024-09-08T09:54:38.000Z</time>
      </trkpt>
      <trkpt lat="48.626960" lon="10.018084">
        <ele>639.660571</ele>
        <time>2024-09-08T09:54:40.000Z</time>
      </trkpt>
      <trkpt lat="48.626907" lon="10.018220">
        <ele>639.800675</ele>
        <time>2024-09-08T09:54:42.000Z</time>
      </trkpt>
      <trkpt lat="48.626847" lon="10.018366">
        <ele>639.771905</ele>
        <time>2024-09-08T09:54:44.000Z</time>
      </trkpt>
      <trkpt lat="48.626782" lon="10.018523">
        <ele>639.740903</ele>
        <time>2024-09-08T09:54:46.000Z</time>
      </trkpt>
      <trkpt lat="48.626680" lon="10.018658">
        <ele>639.706592</ele>
        <time>2024-09-08T09:54:48.000Z</time>
      </trkpt>
      <trkpt lat="48.626607" lon="10.018835">
        <ele>639.671679</ele>
        <time>2024-09-08T09:54:50.000Z</time>
      </trkpt>
      <trkpt lat="48.626531" lon="10.019022">
        <ele>639.634943</ele>
        <time>2024-09-08T09:54:52.000Z</time>
      </trkpt>
      <trkpt lat="48.626461" lon="10.019201">
        <ele>639.600138</ele>
        <time>2024-09-08T09:54:54.000Z</time>
      </trkpt>
      <trkpt lat="48.626392" lon="10.019381">
        <ele>639.565316</ele>
        <time>2024-09-08T09:54:56.000Z</time>
      </trkpt>
      <trkpt lat="48.626327" lon="10.019553">
        <ele>639.532160</ele>
        <time>2024-09-08T09:54:58.000Z</time>
      </trkpt>
      <trkpt lat="48.626266" lon="10.019720">
        <ele>639.500230</ele>
        <time>2024-09-08T09:55:00.000Z</time>
      </trkpt>
      <trkpt lat="48.626211" lon="10.019871">
        <ele>639.471378</ele>
        <time>2024-09-08T09:55:02.000Z</time>
      </trkpt>
      <trkpt lat="48.626163" lon="10.019999">
        <ele>639.446751</ele>
        <time>2024-09-08T09:55:04.000Z</time>
      </trkpt>
      <trkpt lat="48.626099" lon="10.020167">
        <ele>639.414301</ele>
        <time>2024-09-08T09:55:07.000Z</time>
      </trkpt>
      <trkpt lat="48.626012" lon="10.020279">
        <ele>639.385379</ele>
        <time>2024-09-08T09:55:10.000Z</time>
      </trkpt>
      <trkpt lat="48.625906" lon="10.020338">
        <ele>639.356783</ele>
        <time>2024-09-08T09:55:13.000Z</time>
      </trkpt>
      <trkpt lat="48.625788" lon="10.020260">
        <ele>639.276813</ele>
        <time>2024-09-08T09:55:15.000Z</time>
      </trkpt>
      <trkpt lat="48.625688" lon="10.020170">
        <ele>639.200031</ele>
        <time>2024-09-08T09:55:17.000Z</time>
      </trkpt>
      <trkpt lat="48.625577" lon="10.020097">
        <ele>639.120162</ele>
        <time>2024-09-08T09:55:19.000Z</time>
      </trkpt>
      <trkpt lat="48.625455" lon="10.020039">
        <ele>639.035775</ele>
        <time>2024-09-08T09:55:21.000Z</time>
      </trkpt>
      <trkpt lat="48.625328" lon="10.019940">
        <ele>638.941499</ele>
        <time>2024-09-08T09:55:23.000Z</time>
      </trkpt>
      <trkpt lat="48.625192" lon="10.019852">
        <ele>638.843891</ele>
        <time>2024-09-08T09:55:25.000Z</time>
      </trkpt>
      <trkpt lat="48.625055" lon="10.019754">
        <ele>638.743890</ele>
        <time>2024-09-08T09:55:27.000Z</time>
      </trkpt>
      <trkpt lat="48.624906" lon="10.019662">
        <ele>638.637693</ele>
        <time>2024-09-08T09:55:29.000Z</time>
      </trkpt>
      <trkpt lat="48.624753" lon="10.019566">
        <ele>638.528392</ele>
        <time>2024-09-08T09:55:31.000Z</time>
      </trkpt>
      <trkpt lat="48.624624" lon="10.019459">
        <ele>638.431312</ele>
        <time>2024-09-08T09:55:33.000Z</time>
      </trkpt>
      <trkpt lat="48.624518" lon="10.019561">
        <ele>638.348414</ele>
        <time>2024-09-08T09:55:34.000Z</time>
      </trkpt>
      <trkpt lat="48.624372" lon="10.019661">
        <ele>638.242657</ele>
        <time>2024-09-08T09:55:36.000Z</time>
      </trkpt>
      <trkpt lat="48.624227" lon="10.019726">
        <ele>638.235032</ele>
        <time>2024-09-08T09:55:38.000Z</time>
      </trkpt>
      <trkpt lat="48.624084" lon="10.019790">
        <ele>638.516030</ele>
        <time>2024-09-08T09:55:40.000Z</time>
      </trkpt>
      <trkpt lat="48.623950" lon="10.019852">
        <ele>638.780070</ele>
        <time>2024-09-08T09:55:42.000Z</time>
      </trkpt>
      <trkpt lat="48.623825" lon="10.019910">
        <ele>639.026436</ele>
        <time>2024-09-08T09:55:43.999Z</time>
      </trkpt>
      <trkpt lat="48.623711" lon="10.019985">
        <ele>639.260678</ele>
        <time>2024-09-08T09:55:45.999Z</time>
      </trkpt>
      <trkpt lat="48.623609" lon="10.020010">
        <ele>639.455382</ele>
        <time>2024-09-08T09:55:49.999Z</time>
      </trkpt>
      <trkpt lat="48.623476" lon="10.020068">
        <ele>639.716198</ele>
        <time>2024-09-08T09:55:52.999Z</time>
      </trkpt>
      <trkpt lat="48.623369" lon="10.020107">
        <ele>639.923586</ele>
        <time>2024-09-08T09:55:54.999Z</time>
      </trkpt>
      <trkpt lat="48.623262" lon="10.020170">
        <ele>640.139937</ele>
        <time>2024-09-08T09:55:56.999Z</time>
      </trkpt>
      <trkpt lat="48.623165" lon="10.020285">
        <ele>640.372153</ele>
        <time>2024-09-08T09:55:58.999Z</time>
      </trkpt>
      <trkpt lat="48.623055" lon="10.020373">
        <ele>640.606621</ele>
        <time>2024-09-08T09:56:00.999Z</time>
      </trkpt>
      <trkpt lat="48.622943" lon="10.020469">
        <ele>640.849182</ele>
        <time>2024-09-08T09:56:02.999Z</time>
      </trkpt>
      <trkpt lat="48.622834" lon="10.020564">
        <ele>641.086217</ele>
        <time>2024-09-08T09:56:04.999Z</time>
      </trkpt>
      <trkpt lat="48.622721" lon="10.020676">
        <ele>641.340771</ele>
        <time>2024-09-08T09:56:06.999Z</time>
      </trkpt>
      <trkpt lat="48.622608" lon="10.020781">
        <ele>641.605616</ele>
        <time>2024-09-08T09:56:08.999Z</time>
      </trkpt>
      <trkpt lat="48.622486" lon="10.020882">
        <ele>641.980631</ele>
        <time>2024-09-08T09:56:10.999Z</time>
      </trkpt>
      <trkpt lat="48.622373" lon="10.021007">
        <ele>642.358110</ele>
        <time>2024-09-08T09:56:12.999Z</time>
      </trkpt>
      <trkpt lat="48.622251" lon="10.021123">
        <ele>642.746670</ele>
        <time>2024-09-08T09:56:14.999Z</time>
      </trkpt>
      <trkpt lat="48.622141" lon="10.021223">
        <ele>643.092726</ele>
        <time>2024-09-08T09:56:16.999Z</time>
      </trkpt>
      <trkpt lat="48.622019" lon="10.021327">
        <ele>643.470338</ele>
        <time>2024-09-08T09:56:18.999Z</time>
      </trkpt>
      <trkpt lat="48.621886" lon="10.021413">
        <ele>643.860365</ele>
        <time>2024-09-08T09:56:20.999Z</time>
      </trkpt>
      <trkpt lat="48.621771" lon="10.021541">
        <ele>644.245358</ele>
        <time>2024-09-08T09:56:22.999Z</time>
      </trkpt>
      <trkpt lat="48.621651" lon="10.021645">
        <ele>644.618281</ele>
        <time>2024-09-08T09:56:24.999Z</time>
      </trkpt>
      <trkpt lat="48.621527" lon="10.021742">
        <ele>644.994710</ele>
        <time>2024-09-08T09:56:26.999Z</time>
      </trkpt>
      <trkpt lat="48.621405" lon="10.021782">
        <ele>645.331326</ele>
        <time>2024-09-08T09:56:28.999Z</time>
      </trkpt>
      <trkpt lat="48.621289" lon="10.021829">
        <ele>645.655149</ele>
        <time>2024-09-08T09:56:30.999Z</time>
      </trkpt>
      <trkpt lat="48.621169" lon="10.021881">
        <ele>645.991747</ele>
        <time>2024-09-08T09:56:32.999Z</time>
      </trkpt>
      <trkpt lat="48.621077" lon="10.021929">
        <ele>646.254169</ele>
        <time>2024-09-08T09:56:35.999Z</time>
      </trkpt>
      <trkpt lat="48.620974" lon="10.021938">
        <ele>646.502092</ele>
        <time>2024-09-08T09:56:49.000Z</time>
      </trkpt>
      <trkpt lat="48.620900" lon="10.022085">
        <ele>646.752496</ele>
        <time>2024-09-08T09:56:53.000Z</time>
      </trkpt>
      <trkpt lat="48.620804" lon="10.022208">
        <ele>647.010411</ele>
        <time>2024-09-08T09:56:56.000Z</time>
      </trkpt>
      <trkpt lat="48.620724" lon="10.022314">
        <ele>647.228436</ele>
        <time>2024-09-08T09:56:58.000Z</time>
      </trkpt>
      <trkpt lat="48.620624" lon="10.022411">
        <ele>647.471973</ele>
        <time>2024-09-08T09:57:00.000Z</time>
      </trkpt>
      <trkpt lat="48.620529" lon="10.022521">
        <ele>647.717237</ele>
        <time>2024-09-08T09:57:02.000Z</time>
      </trkpt>
      <trkpt lat="48.620419" lon="10.022623">
        <ele>647.981744</ele>
        <time>2024-09-08T09:57:04.000Z</time>
      </trkpt>
      <trkpt lat="48.620311" lon="10.022726">
        <ele>648.243484</ele>
        <time>2024-09-08T09:57:06.000Z</time>
      </trkpt>
      <trkpt lat="48.620206" lon="10.022839">
        <ele>648.507661</ele>
        <time>2024-09-08T09:57:08.000Z</time>
      </trkpt>
      <trkpt lat="48.620097" lon="10.022945">
        <ele>648.773315</ele>
        <time>2024-09-08T09:57:10.000Z</time>
      </trkpt>
      <trkpt lat="48.619982" lon="10.023037">
        <ele>649.040016</ele>
        <time>2024-09-08T09:57:12.000Z</time>
      </trkpt>
      <trkpt lat="48.619851" lon="10.023158">
        <ele>649.354686</ele>
        <time>2024-09-08T09:57:14.000Z</time>
      </trkpt>
      <trkpt lat="48.619695" lon="10.023268">
        <ele>649.707542</ele>
        <time>2024-09-08T09:57:16.000Z</time>
      </trkpt>
      <trkpt lat="48.619536" lon="10.023383">
        <ele>650.068852</ele>
        <time>2024-09-08T09:57:18.000Z</time>
      </trkpt>
      <trkpt lat="48.619453" lon="10.023441">
        <ele>649.930028</ele>
        <time>2024-09-08T09:57:19.000Z</time>
      </trkpt>
      <trkpt lat="48.619373" lon="10.023513">
        <ele>649.738448</ele>
        <time>2024-09-08T09:57:20.000Z</time>
      </trkpt>
      <trkpt lat="48.619284" lon="10.023568">
        <ele>649.540586</ele>
        <time>2024-09-08T09:57:21.000Z</time>
      </trkpt>
      <trkpt lat="48.619197" lon="10.023630">
        <ele>649.342662</ele>
        <time>2024-09-08T09:57:22.000Z</time>
      </trkpt>
      <trkpt lat="48.619110" lon="10.023693">
        <ele>649.144153</ele>
        <time>2024-09-08T09:57:23.000Z</time>
      </trkpt>
      <trkpt lat="48.619026" lon="10.023758">
        <ele>648.949971</ele>
        <time>2024-09-08T09:57:24.000Z</time>
      </trkpt>
      <trkpt lat="48.618940" lon="10.023816">
        <ele>648.756185</ele>
        <time>2024-09-08T09:57:25.000Z</time>
      </trkpt>
      <trkpt lat="48.618854" lon="10.023882">
        <ele>648.557718</ele>
        <time>2024-09-08T09:57:26.000Z</time>
      </trkpt>
      <trkpt lat="48.618764" lon="10.023938">
        <ele>648.357436</ele>
        <time>2024-09-08T09:57:27.000Z</time>
      </trkpt>
      <trkpt lat="48.618592" lon="10.024012">
        <ele>647.989413</ele>
        <time>2024-09-08T09:57:29.000Z</time>
      </trkpt>
      <trkpt lat="48.618422" lon="10.024107">
        <ele>647.616433</ele>
        <time>2024-09-08T09:57:31.000Z</time>
      </trkpt>
      <trkpt lat="48.618257" lon="10.024170">
        <ele>647.266204</ele>
        <time>2024-09-08T09:57:33.000Z</time>
      </trkpt>
      <trkpt lat="48.618093" lon="10.024223">
        <ele>646.921067</ele>
        <time>2024-09-08T09:57:35.000Z</time>
      </trkpt>
      <trkpt lat="48.617935" lon="10.024278">
        <ele>646.587396</ele>
        <time>2024-09-08T09:57:37.000Z</time>
      </trkpt>
      <trkpt lat="48.617765" lon="10.024321">
        <ele>646.242566</ele>
        <time>2024-09-08T09:57:39.000Z</time>
      </trkpt>
      <trkpt lat="48.617608" lon="10.024401">
        <ele>645.922819</ele>
        <time>2024-09-08T09:57:41.000Z</time>
      </trkpt>
      <trkpt lat="48.617445" lon="10.024455">
        <ele>645.600766</ele>
        <time>2024-09-08T09:57:43.000Z</time>
      </trkpt>
      <trkpt lat="48.617281" lon="10.024510">
        <ele>645.276554</ele>
        <time>2024-09-08T09:57:45.000Z</time>
      </trkpt>
      <trkpt lat="48.617112" lon="10.024570">
        <ele>644.941514</ele>
        <time>2024-09-08T09:57:47.000Z</time>
      </trkpt>
      <trkpt lat="48.616942" lon="10.024630">
        <ele>644.604594</ele>
        <time>2024-09-08T09:57:49.000Z</time>
      </trkpt>
      <trkpt lat="48.616774" lon="10.024693">
        <ele>644.270532</ele>
        <time>2024-09-08T09:57:51.000Z</time>
      </trkpt>
      <trkpt lat="48.616606" lon="10.024746">
        <ele>643.939308</ele>
        <time>2024-09-08T09:57:52.999Z</time>
      </trkpt>
      <trkpt lat="48.616434" lon="10.024791">
        <ele>643.602413</ele>
        <time>2024-09-08T09:57:54.999Z</time>
      </trkpt>
      <trkpt lat="48.616257" lon="10.024824">
        <ele>643.258210</ele>
        <time>2024-09-08T09:57:56.999Z</time>
      </trkpt>
      <trkpt lat="48.616080" lon="10.024841">
        <ele>642.914730</ele>
        <time>2024-09-08T09:57:58.999Z</time>
      </trkpt>
      <trkpt lat="48.615905" lon="10.024849">
        <ele>642.486819</ele>
        <time>2024-09-08T09:58:00.999Z</time>
      </trkpt>
      <trkpt lat="48.615730" lon="10.024854">
        <ele>642.059026</ele>
        <time>2024-09-08T09:58:02.999Z</time>
      </trkpt>
      <trkpt lat="48.615554" lon="10.024880">
        <ele>641.626820</ele>
        <time>2024-09-08T09:58:04.999Z</time>
      </trkpt>
      <trkpt lat="48.615376" lon="10.024896">
        <ele>641.191004</ele>
        <time>2024-09-08T09:58:06.999Z</time>
      </trkpt>
      <trkpt lat="48.615284" lon="10.024905">
        <ele>640.965678</ele>
        <time>2024-09-08T09:58:07.999Z</time>
      </trkpt>
      <trkpt lat="48.615194" lon="10.024917">
        <ele>640.744856</ele>
        <time>2024-09-08T09:58:08.999Z</time>
      </trkpt>
      <trkpt lat="48.615016" lon="10.024939">
        <ele>640.308358</ele>
        <time>2024-09-08T09:58:10.999Z</time>
      </trkpt>
      <trkpt lat="48.614925" lon="10.024948">
        <ele>640.085471</ele>
        <time>2024-09-08T09:58:11.999Z</time>
      </trkpt>
      <trkpt lat="48.614831" lon="10.024958">
        <ele>639.855159</ele>
        <time>2024-09-08T09:58:12.999Z</time>
      </trkpt>
      <trkpt lat="48.614735" lon="10.024967">
        <ele>639.620076</ele>
        <time>2024-09-08T09:58:13.999Z</time>
      </trkpt>
      <trkpt lat="48.614640" lon="10.024980">
        <ele>639.386939</ele>
        <time>2024-09-08T09:58:14.999Z</time>
      </trkpt>
      <trkpt lat="48.614544" lon="10.024992">
        <ele>639.151506</ele>
        <time>2024-09-08T09:58:15.999Z</time>
      </trkpt>
      <trkpt lat="48.614448" lon="10.025001">
        <ele>638.916423</ele>
        <time>2024-09-08T09:58:16.999Z</time>
      </trkpt>
      <trkpt lat="48.614348" lon="10.025013">
        <ele>638.671246</ele>
        <time>2024-09-08T09:58:17.999Z</time>
      </trkpt>
      <trkpt lat="48.614253" lon="10.025020">
        <ele>638.446389</ele>
        <time>2024-09-08T09:58:18.999Z</time>
      </trkpt>
      <trkpt lat="48.614157" lon="10.025034">
        <ele>638.231645</ele>
        <time>2024-09-08T09:58:19.999Z</time>
      </trkpt>
      <trkpt lat="48.614058" lon="10.025042">
        <ele>638.010899</ele>
        <time>2024-09-08T09:58:20.999Z</time>
      </trkpt>
      <trkpt lat="48.613961" lon="10.025054">
        <ele>637.794198</ele>
        <time>2024-09-08T09:58:21.999Z</time>
      </trkpt>
      <trkpt lat="48.613863" lon="10.025067">
        <ele>637.575155</ele>
        <time>2024-09-08T09:58:22.999Z</time>
      </trkpt>
      <trkpt lat="48.613764" lon="10.025078">
        <ele>637.354129</ele>
        <time>2024-09-08T09:58:23.999Z</time>
      </trkpt>
      <trkpt lat="48.613664" lon="10.025089">
        <ele>637.130882</ele>
        <time>2024-09-08T09:58:24.999Z</time>
      </trkpt>
      <trkpt lat="48.613566" lon="10.025102">
        <ele>636.911838</ele>
        <time>2024-09-08T09:58:25.999Z</time>
      </trkpt>
      <trkpt lat="48.613469" lon="10.025112">
        <ele>636.695358</ele>
        <time>2024-09-08T09:58:26.999Z</time>
      </trkpt>
      <trkpt lat="48.613372" lon="10.025131">
        <ele>636.477575</ele>
        <time>2024-09-08T09:58:27.999Z</time>
      </trkpt>
      <trkpt lat="48.613277" lon="10.025156">
        <ele>636.262872</ele>
        <time>2024-09-08T09:58:28.999Z</time>
      </trkpt>
      <trkpt lat="48.613182" lon="10.025180">
        <ele>636.048415</ele>
        <time>2024-09-08T09:58:29.999Z</time>
      </trkpt>
      <trkpt lat="48.613086" lon="10.025207">
        <ele>635.830999</ele>
        <time>2024-09-08T09:58:30.999Z</time>
      </trkpt>
      <trkpt lat="48.612990" lon="10.025230">
        <ele>635.614581</ele>
        <time>2024-09-08T09:58:31.999Z</time>
      </trkpt>
      <trkpt lat="48.612893" lon="10.025262">
        <ele>635.393524</ele>
        <time>2024-09-08T09:58:32.999Z</time>
      </trkpt>
      <trkpt lat="48.612794" lon="10.025293">
        <ele>635.168418</ele>
        <time>2024-09-08T09:58:33.999Z</time>
      </trkpt>
      <trkpt lat="48.612693" lon="10.025327">
        <ele>634.938030</ele>
        <time>2024-09-08T09:58:34.999Z</time>
      </trkpt>
      <trkpt lat="48.612591" lon="10.025358">
        <ele>634.706378</ele>
        <time>2024-09-08T09:58:35.999Z</time>
      </trkpt>
      <trkpt lat="48.612487" lon="10.025392">
        <ele>634.419592</ele>
        <time>2024-09-08T09:58:36.999Z</time>
      </trkpt>
      <trkpt lat="48.612381" lon="10.025425">
        <ele>633.938090</ele>
        <time>2024-09-08T09:58:37.999Z</time>
      </trkpt>
      <trkpt lat="48.612275" lon="10.025460">
        <ele>633.455368</ele>
        <time>2024-09-08T09:58:38.999Z</time>
      </trkpt>
      <trkpt lat="48.612168" lon="10.025489">
        <ele>632.971721</ele>
        <time>2024-09-08T09:58:39.999Z</time>
      </trkpt>
      <trkpt lat="48.612062" lon="10.025522">
        <ele>632.490219</ele>
        <time>2024-09-08T09:58:40.999Z</time>
      </trkpt>
      <trkpt lat="48.611953" lon="10.025557">
        <ele>631.994449</ele>
        <time>2024-09-08T09:58:41.999Z</time>
      </trkpt>
      <trkpt lat="48.611843" lon="10.025592">
        <ele>631.494325</ele>
        <time>2024-09-08T09:58:42.999Z</time>
      </trkpt>
      <trkpt lat="48.611732" lon="10.025626">
        <ele>630.990438</ele>
        <time>2024-09-08T09:58:43.999Z</time>
      </trkpt>
      <trkpt lat="48.611621" lon="10.025665">
        <ele>630.483427</ele>
        <time>2024-09-08T09:58:45.000Z</time>
      </trkpt>
      <trkpt lat="48.611509" lon="10.025710">
        <ele>629.967834</ele>
        <time>2024-09-08T09:58:46.000Z</time>
      </trkpt>
      <trkpt lat="48.611398" lon="10.025764">
        <ele>629.449055</ele>
        <time>2024-09-08T09:58:47.000Z</time>
      </trkpt>
      <trkpt lat="48.611286" lon="10.025821">
        <ele>628.923291</ele>
        <time>2024-09-08T09:58:48.000Z</time>
      </trkpt>
      <trkpt lat="48.611175" lon="10.025890">
        <ele>628.389346</ele>
        <time>2024-09-08T09:58:49.000Z</time>
      </trkpt>
      <trkpt lat="48.611065" lon="10.025977">
        <ele>627.837059</ele>
        <time>2024-09-08T09:58:50.000Z</time>
      </trkpt>
      <trkpt lat="48.610962" lon="10.026084">
        <ele>627.281108</ele>
        <time>2024-09-08T09:58:51.000Z</time>
      </trkpt>
      <trkpt lat="48.610864" lon="10.026204">
        <ele>626.720105</ele>
        <time>2024-09-08T09:58:52.000Z</time>
      </trkpt>
      <trkpt lat="48.610760" lon="10.026311">
        <ele>626.038638</ele>
        <time>2024-09-08T09:58:53.000Z</time>
      </trkpt>
      <trkpt lat="48.610664" lon="10.026448">
        <ele>625.250654</ele>
        <time>2024-09-08T09:58:54.000Z</time>
      </trkpt>
      <trkpt lat="48.610572" lon="10.026596">
        <ele>624.448803</ele>
        <time>2024-09-08T09:58:55.000Z</time>
      </trkpt>
      <trkpt lat="48.610487" lon="10.026746">
        <ele>623.669001</ele>
        <time>2024-09-08T09:58:56.000Z</time>
      </trkpt>
      <trkpt lat="48.610401" lon="10.026905">
        <ele>622.858126</ele>
        <time>2024-09-08T09:58:57.000Z</time>
      </trkpt>
      <trkpt lat="48.610321" lon="10.027065">
        <ele>622.066300</ele>
        <time>2024-09-08T09:58:58.000Z</time>
      </trkpt>
      <trkpt lat="48.610245" lon="10.027229">
        <ele>621.275766</ele>
        <time>2024-09-08T09:58:59.000Z</time>
      </trkpt>
      <trkpt lat="48.610174" lon="10.027398">
        <ele>620.485392</ele>
        <time>2024-09-08T09:59:00.000Z</time>
      </trkpt>
      <trkpt lat="48.610113" lon="10.027578">
        <ele>619.686981</ele>
        <time>2024-09-08T09:59:01.000Z</time>
      </trkpt>
      <trkpt lat="48.610060" lon="10.027768">
        <ele>618.872974</ele>
        <time>2024-09-08T09:59:02.000Z</time>
      </trkpt>
      <trkpt lat="48.610020" lon="10.027967">
        <ele>618.051958</ele>
        <time>2024-09-08T09:59:03.000Z</time>
      </trkpt>
      <trkpt lat="48.609985" lon="10.028163">
        <ele>617.250561</ele>
        <time>2024-09-08T09:59:04.000Z</time>
      </trkpt>
      <trkpt lat="48.609953" lon="10.028358">
        <ele>616.457477</ele>
        <time>2024-09-08T09:59:05.000Z</time>
      </trkpt>
      <trkpt lat="48.609920" lon="10.028563">
        <ele>615.618767</ele>
        <time>2024-09-08T09:59:06.000Z</time>
      </trkpt>
      <trkpt lat="48.609885" lon="10.028766">
        <ele>614.759136</ele>
        <time>2024-09-08T09:59:07.000Z</time>
      </trkpt>
      <trkpt lat="48.609847" lon="10.028961">
        <ele>613.926120</ele>
        <time>2024-09-08T09:59:08.000Z</time>
      </trkpt>
      <trkpt lat="48.609815" lon="10.029164">
        <ele>613.070990</ele>
        <time>2024-09-08T09:59:09.000Z</time>
      </trkpt>
      <trkpt lat="48.609753" lon="10.029349">
        <ele>612.221112</ele>
        <time>2024-09-08T09:59:10.000Z</time>
      </trkpt>
      <trkpt lat="48.609666" lon="10.029515">
        <ele>611.353133</ele>
        <time>2024-09-08T09:59:11.000Z</time>
      </trkpt>
      <trkpt lat="48.609544" lon="10.029625">
        <ele>610.472891</ele>
        <time>2024-09-08T09:59:12.000Z</time>
      </trkpt>
      <trkpt lat="48.609405" lon="10.029674">
        <ele>609.588363</ele>
        <time>2024-09-08T09:59:13.000Z</time>
      </trkpt>
      <trkpt lat="48.609260" lon="10.029644">
        <ele>608.681371</ele>
        <time>2024-09-08T09:59:14.000Z</time>
      </trkpt>
      <trkpt lat="48.609125" lon="10.029551">
        <ele>607.762021</ele>
        <time>2024-09-08T09:59:15.000Z</time>
      </trkpt>
      <trkpt lat="48.609018" lon="10.029391">
        <ele>606.829509</ele>
        <time>2024-09-08T09:59:16.000Z</time>
      </trkpt>
      <trkpt lat="48.608947" lon="10.029193">
        <ele>605.906532</ele>
        <time>2024-09-08T09:59:17.000Z</time>
      </trkpt>
      <trkpt lat="48.608904" lon="10.028980">
        <ele>604.993948</ele>
        <time>2024-09-08T09:59:18.000Z</time>
      </trkpt>
      <trkpt lat="48.608864" lon="10.028766">
        <ele>604.263717</ele>
        <time>2024-09-08T09:59:19.000Z</time>
      </trkpt>
      <trkpt lat="48.608828" lon="10.028553">
        <ele>603.659809</ele>
        <time>2024-09-08T09:59:20.000Z</time>
      </trkpt>
      <trkpt lat="48.608798" lon="10.028340">
        <ele>603.061586</ele>
        <time>2024-09-08T09:59:21.000Z</time>
      </trkpt>
      <trkpt lat="48.608769" lon="10.028131">
        <ele>602.474972</ele>
        <time>2024-09-08T09:59:22.000Z</time>
      </trkpt>
      <trkpt lat="48.608743" lon="10.027916">
        <ele>601.874585</ele>
        <time>2024-09-08T09:59:23.000Z</time>
      </trkpt>
      <trkpt lat="48.608710" lon="10.027694">
        <ele>601.249545</ele>
        <time>2024-09-08T09:59:24.000Z</time>
      </trkpt>
      <trkpt lat="48.608678" lon="10.027474">
        <ele>600.630769</ele>
        <time>2024-09-08T09:59:25.000Z</time>
      </trkpt>
      <trkpt lat="48.608642" lon="10.027258">
        <ele>600.018871</ele>
        <time>2024-09-08T09:59:26.000Z</time>
      </trkpt>
      <trkpt lat="48.608600" lon="10.027052">
        <ele>599.426711</ele>
        <time>2024-09-08T09:59:27.000Z</time>
      </trkpt>
      <trkpt lat="48.608550" lon="10.026851">
        <ele>598.836793</ele>
        <time>2024-09-08T09:59:28.000Z</time>
      </trkpt>
      <trkpt lat="48.608500" lon="10.026655">
        <ele>598.259710</ele>
        <time>2024-09-08T09:59:29.000Z</time>
      </trkpt>
      <trkpt lat="48.608453" lon="10.026457">
        <ele>597.681827</ele>
        <time>2024-09-08T09:59:30.000Z</time>
      </trkpt>
      <trkpt lat="48.608404" lon="10.026266">
        <ele>597.122936</ele>
        <time>2024-09-08T09:59:31.000Z</time>
      </trkpt>
      <trkpt lat="48.608350" lon="10.026076">
        <ele>596.609472</ele>
        <time>2024-09-08T09:59:32.000Z</time>
      </trkpt>
      <trkpt lat="48.608284" lon="10.025897">
        <ele>596.100622</ele>
        <time>2024-09-08T09:59:33.000Z</time>
      </trkpt>
      <trkpt lat="48.608208" lon="10.025727">
        <ele>595.591123</ele>
        <time>2024-09-08T09:59:34.000Z</time>
      </trkpt>
      <trkpt lat="48.608120" lon="10.025565">
        <ele>595.070580</ele>
        <time>2024-09-08T09:59:35.000Z</time>
      </trkpt>
      <trkpt lat="48.608034" lon="10.025408">
        <ele>594.564391</ele>
        <time>2024-09-08T09:59:36.000Z</time>
      </trkpt>
      <trkpt lat="48.607954" lon="10.025244">
        <ele>594.058391</ele>
        <time>2024-09-08T09:59:37.000Z</time>
      </trkpt>
      <trkpt lat="48.607889" lon="10.025063">
        <ele>593.546998</ele>
        <time>2024-09-08T09:59:38.000Z</time>
      </trkpt>
      <trkpt lat="48.607834" lon="10.024874">
        <ele>593.034308</ele>
        <time>2024-09-08T09:59:39.000Z</time>
      </trkpt>
      <trkpt lat="48.607788" lon="10.024681">
        <ele>592.524943</ele>
        <time>2024-09-08T09:59:40.000Z</time>
      </trkpt>
      <trkpt lat="48.607744" lon="10.024487">
        <ele>592.015726</ele>
        <time>2024-09-08T09:59:41.000Z</time>
      </trkpt>
      <trkpt lat="48.607698" lon="10.024294">
        <ele>591.506360</ele>
        <time>2024-09-08T09:59:42.000Z</time>
      </trkpt>
      <trkpt lat="48.607651" lon="10.024098">
        <ele>590.988711</ele>
        <time>2024-09-08T09:59:43.000Z</time>
      </trkpt>
      <trkpt lat="48.607602" lon="10.023904">
        <ele>590.473096</ele>
        <time>2024-09-08T09:59:44.000Z</time>
      </trkpt>
      <trkpt lat="48.607551" lon="10.023710">
        <ele>589.980923</ele>
        <time>2024-09-08T09:59:45.000Z</time>
      </trkpt>
      <trkpt lat="48.607493" lon="10.023523">
        <ele>589.497859</ele>
        <time>2024-09-08T09:59:46.000Z</time>
      </trkpt>
      <trkpt lat="48.607436" lon="10.023343">
        <ele>589.031102</ele>
        <time>2024-09-08T09:59:47.000Z</time>
      </trkpt>
      <trkpt lat="48.607367" lon="10.023171">
        <ele>588.560597</ele>
        <time>2024-09-08T09:59:47.999Z</time>
      </trkpt>
      <trkpt lat="48.607288" lon="10.023009">
        <ele>588.089829</ele>
        <time>2024-09-08T09:59:48.999Z</time>
      </trkpt>
      <trkpt lat="48.607199" lon="10.022863">
        <ele>587.625409</ele>
        <time>2024-09-08T09:59:49.999Z</time>
      </trkpt>
      <trkpt lat="48.607096" lon="10.022732">
        <ele>587.149396</ele>
        <time>2024-09-08T09:59:50.999Z</time>
      </trkpt>
      <trkpt lat="48.606988" lon="10.022617">
        <ele>586.682215</ele>
        <time>2024-09-08T09:59:51.999Z</time>
      </trkpt>
      <trkpt lat="48.606871" lon="10.022512">
        <ele>586.201010</ele>
        <time>2024-09-08T09:59:52.999Z</time>
      </trkpt>
      <trkpt lat="48.606749" lon="10.022421">
        <ele>585.719865</ele>
        <time>2024-09-08T09:59:53.999Z</time>
      </trkpt>
      <trkpt lat="48.606626" lon="10.022343">
        <ele>585.248115</ele>
        <time>2024-09-08T09:59:54.999Z</time>
      </trkpt>
      <trkpt lat="48.606500" lon="10.022275">
        <ele>584.774926</ele>
        <time>2024-09-08T09:59:55.999Z</time>
      </trkpt>
      <trkpt lat="48.606372" lon="10.022213">
        <ele>584.299535</ele>
        <time>2024-09-08T09:59:56.999Z</time>
      </trkpt>
      <trkpt lat="48.606245" lon="10.022158">
        <ele>583.794437</ele>
        <time>2024-09-08T09:59:57.999Z</time>
      </trkpt>
      <trkpt lat="48.606123" lon="10.022104">
        <ele>583.264374</ele>
        <time>2024-09-08T09:59:58.999Z</time>
      </trkpt>
      <trkpt lat="48.605995" lon="10.022063">
        <ele>582.718791</ele>
        <time>2024-09-08T09:59:59.999Z</time>
      </trkpt>
      <trkpt lat="48.605869" lon="10.022026">
        <ele>582.183576</ele>
        <time>2024-09-08T10:00:00.999Z</time>
      </trkpt>
      <trkpt lat="48.605741" lon="10.021999">
        <ele>581.644667</ele>
        <time>2024-09-08T10:00:01.999Z</time>
      </trkpt>
      <trkpt lat="48.605613" lon="10.021989">
        <ele>581.110214</ele>
        <time>2024-09-08T10:00:02.999Z</time>
      </trkpt>
      <trkpt lat="48.605482" lon="10.022013">
        <ele>580.559969</ele>
        <time>2024-09-08T10:00:03.999Z</time>
      </trkpt>
      <trkpt lat="48.605363" lon="10.022080">
        <ele>580.030482</ele>
        <time>2024-09-08T10:00:04.999Z</time>
      </trkpt>
      <trkpt lat="48.605254" lon="10.022183">
        <ele>579.494535</ele>
        <time>2024-09-08T10:00:05.999Z</time>
      </trkpt>
      <trkpt lat="48.605150" lon="10.022308">
        <ele>578.940588</ele>
        <time>2024-09-08T10:00:06.999Z</time>
      </trkpt>
      <trkpt lat="48.605048" lon="10.022449">
        <ele>578.364349</ele>
        <time>2024-09-08T10:00:07.999Z</time>
      </trkpt>
      <trkpt lat="48.604947" lon="10.022581">
        <ele>577.807714</ele>
        <time>2024-09-08T10:00:08.999Z</time>
      </trkpt>
      <trkpt lat="48.604838" lon="10.022703">
        <ele>577.242256</ele>
        <time>2024-09-08T10:00:09.999Z</time>
      </trkpt>
      <trkpt lat="48.604735" lon="10.022834">
        <ele>576.681063</ele>
        <time>2024-09-08T10:00:10.999Z</time>
      </trkpt>
      <trkpt lat="48.604631" lon="10.022963">
        <ele>576.137908</ele>
        <time>2024-09-08T10:00:11.999Z</time>
      </trkpt>
      <trkpt lat="48.604526" lon="10.023094">
        <ele>575.594060</ele>
        <time>2024-09-08T10:00:12.999Z</time>
      </trkpt>
      <trkpt lat="48.604417" lon="10.023224">
        <ele>575.039430</ele>
        <time>2024-09-08T10:00:13.999Z</time>
      </trkpt>
      <trkpt lat="48.604314" lon="10.023353">
        <ele>574.505106</ele>
        <time>2024-09-08T10:00:14.999Z</time>
      </trkpt>
      <trkpt lat="48.604208" lon="10.023479">
        <ele>573.966430</ele>
        <time>2024-09-08T10:00:15.999Z</time>
      </trkpt>
      <trkpt lat="48.604105" lon="10.023606">
        <ele>573.435460</ele>
        <time>2024-09-08T10:00:16.999Z</time>
      </trkpt>
      <trkpt lat="48.603998" lon="10.023736">
        <ele>572.887081</ele>
        <time>2024-09-08T10:00:17.999Z</time>
      </trkpt>
      <trkpt lat="48.603888" lon="10.023857">
        <ele>572.343624</ele>
        <time>2024-09-08T10:00:18.999Z</time>
      </trkpt>
      <trkpt lat="48.603776" lon="10.023972">
        <ele>571.802747</ele>
        <time>2024-09-08T10:00:19.999Z</time>
      </trkpt>
      <trkpt lat="48.603654" lon="10.024067">
        <ele>571.254489</ele>
        <time>2024-09-08T10:00:20.999Z</time>
      </trkpt>
      <trkpt lat="48.603527" lon="10.024127">
        <ele>570.722894</ele>
        <time>2024-09-08T10:00:21.999Z</time>
      </trkpt>
      <trkpt lat="48.603396" lon="10.024144">
        <ele>570.197579</ele>
        <time>2024-09-08T10:00:22.999Z</time>
      </trkpt>
      <trkpt lat="48.603266" lon="10.024130">
        <ele>569.676868</ele>
        <time>2024-09-08T10:00:23.999Z</time>
      </trkpt>
      <trkpt lat="48.603142" lon="10.024076">
        <ele>569.192505</ele>
        <time>2024-09-08T10:00:24.999Z</time>
      </trkpt>
      <trkpt lat="48.603023" lon="10.023992">
        <ele>568.751247</ele>
        <time>2024-09-08T10:00:25.999Z</time>
      </trkpt>
      <trkpt lat="48.602912" lon="10.023899">
        <ele>568.324867</ele>
        <time>2024-09-08T10:00:26.999Z</time>
      </trkpt>
      <trkpt lat="48.602802" lon="10.023795">
        <ele>567.888974</ele>
        <time>2024-09-08T10:00:27.999Z</time>
      </trkpt>
      <trkpt lat="48.602688" lon="10.023692">
        <ele>567.442771</ele>
        <time>2024-09-08T10:00:28.999Z</time>
      </trkpt>
      <trkpt lat="48.602571" lon="10.023592">
        <ele>566.991201</ele>
        <time>2024-09-08T10:00:29.999Z</time>
      </trkpt>
      <trkpt lat="48.602441" lon="10.023501">
        <ele>566.509870</ele>
        <time>2024-09-08T10:00:30.999Z</time>
      </trkpt>
      <trkpt lat="48.602310" lon="10.023415">
        <ele>566.030018</ele>
        <time>2024-09-08T10:00:31.999Z</time>
      </trkpt>
      <trkpt lat="48.602181" lon="10.023337">
        <ele>565.563210</ele>
        <time>2024-09-08T10:00:32.999Z</time>
      </trkpt>
      <trkpt lat="48.602052" lon="10.023258">
        <ele>565.095573</ele>
        <time>2024-09-08T10:00:33.999Z</time>
      </trkpt>
      <trkpt lat="48.601922" lon="10.023188">
        <ele>564.631904</ele>
        <time>2024-09-08T10:00:34.999Z</time>
      </trkpt>
      <trkpt lat="48.601786" lon="10.023123">
        <ele>564.152660</ele>
        <time>2024-09-08T10:00:35.999Z</time>
      </trkpt>
      <trkpt lat="48.601653" lon="10.023061">
        <ele>563.685024</ele>
        <time>2024-09-08T10:00:36.999Z</time>
      </trkpt>
      <trkpt lat="48.601518" lon="10.023007">
        <ele>563.218268</ele>
        <time>2024-09-08T10:00:37.999Z</time>
      </trkpt>
      <trkpt lat="48.601388" lon="10.022959">
        <ele>562.779845</ele>
        <time>2024-09-08T10:00:38.999Z</time>
      </trkpt>
      <trkpt lat="48.601253" lon="10.022929">
        <ele>562.332803</ele>
        <time>2024-09-08T10:00:39.999Z</time>
      </trkpt>
      <trkpt lat="48.601112" lon="10.022897">
        <ele>561.865680</ele>
        <time>2024-09-08T10:00:40.999Z</time>
      </trkpt>
      <trkpt lat="48.600975" lon="10.022870">
        <ele>561.413040</ele>
        <time>2024-09-08T10:00:41.999Z</time>
      </trkpt>
      <trkpt lat="48.600841" lon="10.022853">
        <ele>560.972482</ele>
        <time>2024-09-08T10:00:42.999Z</time>
      </trkpt>
      <trkpt lat="48.600709" lon="10.022851">
        <ele>560.539998</ele>
        <time>2024-09-08T10:00:43.999Z</time>
      </trkpt>
      <trkpt lat="48.600578" lon="10.022851">
        <ele>560.110811</ele>
        <time>2024-09-08T10:00:44.999Z</time>
      </trkpt>
      <trkpt lat="48.600441" lon="10.022868">
        <ele>559.660458</ele>
        <time>2024-09-08T10:00:45.999Z</time>
      </trkpt>
      <trkpt lat="48.600308" lon="10.022890">
        <ele>559.222119</ele>
        <time>2024-09-08T10:00:46.999Z</time>
      </trkpt>
      <trkpt lat="48.600179" lon="10.022915">
        <ele>558.796028</ele>
        <time>2024-09-08T10:00:47.999Z</time>
      </trkpt>
      <trkpt lat="48.600051" lon="10.022955">
        <ele>558.367809</ele>
        <time>2024-09-08T10:00:48.999Z</time>
      </trkpt>
      <trkpt lat="48.599928" lon="10.023000">
        <ele>557.953205</ele>
        <time>2024-09-08T10:00:49.999Z</time>
      </trkpt>
      <trkpt lat="48.599801" lon="10.023049">
        <ele>557.523793</ele>
        <time>2024-09-08T10:00:51.000Z</time>
      </trkpt>
      <trkpt lat="48.599683" lon="10.023110">
        <ele>557.122048</ele>
        <time>2024-09-08T10:00:52.000Z</time>
      </trkpt>
      <trkpt lat="48.599565" lon="10.023175">
        <ele>556.719767</ele>
        <time>2024-09-08T10:00:53.000Z</time>
      </trkpt>
      <trkpt lat="48.599449" lon="10.023251">
        <ele>556.314813</ele>
        <time>2024-09-08T10:00:54.000Z</time>
      </trkpt>
      <trkpt lat="48.599337" lon="10.023337">
        <ele>555.912446</ele>
        <time>2024-09-08T10:00:55.000Z</time>
      </trkpt>
      <trkpt lat="48.599233" lon="10.023425">
        <ele>555.530699</ele>
        <time>2024-09-08T10:00:56.000Z</time>
      </trkpt>
      <trkpt lat="48.599129" lon="10.023514">
        <ele>555.147912</ele>
        <time>2024-09-08T10:00:57.000Z</time>
      </trkpt>
      <trkpt lat="48.599022" lon="10.023610">
        <ele>554.749375</ele>
        <time>2024-09-08T10:00:58.000Z</time>
      </trkpt>
      <trkpt lat="48.598925" lon="10.023716">
        <ele>554.366015</ele>
        <time>2024-09-08T10:00:59.000Z</time>
      </trkpt>
      <trkpt lat="48.598828" lon="10.023824">
        <ele>553.980158</ele>
        <time>2024-09-08T10:01:00.000Z</time>
      </trkpt>
      <trkpt lat="48.598738" lon="10.023936">
        <ele>553.606789</ele>
        <time>2024-09-08T10:01:01.000Z</time>
      </trkpt>
      <trkpt lat="48.598648" lon="10.024052">
        <ele>553.227980</ele>
        <time>2024-09-08T10:01:02.000Z</time>
      </trkpt>
      <trkpt lat="48.598560" lon="10.024174">
        <ele>552.845550</ele>
        <time>2024-09-08T10:01:03.000Z</time>
      </trkpt>
      <trkpt lat="48.598474" lon="10.024296">
        <ele>552.467817</ele>
        <time>2024-09-08T10:01:04.000Z</time>
      </trkpt>
      <trkpt lat="48.598376" lon="10.024402">
        <ele>552.081855</ele>
        <time>2024-09-08T10:01:05.000Z</time>
      </trkpt>
      <trkpt lat="48.598293" lon="10.024529">
        <ele>551.703613</ele>
        <time>2024-09-08T10:01:06.000Z</time>
      </trkpt>
      <trkpt lat="48.598212" lon="10.024658">
        <ele>551.243256</ele>
        <time>2024-09-08T10:01:07.000Z</time>
      </trkpt>
      <trkpt lat="48.598126" lon="10.024792">
        <ele>550.748460</ele>
        <time>2024-09-08T10:01:08.000Z</time>
      </trkpt>
      <trkpt lat="48.598045" lon="10.024924">
        <ele>550.271299</ele>
        <time>2024-09-08T10:01:09.000Z</time>
      </trkpt>
      <trkpt lat="48.597961" lon="10.025063">
        <ele>549.772350</ele>
        <time>2024-09-08T10:01:10.000Z</time>
      </trkpt>
      <trkpt lat="48.597878" lon="10.025201">
        <ele>549.278058</ele>
        <time>2024-09-08T10:01:11.000Z</time>
      </trkpt>
      <trkpt lat="48.597789" lon="10.025334">
        <ele>548.776681</ele>
        <time>2024-09-08T10:01:12.000Z</time>
      </trkpt>
      <trkpt lat="48.597703" lon="10.025475">
        <ele>548.268407</ele>
        <time>2024-09-08T10:01:13.000Z</time>
      </trkpt>
      <trkpt lat="48.597620" lon="10.025617">
        <ele>547.766221</ele>
        <time>2024-09-08T10:01:14.000Z</time>
      </trkpt>
      <trkpt lat="48.597536" lon="10.025752">
        <ele>547.275042</ele>
        <time>2024-09-08T10:01:15.000Z</time>
      </trkpt>
      <trkpt lat="48.597454" lon="10.025886">
        <ele>546.791267</ele>
        <time>2024-09-08T10:01:16.000Z</time>
      </trkpt>
      <trkpt lat="48.597370" lon="10.026022">
        <ele>546.298154</ele>
        <time>2024-09-08T10:01:17.000Z</time>
      </trkpt>
      <trkpt lat="48.597288" lon="10.026157">
        <ele>545.812430</ele>
        <time>2024-09-08T10:01:18.000Z</time>
      </trkpt>
      <trkpt lat="48.597214" lon="10.026301">
        <ele>545.329187</ele>
        <time>2024-09-08T10:01:19.000Z</time>
      </trkpt>
      <trkpt lat="48.597143" lon="10.026445">
        <ele>544.853224</ele>
        <time>2024-09-08T10:01:20.000Z</time>
      </trkpt>
      <trkpt lat="48.597063" lon="10.026577">
        <ele>544.440133</ele>
        <time>2024-09-08T10:01:21.000Z</time>
      </trkpt>
      <trkpt lat="48.597017" lon="10.026743">
        <ele>544.358118</ele>
        <time>2024-09-08T10:01:22.000Z</time>
      </trkpt>
      <trkpt lat="48.596961" lon="10.026900">
        <ele>544.276834</ele>
        <time>2024-09-08T10:01:23.000Z</time>
      </trkpt>
      <trkpt lat="48.596902" lon="10.027053">
        <ele>544.196129</ele>
        <time>2024-09-08T10:01:24.000Z</time>
      </trkpt>
      <trkpt lat="48.596856" lon="10.027215">
        <ele>544.115791</ele>
        <time>2024-09-08T10:01:25.000Z</time>
      </trkpt>
      <trkpt lat="48.596811" lon="10.027371">
        <ele>544.038237</ele>
        <time>2024-09-08T10:01:26.000Z</time>
      </trkpt>
      <trkpt lat="48.596768" lon="10.027531">
        <ele>543.959538</ele>
        <time>2024-09-08T10:01:27.000Z</time>
      </trkpt>
      <trkpt lat="48.596727" lon="10.027691">
        <ele>543.881346</ele>
        <time>2024-09-08T10:01:28.000Z</time>
      </trkpt>
      <trkpt lat="48.596685" lon="10.027852">
        <ele>543.802480</ele>
        <time>2024-09-08T10:01:29.000Z</time>
      </trkpt>
      <trkpt lat="48.596641" lon="10.028007">
        <ele>543.725617</ele>
        <time>2024-09-08T10:01:30.000Z</time>
      </trkpt>
      <trkpt lat="48.596594" lon="10.028160">
        <ele>543.648743</ele>
        <time>2024-09-08T10:01:31.000Z</time>
      </trkpt>
      <trkpt lat="48.596548" lon="10.028314">
        <ele>543.571742</ele>
        <time>2024-09-08T10:01:32.000Z</time>
      </trkpt>
      <trkpt lat="48.596506" lon="10.028463">
        <ele>543.497935</ele>
        <time>2024-09-08T10:01:33.000Z</time>
      </trkpt>
      <trkpt lat="48.596458" lon="10.028609">
        <ele>543.423637</ele>
        <time>2024-09-08T10:01:34.000Z</time>
      </trkpt>
      <trkpt lat="48.596410" lon="10.028756">
        <ele>543.348932</ele>
        <time>2024-09-08T10:01:35.000Z</time>
      </trkpt>
      <trkpt lat="48.596364" lon="10.028897">
        <ele>543.277287</ele>
        <time>2024-09-08T10:01:36.000Z</time>
      </trkpt>
      <trkpt lat="48.596318" lon="10.029040">
        <ele>543.233559</ele>
        <time>2024-09-08T10:01:37.000Z</time>
      </trkpt>
      <trkpt lat="48.596266" lon="10.029176">
        <ele>543.396950</ele>
        <time>2024-09-08T10:01:38.000Z</time>
      </trkpt>
      <trkpt lat="48.596212" lon="10.029304">
        <ele>543.554862</ele>
        <time>2024-09-08T10:01:39.000Z</time>
      </trkpt>
      <trkpt lat="48.596151" lon="10.029426">
        <ele>543.713935</ele>
        <time>2024-09-08T10:01:40.000Z</time>
      </trkpt>
      <trkpt lat="48.596085" lon="10.029551">
        <ele>543.880298</ele>
        <time>2024-09-08T10:01:41.000Z</time>
      </trkpt>
      <trkpt lat="48.596013" lon="10.029664">
        <ele>544.043500</ele>
        <time>2024-09-08T10:01:42.000Z</time>
      </trkpt>
      <trkpt lat="48.595932" lon="10.029766">
        <ele>544.209278</ele>
        <time>2024-09-08T10:01:43.000Z</time>
      </trkpt>
      <trkpt lat="48.595851" lon="10.029854">
        <ele>544.366136</ele>
        <time>2024-09-08T10:01:44.000Z</time>
      </trkpt>
      <trkpt lat="48.595759" lon="10.029931">
        <ele>544.531507</ele>
        <time>2024-09-08T10:01:45.000Z</time>
      </trkpt>
      <trkpt lat="48.595670" lon="10.030002">
        <ele>544.689761</ele>
        <time>2024-09-08T10:01:46.000Z</time>
      </trkpt>
      <trkpt lat="48.595579" lon="10.030068">
        <ele>544.848485</ele>
        <time>2024-09-08T10:01:47.000Z</time>
      </trkpt>
      <trkpt lat="48.595489" lon="10.030130">
        <ele>545.004022</ele>
        <time>2024-09-08T10:01:48.000Z</time>
      </trkpt>
      <trkpt lat="48.595400" lon="10.030192">
        <ele>545.158130</ele>
        <time>2024-09-08T10:01:49.000Z</time>
      </trkpt>
      <trkpt lat="48.595312" lon="10.030258">
        <ele>545.312614</ele>
        <time>2024-09-08T10:01:50.000Z</time>
      </trkpt>
      <trkpt lat="48.595232" lon="10.030326">
        <ele>545.456944</ele>
        <time>2024-09-08T10:01:51.000Z</time>
      </trkpt>
      <trkpt lat="48.595084" lon="10.030470">
        <ele>545.733724</ele>
        <time>2024-09-08T10:01:52.999Z</time>
      </trkpt>
      <trkpt lat="48.594948" lon="10.030643">
        <ele>546.013231</ele>
        <time>2024-09-08T10:01:54.999Z</time>
      </trkpt>
      <trkpt lat="48.594827" lon="10.030813">
        <ele>546.955497</ele>
        <time>2024-09-08T10:01:56.999Z</time>
      </trkpt>
      <trkpt lat="48.594727" lon="10.030990">
        <ele>547.913737</ele>
        <time>2024-09-08T10:01:58.999Z</time>
      </trkpt>
      <trkpt lat="48.594649" lon="10.031156">
        <ele>548.751949</ele>
        <time>2024-09-08T10:02:00.999Z</time>
      </trkpt>
      <trkpt lat="48.594585" lon="10.031306">
        <ele>549.486741</ele>
        <time>2024-09-08T10:02:02.999Z</time>
      </trkpt>
      <trkpt lat="48.594526" lon="10.031440">
        <ele>550.149388</ele>
        <time>2024-09-08T10:02:04.999Z</time>
      </trkpt>
      <trkpt lat="48.594467" lon="10.031574">
        <ele>550.812036</ele>
        <time>2024-09-08T10:02:06.999Z</time>
      </trkpt>
      <trkpt lat="48.594415" lon="10.031698">
        <ele>551.416425</ele>
        <time>2024-09-08T10:02:08.999Z</time>
      </trkpt>
      <trkpt lat="48.594366" lon="10.031818">
        <ele>551.996952</ele>
        <time>2024-09-08T10:02:10.999Z</time>
      </trkpt>
      <trkpt lat="48.594299" lon="10.031991">
        <ele>552.822198</ele>
        <time>2024-09-08T10:02:13.999Z</time>
      </trkpt>
      <trkpt lat="48.594222" lon="10.032143">
        <ele>553.610338</ele>
        <time>2024-09-08T10:02:16.999Z</time>
      </trkpt>
      <trkpt lat="48.594152" lon="10.032284">
        <ele>554.336073</ele>
        <time>2024-09-08T10:02:19.999Z</time>
      </trkpt>
      <trkpt lat="48.594080" lon="10.032392">
        <ele>554.967308</ele>
        <time>2024-09-08T10:02:22.999Z</time>
      </trkpt>
      <trkpt lat="48.594000" lon="10.032513">
        <ele>555.671587</ele>
        <time>2024-09-08T10:02:25.999Z</time>
      </trkpt>
      <trkpt lat="48.593933" lon="10.032634">
        <ele>556.321188</ele>
        <time>2024-09-08T10:02:29.999Z</time>
      </trkpt>
      <trkpt lat="48.593853" lon="10.032724">
        <ele>556.941810</ele>
        <time>2024-09-08T10:02:32.999Z</time>
      </trkpt>
      <trkpt lat="48.593760" lon="10.032848">
        <ele>557.664429</ele>
        <time>2024-09-08T10:02:35.999Z</time>
      </trkpt>
      <trkpt lat="48.593673" lon="10.032943">
        <ele>558.263538</ele>
        <time>2024-09-08T10:02:38.999Z</time>
      </trkpt>
      <trkpt lat="48.593575" lon="10.033042">
        <ele>558.921515</ele>
        <time>2024-09-08T10:02:42.999Z</time>
      </trkpt>
      <trkpt lat="48.593494" lon="10.033104">
        <ele>559.428352</ele>
        <time>2024-09-08T10:02:45.999Z</time>
      </trkpt>
      <trkpt lat="48.593402" lon="10.033197">
        <ele>560.046170</ele>
        <time>2024-09-08T10:02:49.999Z</time>
      </trkpt>
      <trkpt lat="48.593301" lon="10.033277">
        <ele>560.682703</ele>
        <time>2024-09-08T10:02:53.999Z</time>
      </trkpt>
      <trkpt lat="48.593204" lon="10.033366">
        <ele>561.316128</ele>
        <time>2024-09-08T10:02:55.999Z</time>
      </trkpt>
      <trkpt lat="48.593108" lon="10.033445">
        <ele>561.926299</ele>
        <time>2024-09-08T10:02:59.000Z</time>
      </trkpt>
      <trkpt lat="48.593007" lon="10.033532">
        <ele>562.575230</ele>
        <time>2024-09-08T10:03:02.000Z</time>
      </trkpt>
      <trkpt lat="48.592910" lon="10.033618">
        <ele>563.202981</ele>
        <time>2024-09-08T10:03:05.000Z</time>
      </trkpt>
      <trkpt lat="48.592814" lon="10.033691">
        <ele>563.802877</ele>
        <time>2024-09-08T10:03:08.000Z</time>
      </trkpt>
      <trkpt lat="48.592714" lon="10.033771">
        <ele>564.434471</ele>
        <time>2024-09-08T10:03:13.000Z</time>
      </trkpt>
      <trkpt lat="48.592625" lon="10.033852">
        <ele>565.014396</ele>
        <time>2024-09-08T10:03:17.000Z</time>
      </trkpt>
      <trkpt lat="48.592522" lon="10.033935">
        <ele>565.665978</ele>
        <time>2024-09-08T10:03:21.000Z</time>
      </trkpt>
      <trkpt lat="48.592410" lon="10.034000">
        <ele>566.335712</ele>
        <time>2024-09-08T10:03:25.000Z</time>
      </trkpt>
      <trkpt lat="48.592305" lon="10.034064">
        <ele>566.967729</ele>
        <time>2024-09-08T10:03:27.000Z</time>
      </trkpt>
      <trkpt lat="48.592188" lon="10.034143">
        <ele>567.900760</ele>
        <time>2024-09-08T10:03:30.000Z</time>
      </trkpt>
      <trkpt lat="48.592081" lon="10.034192">
        <ele>568.860269</ele>
        <time>2024-09-08T10:03:33.000Z</time>
      </trkpt>
      <trkpt lat="48.591988" lon="10.034239">
        <ele>569.701834</ele>
        <time>2024-09-08T10:03:35.000Z</time>
      </trkpt>
      <trkpt lat="48.591872" lon="10.034268">
        <ele>570.710902</ele>
        <time>2024-09-08T10:03:38.000Z</time>
      </trkpt>
      <trkpt lat="48.591757" lon="10.034298">
        <ele>571.712453</ele>
        <time>2024-09-08T10:03:41.000Z</time>
      </trkpt>
      <trkpt lat="48.591635" lon="10.034329">
        <ele>572.774180</ele>
        <time>2024-09-08T10:03:44.000Z</time>
      </trkpt>
      <trkpt lat="48.591522" lon="10.034354">
        <ele>573.754311</ele>
        <time>2024-09-08T10:03:47.000Z</time>
      </trkpt>
      <trkpt lat="48.591407" lon="10.034372">
        <ele>574.746553</ele>
        <time>2024-09-08T10:03:50.000Z</time>
      </trkpt>
      <trkpt lat="48.591297" lon="10.034394">
        <ele>575.698832</ele>
        <time>2024-09-08T10:03:53.000Z</time>
      </trkpt>
      <trkpt lat="48.591176" lon="10.034432">
        <ele>576.759460</ele>
        <time>2024-09-08T10:03:56.000Z</time>
      </trkpt>
      <trkpt lat="48.591065" lon="10.034448">
        <ele>577.716418</ele>
        <time>2024-09-08T10:03:59.000Z</time>
      </trkpt>
      <trkpt lat="48.590961" lon="10.034456">
        <ele>578.610134</ele>
        <time>2024-09-08T10:04:02.000Z</time>
      </trkpt>
      <trkpt lat="48.590850" lon="10.034473">
        <ele>579.567647</ele>
        <time>2024-09-08T10:04:04.999Z</time>
      </trkpt>
      <trkpt lat="48.590739" lon="10.034503">
        <ele>580.535387</ele>
        <time>2024-09-08T10:04:07.999Z</time>
      </trkpt>
      <trkpt lat="48.590633" lon="10.034516">
        <ele>581.448101</ele>
        <time>2024-09-08T10:04:10.999Z</time>
      </trkpt>
      <trkpt lat="48.590526" lon="10.034541">
        <ele>582.377310</ele>
        <time>2024-09-08T10:04:13.999Z</time>
      </trkpt>
      <trkpt lat="48.590421" lon="10.034561">
        <ele>583.040540</ele>
        <time>2024-09-08T10:04:16.999Z</time>
      </trkpt>
      <trkpt lat="48.590314" lon="10.034575">
        <ele>583.566799</ele>
        <time>2024-09-08T10:04:19.999Z</time>
      </trkpt>
      <trkpt lat="48.590212" lon="10.034588">
        <ele>584.068371</ele>
        <time>2024-09-08T10:04:22.999Z</time>
      </trkpt>
      <trkpt lat="48.590117" lon="10.034603">
        <ele>584.536401</ele>
        <time>2024-09-08T10:04:25.999Z</time>
      </trkpt>
      <trkpt lat="48.590010" lon="10.034622">
        <ele>585.064304</ele>
        <time>2024-09-08T10:04:28.999Z</time>
      </trkpt>
      <trkpt lat="48.589906" lon="10.034646">
        <ele>585.579805</ele>
        <time>2024-09-08T10:04:31.999Z</time>
      </trkpt>
      <trkpt lat="48.589799" lon="10.034674">
        <ele>586.111900</ele>
        <time>2024-09-08T10:04:34.999Z</time>
      </trkpt>
      <trkpt lat="48.589694" lon="10.034708">
        <ele>586.638068</ele>
        <time>2024-09-08T10:04:37.999Z</time>
      </trkpt>
      <trkpt lat="48.589589" lon="10.034761">
        <ele>587.180485</ele>
        <time>2024-09-08T10:04:40.999Z</time>
      </trkpt>
      <trkpt lat="48.589464" lon="10.034832">
        <ele>587.834785</ele>
        <time>2024-09-08T10:04:43.999Z</time>
      </trkpt>
      <trkpt lat="48.589350" lon="10.034908">
        <ele>588.445283</ele>
        <time>2024-09-08T10:04:46.999Z</time>
      </trkpt>
      <trkpt lat="48.589243" lon="10.034980">
        <ele>589.019170</ele>
        <time>2024-09-08T10:04:49.999Z</time>
      </trkpt>
      <trkpt lat="48.589138" lon="10.035069">
        <ele>589.609015</ele>
        <time>2024-09-08T10:04:52.999Z</time>
      </trkpt>
      <trkpt lat="48.589038" lon="10.035145">
        <ele>590.157445</ele>
        <time>2024-09-08T10:04:55.999Z</time>
      </trkpt>
      <trkpt lat="48.588940" lon="10.035240">
        <ele>590.727881</ele>
        <time>2024-09-08T10:04:58.999Z</time>
      </trkpt>
      <trkpt lat="48.588836" lon="10.035344">
        <ele>591.338874</ele>
        <time>2024-09-08T10:05:01.999Z</time>
      </trkpt>
      <trkpt lat="48.588738" lon="10.035458">
        <ele>591.592076</ele>
        <time>2024-09-08T10:05:05.000Z</time>
      </trkpt>
      <trkpt lat="48.588636" lon="10.035598">
        <ele>591.696126</ele>
        <time>2024-09-08T10:05:08.000Z</time>
      </trkpt>
      <trkpt lat="48.588568" lon="10.035711">
        <ele>591.772445</ele>
        <time>2024-09-08T10:05:10.000Z</time>
      </trkpt>
      <trkpt lat="48.588496" lon="10.035836">
        <ele>591.855251</ele>
        <time>2024-09-08T10:05:12.000Z</time>
      </trkpt>
      <trkpt lat="48.588428" lon="10.035960">
        <ele>591.935720</ele>
        <time>2024-09-08T10:05:14.000Z</time>
      </trkpt>
      <trkpt lat="48.588365" lon="10.036084">
        <ele>592.013832</ele>
        <time>2024-09-08T10:05:16.000Z</time>
      </trkpt>
      <trkpt lat="48.588294" lon="10.036220">
        <ele>592.100388</ele>
        <time>2024-09-08T10:05:18.000Z</time>
      </trkpt>
      <trkpt lat="48.588227" lon="10.036355">
        <ele>592.184704</ele>
        <time>2024-09-08T10:05:20.000Z</time>
      </trkpt>
      <trkpt lat="48.588161" lon="10.036489">
        <ele>592.268169</ele>
        <time>2024-09-08T10:05:22.000Z</time>
      </trkpt>
      <trkpt lat="48.588088" lon="10.036616">
        <ele>592.352225</ele>
        <time>2024-09-08T10:05:24.000Z</time>
      </trkpt>
      <trkpt lat="48.588004" lon="10.036748">
        <ele>592.443733</ele>
        <time>2024-09-08T10:05:26.000Z</time>
      </trkpt>
      <trkpt lat="48.587911" lon="10.036854">
        <ele>592.531698</ele>
        <time>2024-09-08T10:05:28.000Z</time>
      </trkpt>
      <trkpt lat="48.587802" lon="10.036932">
        <ele>592.622779</ele>
        <time>2024-09-08T10:05:30.000Z</time>
      </trkpt>
      <trkpt lat="48.587688" lon="10.036979">
        <ele>592.712024</ele>
        <time>2024-09-08T10:05:32.000Z</time>
      </trkpt>
      <trkpt lat="48.587581" lon="10.037012">
        <ele>592.794502</ele>
        <time>2024-09-08T10:05:34.000Z</time>
      </trkpt>
      <trkpt lat="48.587472" lon="10.037035">
        <ele>592.877624</ele>
        <time>2024-09-08T10:05:36.000Z</time>
      </trkpt>
      <trkpt lat="48.587369" lon="10.037078">
        <ele>593.305536</ele>
        <time>2024-09-08T10:05:38.000Z</time>
      </trkpt>
      <trkpt lat="48.587269" lon="10.037142">
        <ele>593.782694</ele>
        <time>2024-09-08T10:05:40.000Z</time>
      </trkpt>
      <trkpt lat="48.587175" lon="10.037226">
        <ele>594.262499</ele>
        <time>2024-09-08T10:05:42.000Z</time>
      </trkpt>
      <trkpt lat="48.587096" lon="10.037335">
        <ele>594.732469</ele>
        <time>2024-09-08T10:05:44.000Z</time>
      </trkpt>
      <trkpt lat="48.587028" lon="10.037451">
        <ele>595.182977</ele>
        <time>2024-09-08T10:05:46.000Z</time>
      </trkpt>
      <trkpt lat="48.586969" lon="10.037595">
        <ele>595.675310</ele>
        <time>2024-09-08T10:05:48.000Z</time>
      </trkpt>
      <trkpt lat="48.586926" lon="10.037744">
        <ele>596.147814</ele>
        <time>2024-09-08T10:05:50.000Z</time>
      </trkpt>
      <trkpt lat="48.586892" lon="10.037910">
        <ele>596.652907</ele>
        <time>2024-09-08T10:05:52.000Z</time>
      </trkpt>
      <trkpt lat="48.586870" lon="10.038087">
        <ele>597.176377</ele>
        <time>2024-09-08T10:05:54.000Z</time>
      </trkpt>
      <trkpt lat="48.586854" lon="10.038246">
        <ele>597.643842</ele>
        <time>2024-09-08T10:05:56.000Z</time>
      </trkpt>
      <trkpt lat="48.586846" lon="10.038418">
        <ele>598.145010</ele>
        <time>2024-09-08T10:05:58.000Z</time>
      </trkpt>
      <trkpt lat="48.586831" lon="10.038598">
        <ele>598.672332</ele>
        <time>2024-09-08T10:06:00.000Z</time>
      </trkpt>
      <trkpt lat="48.586819" lon="10.038769">
        <ele>599.172149</ele>
        <time>2024-09-08T10:06:02.000Z</time>
      </trkpt>
      <trkpt lat="48.586802" lon="10.038945">
        <ele>599.689134</ele>
        <time>2024-09-08T10:06:04.000Z</time>
      </trkpt>
      <trkpt lat="48.586784" lon="10.039119">
        <ele>600.201029</ele>
        <time>2024-09-08T10:06:05.999Z</time>
      </trkpt>
      <trkpt lat="48.586760" lon="10.039304">
        <ele>600.748993</ele>
        <time>2024-09-08T10:06:07.999Z</time>
      </trkpt>
      <trkpt lat="48.586724" lon="10.039484">
        <ele>600.929776</ele>
        <time>2024-09-08T10:06:09.999Z</time>
      </trkpt>
      <trkpt lat="48.586686" lon="10.039661">
        <ele>601.079637</ele>
        <time>2024-09-08T10:06:11.999Z</time>
      </trkpt>
      <trkpt lat="48.586647" lon="10.039840">
        <ele>601.231408</ele>
        <time>2024-09-08T10:06:13.999Z</time>
      </trkpt>
      <trkpt lat="48.586611" lon="10.040010">
        <ele>601.375157</ele>
        <time>2024-09-08T10:06:15.999Z</time>
      </trkpt>
      <trkpt lat="48.586572" lon="10.040172">
        <ele>601.513990</ele>
        <time>2024-09-08T10:06:17.999Z</time>
      </trkpt>
      <trkpt lat="48.586514" lon="10.040335">
        <ele>601.663044</ele>
        <time>2024-09-08T10:06:19.999Z</time>
      </trkpt>
      <trkpt lat="48.586464" lon="10.040516">
        <ele>601.821008</ele>
        <time>2024-09-08T10:06:21.999Z</time>
      </trkpt>
      <trkpt lat="48.586417" lon="10.040684">
        <ele>601.967904</ele>
        <time>2024-09-08T10:06:23.999Z</time>
      </trkpt>
      <trkpt lat="48.586380" lon="10.040862">
        <ele>602.118163</ele>
        <time>2024-09-08T10:06:25.999Z</time>
      </trkpt>
      <trkpt lat="48.586302" lon="10.041015">
        <ele>602.273725</ele>
        <time>2024-09-08T10:06:27.999Z</time>
      </trkpt>
      <trkpt lat="48.586244" lon="10.041173">
        <ele>602.419246</ele>
        <time>2024-09-08T10:06:29.999Z</time>
      </trkpt>
      <trkpt lat="48.586160" lon="10.041308">
        <ele>602.568504</ele>
        <time>2024-09-08T10:06:31.999Z</time>
      </trkpt>
      <trkpt lat="48.586071" lon="10.041426">
        <ele>602.712624</ele>
        <time>2024-09-08T10:06:33.999Z</time>
      </trkpt>
      <trkpt lat="48.585971" lon="10.041534">
        <ele>602.862245</ele>
        <time>2024-09-08T10:06:35.999Z</time>
      </trkpt>
      <trkpt lat="48.585863" lon="10.041632">
        <ele>602.927864</ele>
        <time>2024-09-08T10:06:37.999Z</time>
      </trkpt>
      <trkpt lat="48.585737" lon="10.041703">
        <ele>602.695593</ele>
        <time>2024-09-08T10:06:39.999Z</time>
      </trkpt>
      <trkpt lat="48.585605" lon="10.041764">
        <ele>602.457171</ele>
        <time>2024-09-08T10:06:41.999Z</time>
      </trkpt>
      <trkpt lat="48.585465" lon="10.041793">
        <ele>602.213086</ele>
        <time>2024-09-08T10:06:43.999Z</time>
      </trkpt>
      <trkpt lat="48.585322" lon="10.041802">
        <ele>601.965865</ele>
        <time>2024-09-08T10:06:45.999Z</time>
      </trkpt>
      <trkpt lat="48.585171" lon="10.041776">
        <ele>601.703352</ele>
        <time>2024-09-08T10:06:47.999Z</time>
      </trkpt>
      <trkpt lat="48.585010" lon="10.041724">
        <ele>601.418977</ele>
        <time>2024-09-08T10:06:49.999Z</time>
      </trkpt>
      <trkpt lat="48.584853" lon="10.041634">
        <ele>601.128943</ele>
        <time>2024-09-08T10:06:51.999Z</time>
      </trkpt>
      <trkpt lat="48.584702" lon="10.041516">
        <ele>600.835328</ele>
        <time>2024-09-08T10:06:53.999Z</time>
      </trkpt>
      <trkpt lat="48.584558" lon="10.041372">
        <ele>600.537096</ele>
        <time>2024-09-08T10:06:55.999Z</time>
      </trkpt>
      <trkpt lat="48.584420" lon="10.041213">
        <ele>600.237381</ele>
        <time>2024-09-08T10:06:57.999Z</time>
      </trkpt>
      <trkpt lat="48.584350" lon="10.041121">
        <ele>600.077160</ele>
        <time>2024-09-08T10:06:58.999Z</time>
      </trkpt>
      <trkpt lat="48.584288" lon="10.041022">
        <ele>599.921385</ele>
        <time>2024-09-08T10:06:59.999Z</time>
      </trkpt>
      <trkpt lat="48.584225" lon="10.040925">
        <ele>599.721192</ele>
        <time>2024-09-08T10:07:00.999Z</time>
      </trkpt>
      <trkpt lat="48.584102" lon="10.040725">
        <ele>599.277623</ele>
        <time>2024-09-08T10:07:02.999Z</time>
      </trkpt>
      <trkpt lat="48.584045" lon="10.040612">
        <ele>599.046800</ele>
        <time>2024-09-08T10:07:03.999Z</time>
      </trkpt>
      <trkpt lat="48.583993" lon="10.040496">
        <ele>598.819190</ele>
        <time>2024-09-08T10:07:04.999Z</time>
      </trkpt>
      <trkpt lat="48.583941" lon="10.040377">
        <ele>598.587531</ele>
        <time>2024-09-08T10:07:05.999Z</time>
      </trkpt>
      <trkpt lat="48.583890" lon="10.040263">
        <ele>598.363988</ele>
        <time>2024-09-08T10:07:06.999Z</time>
      </trkpt>
      <trkpt lat="48.583844" lon="10.040140">
        <ele>598.134477</ele>
        <time>2024-09-08T10:07:07.999Z</time>
      </trkpt>
      <trkpt lat="48.583803" lon="10.040013">
        <ele>597.904932</ele>
        <time>2024-09-08T10:07:09.000Z</time>
      </trkpt>
      <trkpt lat="48.583762" lon="10.039882">
        <ele>597.669530</ele>
        <time>2024-09-08T10:07:10.000Z</time>
      </trkpt>
      <trkpt lat="48.583723" lon="10.039747">
        <ele>597.430247</ele>
        <time>2024-09-08T10:07:11.000Z</time>
      </trkpt>
      <trkpt lat="48.583688" lon="10.039609">
        <ele>597.190178</ele>
        <time>2024-09-08T10:07:12.000Z</time>
      </trkpt>
      <trkpt lat="48.583657" lon="10.039463">
        <ele>596.941108</ele>
        <time>2024-09-08T10:07:13.000Z</time>
      </trkpt>
      <trkpt lat="48.583624" lon="10.039318">
        <ele>596.692029</ele>
        <time>2024-09-08T10:07:14.000Z</time>
      </trkpt>
      <trkpt lat="48.583596" lon="10.039174">
        <ele>596.448229</ele>
        <time>2024-09-08T10:07:15.000Z</time>
      </trkpt>
      <trkpt lat="48.583568" lon="10.039025">
        <ele>596.196626</ele>
        <time>2024-09-08T10:07:16.000Z</time>
      </trkpt>
      <trkpt lat="48.583535" lon="10.038881">
        <ele>595.949082</ele>
        <time>2024-09-08T10:07:17.000Z</time>
      </trkpt>
      <trkpt lat="48.583505" lon="10.038732">
        <ele>595.696093</ele>
        <time>2024-09-08T10:07:18.000Z</time>
      </trkpt>
      <trkpt lat="48.583477" lon="10.038583">
        <ele>595.457805</ele>
        <time>2024-09-08T10:07:19.000Z</time>
      </trkpt>
      <trkpt lat="48.583444" lon="10.038439">
        <ele>595.496268</ele>
        <time>2024-09-08T10:07:20.000Z</time>
      </trkpt>
      <trkpt lat="48.583413" lon="10.038293">
        <ele>595.534969</ele>
        <time>2024-09-08T10:07:21.000Z</time>
      </trkpt>
      <trkpt lat="48.583382" lon="10.038148">
        <ele>595.573429</ele>
        <time>2024-09-08T10:07:22.000Z</time>
      </trkpt>
      <trkpt lat="48.583352" lon="10.038006">
        <ele>595.611052</ele>
        <time>2024-09-08T10:07:23.000Z</time>
      </trkpt>
      <trkpt lat="48.583325" lon="10.037862">
        <ele>595.648829</ele>
        <time>2024-09-08T10:07:24.000Z</time>
      </trkpt>
      <trkpt lat="48.583297" lon="10.037725">
        <ele>595.685019</ele>
        <time>2024-09-08T10:07:25.000Z</time>
      </trkpt>
      <trkpt lat="48.583264" lon="10.037591">
        <ele>595.721107</ele>
        <time>2024-09-08T10:07:26.000Z</time>
      </trkpt>
      <trkpt lat="48.583230" lon="10.037457">
        <ele>595.757330</ele>
        <time>2024-09-08T10:07:27.000Z</time>
      </trkpt>
      <trkpt lat="48.583199" lon="10.037321">
        <ele>595.793636</ele>
        <time>2024-09-08T10:07:28.000Z</time>
      </trkpt>
      <trkpt lat="48.583167" lon="10.037189">
        <ele>595.829118</ele>
        <time>2024-09-08T10:07:29.000Z</time>
      </trkpt>
      <trkpt lat="48.583132" lon="10.037056">
        <ele>595.865245</ele>
        <time>2024-09-08T10:07:30.000Z</time>
      </trkpt>
      <trkpt lat="48.583097" lon="10.036924">
        <ele>595.901138</ele>
        <time>2024-09-08T10:07:31.000Z</time>
      </trkpt>
      <trkpt lat="48.583062" lon="10.036795">
        <ele>595.936328</ele>
        <time>2024-09-08T10:07:32.000Z</time>
      </trkpt>
      <trkpt lat="48.583028" lon="10.036665">
        <ele>595.971611</ele>
        <time>2024-09-08T10:07:33.000Z</time>
      </trkpt>
      <trkpt lat="48.582996" lon="10.036538">
        <ele>596.005911</ele>
        <time>2024-09-08T10:07:34.000Z</time>
      </trkpt>
      <trkpt lat="48.582965" lon="10.036408">
        <ele>596.040789</ele>
        <time>2024-09-08T10:07:35.000Z</time>
      </trkpt>
      <trkpt lat="48.582932" lon="10.036280">
        <ele>596.075462</ele>
        <time>2024-09-08T10:07:36.000Z</time>
      </trkpt>
      <trkpt lat="48.582872" lon="10.036026">
        <ele>596.150246</ele>
        <time>2024-09-08T10:07:38.000Z</time>
      </trkpt>
      <trkpt lat="48.582843" lon="10.035896">
        <ele>596.365291</ele>
        <time>2024-09-08T10:07:39.000Z</time>
      </trkpt>
      <trkpt lat="48.582796" lon="10.035641">
        <ele>596.780221</ele>
        <time>2024-09-08T10:07:41.000Z</time>
      </trkpt>
      <trkpt lat="48.582752" lon="10.035388">
        <ele>597.190268</ele>
        <time>2024-09-08T10:07:43.000Z</time>
      </trkpt>
      <trkpt lat="48.582706" lon="10.035147">
        <ele>597.583440</ele>
        <time>2024-09-08T10:07:45.000Z</time>
      </trkpt>
      <trkpt lat="48.582668" lon="10.034910">
        <ele>597.965689</ele>
        <time>2024-09-08T10:07:47.000Z</time>
      </trkpt>
      <trkpt lat="48.582628" lon="10.034668">
        <ele>598.356680</ele>
        <time>2024-09-08T10:07:49.000Z</time>
      </trkpt>
      <trkpt lat="48.582593" lon="10.034427">
        <ele>598.743439</ele>
        <time>2024-09-08T10:07:51.000Z</time>
      </trkpt>
      <trkpt lat="48.582557" lon="10.034191">
        <ele>599.123073</ele>
        <time>2024-09-08T10:07:53.000Z</time>
      </trkpt>
      <trkpt lat="48.582519" lon="10.033954">
        <ele>599.505322</ele>
        <time>2024-09-08T10:07:55.000Z</time>
      </trkpt>
      <trkpt lat="48.582481" lon="10.033714">
        <ele>599.892144</ele>
        <time>2024-09-08T10:07:57.000Z</time>
      </trkpt>
      <trkpt lat="48.582445" lon="10.033475">
        <ele>600.276361</ele>
        <time>2024-09-08T10:07:59.000Z</time>
      </trkpt>
      <trkpt lat="48.582407" lon="10.033242">
        <ele>600.676678</ele>
        <time>2024-09-08T10:08:01.000Z</time>
      </trkpt>
      <trkpt lat="48.582370" lon="10.033014">
        <ele>601.080435</ele>
        <time>2024-09-08T10:08:03.000Z</time>
      </trkpt>
      <trkpt lat="48.582341" lon="10.032790">
        <ele>601.472996</ele>
        <time>2024-09-08T10:08:05.000Z</time>
      </trkpt>
      <trkpt lat="48.582312" lon="10.032566">
        <ele>601.865556</ele>
        <time>2024-09-08T10:08:07.000Z</time>
      </trkpt>
      <trkpt lat="48.582274" lon="10.032346">
        <ele>602.256614</ele>
        <time>2024-09-08T10:08:09.000Z</time>
      </trkpt>
      <trkpt lat="48.582242" lon="10.032129">
        <ele>602.638987</ele>
        <time>2024-09-08T10:08:11.000Z</time>
      </trkpt>
      <trkpt lat="48.582220" lon="10.031910">
        <ele>603.019959</ele>
        <time>2024-09-08T10:08:13.000Z</time>
      </trkpt>
      <trkpt lat="48.582190" lon="10.031688">
        <ele>603.409657</ele>
        <time>2024-09-08T10:08:15.000Z</time>
      </trkpt>
      <trkpt lat="48.582163" lon="10.031475">
        <ele>603.782657</ele>
        <time>2024-09-08T10:08:16.999Z</time>
      </trkpt>
      <trkpt lat="48.582135" lon="10.031272">
        <ele>604.139301</ele>
        <time>2024-09-08T10:08:18.999Z</time>
      </trkpt>
      <trkpt lat="48.582107" lon="10.031077">
        <ele>604.482487</ele>
        <time>2024-09-08T10:08:20.999Z</time>
      </trkpt>
      <trkpt lat="48.582094" lon="10.030870">
        <ele>604.840104</ele>
        <time>2024-09-08T10:08:22.999Z</time>
      </trkpt>
      <trkpt lat="48.582106" lon="10.030661">
        <ele>605.099381</ele>
        <time>2024-09-08T10:08:24.999Z</time>
      </trkpt>
      <trkpt lat="48.582103" lon="10.030462">
        <ele>605.153923</ele>
        <time>2024-09-08T10:08:26.999Z</time>
      </trkpt>
      <trkpt lat="48.582095" lon="10.030269">
        <ele>605.206911</ele>
        <time>2024-09-08T10:08:28.999Z</time>
      </trkpt>
      <trkpt lat="48.582086" lon="10.030080">
        <ele>605.258833</ele>
        <time>2024-09-08T10:08:30.999Z</time>
      </trkpt>
      <trkpt lat="48.582085" lon="10.029892">
        <ele>605.310348</ele>
        <time>2024-09-08T10:08:32.999Z</time>
      </trkpt>
      <trkpt lat="48.582081" lon="10.029707">
        <ele>605.361067</ele>
        <time>2024-09-08T10:08:34.999Z</time>
      </trkpt>
      <trkpt lat="48.582069" lon="10.029530">
        <ele>605.409821</ele>
        <time>2024-09-08T10:08:36.999Z</time>
      </trkpt>
      <trkpt lat="48.582058" lon="10.029350">
        <ele>605.459353</ele>
        <time>2024-09-08T10:08:38.999Z</time>
      </trkpt>
      <trkpt lat="48.582050" lon="10.029173">
        <ele>605.507966</ele>
        <time>2024-09-08T10:08:40.999Z</time>
      </trkpt>
      <trkpt lat="48.582035" lon="10.029000">
        <ele>605.555776</ele>
        <time>2024-09-08T10:08:42.999Z</time>
      </trkpt>
      <trkpt lat="48.582004" lon="10.028825">
        <ele>605.605417</ele>
        <time>2024-09-08T10:08:44.999Z</time>
      </trkpt>
      <trkpt lat="48.581978" lon="10.028640">
        <ele>605.657240</ele>
        <time>2024-09-08T10:08:46.999Z</time>
      </trkpt>
      <trkpt lat="48.581949" lon="10.028447">
        <ele>605.711471</ele>
        <time>2024-09-08T10:08:48.999Z</time>
      </trkpt>
      <trkpt lat="48.581921" lon="10.028246">
        <ele>605.767756</ele>
        <time>2024-09-08T10:08:50.999Z</time>
      </trkpt>
      <trkpt lat="48.581905" lon="10.028027">
        <ele>605.786987</ele>
        <time>2024-09-08T10:08:52.999Z</time>
      </trkpt>
      <trkpt lat="48.581901" lon="10.027796">
        <ele>604.980925</ele>
        <time>2024-09-08T10:08:54.999Z</time>
      </trkpt>
      <trkpt lat="48.581901" lon="10.027574">
        <ele>604.206532</ele>
        <time>2024-09-08T10:08:56.999Z</time>
      </trkpt>
      <trkpt lat="48.581903" lon="10.027364">
        <ele>603.473923</ele>
        <time>2024-09-08T10:08:58.999Z</time>
      </trkpt>
      <trkpt lat="48.581909" lon="10.027155">
        <ele>602.744192</ele>
        <time>2024-09-08T10:09:00.999Z</time>
      </trkpt>
      <trkpt lat="48.581912" lon="10.026940">
        <ele>601.994051</ele>
        <time>2024-09-08T10:09:02.999Z</time>
      </trkpt>
      <trkpt lat="48.581914" lon="10.026748">
        <ele>601.324223</ele>
        <time>2024-09-08T10:09:04.999Z</time>
      </trkpt>
      <trkpt lat="48.581743" lon="10.026633">
        <ele>600.337354</ele>
        <time>2024-09-08T10:09:08.999Z</time>
      </trkpt>
      <trkpt lat="48.581625" lon="10.026616">
        <ele>599.712337</ele>
        <time>2024-09-08T10:09:10.999Z</time>
      </trkpt>
      <trkpt lat="48.581489" lon="10.026592">
        <ele>598.990358</ele>
        <time>2024-09-08T10:09:12.999Z</time>
      </trkpt>
      <trkpt lat="48.581341" lon="10.026581">
        <ele>598.209032</ele>
        <time>2024-09-08T10:09:15.000Z</time>
      </trkpt>
      <trkpt lat="48.581177" lon="10.026549">
        <ele>597.337108</ele>
        <time>2024-09-08T10:09:17.000Z</time>
      </trkpt>
      <trkpt lat="48.581031" lon="10.026499">
        <ele>596.547760</ele>
        <time>2024-09-08T10:09:19.000Z</time>
      </trkpt>
      <trkpt lat="48.580935" lon="10.026439">
        <ele>596.341139</ele>
        <time>2024-09-08T10:09:21.000Z</time>
      </trkpt>
      <trkpt lat="48.580856" lon="10.026336">
        <ele>596.341139</ele>
        <time>2024-09-08T10:09:25.000Z</time>
      </trkpt>
      <trkpt lat="48.580762" lon="10.026363">
        <ele>596.341139</ele>
        <time>2024-09-08T10:09:29.000Z</time>
      </trkpt>
      <trkpt lat="48.580841" lon="10.026282">
        <ele>596.341139</ele>
        <time>2024-09-08T10:09:30.000Z</time>
      </trkpt>
      <trkpt lat="48.580650" lon="10.026270">
        <ele>596.341139</ele>
        <time>2024-09-08T10:09:33.000Z</time>
      </trkpt>
      <trkpt lat="48.580616" lon="10.026108">
        <ele>596.341139</ele>
        <time>2024-09-08T10:09:38.000Z</time>
      </trkpt>
      <trkpt lat="48.580580" lon="10.025941">
        <ele>596.341139</ele>
        <time>2024-09-08T10:09:41.000Z</time>
      </trkpt>
      <trkpt lat="48.580523" lon="10.025788">
        <ele>596.341139</ele>
        <time>2024-09-08T10:09:44.000Z</time>
      </trkpt>
      <trkpt lat="48.580448" lon="10.025696">
        <ele>596.341139</ele>
        <time>2024-09-08T10:09:48.000Z</time>
      </trkpt>
      <trkpt lat="48.580346" lon="10.025706">
        <ele>596.341139</ele>
        <time>2024-09-08T10:09:51.000Z</time>
      </trkpt>
      <trkpt lat="48.580257" lon="10.025737">
        <ele>596.341139</ele>
        <time>2024-09-08T10:09:55.000Z</time>
      </trkpt>
      <trkpt lat="48.580168" lon="10.025791">
        <ele>596.341139</ele>
        <time>2024-09-08T10:09:59.000Z</time>
      </trkpt>
    </trkseg>
  </trk>
</gpx>